<?xml version='1.0' encoding='UTF-8'?><gpx version="1.1" creator="JPX - https://github.com/jenetics/jpx" xmlns="http://www.topografix.com/GPX/1/1"><trk><trkseg><trkpt lat="47.24665452264924" lon="-1.5686239767834251"><ele>28.166666666666668</ele><time>2026-04-16T16:46:41.781Z</time></trkpt><trkpt lat="47.24660066892136" lon="-1.568701174111635"><ele>28.333333333333336</ele><time>2026-04-16T16:46:43.783Z</time></trkpt><trkpt lat="47.24654987458814" lon="-1.5688266512021132"><ele>28.5</ele><time>2026-04-16T16:46:46.998Z</time></trkpt><trkpt lat="47.24661009856243" lon="-1.5687817242011137"><ele>28.666666666666664</ele><time>2026-04-16T16:46:56.999Z</time></trkpt><trkpt lat="47.24667459730733" lon="-1.5687936265036173"><ele>28.833333333333332</ele><time>2026-04-16T16:46:59.999Z</time></trkpt><trkpt lat="47.2467376711287" lon="-1.568830842153699"><ele>29.0</ele><time>2026-04-16T16:47:01.999Z</time></trkpt><trkpt lat="47.24681830503721" lon="-1.5688651241376705"><ele>28.999999999999996</ele><time>2026-04-16T16:47:04.999Z</time></trkpt><trkpt lat="47.24692203108896" lon="-1.568857328967721"><ele>29.0</ele><time>2026-04-16T16:47:08Z</time></trkpt><trkpt lat="47.24695350513537" lon="-1.5687403175994463"><ele>29.0</ele><time>2026-04-16T16:47:11Z</time></trkpt><trkpt lat="47.24699834831734" lon="-1.5685983281597202"><ele>29.0</ele><time>2026-04-16T16:47:13Z</time></trkpt><trkpt lat="47.247021272822515" lon="-1.5684842504575554"><ele>28.999999999999996</ele><time>2026-04-16T16:47:15Z</time></trkpt><trkpt lat="47.247027559249894" lon="-1.5683859307333532"><ele>29.0</ele><time>2026-04-16T16:47:17Z</time></trkpt><trkpt lat="47.24704390396108" lon="-1.5682558435961307"><ele>28.833333333333332</ele><time>2026-04-16T16:47:20Z</time></trkpt><trkpt lat="47.24706758283754" lon="-1.5681206434979738"><ele>28.666666666666664</ele><time>2026-04-16T16:47:22Z</time></trkpt><trkpt lat="47.24710194864054" lon="-1.5679787378772794"><ele>28.5</ele><time>2026-04-16T16:47:24Z</time></trkpt><trkpt lat="47.24714272659947" lon="-1.5678511653110085"><ele>28.333333333333336</ele><time>2026-04-16T16:47:26Z</time></trkpt><trkpt lat="47.24718560003419" lon="-1.5677680168315467"><ele>28.166666666666668</ele><time>2026-04-16T16:47:28Z</time></trkpt><trkpt lat="47.24723128140648" lon="-1.56766751781252"><ele>28.0</ele><time>2026-04-16T16:47:32Z</time></trkpt><trkpt lat="47.24726795223285" lon="-1.5675415378078514"><ele>28.0</ele><time>2026-04-16T16:47:37Z</time></trkpt><trkpt lat="47.24734414373268" lon="-1.5675183199360663"><ele>27.999999999999996</ele><time>2026-04-16T16:47:39Z</time></trkpt><trkpt lat="47.247424945279256" lon="-1.5675684437170323"><ele>27.999999999999996</ele><time>2026-04-16T16:47:41Z</time></trkpt><trkpt lat="47.247519241689936" lon="-1.5676308050766286"><ele>28.0</ele><time>2026-04-16T16:47:43Z</time></trkpt><trkpt lat="47.2476013424315" lon="-1.5677233412876423"><ele>28.0</ele><time>2026-04-16T16:47:45Z</time></trkpt><trkpt lat="47.247696309394435" lon="-1.5678070765003262"><ele>28.5</ele><time>2026-04-16T16:47:47Z</time></trkpt><trkpt lat="47.2477897676148" lon="-1.5678831841811238"><ele>29.0</ele><time>2026-04-16T16:47:49Z</time></trkpt><trkpt lat="47.24789303266187" lon="-1.5679285302772819"><ele>29.5</ele><time>2026-04-16T16:47:51Z</time></trkpt><trkpt lat="47.24801406734367" lon="-1.5679808333530723"><ele>30.0</ele><time>2026-04-16T16:47:53Z</time></trkpt><trkpt lat="47.24812554665585" lon="-1.5680328849717677"><ele>30.4</ele><time>2026-04-16T16:47:55Z</time></trkpt><trkpt lat="47.24824570123781" lon="-1.5680815000101627"><ele>30.8</ele><time>2026-04-16T16:47:57Z</time></trkpt><trkpt lat="47.24834096156736" lon="-1.5681296121343673"><ele>31.200000000000003</ele><time>2026-04-16T16:47:59Z</time></trkpt><trkpt lat="47.24843739536335" lon="-1.5681763831540645"><ele>31.6</ele><time>2026-04-16T16:48:01Z</time></trkpt><trkpt lat="47.24853114695032" lon="-1.5681985113784374"><ele>32.0</ele><time>2026-04-16T16:48:03Z</time></trkpt><trkpt lat="47.24864094988187" lon="-1.5682198852315248"><ele>32.0</ele><time>2026-04-16T16:48:05Z</time></trkpt><trkpt lat="47.24875879944046" lon="-1.5682503115400375"><ele>32.0</ele><time>2026-04-16T16:48:07Z</time></trkpt><trkpt lat="47.24886009474029" lon="-1.5682798996582332"><ele>32.0</ele><time>2026-04-16T16:48:09Z</time></trkpt><trkpt lat="47.248957953459815" lon="-1.5683089848622385"><ele>32.0</ele><time>2026-04-16T16:48:11Z</time></trkpt><trkpt lat="47.24902936727484" lon="-1.5683462843313518"><ele>32.0</ele><time>2026-04-16T16:48:13Z</time></trkpt><trkpt lat="47.24912060429086" lon="-1.568390708418161"><ele>32.800000000000004</ele><time>2026-04-16T16:48:15Z</time></trkpt><trkpt lat="47.24920974583109" lon="-1.5684050414725843"><ele>33.6</ele><time>2026-04-16T16:48:17Z</time></trkpt><trkpt lat="47.24930534143676" lon="-1.5684353001430336"><ele>34.400000000000006</ele><time>2026-04-16T16:48:19Z</time></trkpt><trkpt lat="47.24947490733792" lon="-1.5685313567533796"><ele>35.2</ele><time>2026-04-16T16:48:23Z</time></trkpt><trkpt lat="47.249544980048434" lon="-1.5685666445657318"><ele>36.0</ele><time>2026-04-16T16:48:25Z</time></trkpt><trkpt lat="47.24963164892723" lon="-1.5685917902752464"><ele>36.0</ele><time>2026-04-16T16:48:27Z</time></trkpt><trkpt lat="47.249727076894835" lon="-1.5686132479473656"><ele>36.0</ele><time>2026-04-16T16:48:29Z</time></trkpt><trkpt lat="47.249835245355264" lon="-1.5686144214138096"><ele>36.0</ele><time>2026-04-16T16:48:31Z</time></trkpt><trkpt lat="47.24992681764741" lon="-1.5686006750926083"><ele>36.0</ele><time>2026-04-16T16:48:33Z</time></trkpt><trkpt lat="47.250011977783636" lon="-1.5686224680408543"><ele>36.0</ele><time>2026-04-16T16:48:35Z</time></trkpt><trkpt lat="47.25011545237829" lon="-1.5685825701817577"><ele>36.5</ele><time>2026-04-16T16:48:37Z</time></trkpt><trkpt lat="47.250302159271435" lon="-1.5685672312989538"><ele>37.0</ele><time>2026-04-16T16:48:42Z</time></trkpt><trkpt lat="47.250389372973935" lon="-1.5685352124288385"><ele>37.5</ele><time>2026-04-16T16:48:44Z</time></trkpt><trkpt lat="47.250473443462745" lon="-1.5684650558992925"><ele>38.0</ele><time>2026-04-16T16:48:46Z</time></trkpt><trkpt lat="47.25055688530882" lon="-1.5684327017530504"><ele>37.83333333333333</ele><time>2026-04-16T16:48:48Z</time></trkpt><trkpt lat="47.250635842836694" lon="-1.568368580193788"><ele>37.666666666666664</ele><time>2026-04-16T16:48:49Z</time></trkpt><trkpt lat="47.25069807846774" lon="-1.5683310292675796"><ele>37.5</ele><time>2026-04-16T16:48:51Z</time></trkpt><trkpt lat="47.25076567851682" lon="-1.5682701766505542"><ele>37.333333333333336</ele><time>2026-04-16T16:48:52Z</time></trkpt><trkpt lat="47.250853562771574" lon="-1.5681932307794393"><ele>37.16666666666667</ele><time>2026-04-16T16:48:54Z</time></trkpt><trkpt lat="47.25093340039928" lon="-1.5681239124402107"><ele>37.0</ele><time>2026-04-16T16:48:56Z</time></trkpt><trkpt lat="47.25098888859828" lon="-1.5680737886592448"><ele>37.0</ele><time>2026-04-16T16:48:57Z</time></trkpt><trkpt lat="47.25108146671881" lon="-1.5679898019894658"><ele>37.0</ele><time>2026-04-16T16:48:59Z</time></trkpt><trkpt lat="47.25113565572281" lon="-1.567921740935713"><ele>37.0</ele><time>2026-04-16T16:49:00Z</time></trkpt><trkpt lat="47.25121335596521" lon="-1.5678148716702758"><ele>37.0</ele><time>2026-04-16T16:49:02Z</time></trkpt><trkpt lat="47.25126121663232" lon="-1.5677460562452372"><ele>37.0</ele><time>2026-04-16T16:49:03Z</time></trkpt><trkpt lat="47.25135827907105" lon="-1.567600043491989"><ele>36.66666666666667</ele><time>2026-04-16T16:49:05Z</time></trkpt><trkpt lat="47.25139612336387" lon="-1.5675225947066838"><ele>36.333333333333336</ele><time>2026-04-16T16:49:06Z</time></trkpt><trkpt lat="47.25145366512914" lon="-1.5674130432322317"><ele>36.0</ele><time>2026-04-16T16:49:07Z</time></trkpt><trkpt lat="47.2514921380647" lon="-1.5673138014986807"><ele>35.666666666666664</ele><time>2026-04-16T16:49:08Z</time></trkpt><trkpt lat="47.25153157491912" lon="-1.5672225225731424"><ele>35.33333333333333</ele><time>2026-04-16T16:49:09Z</time></trkpt><trkpt lat="47.25155982193281" lon="-1.5670996438726477"><ele>35.0</ele><time>2026-04-16T16:49:10Z</time></trkpt><trkpt lat="47.25160667677154" lon="-1.566983722151785"><ele>35.0</ele><time>2026-04-16T16:49:11Z</time></trkpt><trkpt lat="47.25164967593481" lon="-1.566886827351122"><ele>35.0</ele><time>2026-04-16T16:49:12Z</time></trkpt><trkpt lat="47.25163739644666" lon="-1.5667957160636472"><ele>35.0</ele><time>2026-04-16T16:49:13Z</time></trkpt><trkpt lat="47.25165227432479" lon="-1.5666792914285945"><ele>35.0</ele><time>2026-04-16T16:49:14Z</time></trkpt><trkpt lat="47.25168119189073" lon="-1.5665476117297694"><ele>35.0</ele><time>2026-04-16T16:49:15Z</time></trkpt><trkpt lat="47.25167473782529" lon="-1.5664179436877057"><ele>35.0</ele><time>2026-04-16T16:49:16Z</time></trkpt><trkpt lat="47.25168039560993" lon="-1.5663001779481454"><ele>34.666666666666664</ele><time>2026-04-16T16:49:17Z</time></trkpt><trkpt lat="47.2517009312727" lon="-1.566194565968184"><ele>34.33333333333333</ele><time>2026-04-16T16:49:18Z</time></trkpt><trkpt lat="47.25172674753447" lon="-1.5660856012269537"><ele>34.0</ele><time>2026-04-16T16:49:19Z</time></trkpt><trkpt lat="47.25175746720959" lon="-1.5659768879428189"><ele>33.666666666666664</ele><time>2026-04-16T16:49:20Z</time></trkpt><trkpt lat="47.25177653603931" lon="-1.5658794902279656"><ele>33.333333333333336</ele><time>2026-04-16T16:49:21Z</time></trkpt><trkpt lat="47.25175629374315" lon="-1.5657680947348156"><ele>33.0</ele><time>2026-04-16T16:49:22Z</time></trkpt><trkpt lat="47.25177695513447" lon="-1.565649909900097"><ele>33.0</ele><time>2026-04-16T16:49:23Z</time></trkpt><trkpt lat="47.25178843834181" lon="-1.5655321441605365"><ele>33.0</ele><time>2026-04-16T16:49:24Z</time></trkpt><trkpt lat="47.25178701341827" lon="-1.5653744805618797"><ele>33.0</ele><time>2026-04-16T16:49:26Z</time></trkpt><trkpt lat="47.25180088546802" lon="-1.5652554575368438"><ele>33.0</ele><time>2026-04-16T16:49:27Z</time></trkpt><trkpt lat="47.25181806836952" lon="-1.5651533659562142"><ele>33.0</ele><time>2026-04-16T16:49:28Z</time></trkpt><trkpt lat="47.25182146304031" lon="-1.565039455892113"><ele>33.0</ele><time>2026-04-16T16:49:29Z</time></trkpt><trkpt lat="47.25181002174248" lon="-1.5649180021151572"><ele>32.666666666666664</ele><time>2026-04-16T16:49:30Z</time></trkpt><trkpt lat="47.251788396432296" lon="-1.5648055169745951"><ele>32.333333333333336</ele><time>2026-04-16T16:49:31Z</time></trkpt><trkpt lat="47.25180122074415" lon="-1.564711304382947"><ele>32.0</ele><time>2026-04-16T16:49:32Z</time></trkpt><trkpt lat="47.251819074197904" lon="-1.564586078749564"><ele>31.666666666666668</ele><time>2026-04-16T16:49:33Z</time></trkpt><trkpt lat="47.251843549355165" lon="-1.5644715819522408"><ele>31.333333333333336</ele><time>2026-04-16T16:49:34Z</time></trkpt><trkpt lat="47.25186785687436" lon="-1.5642799716457392"><ele>31.0</ele><time>2026-04-16T16:49:36Z</time></trkpt><trkpt lat="47.251871461092726" lon="-1.5641691628858112"><ele>30.500000000000004</ele><time>2026-04-16T16:49:37Z</time></trkpt><trkpt lat="47.25187405948271" lon="-1.5640466194614433"><ele>30.0</ele><time>2026-04-16T16:49:38Z</time></trkpt><trkpt lat="47.25188344721426" lon="-1.5639487188323995"><ele>29.5</ele><time>2026-04-16T16:49:39Z</time></trkpt><trkpt lat="47.251915382265345" lon="-1.563864061610367"><ele>29.0</ele><time>2026-04-16T16:49:40Z</time></trkpt><trkpt lat="47.251939144960836" lon="-1.5637752972557803"><ele>28.500000000000004</ele><time>2026-04-16T16:49:41Z</time></trkpt><trkpt lat="47.25198189266701" lon="-1.5636960044517774"><ele>28.0</ele><time>2026-04-16T16:49:42Z</time></trkpt><trkpt lat="47.25206516687502" lon="-1.5635585412397641"><ele>28.000000000000004</ele><time>2026-04-16T16:49:44Z</time></trkpt><trkpt lat="47.2521145362847" lon="-1.5633474010988728"><ele>28.0</ele><time>2026-04-16T16:49:46Z</time></trkpt><trkpt lat="47.25214248993178" lon="-1.5632531046881928"><ele>28.0</ele><time>2026-04-16T16:49:47Z</time></trkpt><trkpt lat="47.25218657874246" lon="-1.5631459001466288"><ele>28.0</ele><time>2026-04-16T16:49:48Z</time></trkpt><trkpt lat="47.252213107466" lon="-1.563060991467501"><ele>28.000000000000004</ele><time>2026-04-16T16:49:49Z</time></trkpt><trkpt lat="47.252250784120754" lon="-1.5629686228945505"><ele>28.0</ele><time>2026-04-16T16:49:50Z</time></trkpt><trkpt lat="47.252289718060986" lon="-1.5628608316197645"><ele>27.500000000000004</ele><time>2026-04-16T16:49:51Z</time></trkpt><trkpt lat="47.25233632144262" lon="-1.5627476759269485"><ele>27.0</ele><time>2026-04-16T16:49:52Z</time></trkpt><trkpt lat="47.25237014242192" lon="-1.5626490209266195"><ele>26.5</ele><time>2026-04-16T16:49:53Z</time></trkpt><trkpt lat="47.2524097469144" lon="-1.5625516232117662"><ele>26.0</ele><time>2026-04-16T16:49:54Z</time></trkpt><trkpt lat="47.25244323261757" lon="-1.5624526329353101"><ele>25.500000000000004</ele><time>2026-04-16T16:49:55Z</time></trkpt><trkpt lat="47.25249913991173" lon="-1.5623735915884025"><ele>25.0</ele><time>2026-04-16T16:49:56Z</time></trkpt><trkpt lat="47.25255999252875" lon="-1.562268231065536"><ele>25.0</ele><time>2026-04-16T16:49:57Z</time></trkpt><trkpt lat="47.25259917792608" lon="-1.5621480345740562"><ele>25.0</ele><time>2026-04-16T16:49:58Z</time></trkpt><trkpt lat="47.25263144825329" lon="-1.5619592741146329"><ele>25.0</ele><time>2026-04-16T16:50:00Z</time></trkpt><trkpt lat="47.25268668499519" lon="-1.5618930570795777"><ele>25.0</ele><time>2026-04-16T16:50:01Z</time></trkpt><trkpt lat="47.25274292756547" lon="-1.5618032868966103"><ele>25.0</ele><time>2026-04-16T16:50:02Z</time></trkpt><trkpt lat="47.25277318623592" lon="-1.5616924781366825"><ele>25.166666666666668</ele><time>2026-04-16T16:50:03Z</time></trkpt><trkpt lat="47.25282812961121" lon="-1.5615912247463704"><ele>25.333333333333336</ele><time>2026-04-16T16:50:04Z</time></trkpt><trkpt lat="47.25286618345161" lon="-1.5614982694401978"><ele>25.5</ele><time>2026-04-16T16:50:05Z</time></trkpt><trkpt lat="47.25291819316079" lon="-1.5613548550769327"><ele>25.666666666666664</ele><time>2026-04-16T16:50:07Z</time></trkpt><trkpt lat="47.25296291061421" lon="-1.5612768195584055"><ele>25.833333333333332</ele><time>2026-04-16T16:50:08Z</time></trkpt><trkpt lat="47.25299019370903" lon="-1.5611261129393812"><ele>26.0</ele><time>2026-04-16T16:50:10Z</time></trkpt><trkpt lat="47.253037719100014" lon="-1.5610173158362144"><ele>26.0</ele><time>2026-04-16T16:50:12Z</time></trkpt><trkpt lat="47.2530757310309" lon="-1.5608423855170241"><ele>26.0</ele><time>2026-04-16T16:50:14Z</time></trkpt><trkpt lat="47.25311210849066" lon="-1.5607510227724544"><ele>26.0</ele><time>2026-04-16T16:50:15Z</time></trkpt><trkpt lat="47.25316709377547" lon="-1.5606041718288888"><ele>26.0</ele><time>2026-04-16T16:50:17Z</time></trkpt><trkpt lat="47.25318427667697" lon="-1.5604361146702994"><ele>26.0</ele><time>2026-04-16T16:50:19Z</time></trkpt><trkpt lat="47.25318549205293" lon="-1.560339555145763"><ele>25.6</ele><time>2026-04-16T16:50:20Z</time></trkpt><trkpt lat="47.253185827329055" lon="-1.560168480502032"><ele>25.200000000000003</ele><time>2026-04-16T16:50:22Z</time></trkpt><trkpt lat="47.25317648150702" lon="-1.559992879630588"><ele>24.799999999999997</ele><time>2026-04-16T16:50:24Z</time></trkpt><trkpt lat="47.25319274239917" lon="-1.5599012654289228"><ele>24.4</ele><time>2026-04-16T16:50:25Z</time></trkpt><trkpt lat="47.253194418779806" lon="-1.559791630135439"><ele>24.0</ele><time>2026-04-16T16:50:26Z</time></trkpt><trkpt lat="47.253170656084315" lon="-1.559615191073678"><ele>24.0</ele><time>2026-04-16T16:50:28Z</time></trkpt><trkpt lat="47.25316038825293" lon="-1.5595187153681735"><ele>24.0</ele><time>2026-04-16T16:50:29Z</time></trkpt><trkpt lat="47.253149114593164" lon="-1.5593314636513211"><ele>24.0</ele><time>2026-04-16T16:50:31.001Z</time></trkpt><trkpt lat="47.25314194806595" lon="-1.559236077593229"><ele>24.0</ele><time>2026-04-16T16:50:32.001Z</time></trkpt><trkpt lat="47.25312405270268" lon="-1.559039270506761"><ele>24.0</ele><time>2026-04-16T16:50:34.001Z</time></trkpt><trkpt lat="47.25311143793841" lon="-1.5589469857528422"><ele>24.0</ele><time>2026-04-16T16:50:35.001Z</time></trkpt><trkpt lat="47.25309681151737" lon="-1.5587732289000962"><ele>24.0</ele><time>2026-04-16T16:50:37.001Z</time></trkpt><trkpt lat="47.253084238662616" lon="-1.5586821176126213"><ele>24.0</ele><time>2026-04-16T16:50:38.001Z</time></trkpt><trkpt lat="47.253075647211865" lon="-1.5585887432112904"><ele>24.0</ele><time>2026-04-16T16:50:39.001Z</time></trkpt><trkpt lat="47.253053602806524" lon="-1.5584245417281597"><ele>24.0</ele><time>2026-04-16T16:50:41.001Z</time></trkpt><trkpt lat="47.25306227807631" lon="-1.5582255553468671"><ele>24.166666666666668</ele><time>2026-04-16T16:50:43.001Z</time></trkpt><trkpt lat="47.253036797090665" lon="-1.5581324324026313"><ele>24.333333333333336</ele><time>2026-04-16T16:50:44.001Z</time></trkpt><trkpt lat="47.2529945942082" lon="-1.558047104628345"><ele>24.5</ele><time>2026-04-16T16:50:45.001Z</time></trkpt><trkpt lat="47.2529840330102" lon="-1.5579423308387006"><ele>24.666666666666668</ele><time>2026-04-16T16:50:46.001Z</time></trkpt><trkpt lat="47.25295335524459" lon="-1.5577880200013126"><ele>24.833333333333336</ele><time>2026-04-16T16:50:48.001Z</time></trkpt><trkpt lat="47.2529375134476" lon="-1.5576953999712668"><ele>25.0</ele><time>2026-04-16T16:50:49.001Z</time></trkpt><trkpt lat="47.25290918261488" lon="-1.5575320366784533"><ele>25.2</ele><time>2026-04-16T16:50:51.001Z</time></trkpt><trkpt lat="47.25287615791638" lon="-1.5573763847365578"><ele>25.4</ele><time>2026-04-16T16:50:53.001Z</time></trkpt><trkpt lat="47.25286274687131" lon="-1.5572117641582686"><ele>25.6</ele><time>2026-04-16T16:50:55.001Z</time></trkpt><trkpt lat="47.252839109904365" lon="-1.5570427011712984"><ele>25.8</ele><time>2026-04-16T16:50:57.001Z</time></trkpt><trkpt lat="47.25282993172039" lon="-1.5569507516935066"><ele>26.0</ele><time>2026-04-16T16:50:58.001Z</time></trkpt><trkpt lat="47.25282025062223" lon="-1.5568507555886701"><ele>26.0</ele><time>2026-04-16T16:50:59.001Z</time></trkpt><trkpt lat="47.25280310963024" lon="-1.5566906612380935"><ele>26.0</ele><time>2026-04-16T16:51:01.001Z</time></trkpt><trkpt lat="47.25279041104694" lon="-1.5565683692708205"><ele>26.0</ele><time>2026-04-16T16:51:02.001Z</time></trkpt><trkpt lat="47.252788734666304" lon="-1.5564581472441148"><ele>26.0</ele><time>2026-04-16T16:51:03.001Z</time></trkpt><trkpt lat="47.25278198723425" lon="-1.5563550498351049"><ele>26.0</ele><time>2026-04-16T16:51:04.001Z</time></trkpt><trkpt lat="47.25277632944961" lon="-1.5561798680588195"><ele>25.71428571428571</ele><time>2026-04-16T16:51:06.001Z</time></trkpt><trkpt lat="47.25275520705362" lon="-1.5560816321536488"><ele>25.42857142857143</ele><time>2026-04-16T16:51:07.001Z</time></trkpt><trkpt lat="47.252750177911715" lon="-1.5559801273062415"><ele>25.142857142857142</ele><time>2026-04-16T16:51:08.001Z</time></trkpt><trkpt lat="47.25272524174978" lon="-1.5558858308955617"><ele>24.857142857142854</ele><time>2026-04-16T16:51:09.001Z</time></trkpt><trkpt lat="47.25271007050504" lon="-1.5557885169997399"><ele>24.57142857142857</ele><time>2026-04-16T16:51:10.001Z</time></trkpt><trkpt lat="47.25271581210871" lon="-1.555655328558344"><ele>24.285714285714285</ele><time>2026-04-16T16:51:11.001Z</time></trkpt><trkpt lat="47.252703029706375" lon="-1.5555586013957443"><ele>24.0</ele><time>2026-04-16T16:51:12.001Z</time></trkpt><trkpt lat="47.2526880260997" lon="-1.5554586052909078"><ele>23.666666666666668</ele><time>2026-04-16T16:51:13.001Z</time></trkpt><trkpt lat="47.252667406617896" lon="-1.5553493890925825"><ele>23.333333333333332</ele><time>2026-04-16T16:51:14.001Z</time></trkpt><trkpt lat="47.25265705496748" lon="-1.555244363845843"><ele>23.0</ele><time>2026-04-16T16:51:15.001Z</time></trkpt><trkpt lat="47.25262700584461" lon="-1.5550680086031137"><ele>22.666666666666664</ele><time>2026-04-16T16:51:17.001Z</time></trkpt><trkpt lat="47.25261284042825" lon="-1.5549623128041206"><ele>22.333333333333332</ele><time>2026-04-16T16:51:18.001Z</time></trkpt><trkpt lat="47.2525997646593" lon="-1.5548530127867635"><ele>22.0</ele><time>2026-04-16T16:51:19.001Z</time></trkpt><trkpt lat="47.25257357121189" lon="-1.5547418687507089"><ele>22.0</ele><time>2026-04-16T16:51:20.001Z</time></trkpt><trkpt lat="47.25255990870972" lon="-1.554632233457225"><ele>22.0</ele><time>2026-04-16T16:51:21.001Z</time></trkpt><trkpt lat="47.252537403299705" lon="-1.5545330755427056"><ele>22.0</ele><time>2026-04-16T16:51:22.001Z</time></trkpt><trkpt lat="47.252528183206216" lon="-1.5544300619527271"><ele>22.0</ele><time>2026-04-16T16:51:23.001Z</time></trkpt><trkpt lat="47.25251498170872" lon="-1.55432319268729"><ele>22.0</ele><time>2026-04-16T16:51:24.001Z</time></trkpt><trkpt lat="47.25249842744996" lon="-1.5542051754906347"><ele>22.0</ele><time>2026-04-16T16:51:25.001Z</time></trkpt><trkpt lat="47.25248920735647" lon="-1.55410576611902"><ele>22.0</ele><time>2026-04-16T16:51:26.001Z</time></trkpt><trkpt lat="47.25244863894512" lon="-1.5540009085103441"><ele>21.714285714285715</ele><time>2026-04-16T16:51:27.001Z</time></trkpt><trkpt lat="47.25243174941023" lon="-1.5538985654726194"><ele>21.428571428571427</ele><time>2026-04-16T16:51:28.001Z</time></trkpt><trkpt lat="47.2524115909331" lon="-1.5538042690619396"><ele>21.142857142857142</ele><time>2026-04-16T16:51:29.001Z</time></trkpt><trkpt lat="47.25238761869003" lon="-1.5537134930505916"><ele>20.857142857142858</ele><time>2026-04-16T16:51:30.001Z</time></trkpt><trkpt lat="47.25236377217551" lon="-1.5535963978632852"><ele>20.571428571428573</ele><time>2026-04-16T16:51:32.001Z</time></trkpt><trkpt lat="47.252322197935776" lon="-1.5535080526038572"><ele>20.285714285714285</ele><time>2026-04-16T16:51:35.001Z</time></trkpt><trkpt lat="47.25227714520623" lon="-1.5534295141711396"><ele>20.0</ele><time>2026-04-16T16:51:37.001Z</time></trkpt><trkpt lat="47.25226172250439" lon="-1.5532974991961879"><ele>19.8</ele><time>2026-04-16T16:51:39.001Z</time></trkpt><trkpt lat="47.252291855446295" lon="-1.553158694879667"><ele>19.6</ele><time>2026-04-16T16:51:41.001Z</time></trkpt><trkpt lat="47.25231649824162" lon="-1.5530203934773366"><ele>19.4</ele><time>2026-04-16T16:51:43.001Z</time></trkpt><trkpt lat="47.25231079854746" lon="-1.5528503246619858"><ele>19.2</ele><time>2026-04-16T16:51:45.001Z</time></trkpt><trkpt lat="47.25227731284429" lon="-1.5526885539307749"><ele>19.0</ele><time>2026-04-16T16:51:47.001Z</time></trkpt><trkpt lat="47.25226268642326" lon="-1.552587803454653"><ele>19.0</ele><time>2026-04-16T16:51:48.001Z</time></trkpt><trkpt lat="47.25223829508503" lon="-1.552407760174528"><ele>19.0</ele><time>2026-04-16T16:51:50.001Z</time></trkpt><trkpt lat="47.25221180827101" lon="-1.5522965323194418"><ele>19.0</ele><time>2026-04-16T16:51:51.001Z</time></trkpt><trkpt lat="47.25219496064563" lon="-1.552199469880715"><ele>19.0</ele><time>2026-04-16T16:51:52.001Z</time></trkpt><trkpt lat="47.252166713631944" lon="-1.5520948637291343"><ele>19.0</ele><time>2026-04-16T16:51:53.001Z</time></trkpt><trkpt lat="47.25212953989138" lon="-1.5519114676877408"><ele>18.8</ele><time>2026-04-16T16:51:55.001Z</time></trkpt><trkpt lat="47.25209722765465" lon="-1.55172429978992"><ele>18.599999999999998</ele><time>2026-04-16T16:51:57.001Z</time></trkpt><trkpt lat="47.252081008672015" lon="-1.5516217891141322"><ele>18.4</ele><time>2026-04-16T16:51:58.001Z</time></trkpt><trkpt lat="47.25205179773946" lon="-1.5514529775842572"><ele>18.2</ele><time>2026-04-16T16:52:00.001Z</time></trkpt><trkpt lat="47.25203612358053" lon="-1.5513527300223255"><ele>18.0</ele><time>2026-04-16T16:52:01.001Z</time></trkpt><trkpt lat="47.25201822821726" lon="-1.5512570086881063"><ele>17.857142857142858</ele><time>2026-04-16T16:52:02.001Z</time></trkpt><trkpt lat="47.25201558791776" lon="-1.5511632990106485"><ele>17.714285714285715</ele><time>2026-04-16T16:52:03.001Z</time></trkpt><trkpt lat="47.25200519435783" lon="-1.5510702598854442"><ele>17.57142857142857</ele><time>2026-04-16T16:52:04.001Z</time></trkpt><trkpt lat="47.25199576471676" lon="-1.5509705990567346"><ele>17.42857142857143</ele><time>2026-04-16T16:52:05.001Z</time></trkpt><trkpt lat="47.251981766938464" lon="-1.5507960040136712"><ele>17.285714285714285</ele><time>2026-04-16T16:52:07.001Z</time></trkpt><trkpt lat="47.25197732452978" lon="-1.5506977681085008"><ele>17.142857142857142</ele><time>2026-04-16T16:52:08.001Z</time></trkpt><trkpt lat="47.25197879136284" lon="-1.5505995322033301"><ele>17.0</ele><time>2026-04-16T16:52:09.001Z</time></trkpt><trkpt lat="47.251978204629616" lon="-1.5505043976023332"><ele>17.0</ele><time>2026-04-16T16:52:10.001Z</time></trkpt><trkpt lat="47.251981557390884" lon="-1.5504067484303847"><ele>17.0</ele><time>2026-04-16T16:52:11.001Z</time></trkpt><trkpt lat="47.251985287337796" lon="-1.550308512525214"><ele>17.0</ele><time>2026-04-16T16:52:12.001Z</time></trkpt><trkpt lat="47.25198968783696" lon="-1.5502143837525977"><ele>17.0</ele><time>2026-04-16T16:52:13.001Z</time></trkpt><trkpt lat="47.251995094164506" lon="-1.5501163993045222"><ele>17.0</ele><time>2026-04-16T16:52:14.001Z</time></trkpt><trkpt lat="47.25201550409873" lon="-1.5499236993506085"><ele>17.0</ele><time>2026-04-16T16:52:16.001Z</time></trkpt><trkpt lat="47.25202610720624" lon="-1.5498232003315815"><ele>17.0</ele><time>2026-04-16T16:52:17.001Z</time></trkpt><trkpt lat="47.25203826096584" lon="-1.5496460907175666"><ele>17.0</ele><time>2026-04-16T16:52:19.001Z</time></trkpt><trkpt lat="47.25206428677519" lon="-1.5494755189880258"><ele>17.0</ele><time>2026-04-16T16:52:21.001Z</time></trkpt><trkpt lat="47.2520989459448" lon="-1.5493194479509715"><ele>17.0</ele><time>2026-04-16T16:52:23.001Z</time></trkpt><trkpt lat="47.2521663364463" lon="-1.549184666947973"><ele>16.999999999999996</ele><time>2026-04-16T16:52:25.001Z</time></trkpt><trkpt lat="47.25221771751274" lon="-1.5491231437786939"><ele>17.0</ele><time>2026-04-16T16:52:26.001Z</time></trkpt><trkpt lat="47.25227169696917" lon="-1.549048880116594"><ele>17.0</ele><time>2026-04-16T16:52:27.001Z</time></trkpt><trkpt lat="47.2523198929124" lon="-1.5489648096277835"><ele>17.0</ele><time>2026-04-16T16:52:28.001Z</time></trkpt><trkpt lat="47.25236963950773" lon="-1.5488873608424782"><ele>17.0</ele><time>2026-04-16T16:52:29.001Z</time></trkpt><trkpt lat="47.25239021708001" lon="-1.5487815812244534"><ele>16.999999999999996</ele><time>2026-04-16T16:52:30.001Z</time></trkpt><trkpt lat="47.252413560680345" lon="-1.5486932359650252"><ele>17.0</ele><time>2026-04-16T16:52:31.001Z</time></trkpt><trkpt lat="47.25243820347567" lon="-1.5485967602595208"><ele>16.5</ele><time>2026-04-16T16:52:32.001Z</time></trkpt><trkpt lat="47.252470725259975" lon="-1.548501541839492"><ele>16.0</ele><time>2026-04-16T16:52:33.001Z</time></trkpt><trkpt lat="47.25250773136248" lon="-1.548413448037159"><ele>15.5</ele><time>2026-04-16T16:52:34.001Z</time></trkpt><trkpt lat="47.252529398582176" lon="-1.548323007301938"><ele>15.0</ele><time>2026-04-16T16:52:35.001Z</time></trkpt><trkpt lat="47.252572397745446" lon="-1.5481497533633821"><ele>14.500000000000002</ele><time>2026-04-16T16:52:37.001Z</time></trkpt><trkpt lat="47.25259033501823" lon="-1.5480336640044563"><ele>14.0</ele><time>2026-04-16T16:52:38.001Z</time></trkpt><trkpt lat="47.25260156676848" lon="-1.5479301475002876"><ele>14.166666666666668</ele><time>2026-04-16T16:52:39.001Z</time></trkpt><trkpt lat="47.252596998631255" lon="-1.5478226076825967"><ele>14.333333333333334</ele><time>2026-04-16T16:52:40.001Z</time></trkpt><trkpt lat="47.25259075411339" lon="-1.5477215219303477"><ele>14.5</ele><time>2026-04-16T16:52:41.001Z</time></trkpt><trkpt lat="47.25258438386698" lon="-1.5476224478348601"><ele>14.666666666666668</ele><time>2026-04-16T16:52:42.001Z</time></trkpt><trkpt lat="47.25257600196381" lon="-1.5474250540151702"><ele>14.833333333333334</ele><time>2026-04-16T16:52:44.001Z</time></trkpt><trkpt lat="47.25256971553643" lon="-1.5473229624345408"><ele>15.0</ele><time>2026-04-16T16:52:45.001Z</time></trkpt><trkpt lat="47.25255353846331" lon="-1.5472269896432265"><ele>15.0</ele><time>2026-04-16T16:52:46.001Z</time></trkpt><trkpt lat="47.25253371526231" lon="-1.5471378061934813"><ele>15.0</ele><time>2026-04-16T16:52:47.001Z</time></trkpt><trkpt lat="47.25251988512208" lon="-1.547040073202501"><ele>15.0</ele><time>2026-04-16T16:52:48.001Z</time></trkpt><trkpt lat="47.25251284432341" lon="-1.5469421725734573"><ele>15.0</ele><time>2026-04-16T16:52:49.001Z</time></trkpt><trkpt lat="47.252503205134765" lon="-1.5468287654235464"><ele>15.0</ele><time>2026-04-16T16:52:50.001Z</time></trkpt><trkpt lat="47.252484094395534" lon="-1.546737235040913"><ele>15.0</ele><time>2026-04-16T16:52:51.001Z</time></trkpt><trkpt lat="47.25247927480121" lon="-1.5466387476786474"><ele>15.0</ele><time>2026-04-16T16:52:52.001Z</time></trkpt><trkpt lat="47.252469426064984" lon="-1.5465452894582845"><ele>15.166666666666666</ele><time>2026-04-16T16:52:53.001Z</time></trkpt><trkpt lat="47.25245500919153" lon="-1.546453256161461"><ele>15.333333333333332</ele><time>2026-04-16T16:52:54.001Z</time></trkpt><trkpt lat="47.25243627563794" lon="-1.5463568642749883"><ele>15.5</ele><time>2026-04-16T16:52:55.001Z</time></trkpt><trkpt lat="47.25242927674879" lon="-1.5462618973120545"><ele>15.666666666666666</ele><time>2026-04-16T16:52:56.001Z</time></trkpt><trkpt lat="47.25241586570372" lon="-1.5461691934629773"><ele>15.833333333333332</ele><time>2026-04-16T16:52:57.001Z</time></trkpt><trkpt lat="47.25241666198452" lon="-1.5460042376085612"><ele>16.0</ele><time>2026-04-16T16:52:59.001Z</time></trkpt><trkpt lat="47.25239407275547" lon="-1.545828385280022"><ele>16.400000000000002</ele><time>2026-04-16T16:53:01.001Z</time></trkpt><trkpt lat="47.25237839859654" lon="-1.5457373578115792"><ele>16.8</ele><time>2026-04-16T16:53:02.001Z</time></trkpt><trkpt lat="47.252358323938445" lon="-1.5455662831678478"><ele>17.200000000000003</ele><time>2026-04-16T16:53:04.001Z</time></trkpt><trkpt lat="47.2523322981291" lon="-1.5453975554570047"><ele>17.6</ele><time>2026-04-16T16:53:06.001Z</time></trkpt><trkpt lat="47.252307739152805" lon="-1.5453046001508322"><ele>18.0</ele><time>2026-04-16T16:53:07.001Z</time></trkpt><trkpt lat="47.2522760136493" lon="-1.5451341960593545"><ele>19.2</ele><time>2026-04-16T16:53:09.001Z</time></trkpt><trkpt lat="47.25224717990239" lon="-1.5449545718743884"><ele>20.4</ele><time>2026-04-16T16:53:11.001Z</time></trkpt><trkpt lat="47.2522094194286" lon="-1.5448012668653808"><ele>21.599999999999998</ele><time>2026-04-16T16:53:13.001Z</time></trkpt><trkpt lat="47.25219688848336" lon="-1.5446351375445206"><ele>22.8</ele><time>2026-04-16T16:53:15.001Z</time></trkpt><trkpt lat="47.25219152406533" lon="-1.544540170581587"><ele>24.0</ele><time>2026-04-16T16:53:16.001Z</time></trkpt><trkpt lat="47.25216181021859" lon="-1.5443794894977885"><ele>23.833333333333332</ele><time>2026-04-16T16:53:18.001Z</time></trkpt><trkpt lat="47.25214831535448" lon="-1.5441929921522217"><ele>23.666666666666668</ele><time>2026-04-16T16:53:20.001Z</time></trkpt><trkpt lat="47.25214077164163" lon="-1.5440910682096556"><ele>23.5</ele><time>2026-04-16T16:53:21.001Z</time></trkpt><trkpt lat="47.25212648049672" lon="-1.543979002164252"><ele>23.333333333333336</ele><time>2026-04-16T16:53:22.001Z</time></trkpt><trkpt lat="47.252117930955485" lon="-1.5438801795258594"><ele>23.166666666666668</ele><time>2026-04-16T16:53:23.001Z</time></trkpt><trkpt lat="47.25211353045632" lon="-1.5437731426223589"><ele>23.0</ele><time>2026-04-16T16:53:24.001Z</time></trkpt><trkpt lat="47.252100119411246" lon="-1.543655544520862"><ele>23.0</ele><time>2026-04-16T16:53:25.001Z</time></trkpt><trkpt lat="47.25209068977018" lon="-1.5435399580761264"><ele>23.0</ele><time>2026-04-16T16:53:26.001Z</time></trkpt><trkpt lat="47.25207870364864" lon="-1.543409535662777"><ele>23.0</ele><time>2026-04-16T16:53:27.001Z</time></trkpt><trkpt lat="47.25206789099355" lon="-1.5432942006751367"><ele>23.0</ele><time>2026-04-16T16:53:28.001Z</time></trkpt><trkpt lat="47.25202694539656" lon="-1.543083144353277"><ele>23.0</ele><time>2026-04-16T16:53:30.001Z</time></trkpt><trkpt lat="47.25201185797085" lon="-1.5429456811412636"><ele>22.0</ele><time>2026-04-16T16:53:31.001Z</time></trkpt><trkpt lat="47.25199656099756" lon="-1.542812157423741"><ele>21.0</ele><time>2026-04-16T16:53:32.001Z</time></trkpt><trkpt lat="47.251981766938464" lon="-1.542679890991694"><ele>20.0</ele><time>2026-04-16T16:53:33.001Z</time></trkpt><trkpt lat="47.251961608461336" lon="-1.5425461996361078"><ele>19.0</ele><time>2026-04-16T16:53:34.001Z</time></trkpt><trkpt lat="47.25196894262661" lon="-1.5423802379533111"><ele>18.0</ele><time>2026-04-16T16:53:35.001Z</time></trkpt><trkpt lat="47.251959177709416" lon="-1.5422812476768553"><ele>18.0</ele><time>2026-04-16T16:53:36.001Z</time></trkpt><trkpt lat="47.25197028373112" lon="-1.5421630628421363"><ele>18.0</ele><time>2026-04-16T16:53:37.001Z</time></trkpt><trkpt lat="47.25198009055783" lon="-1.542031718419438"><ele>18.0</ele><time>2026-04-16T16:53:38.001Z</time></trkpt><trkpt lat="47.251921249597565" lon="-1.5419596340521629"><ele>18.0</ele><time>2026-04-16T16:53:39.001Z</time></trkpt><trkpt lat="47.25186991044064" lon="-1.541878329591399"><ele>18.0</ele><time>2026-04-16T16:53:40.001Z</time></trkpt><trkpt lat="47.251808848276035" lon="-1.5417941752835564"><ele>18.0</ele><time>2026-04-16T16:53:41.001Z</time></trkpt><trkpt lat="47.251715264327125" lon="-1.5417831949904017"><ele>17.142857142857146</ele><time>2026-04-16T16:53:42.001Z</time></trkpt><trkpt lat="47.251642928502754" lon="-1.5417462307974152"><ele>16.285714285714285</ele><time>2026-04-16T16:53:43.001Z</time></trkpt><trkpt lat="47.25157683719625" lon="-1.5416967775687032"><ele>15.428571428571429</ele><time>2026-04-16T16:53:44.001Z</time></trkpt><trkpt lat="47.25153371230443" lon="-1.541624693201428"><ele>14.571428571428573</ele><time>2026-04-16T16:53:45.001Z</time></trkpt><trkpt lat="47.2515566368096" lon="-1.5415382757797291"><ele>13.714285714285715</ele><time>2026-04-16T16:53:46.001Z</time></trkpt><trkpt lat="47.25156992212613" lon="-1.541426377372389"><ele>12.857142857142856</ele><time>2026-04-16T16:53:47.001Z</time></trkpt><trkpt lat="47.25158509337087" lon="-1.5413266327246478"><ele>12.0</ele><time>2026-04-16T16:53:48.001Z</time></trkpt><trkpt lat="47.251634923785225" lon="-1.5411877445890951"><ele>10.666666666666666</ele><time>2026-04-16T16:53:49.001Z</time></trkpt><trkpt lat="47.25168026988138" lon="-1.541115911678915"><ele>9.333333333333334</ele><time>2026-04-16T16:53:50.001Z</time></trkpt><trkpt lat="47.251708391166524" lon="-1.5410173404976175"><ele>8.0</ele><time>2026-04-16T16:53:51.001Z</time></trkpt><trkpt lat="47.25175256379624" lon="-1.5409210324301765"><ele>6.666666666666666</ele><time>2026-04-16T16:53:52.001Z</time></trkpt><trkpt lat="47.25186333064665" lon="-1.5408608503654049"><ele>5.333333333333333</ele><time>2026-04-16T16:53:53.001Z</time></trkpt><trkpt lat="47.25193352908571" lon="-1.5408123191460414"><ele>4.0</ele><time>2026-04-16T16:53:54.001Z</time></trkpt><trkpt lat="47.252007247924105" lon="-1.5407665539547248"><ele>3.9999999999999996</ele><time>2026-04-16T16:53:55.001Z</time></trkpt><trkpt lat="47.25208234977652" lon="-1.5407407376929565"><ele>4.0</ele><time>2026-04-16T16:53:56.001Z</time></trkpt><trkpt lat="47.25216390569438" lon="-1.5407085511847778"><ele>4.0</ele><time>2026-04-16T16:53:57.001Z</time></trkpt><trkpt lat="47.25223858845164" lon="-1.5406780410572334"><ele>4.0</ele><time>2026-04-16T16:53:58.001Z</time></trkpt><trkpt lat="47.252310966185526" lon="-1.5406623668983026"><ele>3.9999999999999996</ele><time>2026-04-16T16:53:59.001Z</time></trkpt><trkpt lat="47.25239411466499" lon="-1.5406331978752656"><ele>4.0</ele><time>2026-04-16T16:54:00.001Z</time></trkpt><trkpt lat="47.25248313047667" lon="-1.540613919497971"><ele>4.6</ele><time>2026-04-16T16:54:01.001Z</time></trkpt><trkpt lat="47.25255902860989" lon="-1.540597993881945"><ele>5.2</ele><time>2026-04-16T16:54:02.001Z</time></trkpt><trkpt lat="47.25264762532641" lon="-1.5405628737076562"><ele>5.799999999999999</ele><time>2026-04-16T16:54:03.001Z</time></trkpt><trkpt lat="47.25273224063893" lon="-1.5405289269998115"><ele>6.3999999999999995</ele><time>2026-04-16T16:54:04.001Z</time></trkpt><trkpt lat="47.25280130752106" lon="-1.5405326988562387"><ele>7.0</ele><time>2026-04-16T16:54:05.001Z</time></trkpt><trkpt lat="47.252952223687664" lon="-1.5404859278365415"><ele>7.000000000000001</ele><time>2026-04-16T16:54:07.001Z</time></trkpt><trkpt lat="47.25302028474142" lon="-1.5404700022205156"><ele>7.0</ele><time>2026-04-16T16:54:08.001Z</time></trkpt><trkpt lat="47.25311659280886" lon="-1.540433960036878"><ele>7.0</ele><time>2026-04-16T16:54:10.001Z</time></trkpt><trkpt lat="47.25318297748198" lon="-1.5404150169357103"><ele>7.0</ele><time>2026-04-16T16:54:11.001Z</time></trkpt><trkpt lat="47.25324345291336" lon="-1.5403724368675988"><ele>7.000000000000001</ele><time>2026-04-16T16:54:12.001Z</time></trkpt><trkpt lat="47.25330950231035" lon="-1.54035491868997"><ele>7.0</ele><time>2026-04-16T16:54:13.001Z</time></trkpt><trkpt lat="47.25339935631235" lon="-1.5403509791954795"><ele>6.6</ele><time>2026-04-16T16:54:14.001Z</time></trkpt><trkpt lat="47.253502914726035" lon="-1.540333712474946"><ele>6.199999999999999</ele><time>2026-04-16T16:54:15.001Z</time></trkpt><trkpt lat="47.25356741347094" lon="-1.5403156913831273"><ele>5.8</ele><time>2026-04-16T16:54:16.001Z</time></trkpt><trkpt lat="47.25369842261751" lon="-1.5403482969864646"><ele>5.4</ele><time>2026-04-16T16:54:17.001Z</time></trkpt><trkpt lat="47.25378928244789" lon="-1.5403248276575843"><ele>5.0</ele><time>2026-04-16T16:54:18.001Z</time></trkpt><trkpt lat="47.253863588019506" lon="-1.5403032023474017"><ele>5.0</ele><time>2026-04-16T16:54:19.001Z</time></trkpt><trkpt lat="47.25399405234237" lon="-1.5402868576362172"><ele>5.0</ele><time>2026-04-16T16:54:21.001Z</time></trkpt><trkpt lat="47.25410087969829" lon="-1.5402687527253667"><ele>5.0</ele><time>2026-04-16T16:54:23.001Z</time></trkpt><trkpt lat="47.25416713864286" lon="-1.5402541682138482"><ele>5.0</ele><time>2026-04-16T16:54:24.001Z</time></trkpt><trkpt lat="47.25423628934403" lon="-1.5402006916716138"><ele>5.0</ele><time>2026-04-16T16:54:25.001Z</time></trkpt><trkpt lat="47.25431541450997" lon="-1.5401562675848046"><ele>5.0</ele><time>2026-04-16T16:54:26.001Z</time></trkpt><trkpt lat="47.254462055905954" lon="-1.5401401743307153"><ele>5.0</ele><time>2026-04-16T16:54:28.001Z</time></trkpt><trkpt lat="47.254604673988425" lon="-1.5401522442712823"><ele>5.0</ele><time>2026-04-16T16:54:30.001Z</time></trkpt><trkpt lat="47.25470622074535" lon="-1.5401760488762894"><ele>5.0</ele><time>2026-04-16T16:54:31.001Z</time></trkpt><trkpt lat="47.25483873863449" lon="-1.5401606261744538"><ele>6.0</ele><time>2026-04-16T16:54:33.001Z</time></trkpt><trkpt lat="47.25491715133866" lon="-1.5401512384429017"><ele>7.0</ele><time>2026-04-16T16:54:34.001Z</time></trkpt><trkpt lat="47.25497976415535" lon="-1.5401389170452395"><ele>8.0</ele><time>2026-04-16T16:54:35.001Z</time></trkpt><trkpt lat="47.25506982770493" lon="-1.5401169564589299"><ele>9.0</ele><time>2026-04-16T16:54:36.001Z</time></trkpt><trkpt lat="47.25520255514165" lon="-1.5400564391180314"><ele>10.0</ele><time>2026-04-16T16:54:38.001Z</time></trkpt><trkpt lat="47.25528017156502" lon="-1.5400211513056792"><ele>10.0</ele><time>2026-04-16T16:54:39.001Z</time></trkpt><trkpt lat="47.25540208634665" lon="-1.539981421084646"><ele>10.0</ele><time>2026-04-16T16:54:41.001Z</time></trkpt><trkpt lat="47.255523037209414" lon="-1.539946971462611"><ele>10.0</ele><time>2026-04-16T16:54:43.001Z</time></trkpt><trkpt lat="47.25563791119238" lon="-1.539912521840576"><ele>10.0</ele><time>2026-04-16T16:54:45.001Z</time></trkpt><trkpt lat="47.25571498279204" lon="-1.5398911479874886"><ele>10.0</ele><time>2026-04-16T16:54:46.001Z</time></trkpt><trkpt lat="47.255800142928265" lon="-1.53985653072739"><ele>10.4</ele><time>2026-04-16T16:54:47.001Z</time></trkpt><trkpt lat="47.25590336606582" lon="-1.539804982022885"><ele>10.8</ele><time>2026-04-16T16:54:49.001Z</time></trkpt><trkpt lat="47.25601182789286" lon="-1.5397485718145405"><ele>11.2</ele><time>2026-04-16T16:54:51.001Z</time></trkpt><trkpt lat="47.25607024975797" lon="-1.5396876353784834"><ele>11.6</ele><time>2026-04-16T16:54:53.001Z</time></trkpt><trkpt lat="47.25613273684611" lon="-1.5396413672729763"><ele>12.0</ele><time>2026-04-16T16:54:54.002Z</time></trkpt><trkpt lat="47.25627736658534" lon="-1.539572803305033"><ele>11.0</ele><time>2026-04-16T16:54:56.002Z</time></trkpt><trkpt lat="47.256361772350274" lon="-1.5395225957050356"><ele>10.0</ele><time>2026-04-16T16:54:57.002Z</time></trkpt><trkpt lat="47.256446639119886" lon="-1.5394787583514484"><ele>9.0</ele><time>2026-04-16T16:54:58.002Z</time></trkpt><trkpt lat="47.25654969461938" lon="-1.5394341666265758"><ele>8.0</ele><time>2026-04-16T16:55:00.001Z</time></trkpt><trkpt lat="47.256672992415034" lon="-1.5394116193070442"><ele>7.0</ele><time>2026-04-16T16:55:02.001Z</time></trkpt><trkpt lat="47.25679696076294" lon="-1.5394163969918522"><ele>7.0</ele><time>2026-04-16T16:55:04.001Z</time></trkpt><trkpt lat="47.25692180921068" lon="-1.5394343342646393"><ele>6.999999999999999</ele><time>2026-04-16T16:55:06.001Z</time></trkpt><trkpt lat="47.2570122499459" lon="-1.5394717175527843"><ele>6.999999999999999</ele><time>2026-04-16T16:55:08.001Z</time></trkpt><trkpt lat="47.25709967319598" lon="-1.5395123697831663"><ele>7.0</ele><time>2026-04-16T16:55:10.001Z</time></trkpt><trkpt lat="47.25715960380366" lon="-1.5395438857390913"><ele>7.0</ele><time>2026-04-16T16:55:11.001Z</time></trkpt><trkpt lat="47.257241285450064" lon="-1.5396154671921762"><ele>7.833333333333334</ele><time>2026-04-16T16:55:13.001Z</time></trkpt><trkpt lat="47.257306329018675" lon="-1.5397158823921715"><ele>8.666666666666668</ele><time>2026-04-16T16:55:15.001Z</time></trkpt><trkpt lat="47.25733843170782" lon="-1.5397967677577769"><ele>9.5</ele><time>2026-04-16T16:55:16Z</time></trkpt><trkpt lat="47.25741948471149" lon="-1.5398915670826472"><ele>10.333333333333334</ele><time>2026-04-16T16:55:18Z</time></trkpt><trkpt lat="47.25744718690147" lon="-1.5400233306005038"><ele>11.166666666666666</ele><time>2026-04-16T16:55:20Z</time></trkpt><trkpt lat="47.25747321271082" lon="-1.5401471313103476"><ele>12.0</ele><time>2026-04-16T16:55:22Z</time></trkpt><trkpt lat="47.25753402341833" lon="-1.5402343031033316"><ele>11.999999999999998</ele><time>2026-04-16T16:55:24Z</time></trkpt><trkpt lat="47.2575857397609" lon="-1.5403100755080024"><ele>12.0</ele><time>2026-04-16T16:55:26Z</time></trkpt><trkpt lat="47.25761960264971" lon="-1.540389200673942"><ele>12.0</ele><time>2026-04-16T16:55:28Z</time></trkpt><trkpt lat="47.25764671810647" lon="-1.5404796414091628"><ele>12.0</ele><time>2026-04-16T16:55:30Z</time></trkpt><trkpt lat="47.257679156071745" lon="-1.5405663102879565"><ele>12.0</ele><time>2026-04-16T16:55:32Z</time></trkpt><trkpt lat="47.2577289864861" lon="-1.540653984995131"><ele>11.999999999999998</ele><time>2026-04-16T16:55:34Z</time></trkpt><trkpt lat="47.257772740020656" lon="-1.5407674759640737"><ele>12.0</ele><time>2026-04-16T16:55:36Z</time></trkpt><trkpt lat="47.257807860194944" lon="-1.5408787038191603"><ele>12.333333333333334</ele><time>2026-04-16T16:55:38Z</time></trkpt><trkpt lat="47.25785010498693" lon="-1.5409777779146479"><ele>12.666666666666668</ele><time>2026-04-16T16:55:40Z</time></trkpt><trkpt lat="47.25788954184135" lon="-1.5410823002471972"><ele>13.0</ele><time>2026-04-16T16:55:42Z</time></trkpt><trkpt lat="47.25793031980028" lon="-1.5411825478091288"><ele>13.333333333333334</ele><time>2026-04-16T16:55:44Z</time></trkpt><trkpt lat="47.25798811302265" lon="-1.541303498671894"><ele>13.666666666666668</ele><time>2026-04-16T16:55:47Z</time></trkpt><trkpt lat="47.25804184102198" lon="-1.5413857251420071"><ele>14.0</ele><time>2026-04-16T16:55:49Z</time></trkpt><trkpt lat="47.25808236752381" lon="-1.5414810273810675"><ele>14.166666666666668</ele><time>2026-04-16T16:55:51Z</time></trkpt><trkpt lat="47.25810751323333" lon="-1.5415897406652026"><ele>14.333333333333334</ele><time>2026-04-16T16:55:53Z</time></trkpt><trkpt lat="47.2581417952173" lon="-1.5416792593910746"><ele>14.5</ele><time>2026-04-16T16:55:55Z</time></trkpt><trkpt lat="47.25817649629643" lon="-1.541782524438148"><ele>14.666666666666668</ele><time>2026-04-16T16:55:57Z</time></trkpt><trkpt lat="47.258202941200935" lon="-1.5418919920935685"><ele>14.833333333333334</ele><time>2026-04-16T16:55:59Z</time></trkpt><trkpt lat="47.258228547915124" lon="-1.541995843873864"><ele>15.0</ele><time>2026-04-16T16:56:01Z</time></trkpt><trkpt lat="47.25826513492247" lon="-1.5420976001783666"><ele>16.42857142857143</ele><time>2026-04-16T16:56:03Z</time></trkpt><trkpt lat="47.2583090980046" lon="-1.5421847719713506"><ele>17.857142857142858</ele><time>2026-04-16T16:56:05Z</time></trkpt><trkpt lat="47.258358048319124" lon="-1.5422717761262712"><ele>19.285714285714285</ele><time>2026-04-16T16:56:07Z</time></trkpt><trkpt lat="47.25841123149475" lon="-1.542352912948972"><ele>20.714285714285715</ele><time>2026-04-16T16:56:09Z</time></trkpt><trkpt lat="47.25845858924767" lon="-1.5424177888795196"><ele>22.142857142857142</ele><time>2026-04-16T16:56:11Z</time></trkpt><trkpt lat="47.258533774919115" lon="-1.5424643084421217"><ele>23.571428571428573</ele><time>2026-04-16T16:56:13Z</time></trkpt><trkpt lat="47.25859638773581" lon="-1.542503954844123"><ele>25.0</ele><time>2026-04-16T16:56:15Z</time></trkpt><trkpt lat="47.25865967110475" lon="-1.5425251610591473"><ele>25.000000000000004</ele><time>2026-04-16T16:56:17Z</time></trkpt><trkpt lat="47.25875254259189" lon="-1.5425550844534697"><ele>25.0</ele><time>2026-04-16T16:56:20Z</time></trkpt><trkpt lat="47.25882429168304" lon="-1.5426069684341015"><ele>25.0</ele><time>2026-04-16T16:56:22Z</time></trkpt><trkpt lat="47.258888916156494" lon="-1.5426765382304253"><ele>25.0</ele><time>2026-04-16T16:56:24Z</time></trkpt><trkpt lat="47.258961838714086" lon="-1.5427232254310907"><ele>25.000000000000004</ele><time>2026-04-16T16:56:26Z</time></trkpt><trkpt lat="47.25905994889071" lon="-1.542753819377667"><ele>25.0</ele><time>2026-04-16T16:56:28Z</time></trkpt><trkpt lat="47.259122729345464" lon="-1.5427710022791687"><ele>26.0</ele><time>2026-04-16T16:56:29Z</time></trkpt><trkpt lat="47.259185845076345" lon="-1.5427873469903532"><ele>27.0</ele><time>2026-04-16T16:56:30Z</time></trkpt><trkpt lat="47.25929728247901" lon="-1.5428171027466122"><ele>28.0</ele><time>2026-04-16T16:56:32Z</time></trkpt><trkpt lat="47.259411360181176" lon="-1.5428309328868453"><ele>29.0</ele><time>2026-04-16T16:56:34Z</time></trkpt><trkpt lat="47.25948994052341" lon="-1.5428855828955237"><ele>30.0</ele><time>2026-04-16T16:56:35Z</time></trkpt><trkpt lat="47.25955892358651" lon="-1.5428590960815016"><ele>30.2</ele><time>2026-04-16T16:56:37Z</time></trkpt><trkpt lat="47.25963339679619" lon="-1.5428228024407689"><ele>30.4</ele><time>2026-04-16T16:56:39Z</time></trkpt><trkpt lat="47.25972563964059" lon="-1.5427772887065474"><ele>30.6</ele><time>2026-04-16T16:56:41Z</time></trkpt><trkpt lat="47.25983024579217" lon="-1.542738480494863"><ele>30.8</ele><time>2026-04-16T16:56:43Z</time></trkpt><trkpt lat="47.259960332929396" lon="-1.5426991693689884"><ele>31.0</ele><time>2026-04-16T16:56:45Z</time></trkpt><trkpt lat="47.260080738968455" lon="-1.5426788851633133"><ele>30.200000000000003</ele><time>2026-04-16T16:56:47Z</time></trkpt><trkpt lat="47.26015558936378" lon="-1.542672514916903"><ele>29.400000000000002</ele><time>2026-04-16T16:56:48Z</time></trkpt><trkpt lat="47.260223985693656" lon="-1.5427055396153988"><ele>28.6</ele><time>2026-04-16T16:56:50Z</time></trkpt><trkpt lat="47.26036677141418" lon="-1.5426893625422777"><ele>27.8</ele><time>2026-04-16T16:56:53Z</time></trkpt><trkpt lat="47.260432108349406" lon="-1.5426674019559683"><ele>27.0</ele><time>2026-04-16T16:56:55Z</time></trkpt><trkpt lat="47.260650540746056" lon="-1.5426800586297573"><ele>26.166666666666668</ele><time>2026-04-16T16:56:59Z</time></trkpt><trkpt lat="47.260792907371425" lon="-1.542694559322244"><ele>25.333333333333332</ele><time>2026-04-16T16:57:01Z</time></trkpt><trkpt lat="47.26087622348895" lon="-1.5426752809449495"><ele>24.5</ele><time>2026-04-16T16:57:02Z</time></trkpt><trkpt lat="47.260953756093286" lon="-1.5426764544113936"><ele>23.666666666666664</ele><time>2026-04-16T16:57:03Z</time></trkpt><trkpt lat="47.26102072749963" lon="-1.5426896978184046"><ele>22.833333333333332</ele><time>2026-04-16T16:57:04Z</time></trkpt><trkpt lat="47.261083675592445" lon="-1.5426943916841807"><ele>22.0</ele><time>2026-04-16T16:57:05Z</time></trkpt><trkpt lat="47.26114637222817" lon="-1.5427056234344305"><ele>22.0</ele><time>2026-04-16T16:57:06Z</time></trkpt><trkpt lat="47.26122558121314" lon="-1.5427162684514584"><ele>22.0</ele><time>2026-04-16T16:57:07Z</time></trkpt><trkpt lat="47.261307388588094" lon="-1.5427268296494545"><ele>22.0</ele><time>2026-04-16T16:57:08Z</time></trkpt><trkpt lat="47.261442127681576" lon="-1.542720794679171"><ele>22.0</ele><time>2026-04-16T16:57:10Z</time></trkpt><trkpt lat="47.26153001193633" lon="-1.542717861013061"><ele>22.0</ele><time>2026-04-16T16:57:11Z</time></trkpt><trkpt lat="47.261604107960366" lon="-1.5427274163826765"><ele>22.0</ele><time>2026-04-16T16:57:12Z</time></trkpt><trkpt lat="47.26173700303515" lon="-1.5427414979800047"><ele>22.0</ele><time>2026-04-16T16:57:14Z</time></trkpt><trkpt lat="47.26181420036336" lon="-1.5427523106350962"><ele>22.0</ele><time>2026-04-16T16:57:15Z</time></trkpt><trkpt lat="47.26189231970092" lon="-1.5427571721389357"><ele>22.0</ele><time>2026-04-16T16:57:16Z</time></trkpt><trkpt lat="47.262036027430796" lon="-1.5427652187659804"><ele>22.0</ele><time>2026-04-16T16:57:18Z</time></trkpt><trkpt lat="47.26210480094632" lon="-1.5427674818798367"><ele>22.0</ele><time>2026-04-16T16:57:19Z</time></trkpt><trkpt lat="47.26224511400542" lon="-1.5427677333369318"><ele>22.0</ele><time>2026-04-16T16:57:21Z</time></trkpt><trkpt lat="47.26232055113396" lon="-1.5427729301168982"><ele>22.0</ele><time>2026-04-16T16:57:22Z</time></trkpt><trkpt lat="47.26238957610658" lon="-1.542795058341271"><ele>22.0</ele><time>2026-04-16T16:57:23Z</time></trkpt><trkpt lat="47.262459313540965" lon="-1.542805116625077"><ele>22.0</ele><time>2026-04-16T16:57:24Z</time></trkpt><trkpt lat="47.2625326132842" lon="-1.5428505465402667"><ele>22.0</ele><time>2026-04-16T16:57:25Z</time></trkpt><trkpt lat="47.26266689137301" lon="-1.5428787935539547"><ele>21.5</ele><time>2026-04-16T16:57:27Z</time></trkpt><trkpt lat="47.26273625162175" lon="-1.5429150871946875"><ele>21.0</ele><time>2026-04-16T16:57:28Z</time></trkpt><trkpt lat="47.26281185638836" lon="-1.5429805498584572"><ele>20.5</ele><time>2026-04-16T16:57:29Z</time></trkpt><trkpt lat="47.26292689800939" lon="-1.5430552326157159"><ele>20.0</ele><time>2026-04-16T16:57:31Z</time></trkpt><trkpt lat="47.262987960173994" lon="-1.5431113913669652"><ele>19.5</ele><time>2026-04-16T16:57:32Z</time></trkpt><trkpt lat="47.26305983499369" lon="-1.5431921929135388"><ele>19.0</ele><time>2026-04-16T16:57:33Z</time></trkpt><trkpt lat="47.2631058516421" lon="-1.5432558953776427"><ele>19.0</ele><time>2026-04-16T16:57:34Z</time></trkpt><trkpt lat="47.26320249498567" lon="-1.5433500241502591"><ele>19.0</ele><time>2026-04-16T16:57:36Z</time></trkpt><trkpt lat="47.26329884496263" lon="-1.5433664526804753"><ele>19.0</ele><time>2026-04-16T16:57:37Z</time></trkpt><trkpt lat="47.263365145816714" lon="-1.5434084460153648"><ele>19.0</ele><time>2026-04-16T16:57:38Z</time></trkpt><trkpt lat="47.26342448969117" lon="-1.5434623416527578"><ele>19.0</ele><time>2026-04-16T16:57:39Z</time></trkpt><trkpt lat="47.26348768924108" lon="-1.5435167402043413"><ele>19.0</ele><time>2026-04-16T16:57:40Z</time></trkpt><trkpt lat="47.26354891904375" lon="-1.5435682050898145"><ele>19.0</ele><time>2026-04-16T16:57:41Z</time></trkpt><trkpt lat="47.26362175778231" lon="-1.5436871442958187"><ele>19.0</ele><time>2026-04-16T16:57:43Z</time></trkpt><trkpt lat="47.26367334839633" lon="-1.5437811892494036"><ele>19.0</ele><time>2026-04-16T16:57:44Z</time></trkpt><trkpt lat="47.26376140028915" lon="-1.5439049899592472"><ele>19.0</ele><time>2026-04-16T16:57:46Z</time></trkpt><trkpt lat="47.26384366866878" lon="-1.5439955145135"><ele>19.0</ele><time>2026-04-16T16:57:48Z</time></trkpt><trkpt lat="47.26391969253054" lon="-1.544094756247051"><ele>19.0</ele><time>2026-04-16T16:57:49Z</time></trkpt><trkpt lat="47.26397769530049" lon="-1.544147226960905"><ele>19.0</ele><time>2026-04-16T16:57:50Z</time></trkpt><trkpt lat="47.26405661091885" lon="-1.5441953390851098"><ele>19.0</ele><time>2026-04-16T16:57:51Z</time></trkpt><trkpt lat="47.264123037501484" lon="-1.5442359913154917"><ele>19.0</ele><time>2026-04-16T16:57:52Z</time></trkpt><trkpt lat="47.26420383904806" lon="-1.5442949999138194"><ele>19.0</ele><time>2026-04-16T16:57:54Z</time></trkpt><trkpt lat="47.26426117126575" lon="-1.5443403460099774"><ele>19.0</ele><time>2026-04-16T16:57:55Z</time></trkpt><trkpt lat="47.264367453797966" lon="-1.544400528074749"><ele>19.0</ele><time>2026-04-16T16:57:57Z</time></trkpt><trkpt lat="47.264511329165906" lon="-1.5443858597441988"><ele>19.0</ele><time>2026-04-16T16:57:59Z</time></trkpt><trkpt lat="47.264610906175584" lon="-1.5443974267705756"><ele>19.0</ele><time>2026-04-16T16:58:01Z</time></trkpt><trkpt lat="47.26470947735688" lon="-1.5443252585842686"><ele>19.0</ele><time>2026-04-16T16:58:03Z</time></trkpt><trkpt lat="47.264787429056376" lon="-1.544273626060732"><ele>19.0</ele><time>2026-04-16T16:58:05Z</time></trkpt><trkpt lat="47.264849874235004" lon="-1.5442360751345234"><ele>19.5</ele><time>2026-04-16T16:58:06Z</time></trkpt><trkpt lat="47.26491676182231" lon="-1.5442100912346917"><ele>20.0</ele><time>2026-04-16T16:58:07Z</time></trkpt><trkpt lat="47.26497753062031" lon="-1.5441636554911211"><ele>20.5</ele><time>2026-04-16T16:58:08Z</time></trkpt><trkpt lat="47.2650451725789" lon="-1.5440837759538963"><ele>21.0</ele><time>2026-04-16T16:58:10Z</time></trkpt><trkpt lat="47.2651437437602" lon="-1.544030886144884"><ele>21.5</ele><time>2026-04-16T16:58:12Z</time></trkpt><trkpt lat="47.26520887114784" lon="-1.5439871326103285"><ele>22.0</ele><time>2026-04-16T16:58:13Z</time></trkpt><trkpt lat="47.265341472856015" lon="-1.5439583826824501"><ele>22.0</ele><time>2026-04-16T16:58:15Z</time></trkpt><trkpt lat="47.265402283563525" lon="-1.5439236816033197"><ele>22.0</ele><time>2026-04-16T16:58:16Z</time></trkpt><trkpt lat="47.2655071411722" lon="-1.5438785031452251"><ele>22.0</ele><time>2026-04-16T16:58:18Z</time></trkpt><trkpt lat="47.26561296269974" lon="-1.543840868399985"><ele>22.0</ele><time>2026-04-16T16:58:20Z</time></trkpt><trkpt lat="47.26569665600291" lon="-1.5438500884934736"><ele>22.0</ele><time>2026-04-16T16:58:21Z</time></trkpt><trkpt lat="47.265784833624274" lon="-1.543905660511501"><ele>22.0</ele><time>2026-04-16T16:58:23Z</time></trkpt><trkpt lat="47.26585591216317" lon="-1.5440031420453861"><ele>22.0</ele><time>2026-04-16T16:58:25Z</time></trkpt><trkpt lat="47.265867688737124" lon="-1.5441329777255133"><ele>22.0</ele><time>2026-04-16T16:58:27Z</time></trkpt><trkpt lat="47.265865048437625" lon="-1.544290976600297"><ele>22.0</ele><time>2026-04-16T16:58:29Z</time></trkpt><trkpt lat="47.26588139314881" lon="-1.5444405935719092"><ele>22.0</ele><time>2026-04-16T16:58:31Z</time></trkpt><trkpt lat="47.26595406424931" lon="-1.5445703454330046"><ele>22.200000000000003</ele><time>2026-04-16T16:58:33Z</time></trkpt><trkpt lat="47.266022083393544" lon="-1.5447195433094583"><ele>22.4</ele><time>2026-04-16T16:58:35Z</time></trkpt><trkpt lat="47.26612773728302" lon="-1.5446961577996097"><ele>22.6</ele><time>2026-04-16T16:58:37Z</time></trkpt><trkpt lat="47.26621801038018" lon="-1.5446767956032834"><ele>22.799999999999997</ele><time>2026-04-16T16:58:39Z</time></trkpt><trkpt lat="47.26634436757049" lon="-1.5446394123151381"><ele>23.0</ele><time>2026-04-16T16:58:41Z</time></trkpt><trkpt lat="47.26646468979052" lon="-1.5445981733515342"><ele>23.0</ele><time>2026-04-16T16:58:43Z</time></trkpt><trkpt lat="47.2665788094022" lon="-1.5445415116860945"><ele>23.0</ele><time>2026-04-16T16:58:45Z</time></trkpt><trkpt lat="47.26664770864627" lon="-1.5445388294770797"><ele>23.0</ele><time>2026-04-16T16:58:46Z</time></trkpt><trkpt lat="47.26671929009935" lon="-1.544543439523824"><ele>23.0</ele><time>2026-04-16T16:58:47Z</time></trkpt><trkpt lat="47.26679476913741" lon="-1.5445507317795832"><ele>23.0</ele><time>2026-04-16T16:58:48Z</time></trkpt><trkpt lat="47.26687573832205" lon="-1.544548468665727"><ele>23.0</ele><time>2026-04-16T16:58:49Z</time></trkpt><trkpt lat="47.266945098570794" lon="-1.5445477981134732"><ele>23.4</ele><time>2026-04-16T16:58:50Z</time></trkpt><trkpt lat="47.26703830533406" lon="-1.5445879474296649"><ele>23.799999999999997</ele><time>2026-04-16T16:58:52Z</time></trkpt><trkpt lat="47.26709848739883" lon="-1.5446166135385115"><ele>24.2</ele><time>2026-04-16T16:58:53Z</time></trkpt><trkpt lat="47.2672347771444" lon="-1.5446561761214812"><ele>24.6</ele><time>2026-04-16T16:58:55Z</time></trkpt><trkpt lat="47.26734768138012" lon="-1.5447153523578725"><ele>25.0</ele><time>2026-04-16T16:58:56.999Z</time></trkpt><trkpt lat="47.26745220371267" lon="-1.544801518322476"><ele>25.6</ele><time>2026-04-16T16:58:58.999Z</time></trkpt><trkpt lat="47.26751879793337" lon="-1.5449124947204673"><ele>26.2</ele><time>2026-04-16T16:59:00.999Z</time></trkpt><trkpt lat="47.26757587869397" lon="-1.5450445935144508"><ele>26.799999999999997</ele><time>2026-04-16T16:59:02.999Z</time></trkpt><trkpt lat="47.26764821451834" lon="-1.545136794449338"><ele>27.4</ele><time>2026-04-16T16:59:04.999Z</time></trkpt><trkpt lat="47.267711497887284" lon="-1.5452253073468294"><ele>28.0</ele><time>2026-04-16T16:59:06.999Z</time></trkpt><trkpt lat="47.26776241794905" lon="-1.5453131496920671"><ele>27.833333333333336</ele><time>2026-04-16T16:59:08.999Z</time></trkpt><trkpt lat="47.26781748705289" lon="-1.5454135648920624"><ele>27.666666666666668</ele><time>2026-04-16T16:59:10.999Z</time></trkpt><trkpt lat="47.2678521462225" lon="-1.5455237030997364"><ele>27.5</ele><time>2026-04-16T16:59:12.999Z</time></trkpt><trkpt lat="47.26787683092734" lon="-1.5456301532700152"><ele>27.333333333333336</ele><time>2026-04-16T16:59:14.999Z</time></trkpt><trkpt lat="47.26787624419412" lon="-1.5457459073528141"><ele>27.166666666666668</ele><time>2026-04-16T16:59:16.999Z</time></trkpt><trkpt lat="47.26787075404754" lon="-1.54586736112977"><ele>27.0</ele><time>2026-04-16T16:59:18.999Z</time></trkpt><trkpt lat="47.267873059070915" lon="-1.5459795109942052"><ele>27.0</ele><time>2026-04-16T16:59:20.999Z</time></trkpt><trkpt lat="47.26792892445555" lon="-1.5460351668312642"><ele>27.0</ele><time>2026-04-16T16:59:22.999Z</time></trkpt><trkpt lat="47.26801961664787" lon="-1.5460425429060551"><ele>27.0</ele><time>2026-04-16T16:59:24.999Z</time></trkpt><trkpt lat="47.26813423917374" lon="-1.5460396930589768"><ele>27.0</ele><time>2026-04-16T16:59:26.999Z</time></trkpt><trkpt lat="47.26822488945654" lon="-1.5460219234242532"><ele>27.0</ele><time>2026-04-16T16:59:28.999Z</time></trkpt><trkpt lat="47.26828813091597" lon="-1.5460230968906972"><ele>27.0</ele><time>2026-04-16T16:59:29.999Z</time></trkpt><trkpt lat="47.26835811980745" lon="-1.5460183192058894"><ele>27.400000000000002</ele><time>2026-04-16T16:59:30.999Z</time></trkpt><trkpt lat="47.2684636898779" lon="-1.546024940909395"><ele>27.800000000000004</ele><time>2026-04-16T16:59:32.999Z</time></trkpt><trkpt lat="47.268565404272884" lon="-1.546038184316406"><ele>28.2</ele><time>2026-04-16T16:59:34.999Z</time></trkpt><trkpt lat="47.26867562629959" lon="-1.546060815454969"><ele>28.6</ele><time>2026-04-16T16:59:36.999Z</time></trkpt><trkpt lat="47.268737903840155" lon="-1.5460952650770043"><ele>29.0</ele><time>2026-04-16T16:59:37.999Z</time></trkpt><trkpt lat="47.26882779975167" lon="-1.5461379289641475"><ele>29.0</ele><time>2026-04-16T16:59:39.999Z</time></trkpt><trkpt lat="47.26890721828422" lon="-1.5461939200773334"><ele>29.0</ele><time>2026-04-16T16:59:41.999Z</time></trkpt><trkpt lat="47.26899627600542" lon="-1.5461810119464492"><ele>29.0</ele><time>2026-04-16T16:59:44.999Z</time></trkpt><trkpt lat="47.26907079112461" lon="-1.5461642481401061"><ele>29.0</ele><time>2026-04-16T16:59:46.999Z</time></trkpt><trkpt lat="47.269161106131286" lon="-1.5461358334883546"><ele>29.0</ele><time>2026-04-16T16:59:48.999Z</time></trkpt><trkpt lat="47.26926793348721" lon="-1.5460909903063869"><ele>29.499999999999996</ele><time>2026-04-16T16:59:50.999Z</time></trkpt><trkpt lat="47.269337251826435" lon="-1.5461070835604762"><ele>30.0</ele><time>2026-04-16T16:59:51.999Z</time></trkpt><trkpt lat="47.26940124765715" lon="-1.5460963547244166"><ele>30.5</ele><time>2026-04-16T16:59:52.999Z</time></trkpt><trkpt lat="47.26947002117267" lon="-1.5461095981314277"><ele>31.0</ele><time>2026-04-16T16:59:53.999Z</time></trkpt><trkpt lat="47.26953904614529" lon="-1.54611068777884"><ele>31.499999999999996</ele><time>2026-04-16T16:59:54.999Z</time></trkpt><trkpt lat="47.26960417353293" lon="-1.546128038318405"><ele>32.0</ele><time>2026-04-16T16:59:56.999Z</time></trkpt><trkpt lat="47.26972290319136" lon="-1.5461225900813436"><ele>32.0</ele><time>2026-04-16T16:59:59.999Z</time></trkpt><trkpt lat="47.26978631228885" lon="-1.5461349952980374"><ele>32.0</ele><time>2026-04-16T17:00:00.999Z</time></trkpt><trkpt lat="47.269848254553295" lon="-1.5461591351791715"><ele>32.0</ele><time>2026-04-16T17:00:01.999Z</time></trkpt><trkpt lat="47.270027040547944" lon="-1.5461750607951974"><ele>32.0</ele><time>2026-04-16T17:00:03.999Z</time></trkpt><trkpt lat="47.27011299696497" lon="-1.5461804252132272"><ele>32.0</ele><time>2026-04-16T17:00:04.999Z</time></trkpt><trkpt lat="47.27019719318233" lon="-1.5461932495250796"><ele>32.0</ele><time>2026-04-16T17:00:05.999Z</time></trkpt><trkpt lat="47.27027070247314" lon="-1.546189896763811"><ele>32.0</ele><time>2026-04-16T17:00:06.999Z</time></trkpt><trkpt lat="47.27035024673424" lon="-1.546211689712057"><ele>32.0</ele><time>2026-04-16T17:00:07.999Z</time></trkpt><trkpt lat="47.270480082414366" lon="-1.5462485700860118"><ele>32.0</ele><time>2026-04-16T17:00:09.999Z</time></trkpt><trkpt lat="47.27054336578331" lon="-1.5462686028345918"><ele>32.0</ele><time>2026-04-16T17:00:10.999Z</time></trkpt><trkpt lat="47.270665532022036" lon="-1.5462863724693154"><ele>32.2</ele><time>2026-04-16T17:00:12.999Z</time></trkpt><trkpt lat="47.270738286941565" lon="-1.5463117696359252"><ele>32.400000000000006</ele><time>2026-04-16T17:00:13.999Z</time></trkpt><trkpt lat="47.27079742126844" lon="-1.5463566128178932"><ele>32.599999999999994</ele><time>2026-04-16T17:00:14.999Z</time></trkpt><trkpt lat="47.27091770157895" lon="-1.5463737957193948"><ele>32.8</ele><time>2026-04-16T17:00:16.999Z</time></trkpt><trkpt lat="47.271023816473104" lon="-1.546384021641264"><ele>33.0</ele><time>2026-04-16T17:00:18.999Z</time></trkpt><trkpt lat="47.27113898382268" lon="-1.5464138612165548"><ele>33.0</ele><time>2026-04-16T17:00:20.999Z</time></trkpt><trkpt lat="47.271258761219" lon="-1.5464525856092073"><ele>33.0</ele><time>2026-04-16T17:00:22.999Z</time></trkpt><trkpt lat="47.271329546391286" lon="-1.5464519150569536"><ele>33.0</ele><time>2026-04-16T17:00:23.999Z</time></trkpt><trkpt lat="47.27145770569078" lon="-1.5465072356178857"><ele>33.0</ele><time>2026-04-16T17:00:25.999Z</time></trkpt><trkpt lat="47.271520360416986" lon="-1.5464967582389213"><ele>33.0</ele><time>2026-04-16T17:00:26.999Z</time></trkpt><trkpt lat="47.27157270540229" lon="-1.5465494804098703"><ele>32.6</ele><time>2026-04-16T17:00:27.999Z</time></trkpt><trkpt lat="47.27169197988442" lon="-1.546609411017547"><ele>32.199999999999996</ele><time>2026-04-16T17:00:29.999Z</time></trkpt><trkpt lat="47.27177475117824" lon="-1.5466077346369127"><ele>31.8</ele><time>2026-04-16T17:00:30.999Z</time></trkpt><trkpt lat="47.27184113585136" lon="-1.5466268453761438"><ele>31.4</ele><time>2026-04-16T17:00:31.999Z</time></trkpt><trkpt lat="47.271938407837666" lon="-1.5466408431544403"><ele>31.0</ele><time>2026-04-16T17:00:33.999Z</time></trkpt><trkpt lat="47.27203014776788" lon="-1.5466749575003484"><ele>31.000000000000004</ele><time>2026-04-16T17:00:35.999Z</time></trkpt><trkpt lat="47.27214078888974" lon="-1.5466982591911653"><ele>31.0</ele><time>2026-04-16T17:00:37.999Z</time></trkpt><trkpt lat="47.27220864039592" lon="-1.5467120893313984"><ele>31.0</ele><time>2026-04-16T17:00:38.999Z</time></trkpt><trkpt lat="47.27227640808306" lon="-1.5467340499177078"><ele>31.0</ele><time>2026-04-16T17:00:39.999Z</time></trkpt><trkpt lat="47.27233759597621" lon="-1.5467629674836496"><ele>31.000000000000004</ele><time>2026-04-16T17:00:40.999Z</time></trkpt><trkpt lat="47.27241135672412" lon="-1.5467797312899927"><ele>31.0</ele><time>2026-04-16T17:00:41.999Z</time></trkpt><trkpt lat="47.272499743893064" lon="-1.5467939805253843"><ele>31.200000000000003</ele><time>2026-04-16T17:00:43.999Z</time></trkpt><trkpt lat="47.272574300921775" lon="-1.546824490652929"><ele>31.400000000000002</ele><time>2026-04-16T17:00:44.999Z</time></trkpt><trkpt lat="47.27270631589673" lon="-1.5468779671951634"><ele>31.6</ele><time>2026-04-16T17:00:46.999Z</time></trkpt><trkpt lat="47.27283841469071" lon="-1.5469255764051777"><ele>31.8</ele><time>2026-04-16T17:00:48.999Z</time></trkpt><trkpt lat="47.27292378437451" lon="-1.5469751972719532"><ele>32.0</ele><time>2026-04-16T17:00:50.999Z</time></trkpt><trkpt lat="47.2730402928286" lon="-1.5470108203604322"><ele>31.8</ele><time>2026-04-16T17:00:52.999Z</time></trkpt><trkpt lat="47.27310692895881" lon="-1.5470230579390627"><ele>31.6</ele><time>2026-04-16T17:00:53.999Z</time></trkpt><trkpt lat="47.273212499029256" lon="-1.5470727626248701"><ele>31.400000000000002</ele><time>2026-04-16T17:00:55.999Z</time></trkpt><trkpt lat="47.273363960019566" lon="-1.5470901131644352"><ele>31.200000000000003</ele><time>2026-04-16T17:00:57.999Z</time></trkpt><trkpt lat="47.273424561179496" lon="-1.5471181925400599"><ele>31.0</ele><time>2026-04-16T17:00:58.999Z</time></trkpt><trkpt lat="47.273505111268975" lon="-1.5471697412445649"><ele>31.4</ele><time>2026-04-16T17:01:00.999Z</time></trkpt><trkpt lat="47.2735884273865" lon="-1.547239478678952"><ele>31.8</ele><time>2026-04-16T17:01:02.999Z</time></trkpt><trkpt lat="47.27365426723591" lon="-1.5472720004632576"><ele>32.199999999999996</ele><time>2026-04-16T17:01:03.999Z</time></trkpt><trkpt lat="47.27375220977447" lon="-1.5473464317634211"><ele>32.6</ele><time>2026-04-16T17:01:05.999Z</time></trkpt><trkpt lat="47.27380405184559" lon="-1.5474565699710952"><ele>33.0</ele><time>2026-04-16T17:01:07.999Z</time></trkpt><trkpt lat="47.273883386559106" lon="-1.5475362818702567"><ele>33.199999999999996</ele><time>2026-04-16T17:01:09.999Z</time></trkpt><trkpt lat="47.27396175735376" lon="-1.5476022474482167"><ele>33.4</ele><time>2026-04-16T17:01:11.999Z</time></trkpt><trkpt lat="47.274025962732054" lon="-1.5476853121086467"><ele>33.599999999999994</ele><time>2026-04-16T17:01:13.999Z</time></trkpt><trkpt lat="47.274129060141064" lon="-1.5477121341987956"><ele>33.8</ele><time>2026-04-16T17:01:15.999Z</time></trkpt><trkpt lat="47.274232450916685" lon="-1.5477260481580604"><ele>34.0</ele><time>2026-04-16T17:01:17.999Z</time></trkpt><trkpt lat="47.27430445146493" lon="-1.5477071050568927"><ele>34.0</ele><time>2026-04-16T17:01:19.999Z</time></trkpt><trkpt lat="47.27437159050933" lon="-1.5476677101119864"><ele>34.0</ele><time>2026-04-16T17:01:21.999Z</time></trkpt><trkpt lat="47.27446148642085" lon="-1.547604259104978"><ele>34.0</ele><time>2026-04-16T17:01:23.999Z</time></trkpt><trkpt lat="47.27452984084121" lon="-1.5475313365473855"><ele>34.0</ele><time>2026-04-16T17:01:25.999Z</time></trkpt><trkpt lat="47.274624891623176" lon="-1.5474900975837813"><ele>34.0</ele><time>2026-04-16T17:01:27.999Z</time></trkpt><trkpt lat="47.274711015678264" lon="-1.5474711544826136"><ele>34.0</ele><time>2026-04-16T17:01:29.999Z</time></trkpt><trkpt lat="47.274818848862566" lon="-1.547431256623517"><ele>34.66666666666667</ele><time>2026-04-16T17:01:31.999Z</time></trkpt><trkpt lat="47.274926598227836" lon="-1.5474190190448867"><ele>35.333333333333336</ele><time>2026-04-16T17:01:33.999Z</time></trkpt><trkpt lat="47.27500530429862" lon="-1.5474309213473902"><ele>36.0</ele><time>2026-04-16T17:01:35.999Z</time></trkpt><trkpt lat="47.275087488859214" lon="-1.5474531333907948"><ele>36.666666666666664</ele><time>2026-04-16T17:01:37.999Z</time></trkpt><trkpt lat="47.27517419964752" lon="-1.5474908519550667"><ele>37.33333333333333</ele><time>2026-04-16T17:01:39.999Z</time></trkpt><trkpt lat="47.27524515245787" lon="-1.5475231222822774"><ele>38.0</ele><time>2026-04-16T17:01:41.999Z</time></trkpt><trkpt lat="47.27531556044451" lon="-1.5475533809527267"><ele>38.0</ele><time>2026-04-16T17:01:43.999Z</time></trkpt><trkpt lat="47.275406881279565" lon="-1.5475708991303552"><ele>38.0</ele><time>2026-04-16T17:01:45.999Z</time></trkpt><trkpt lat="47.27549728010527" lon="-1.5475905966028083"><ele>38.0</ele><time>2026-04-16T17:01:47.999Z</time></trkpt><trkpt lat="47.27558956485919" lon="-1.5476222801967967"><ele>38.0</ele><time>2026-04-16T17:01:49.999Z</time></trkpt><trkpt lat="47.27565833837471" lon="-1.547658741475593"><ele>38.0</ele><time>2026-04-16T17:01:51.999Z</time></trkpt><trkpt lat="47.27573532615534" lon="-1.5476915147169936"><ele>38.0</ele><time>2026-04-16T17:01:53.999Z</time></trkpt><trkpt lat="47.27583310105584" lon="-1.547738201917659"><ele>38.0</ele><time>2026-04-16T17:01:56.999Z</time></trkpt><trkpt lat="47.27590690371326" lon="-1.5478059276952854"><ele>38.0</ele><time>2026-04-16T17:01:58.999Z</time></trkpt><trkpt lat="47.27595401000909" lon="-1.5478939376785865"><ele>38.0</ele><time>2026-04-16T17:02:00.999Z</time></trkpt><trkpt lat="47.2759981826388" lon="-1.5479935146882644"><ele>38.0</ele><time>2026-04-16T17:02:03.999Z</time></trkpt><trkpt lat="47.276042774363674" lon="-1.5481137949987762"><ele>38.0</ele><time>2026-04-16T17:02:06.999Z</time></trkpt><trkpt lat="47.276107817932285" lon="-1.5482448879643793"><ele>38.0</ele><time>2026-04-16T17:02:08.999Z</time></trkpt><trkpt lat="47.27618354842744" lon="-1.5482960175737257"><ele>38.0</ele><time>2026-04-16T17:02:10.999Z</time></trkpt><trkpt lat="47.276251190386034" lon="-1.5482954308405037"><ele>38.0</ele><time>2026-04-16T17:02:12.999Z</time></trkpt><trkpt lat="47.27632851344279" lon="-1.5482925809934254"><ele>38.0</ele><time>2026-04-16T17:02:14.999Z</time></trkpt><trkpt lat="47.27639468856833" lon="-1.5482487436398382"><ele>38.0</ele><time>2026-04-16T17:02:16.999Z</time></trkpt><trkpt lat="47.27647410710088" lon="-1.5481937583550327"><ele>38.0</ele><time>2026-04-16T17:02:18.999Z</time></trkpt><trkpt lat="47.276558345227755" lon="-1.548151262105953"><ele>38.0</ele><time>2026-04-16T17:02:20.999Z</time></trkpt><trkpt lat="47.27662372407249" lon="-1.5481500048204773"><ele>38.199999999999996</ele><time>2026-04-16T17:02:22.999Z</time></trkpt><trkpt lat="47.276696646630086" lon="-1.5481631644084566"><ele>38.4</ele><time>2026-04-16T17:02:23.999Z</time></trkpt><trkpt lat="47.27680175569586" lon="-1.548164840789091"><ele>38.599999999999994</ele><time>2026-04-16T17:02:25.999Z</time></trkpt><trkpt lat="47.27692547258667" lon="-1.5481860470041149"><ele>38.8</ele><time>2026-04-16T17:02:27.999Z</time></trkpt><trkpt lat="47.2769895103269" lon="-1.5481945965453499"><ele>39.0</ele><time>2026-04-16T17:02:28.999Z</time></trkpt><trkpt lat="47.277096589139916" lon="-1.548222843559038"><ele>39.0</ele><time>2026-04-16T17:02:30.999Z</time></trkpt><trkpt lat="47.277162051803685" lon="-1.548236757518303"><ele>39.0</ele><time>2026-04-16T17:02:31.999Z</time></trkpt><trkpt lat="47.277228520295836" lon="-1.5482571255430098"><ele>39.0</ele><time>2026-04-16T17:02:32.999Z</time></trkpt><trkpt lat="47.27729306095026" lon="-1.548280343414795"><ele>39.0</ele><time>2026-04-16T17:02:33.999Z</time></trkpt><trkpt lat="47.277357014871455" lon="-1.5482905693366642"><ele>39.0</ele><time>2026-04-16T17:02:34.999Z</time></trkpt><trkpt lat="47.27742759049616" lon="-1.5483065787717218"><ele>39.0</ele><time>2026-04-16T17:02:35.999Z</time></trkpt><trkpt lat="47.277491041503175" lon="-1.5483232587590332"><ele>39.0</ele><time>2026-04-16T17:02:36.999Z</time></trkpt><trkpt lat="47.27755633652888" lon="-1.5483442973359938"><ele>38.5</ele><time>2026-04-16T17:02:37.999Z</time></trkpt><trkpt lat="47.27762749888681" lon="-1.5483729634448404"><ele>38.0</ele><time>2026-04-16T17:02:38.999Z</time></trkpt><trkpt lat="47.27772083137862" lon="-1.5483968518688793"><ele>37.5</ele><time>2026-04-16T17:02:39.999Z</time></trkpt><trkpt lat="47.27779350247912" lon="-1.5484167169793959"><ele>37.0</ele><time>2026-04-16T17:02:40.999Z</time></trkpt><trkpt lat="47.27801692210816" lon="-1.5484810061767218"><ele>37.0</ele><time>2026-04-16T17:02:44Z</time></trkpt><trkpt lat="47.278094035617336" lon="-1.5485234186067698"><ele>37.0</ele><time>2026-04-16T17:02:45Z</time></trkpt><trkpt lat="47.27816968229346" lon="-1.5485532581820605"><ele>37.0</ele><time>2026-04-16T17:02:46Z</time></trkpt><trkpt lat="47.278250064744874" lon="-1.5485846903189537"><ele>37.0</ele><time>2026-04-16T17:02:47Z</time></trkpt><trkpt lat="47.27834239140831" lon="-1.5486124344184515"><ele>37.0</ele><time>2026-04-16T17:02:48Z</time></trkpt><trkpt lat="47.27843123958193" lon="-1.5486271027490017"><ele>37.0</ele><time>2026-04-16T17:02:49Z</time></trkpt><trkpt lat="47.27851790846072" lon="-1.5486448723837254"><ele>36.5</ele><time>2026-04-16T17:02:50Z</time></trkpt><trkpt lat="47.27859967392616" lon="-1.5486714430167792"><ele>36.0</ele><time>2026-04-16T17:02:51Z</time></trkpt><trkpt lat="47.27869099476121" lon="-1.5486868657186148"><ele>35.5</ele><time>2026-04-16T17:02:52Z</time></trkpt><trkpt lat="47.278773682236" lon="-1.5486943256124375"><ele>35.0</ele><time>2026-04-16T17:02:53Z</time></trkpt><trkpt lat="47.27886060257189" lon="-1.5487293619676947"><ele>34.5</ele><time>2026-04-16T17:02:54Z</time></trkpt><trkpt lat="47.27895255204968" lon="-1.5487514063730359"><ele>34.0</ele><time>2026-04-16T17:02:55Z</time></trkpt><trkpt lat="47.27905028504066" lon="-1.548779653386724"><ele>33.0</ele><time>2026-04-16T17:02:56Z</time></trkpt><trkpt lat="47.27913821120493" lon="-1.5488047990962386"><ele>32.0</ele><time>2026-04-16T17:02:57Z</time></trkpt><trkpt lat="47.279232549525126" lon="-1.5488319564625144"><ele>31.0</ele><time>2026-04-16T17:02:58Z</time></trkpt><trkpt lat="47.279319972775205" lon="-1.548862969504249"><ele>30.0</ele><time>2026-04-16T17:02:59Z</time></trkpt><trkpt lat="47.27940949150108" lon="-1.5488951560124278"><ele>29.0</ele><time>2026-04-16T17:03:00Z</time></trkpt><trkpt lat="47.27950165052645" lon="-1.5489169489606738"><ele>29.0</ele><time>2026-04-16T17:03:01Z</time></trkpt><trkpt lat="47.279587187848314" lon="-1.548931030558002"><ele>29.0</ele><time>2026-04-16T17:03:02Z</time></trkpt><trkpt lat="47.27968081370674" lon="-1.5489438548698544"><ele>29.0</ele><time>2026-04-16T17:03:03Z</time></trkpt><trkpt lat="47.279771631627604" lon="-1.5489703416838767"><ele>29.0</ele><time>2026-04-16T17:03:04Z</time></trkpt><trkpt lat="47.27985716894947" lon="-1.5489965770408036"><ele>29.0</ele><time>2026-04-16T17:03:05Z</time></trkpt><trkpt lat="47.27994547229938" lon="-1.5490223094835402"><ele>28.2</ele><time>2026-04-16T17:03:06Z</time></trkpt><trkpt lat="47.28002774067901" lon="-1.5490565914675118"><ele>27.4</ele><time>2026-04-16T17:03:07Z</time></trkpt><trkpt lat="47.280119061514064" lon="-1.5491070505246045"><ele>26.6</ele><time>2026-04-16T17:03:08Z</time></trkpt><trkpt lat="47.280209083154126" lon="-1.5491466131075742"><ele>25.8</ele><time>2026-04-16T17:03:09Z</time></trkpt><trkpt lat="47.28031197101556" lon="-1.5491146780564906"><ele>25.0</ele><time>2026-04-16T17:03:10Z</time></trkpt><trkpt lat="47.280408907725736" lon="-1.5491182822748544"><ele>25.000000000000004</ele><time>2026-04-16T17:03:11Z</time></trkpt><trkpt lat="47.280489541634246" lon="-1.549153150992048"><ele>25.0</ele><time>2026-04-16T17:03:12Z</time></trkpt><trkpt lat="47.28056891825728" lon="-1.5492045320584897"><ele>25.0</ele><time>2026-04-16T17:03:13Z</time></trkpt><trkpt lat="47.28065290492706" lon="-1.54923093505348"><ele>25.0</ele><time>2026-04-16T17:03:14Z</time></trkpt><trkpt lat="47.28074787188999" lon="-1.5492278337493066"><ele>25.000000000000004</ele><time>2026-04-16T17:03:15Z</time></trkpt><trkpt lat="47.280828170522376" lon="-1.5492655523135785"><ele>25.0</ele><time>2026-04-16T17:03:16Z</time></trkpt><trkpt lat="47.28090918161653" lon="-1.5492994990214233"><ele>25.166666666666668</ele><time>2026-04-16T17:03:17Z</time></trkpt><trkpt lat="47.280982271812185" lon="-1.5493298415109042"><ele>25.333333333333336</ele><time>2026-04-16T17:03:18Z</time></trkpt><trkpt lat="47.281070323705" lon="-1.5493477787836913"><ele>25.5</ele><time>2026-04-16T17:03:19Z</time></trkpt><trkpt lat="47.2811517119848" lon="-1.5493734274073963"><ele>25.666666666666664</ele><time>2026-04-16T17:03:20Z</time></trkpt><trkpt lat="47.281230040869936" lon="-1.5493980702027206"><ele>25.833333333333332</ele><time>2026-04-16T17:03:21Z</time></trkpt><trkpt lat="47.28130610664122" lon="-1.5494307596250898"><ele>26.0</ele><time>2026-04-16T17:03:22Z</time></trkpt><trkpt lat="47.28138234005056" lon="-1.5494496189072258"><ele>26.142857142857142</ele><time>2026-04-16T17:03:23Z</time></trkpt><trkpt lat="47.281446754976436" lon="-1.5494676399990446"><ele>26.28571428571429</ele><time>2026-04-16T17:03:24Z</time></trkpt><trkpt lat="47.28152135391466" lon="-1.549495216460479"><ele>26.42857142857143</ele><time>2026-04-16T17:03:25Z</time></trkpt><trkpt lat="47.281596288129016" lon="-1.5495188534274227"><ele>26.57142857142857</ele><time>2026-04-16T17:03:26Z</time></trkpt><trkpt lat="47.28167151570998" lon="-1.5495311748250848"><ele>26.714285714285715</ele><time>2026-04-16T17:03:27Z</time></trkpt><trkpt lat="47.28174561173402" lon="-1.5495266485973722"><ele>26.857142857142858</ele><time>2026-04-16T17:03:28Z</time></trkpt><trkpt lat="47.28180939801715" lon="-1.5495433285846836"><ele>27.0</ele><time>2026-04-16T17:03:29Z</time></trkpt><trkpt lat="47.28188123092733" lon="-1.5495433285846836"><ele>27.200000000000003</ele><time>2026-04-16T17:03:30Z</time></trkpt><trkpt lat="47.28194820233367" lon="-1.5495581645532972"><ele>27.400000000000002</ele><time>2026-04-16T17:03:31Z</time></trkpt><trkpt lat="47.28207543962382" lon="-1.5495920274421102"><ele>27.599999999999998</ele><time>2026-04-16T17:03:33Z</time></trkpt><trkpt lat="47.282191193706616" lon="-1.5496247168644792"><ele>27.799999999999997</ele><time>2026-04-16T17:03:35Z</time></trkpt><trkpt lat="47.282256949737" lon="-1.54964625835563"><ele>28.0</ele><time>2026-04-16T17:03:36Z</time></trkpt><trkpt lat="47.28237530220978" lon="-1.5496692247703203"><ele>28.25</ele><time>2026-04-16T17:03:38Z</time></trkpt><trkpt lat="47.28249134965919" lon="-1.5497007407262453"><ele>28.5</ele><time>2026-04-16T17:03:40Z</time></trkpt><trkpt lat="47.28261397690259" lon="-1.5496962144985327"><ele>28.75</ele><time>2026-04-16T17:03:42Z</time></trkpt><trkpt lat="47.282733293294235" lon="-1.5497262217118868"><ele>29.0</ele><time>2026-04-16T17:03:44Z</time></trkpt><trkpt lat="47.28283572015099" lon="-1.5497832186534533"><ele>29.0</ele><time>2026-04-16T17:03:46Z</time></trkpt><trkpt lat="47.282917443706914" lon="-1.5498388744905123"><ele>29.0</ele><time>2026-04-16T17:03:48Z</time></trkpt><trkpt lat="47.28301509287886" lon="-1.5498398803188929"><ele>29.0</ele><time>2026-04-16T17:03:50Z</time></trkpt><trkpt lat="47.28311454415999" lon="-1.5497827995582947"><ele>29.0</ele><time>2026-04-16T17:03:52Z</time></trkpt><trkpt lat="47.2832255624675" lon="-1.5497301612063774"><ele>29.0</ele><time>2026-04-16T17:03:54Z</time></trkpt><trkpt lat="47.28333431766115" lon="-1.5497347712531218"><ele>29.0</ele><time>2026-04-16T17:03:56Z</time></trkpt><trkpt lat="47.283436660698875" lon="-1.5497861523195633"><ele>29.0</ele><time>2026-04-16T17:03:57Z</time></trkpt><trkpt lat="47.28353749499403" lon="-1.5497913490995296"><ele>29.0</ele><time>2026-04-16T17:03:59Z</time></trkpt><trkpt lat="47.28365982887082" lon="-1.549791265280498"><ele>29.0</ele><time>2026-04-16T17:04:01Z</time></trkpt><trkpt lat="47.28372307033025" lon="-1.5498030837639698"><ele>29.0</ele><time>2026-04-16T17:04:02Z</time></trkpt><trkpt lat="47.283788742541596" lon="-1.5498066879823336"><ele>28.999999999999996</ele><time>2026-04-16T17:04:03Z</time></trkpt><trkpt lat="47.28385579776697" lon="-1.5498076099916824"><ele>29.0</ele><time>2026-04-16T17:04:04Z</time></trkpt><trkpt lat="47.283925032287165" lon="-1.5498128905906805"><ele>29.0</ele><time>2026-04-16T17:04:05Z</time></trkpt><trkpt lat="47.28404728234492" lon="-1.5498090349152216"><ele>29.0</ele><time>2026-04-16T17:04:07Z</time></trkpt><trkpt lat="47.284115050032064" lon="-1.5498065203442701"><ele>28.999999999999996</ele><time>2026-04-16T17:04:08Z</time></trkpt><trkpt lat="47.284227954267784" lon="-1.5498161595329174"><ele>29.0</ele><time>2026-04-16T17:04:10Z</time></trkpt><trkpt lat="47.28433859538965" lon="-1.5498060174300798"><ele>28.799999999999997</ele><time>2026-04-16T17:04:12Z</time></trkpt><trkpt lat="47.284412188499495" lon="-1.549803335221065"><ele>28.599999999999998</ele><time>2026-04-16T17:04:13Z</time></trkpt><trkpt lat="47.28453133725308" lon="-1.5497949533178934"><ele>28.4</ele><time>2026-04-16T17:04:15Z</time></trkpt><trkpt lat="47.284662807404324" lon="-1.549782129006041"><ele>28.2</ele><time>2026-04-16T17:04:17Z</time></trkpt><trkpt lat="47.284726845144554" lon="-1.5497781895115503"><ele>28.0</ele><time>2026-04-16T17:04:18Z</time></trkpt><trkpt lat="47.28481116709046" lon="-1.54977181926514"><ele>27.799999999999997</ele><time>2026-04-16T17:04:19Z</time></trkpt><trkpt lat="47.284884760200306" lon="-1.5497612580671438"><ele>27.599999999999998</ele><time>2026-04-16T17:04:20Z</time></trkpt><trkpt lat="47.28500529196791" lon="-1.549757067115558"><ele>27.400000000000002</ele><time>2026-04-16T17:04:22Z</time></trkpt><trkpt lat="47.285119076303474" lon="-1.5497828833773264"><ele>27.200000000000003</ele><time>2026-04-16T17:04:24Z</time></trkpt><trkpt lat="47.285221754617325" lon="-1.5498626790955194"><ele>27.0</ele><time>2026-04-16T17:04:26Z</time></trkpt><trkpt lat="47.28526228111916" lon="-1.5499639324858319"><ele>27.0</ele><time>2026-04-16T17:04:28Z</time></trkpt><trkpt lat="47.28530901022934" lon="-1.5500296466066967"><ele>27.0</ele><time>2026-04-16T17:04:31Z</time></trkpt><trkpt lat="47.28533180900597" lon="-1.5501313190921675"><ele>27.0</ele><time>2026-04-16T17:04:34Z</time></trkpt><trkpt lat="47.285391362428" lon="-1.5502327401205434"><ele>27.0</ele><time>2026-04-16T17:04:36Z</time></trkpt><trkpt lat="47.28546101604336" lon="-1.5502992924317254"><ele>27.0</ele><time>2026-04-16T17:04:38Z</time></trkpt><trkpt lat="47.28551512122833" lon="-1.550369197504176"><ele>27.0</ele><time>2026-04-16T17:04:40Z</time></trkpt><trkpt lat="47.28558108680629" lon="-1.5504110232010022"><ele>26.8</ele><time>2026-04-16T17:04:42Z</time></trkpt><trkpt lat="47.28565614674919" lon="-1.55040163546945"><ele>26.6</ele><time>2026-04-16T17:04:44Z</time></trkpt><trkpt lat="47.28576502767139" lon="-1.550339190290822"><ele>26.400000000000002</ele><time>2026-04-16T17:04:46Z</time></trkpt><trkpt lat="47.285788622728816" lon="-1.550209019334568"><ele>26.200000000000003</ele><time>2026-04-16T17:04:48Z</time></trkpt><trkpt lat="47.28586028800093" lon="-1.5500625874861609"><ele>26.0</ele><time>2026-04-16T17:04:50Z</time></trkpt><trkpt lat="47.285927762321464" lon="-1.549934176729573"><ele>26.0</ele><time>2026-04-16T17:04:52Z</time></trkpt><trkpt lat="47.28600118779325" lon="-1.5498325880631336"><ele>26.0</ele><time>2026-04-16T17:04:54Z</time></trkpt><trkpt lat="47.2860864317485" lon="-1.5497198514654764"><ele>26.0</ele><time>2026-04-16T17:04:56Z</time></trkpt><trkpt lat="47.28621241175317" lon="-1.5496538858875162"><ele>26.0</ele><time>2026-04-16T17:04:58Z</time></trkpt><trkpt lat="47.2863324825161" lon="-1.5496677998467812"><ele>26.0</ele><time>2026-04-16T17:05:00Z</time></trkpt><trkpt lat="47.28639534678989" lon="-1.5496620163335926"><ele>26.0</ele><time>2026-04-16T17:05:01Z</time></trkpt><trkpt lat="47.28651705202394" lon="-1.5496612619623071"><ele>26.0</ele><time>2026-04-16T17:05:03Z</time></trkpt><trkpt lat="47.286599865227274" lon="-1.5496417321279174"><ele>26.0</ele><time>2026-04-16T17:05:04Z</time></trkpt><trkpt lat="47.28666411251508" lon="-1.5496584959342605"><ele>26.0</ele><time>2026-04-16T17:05:05Z</time></trkpt><trkpt lat="47.2867841413685" lon="-1.5496338531389362"><ele>25.999999999999996</ele><time>2026-04-16T17:05:07Z</time></trkpt><trkpt lat="47.28685635146432" lon="-1.5496074501439459"><ele>26.0</ele><time>2026-04-16T17:05:08Z</time></trkpt><trkpt lat="47.28692135312342" lon="-1.5496087074294216"><ele>26.0</ele><time>2026-04-16T17:05:09Z</time></trkpt><trkpt lat="47.28704326790505" lon="-1.5495644509806759"><ele>26.0</ele><time>2026-04-16T17:05:11Z</time></trkpt><trkpt lat="47.2871078923785" lon="-1.5495543088778383"><ele>25.999999999999996</ele><time>2026-04-16T17:05:12Z</time></trkpt><trkpt lat="47.28719380688601" lon="-1.5495742578073866"><ele>26.0</ele><time>2026-04-16T17:05:14Z</time></trkpt><trkpt lat="47.28729049213909" lon="-1.5495647862568027"><ele>25.999999999999996</ele><time>2026-04-16T17:05:16Z</time></trkpt><trkpt lat="47.28740628813141" lon="-1.54956026002909"><ele>26.0</ele><time>2026-04-16T17:05:18Z</time></trkpt><trkpt lat="47.28747292426162" lon="-1.5495449211462862"><ele>26.0</ele><time>2026-04-16T17:05:19Z</time></trkpt><trkpt lat="47.287584990307025" lon="-1.5495169255896932"><ele>26.0</ele><time>2026-04-16T17:05:21Z</time></trkpt><trkpt lat="47.287651249251596" lon="-1.5494951326414472"><ele>25.999999999999996</ele><time>2026-04-16T17:05:23Z</time></trkpt><trkpt lat="47.287723794623545" lon="-1.5495286602541334"><ele>26.0</ele><time>2026-04-16T17:05:24Z</time></trkpt><trkpt lat="47.28778787427329" lon="-1.5495231281980402"><ele>26.0</ele><time>2026-04-16T17:05:25Z</time></trkpt><trkpt lat="47.28785111573272" lon="-1.5495226252838499"><ele>26.0</ele><time>2026-04-16T17:05:26Z</time></trkpt><trkpt lat="47.28796221785926" lon="-1.5495056100204117"><ele>26.0</ele><time>2026-04-16T17:05:28Z</time></trkpt><trkpt lat="47.28807311043822" lon="-1.5494823083295948"><ele>26.0</ele><time>2026-04-16T17:05:30Z</time></trkpt><trkpt lat="47.28818936743521" lon="-1.5494419913753397"><ele>26.0</ele><time>2026-04-16T17:05:33Z</time></trkpt><trkpt lat="47.28837661915206" lon="-1.54942832887317"><ele>26.0</ele><time>2026-04-16T17:05:36Z</time></trkpt><trkpt lat="47.288465006321005" lon="-1.5494121518000488"><ele>26.0</ele><time>2026-04-16T17:05:37Z</time></trkpt><trkpt lat="47.2885326482796" lon="-1.549419444055808"><ele>26.0</ele><time>2026-04-16T17:05:38Z</time></trkpt><trkpt lat="47.28865234185689" lon="-1.5494087990387801"><ele>26.0</ele><time>2026-04-16T17:05:40Z</time></trkpt><trkpt lat="47.28871684060179" lon="-1.5493933763369445"><ele>26.0</ele><time>2026-04-16T17:05:41Z</time></trkpt><trkpt lat="47.28882270403885" lon="-1.5493512153639917"><ele>25.999999999999996</ele><time>2026-04-16T17:05:43Z</time></trkpt><trkpt lat="47.28891301904552" lon="-1.5493015106781844"><ele>26.0</ele><time>2026-04-16T17:05:45Z</time></trkpt><trkpt lat="47.288964483931" lon="-1.5492407418801908"><ele>26.0</ele><time>2026-04-16T17:05:46Z</time></trkpt><trkpt lat="47.28904679422014" lon="-1.5492069628104095"><ele>26.0</ele><time>2026-04-16T17:05:48Z</time></trkpt><trkpt lat="47.289111502512625" lon="-1.549188522623432"><ele>25.999999999999996</ele><time>2026-04-16T17:05:49Z</time></trkpt><trkpt lat="47.289185975722305" lon="-1.5492265764638309"><ele>26.0</ele><time>2026-04-16T17:05:50Z</time></trkpt><trkpt lat="47.28926254440778" lon="-1.5492284204825286"><ele>26.333333333333332</ele><time>2026-04-16T17:05:51Z</time></trkpt><trkpt lat="47.28936128322714" lon="-1.5491909533753518"><ele>26.666666666666664</ele><time>2026-04-16T17:05:52Z</time></trkpt><trkpt lat="47.28945733983748" lon="-1.5491922944798593"><ele>27.0</ele><time>2026-04-16T17:05:54Z</time></trkpt><trkpt lat="47.289548995948664" lon="-1.549184080214751"><ele>27.333333333333336</ele><time>2026-04-16T17:05:55Z</time></trkpt><trkpt lat="47.28962292433464" lon="-1.5492173563703422"><ele>27.666666666666668</ele><time>2026-04-16T17:05:56Z</time></trkpt><trkpt lat="47.28968897373163" lon="-1.549248956145299"><ele>28.0</ele><time>2026-04-16T17:05:57Z</time></trkpt><trkpt lat="47.289756992875866" lon="-1.5492741018548135"><ele>27.500000000000004</ele><time>2026-04-16T17:05:58Z</time></trkpt><trkpt lat="47.28983792015099" lon="-1.549234790728939"><ele>27.0</ele><time>2026-04-16T17:05:59Z</time></trkpt><trkpt lat="47.28990556210958" lon="-1.549231521786702"><ele>26.5</ele><time>2026-04-16T17:06:00Z</time></trkpt><trkpt lat="47.289973120249144" lon="-1.549223894254816"><ele>26.0</ele><time>2026-04-16T17:06:01Z</time></trkpt><trkpt lat="47.29003703226083" lon="-1.549221798779023"><ele>25.500000000000004</ele><time>2026-04-16T17:06:02Z</time></trkpt><trkpt lat="47.29018467948519" lon="-1.5492235589786891"><ele>25.0</ele><time>2026-04-16T17:06:04Z</time></trkpt><trkpt lat="47.290286645337275" lon="-1.549258930610073"><ele>25.0</ele><time>2026-04-16T17:06:06Z</time></trkpt><trkpt lat="47.290370632007054" lon="-1.5492362156524782"><ele>25.0</ele><time>2026-04-16T17:06:08Z</time></trkpt><trkpt lat="47.29041296061807" lon="-1.549161951990378"><ele>25.0</ele><time>2026-04-16T17:06:10Z</time></trkpt><trkpt lat="47.29058969304644" lon="-1.5491261612638356"><ele>25.0</ele><time>2026-04-16T17:06:14Z</time></trkpt><trkpt lat="47.290656538724235" lon="-1.5491341240718486"><ele>25.0</ele><time>2026-04-16T17:06:16Z</time></trkpt><trkpt lat="47.29076667693191" lon="-1.549108643086207"><ele>25.6</ele><time>2026-04-16T17:06:18Z</time></trkpt><trkpt lat="47.29086793032222" lon="-1.5490960702314498"><ele>26.2</ele><time>2026-04-16T17:06:20Z</time></trkpt><trkpt lat="47.29097651787781" lon="-1.5491172764464738"><ele>26.799999999999997</ele><time>2026-04-16T17:06:22Z</time></trkpt><trkpt lat="47.29107462805443" lon="-1.5491234790548207"><ele>27.4</ele><time>2026-04-16T17:06:24Z</time></trkpt><trkpt lat="47.29116330858999" lon="-1.5491036139443042"><ele>28.0</ele><time>2026-04-16T17:06:26Z</time></trkpt><trkpt lat="47.2912508156591" lon="-1.5490938909366252"><ele>27.75</ele><time>2026-04-16T17:06:28Z</time></trkpt><trkpt lat="47.29149682451718" lon="-1.5490938909366252"><ele>27.5</ele><time>2026-04-16T17:06:32Z</time></trkpt><trkpt lat="47.291574189483455" lon="-1.5490731038167598"><ele>27.25</ele><time>2026-04-16T17:06:33Z</time></trkpt><trkpt lat="47.29164614812218" lon="-1.54905064031626"><ele>27.0</ele><time>2026-04-16T17:06:34Z</time></trkpt><trkpt lat="47.29171316143804" lon="-1.5490293502822043"><ele>27.0</ele><time>2026-04-16T17:06:35Z</time></trkpt><trkpt lat="47.29178562299096" lon="-1.5490265842541577"><ele>27.000000000000004</ele><time>2026-04-16T17:06:36Z</time></trkpt><trkpt lat="47.29185569570147" lon="-1.549029182644141"><ele>27.000000000000004</ele><time>2026-04-16T17:06:37Z</time></trkpt><trkpt lat="47.291958541653386" lon="-1.5490186214461448"><ele>27.0</ele><time>2026-04-16T17:06:39Z</time></trkpt><trkpt lat="47.2920510778644" lon="-1.5490348823382976"><ele>27.0</ele><time>2026-04-16T17:06:41Z</time></trkpt><trkpt lat="47.29216963988476" lon="-1.5490263327970626"><ele>27.0</ele><time>2026-04-16T17:06:43Z</time></trkpt><trkpt lat="47.29224763349377" lon="-1.5490433480605008"><ele>27.0</ele><time>2026-04-16T17:06:45Z</time></trkpt><trkpt lat="47.2923145629906" lon="-1.549102775753987"><ele>27.0</ele><time>2026-04-16T17:06:47Z</time></trkpt><trkpt lat="47.29239884302699" lon="-1.549179973082197"><ele>27.0</ele><time>2026-04-16T17:06:49Z</time></trkpt><trkpt lat="47.2924871463769" lon="-1.5492068789913778"><ele>27.0</ele><time>2026-04-16T17:06:51Z</time></trkpt><trkpt lat="47.29257817384534" lon="-1.5492036938681726"><ele>27.0</ele><time>2026-04-16T17:06:53Z</time></trkpt><trkpt lat="47.292665471366874" lon="-1.5491849184050681"><ele>27.285714285714285</ele><time>2026-04-16T17:06:55Z</time></trkpt><trkpt lat="47.29273751382464" lon="-1.5491682384177567"><ele>27.57142857142857</ele><time>2026-04-16T17:06:57Z</time></trkpt><trkpt lat="47.29279995900327" lon="-1.5491497982307794"><ele>27.85714285714286</ele><time>2026-04-16T17:06:59Z</time></trkpt><trkpt lat="47.29287095372313" lon="-1.549130184577358"><ele>28.142857142857146</ele><time>2026-04-16T17:07:01Z</time></trkpt><trkpt lat="47.29295393456453" lon="-1.5491223894074084"><ele>28.42857142857143</ele><time>2026-04-16T17:07:03Z</time></trkpt><trkpt lat="47.29302660566503" lon="-1.5491352137192609"><ele>28.71428571428572</ele><time>2026-04-16T17:07:05Z</time></trkpt><trkpt lat="47.293101288422285" lon="-1.5491558332010629"><ele>29.000000000000004</ele><time>2026-04-16T17:07:06Z</time></trkpt><trkpt lat="47.29318037167871" lon="-1.5491448529079082"><ele>29.333333333333332</ele><time>2026-04-16T17:07:08Z</time></trkpt><trkpt lat="47.293276931203245" lon="-1.5491290949299457"><ele>29.666666666666664</ele><time>2026-04-16T17:07:10Z</time></trkpt><trkpt lat="47.29335333225065" lon="-1.5491459425553205"><ele>30.0</ele><time>2026-04-16T17:07:12Z</time></trkpt><trkpt lat="47.29343652263963" lon="-1.5490879397853734"><ele>30.333333333333336</ele><time>2026-04-16T17:07:14Z</time></trkpt><trkpt lat="47.293503955050646" lon="-1.5490183699890496"><ele>30.666666666666668</ele><time>2026-04-16T17:07:16Z</time></trkpt><trkpt lat="47.29356908243829" lon="-1.5489526558681848"><ele>31.0</ele><time>2026-04-16T17:07:18Z</time></trkpt><trkpt lat="47.2936816933074" lon="-1.5489184577032447"><ele>31.0</ele><time>2026-04-16T17:07:20Z</time></trkpt><trkpt lat="47.293778755746125" lon="-1.548907142133963"><ele>31.0</ele><time>2026-04-16T17:07:22Z</time></trkpt><trkpt lat="47.2938593058356" lon="-1.5489089861526608"><ele>31.0</ele><time>2026-04-16T17:07:24Z</time></trkpt><trkpt lat="47.29396868967199" lon="-1.548903621734631"><ele>31.0</ele><time>2026-04-16T17:07:26Z</time></trkpt><trkpt lat="47.29407828305596" lon="-1.5489029511823773"><ele>31.0</ele><time>2026-04-16T17:07:28Z</time></trkpt><trkpt lat="47.294206568084" lon="-1.5489114169045806"><ele>31.333333333333336</ele><time>2026-04-16T17:07:30Z</time></trkpt><trkpt lat="47.29429189585829" lon="-1.5489120874568343"><ele>31.666666666666668</ele><time>2026-04-16T17:07:32Z</time></trkpt><trkpt lat="47.29437014092439" lon="-1.5489231515690207"><ele>32.0</ele><time>2026-04-16T17:07:33Z</time></trkpt><trkpt lat="47.29444289584392" lon="-1.5489203017219424"><ele>32.333333333333336</ele><time>2026-04-16T17:07:34Z</time></trkpt><trkpt lat="47.29451493830168" lon="-1.5489088185145974"><ele>32.666666666666664</ele><time>2026-04-16T17:07:35Z</time></trkpt><trkpt lat="47.29457968850368" lon="-1.5489041246488213"><ele>33.0</ele><time>2026-04-16T17:07:36Z</time></trkpt><trkpt lat="47.29468965907329" lon="-1.5488998498782038"><ele>33.0</ele><time>2026-04-16T17:07:38Z</time></trkpt><trkpt lat="47.29475319389933" lon="-1.5489181224271178"><ele>33.0</ele><time>2026-04-16T17:07:39Z</time></trkpt><trkpt lat="47.294832277155756" lon="-1.548898341135633"><ele>33.0</ele><time>2026-04-16T17:07:40Z</time></trkpt><trkpt lat="47.2948971530863" lon="-1.5489016938969016"><ele>33.0</ele><time>2026-04-16T17:07:41Z</time></trkpt><trkpt lat="47.2949803853848" lon="-1.5489166975035786"><ele>33.0</ele><time>2026-04-16T17:07:42Z</time></trkpt><trkpt lat="47.29504387830132" lon="-1.5489125065519929"><ele>33.0</ele><time>2026-04-16T17:07:43Z</time></trkpt><trkpt lat="47.29513360657477" lon="-1.5489049628391385"><ele>33.0</ele><time>2026-04-16T17:07:44Z</time></trkpt><trkpt lat="47.29521235455507" lon="-1.548896832393062"><ele>32.833333333333336</ele><time>2026-04-16T17:07:45Z</time></trkpt><trkpt lat="47.29527668566191" lon="-1.5488976705833792"><ele>32.666666666666664</ele><time>2026-04-16T17:07:46Z</time></trkpt><trkpt lat="47.29534277696842" lon="-1.5489229001119256"><ele>32.5</ele><time>2026-04-16T17:07:47Z</time></trkpt><trkpt lat="47.29546041697943" lon="-1.548928935082209"><ele>32.33333333333333</ele><time>2026-04-16T17:07:49Z</time></trkpt><trkpt lat="47.29553891350263" lon="-1.5489256661399722"><ele>32.166666666666664</ele><time>2026-04-16T17:07:50Z</time></trkpt><trkpt lat="47.29561657183552" lon="-1.5489274263396382"><ele>32.0</ele><time>2026-04-16T17:07:51Z</time></trkpt><trkpt lat="47.29572142944419" lon="-1.5489614568665149"><ele>31.75</ele><time>2026-04-16T17:07:52Z</time></trkpt><trkpt lat="47.29586572390729" lon="-1.5489093214287877"><ele>31.5</ele><time>2026-04-16T17:07:54Z</time></trkpt><trkpt lat="47.29594392706388" lon="-1.5488966647549987"><ele>31.25</ele><time>2026-04-16T17:07:55Z</time></trkpt><trkpt lat="47.296064794107615" lon="-1.5488252509399771"><ele>31.0</ele><time>2026-04-16T17:07:57Z</time></trkpt><trkpt lat="47.29617057372564" lon="-1.5487925615176081"><ele>31.0</ele><time>2026-04-16T17:07:59Z</time></trkpt><trkpt lat="47.29627790399575" lon="-1.548746628688228"><ele>31.0</ele><time>2026-04-16T17:08:01Z</time></trkpt><trkpt lat="47.296364782422124" lon="-1.5487206447883963"><ele>31.0</ele><time>2026-04-16T17:08:03Z</time></trkpt><trkpt lat="47.29648808021778" lon="-1.5487162023797154"><ele>31.0</ele><time>2026-04-16T17:08:05Z</time></trkpt><trkpt lat="47.296620640016435" lon="-1.5486433636411545"><ele>30.0</ele><time>2026-04-16T17:08:07Z</time></trkpt><trkpt lat="47.296687820970355" lon="-1.5486084111049292"><ele>29.0</ele><time>2026-04-16T17:08:08Z</time></trkpt><trkpt lat="47.29681371715599" lon="-1.548651745544326"><ele>28.0</ele><time>2026-04-16T17:08:09Z</time></trkpt><trkpt lat="47.29688446041876" lon="-1.5486220736070988"><ele>27.0</ele><time>2026-04-16T17:08:10Z</time></trkpt><trkpt lat="47.29694816288286" lon="-1.5486218221500037"><ele>26.0</ele><time>2026-04-16T17:08:11Z</time></trkpt><trkpt lat="47.29709027805114" lon="-1.5485868696137783"><ele>25.999999999999996</ele><time>2026-04-16T17:08:13Z</time></trkpt><trkpt lat="47.29715628553861" lon="-1.5486280247583506"><ele>26.0</ele><time>2026-04-16T17:08:15Z</time></trkpt><trkpt lat="47.297205738767325" lon="-1.548569602893245"><ele>26.0</ele><time>2026-04-16T17:08:18Z</time></trkpt><trkpt lat="47.29729886171156" lon="-1.5485225804164526"><ele>26.0</ele><time>2026-04-16T17:08:21Z</time></trkpt><trkpt lat="47.29740803600037" lon="-1.5484822634621975"><ele>25.999999999999996</ele><time>2026-04-16T17:08:23Z</time></trkpt><trkpt lat="47.29747777343476" lon="-1.5484635718181248"><ele>26.0</ele><time>2026-04-16T17:08:24Z</time></trkpt><trkpt lat="47.297607106200694" lon="-1.5484280325486774"><ele>25.999999999999996</ele><time>2026-04-16T17:08:26Z</time></trkpt><trkpt lat="47.29768442925745" lon="-1.5484225004925842"><ele>26.0</ele><time>2026-04-16T17:08:27Z</time></trkpt><trkpt lat="47.29775806427681" lon="-1.5483888890608664"><ele>26.0</ele><time>2026-04-16T17:08:28Z</time></trkpt><trkpt lat="47.29787872177297" lon="-1.5484271943583603"><ele>26.0</ele><time>2026-04-16T17:08:30Z</time></trkpt><trkpt lat="47.29795839176261" lon="-1.54845552519108"><ele>25.999999999999996</ele><time>2026-04-16T17:08:31Z</time></trkpt><trkpt lat="47.29803290688181" lon="-1.54846675694133"><ele>26.0</ele><time>2026-04-16T17:08:32Z</time></trkpt><trkpt lat="47.29812204842204" lon="-1.5484409406795616"><ele>25.71428571428571</ele><time>2026-04-16T17:08:34Z</time></trkpt><trkpt lat="47.2981956834414" lon="-1.5484136156752224"><ele>25.42857142857143</ele><time>2026-04-16T17:08:35Z</time></trkpt><trkpt lat="47.2982699471035" lon="-1.5483886376037712"><ele>25.142857142857142</ele><time>2026-04-16T17:08:36Z</time></trkpt><trkpt lat="47.29834509086543" lon="-1.5483719576164598"><ele>24.857142857142854</ele><time>2026-04-16T17:08:37Z</time></trkpt><trkpt lat="47.29840887714857" lon="-1.5483719576164598"><ele>24.57142857142857</ele><time>2026-04-16T17:08:38Z</time></trkpt><trkpt lat="47.298480332873105" lon="-1.5483473148211355"><ele>24.285714285714285</ele><time>2026-04-16T17:08:39Z</time></trkpt><trkpt lat="47.298546298451065" lon="-1.5483152121319885"><ele>24.0</ele><time>2026-04-16T17:08:40Z</time></trkpt><trkpt lat="47.29861976583236" lon="-1.5482939220979328"><ele>23.999999999999996</ele><time>2026-04-16T17:08:41Z</time></trkpt><trkpt lat="47.29868694678628" lon="-1.5482684411122913"><ele>24.0</ele><time>2026-04-16T17:08:42Z</time></trkpt><trkpt lat="47.29875052352184" lon="-1.5482515934869165"><ele>24.0</ele><time>2026-04-16T17:08:43Z</time></trkpt><trkpt lat="47.29882713411683" lon="-1.5482059959336631"><ele>24.0</ele><time>2026-04-16T17:08:44Z</time></trkpt><trkpt lat="47.29889439888978" lon="-1.5481828618809097"><ele>24.0</ele><time>2026-04-16T17:08:45Z</time></trkpt><trkpt lat="47.29895764034921" lon="-1.5481744799777382"><ele>23.999999999999996</ele><time>2026-04-16T17:08:46Z</time></trkpt><trkpt lat="47.29904908691281" lon="-1.5481486637159698"><ele>24.0</ele><time>2026-04-16T17:08:48Z</time></trkpt><trkpt lat="47.299143928147195" lon="-1.5481289662435167"><ele>24.333333333333332</ele><time>2026-04-16T17:08:50Z</time></trkpt><trkpt lat="47.29921806608075" lon="-1.548084123061549"><ele>24.666666666666664</ele><time>2026-04-16T17:08:52Z</time></trkpt><trkpt lat="47.29928855788642" lon="-1.5480863861754053"><ele>25.0</ele><time>2026-04-16T17:08:54Z</time></trkpt><trkpt lat="47.29939173911446" lon="-1.548049338163387"><ele>25.333333333333332</ele><time>2026-04-16T17:08:56Z</time></trkpt><trkpt lat="47.29947057091379" lon="-1.5480274613961094"><ele>25.666666666666664</ele><time>2026-04-16T17:08:57Z</time></trkpt><trkpt lat="47.29952786122197" lon="-1.5479843784138074"><ele>26.0</ele><time>2026-04-16T17:08:58Z</time></trkpt><trkpt lat="47.29959592227572" lon="-1.547950934620153"><ele>26.0</ele><time>2026-04-16T17:08:59Z</time></trkpt><trkpt lat="47.29971599303865" lon="-1.5478979609921089"><ele>26.0</ele><time>2026-04-16T17:09:01Z</time></trkpt><trkpt lat="47.29987478819424" lon="-1.5478941891356817"><ele>26.0</ele><time>2026-04-16T17:09:03Z</time></trkpt><trkpt lat="47.299992679662346" lon="-1.5478445682689062"><ele>26.0</ele><time>2026-04-16T17:09:05Z</time></trkpt><trkpt lat="47.30011283424431" lon="-1.547786565498959"><ele>25.999999999999996</ele><time>2026-04-16T17:09:07Z</time></trkpt><trkpt lat="47.300175614699064" lon="-1.5477751661106458"><ele>26.0</ele><time>2026-04-16T17:09:08Z</time></trkpt><trkpt lat="47.30024103545332" lon="-1.5477603301420322"><ele>26.0</ele><time>2026-04-16T17:09:09Z</time></trkpt><trkpt lat="47.30033629578286" lon="-1.5477439016118157"><ele>26.0</ele><time>2026-04-16T17:09:11Z</time></trkpt><trkpt lat="47.300465335182196" lon="-1.547684641556393"><ele>25.999999999999996</ele><time>2026-04-16T17:09:13Z</time></trkpt><trkpt lat="47.30053607844496" lon="-1.5476565621807683"><ele>26.0</ele><time>2026-04-16T17:09:14Z</time></trkpt><trkpt lat="47.300642612434274" lon="-1.5475917700692523"><ele>25.666666666666664</ele><time>2026-04-16T17:09:16Z</time></trkpt><trkpt lat="47.30070405178452" lon="-1.5475565660759318"><ele>25.333333333333332</ele><time>2026-04-16T17:09:17Z</time></trkpt><trkpt lat="47.30077844117517" lon="-1.5475507825627435"><ele>25.0</ele><time>2026-04-16T17:09:18Z</time></trkpt><trkpt lat="47.30089935012842" lon="-1.5475413110121596"><ele>24.666666666666664</ele><time>2026-04-16T17:09:20Z</time></trkpt><trkpt lat="47.30096162766898" lon="-1.5475197695210088"><ele>24.333333333333332</ele><time>2026-04-16T17:09:21Z</time></trkpt><trkpt lat="47.301060659854954" lon="-1.5474337711944686"><ele>24.0</ele><time>2026-04-16T17:09:23Z</time></trkpt><trkpt lat="47.30112406895245" lon="-1.547409212218176"><ele>24.0</ele><time>2026-04-16T17:09:24Z</time></trkpt><trkpt lat="47.30126023296947" lon="-1.5473689790829526"><ele>24.0</ele><time>2026-04-16T17:09:26Z</time></trkpt><trkpt lat="47.301358929879314" lon="-1.5473235491677628"><ele>24.0</ele><time>2026-04-16T17:09:28Z</time></trkpt><trkpt lat="47.301453310109025" lon="-1.5472678933307036"><ele>24.0</ele><time>2026-04-16T17:09:30Z</time></trkpt><trkpt lat="47.301510893783814" lon="-1.547218272463928"><ele>24.0</ele><time>2026-04-16T17:09:31Z</time></trkpt><trkpt lat="47.30157656599516" lon="-1.5471693221494063"><ele>23.799999999999997</ele><time>2026-04-16T17:09:32Z</time></trkpt><trkpt lat="47.30165108111436" lon="-1.5471357945367201"><ele>23.599999999999998</ele><time>2026-04-16T17:09:33Z</time></trkpt><trkpt lat="47.301733559041566" lon="-1.5470664761974915"><ele>23.4</ele><time>2026-04-16T17:09:34Z</time></trkpt><trkpt lat="47.30181867726827" lon="-1.547044264154087"><ele>23.2</ele><time>2026-04-16T17:09:35Z</time></trkpt><trkpt lat="47.301921439401156" lon="-1.5469705872252089"><ele>23.0</ele><time>2026-04-16T17:09:37Z</time></trkpt><trkpt lat="47.30203417599881" lon="-1.546892216430555"><ele>22.833333333333336</ele><time>2026-04-16T17:09:39Z</time></trkpt><trkpt lat="47.30214477521116" lon="-1.5468386560692888"><ele>22.666666666666668</ele><time>2026-04-16T17:09:40Z</time></trkpt><trkpt lat="47.30221933223987" lon="-1.5467901248499254"><ele>22.5</ele><time>2026-04-16T17:09:41Z</time></trkpt><trkpt lat="47.302280520133024" lon="-1.5467438567444185"><ele>22.333333333333332</ele><time>2026-04-16T17:09:42Z</time></trkpt><trkpt lat="47.3023552447998" lon="-1.5467144362642864"><ele>22.166666666666664</ele><time>2026-04-16T17:09:43Z</time></trkpt><trkpt lat="47.302431771575755" lon="-1.546689793468962"><ele>22.0</ele><time>2026-04-16T17:09:44Z</time></trkpt><trkpt lat="47.302509681365734" lon="-1.5466550085708002"><ele>21.8</ele><time>2026-04-16T17:09:45Z</time></trkpt><trkpt lat="47.3025788320669" lon="-1.5466213971390823"><ele>21.6</ele><time>2026-04-16T17:09:46Z</time></trkpt><trkpt lat="47.30266906325454" lon="-1.546583762393842"><ele>21.400000000000002</ele><time>2026-04-16T17:09:47Z</time></trkpt><trkpt lat="47.302801162048524" lon="-1.5465414337828256"><ele>21.200000000000003</ele><time>2026-04-16T17:09:49Z</time></trkpt><trkpt lat="47.302889172031826" lon="-1.5465408470496036"><ele>21.0</ele><time>2026-04-16T17:09:50Z</time></trkpt><trkpt lat="47.30296167549426" lon="-1.5465394221260644"><ele>21.0</ele><time>2026-04-16T17:09:51Z</time></trkpt><trkpt lat="47.30302328248257" lon="-1.5465776436045269"><ele>21.0</ele><time>2026-04-16T17:09:52Z</time></trkpt><trkpt lat="47.30312688280577" lon="-1.5466274321093658"><ele>21.0</ele><time>2026-04-16T17:09:54Z</time></trkpt><trkpt lat="47.303190585269874" lon="-1.546657690779815"><ele>21.0</ele><time>2026-04-16T17:09:56Z</time></trkpt><trkpt lat="47.303265351846164" lon="-1.5466834232225517"><ele>21.0</ele><time>2026-04-16T17:09:58Z</time></trkpt><trkpt lat="47.30337192774499" lon="-1.5466872788980106"><ele>21.0</ele><time>2026-04-16T17:10:00Z</time></trkpt><trkpt lat="47.3034430481934" lon="-1.5466052200659612"><ele>20.400000000000002</ele><time>2026-04-16T17:10:02Z</time></trkpt><trkpt lat="47.303512701808756" lon="-1.546581750737081"><ele>19.8</ele><time>2026-04-16T17:10:03Z</time></trkpt><trkpt lat="47.303631389557665" lon="-1.5465514082475997"><ele>19.200000000000003</ele><time>2026-04-16T17:10:05Z</time></trkpt><trkpt lat="47.303704647391385" lon="-1.546490974725733"><ele>18.6</ele><time>2026-04-16T17:10:06Z</time></trkpt><trkpt lat="47.303784359290546" lon="-1.5463587921127178"><ele>18.0</ele><time>2026-04-16T17:10:08Z</time></trkpt><trkpt lat="47.30382668790156" lon="-1.5462668426349258"><ele>18.42857142857143</ele><time>2026-04-16T17:10:09Z</time></trkpt><trkpt lat="47.30388728906149" lon="-1.5462018828853463"><ele>18.857142857142858</ele><time>2026-04-16T17:10:10Z</time></trkpt><trkpt lat="47.30394613002176" lon="-1.546126864851961"><ele>19.285714285714285</ele><time>2026-04-16T17:10:11Z</time></trkpt><trkpt lat="47.303988542451805" lon="-1.5460462309434506"><ele>19.714285714285715</ele><time>2026-04-16T17:10:12Z</time></trkpt><trkpt lat="47.30404662904078" lon="-1.5459884796305987"><ele>20.142857142857142</ele><time>2026-04-16T17:10:13Z</time></trkpt><trkpt lat="47.304101446687525" lon="-1.5459308121367785"><ele>20.571428571428573</ele><time>2026-04-16T17:10:14Z</time></trkpt><trkpt lat="47.30417022020305" lon="-1.5458849631264302"><ele>21.0</ele><time>2026-04-16T17:10:15Z</time></trkpt><trkpt lat="47.30425525461072" lon="-1.5457842964693398"><ele>21.200000000000003</ele><time>2026-04-16T17:10:17Z</time></trkpt><trkpt lat="47.30435353242541" lon="-1.5457112900927157"><ele>21.400000000000002</ele><time>2026-04-16T17:10:19Z</time></trkpt><trkpt lat="47.30444430843676" lon="-1.5456134732827038"><ele>21.6</ele><time>2026-04-16T17:10:21Z</time></trkpt><trkpt lat="47.30455960151488" lon="-1.5455416403725235"><ele>21.8</ele><time>2026-04-16T17:10:23Z</time></trkpt><trkpt lat="47.30462145996029" lon="-1.5455007366850464"><ele>22.0</ele><time>2026-04-16T17:10:24Z</time></trkpt><trkpt lat="47.30470548853958" lon="-1.5454053506269543"><ele>22.8</ele><time>2026-04-16T17:10:26Z</time></trkpt><trkpt lat="47.30481638111854" lon="-1.5453332662596788"><ele>23.6</ele><time>2026-04-16T17:10:28Z</time></trkpt><trkpt lat="47.30490384627814" lon="-1.5452701505287971"><ele>24.400000000000002</ele><time>2026-04-16T17:10:30Z</time></trkpt><trkpt lat="47.30498980269516" lon="-1.5452025923892345"><ele>25.200000000000003</ele><time>2026-04-16T17:10:32Z</time></trkpt><trkpt lat="47.305060294500834" lon="-1.545134028421291"><ele>26.0</ele><time>2026-04-16T17:10:34Z</time></trkpt><trkpt lat="47.305155680558926" lon="-1.5450940467431629"><ele>26.0</ele><time>2026-04-16T17:10:36Z</time></trkpt><trkpt lat="47.30523111768747" lon="-1.5450239740326488"><ele>26.0</ele><time>2026-04-16T17:10:38Z</time></trkpt><trkpt lat="47.305326461836046" lon="-1.5449809748693788"><ele>26.0</ele><time>2026-04-16T17:10:40Z</time></trkpt><trkpt lat="47.30540156368846" lon="-1.5448800567551932"><ele>26.0</ele><time>2026-04-16T17:10:43Z</time></trkpt><trkpt lat="47.30546975047076" lon="-1.544815599919804"><ele>26.0</ele><time>2026-04-16T17:10:45Z</time></trkpt><trkpt lat="47.305559185377604" lon="-1.5447531547411761"><ele>25.999999999999996</ele><time>2026-04-16T17:10:47Z</time></trkpt><trkpt lat="47.305649207017666" lon="-1.5446902904673896"><ele>26.0</ele><time>2026-04-16T17:10:49Z</time></trkpt><trkpt lat="47.305712741843706" lon="-1.5446115843966086"><ele>26.0</ele><time>2026-04-16T17:10:51Z</time></trkpt><trkpt lat="47.30574216232384" lon="-1.544717280195602"><ele>26.0</ele><time>2026-04-16T17:10:55Z</time></trkpt><trkpt lat="47.30566768911416" lon="-1.5447958186283193"><ele>25.999999999999996</ele><time>2026-04-16T17:10:57Z</time></trkpt><trkpt lat="47.30557490144605" lon="-1.5448398236199699"><ele>26.0</ele><time>2026-04-16T17:10:59Z</time></trkpt><trkpt lat="47.30548609518195" lon="-1.5448972396566951"><ele>25.999999999999996</ele><time>2026-04-16T17:11:01Z</time></trkpt><trkpt lat="47.30542821814055" lon="-1.5449844114496791"><ele>26.0</ele><time>2026-04-16T17:11:03Z</time></trkpt><trkpt lat="47.3053287249499" lon="-1.545058339835652"><ele>26.0</ele><time>2026-04-16T17:11:05Z</time></trkpt><trkpt lat="47.30521867056126" lon="-1.545142075048336"><ele>26.0</ele><time>2026-04-16T17:11:07Z</time></trkpt><trkpt lat="47.305159620053416" lon="-1.5451808832600202"><ele>25.999999999999996</ele><time>2026-04-16T17:11:08Z</time></trkpt><trkpt lat="47.30510253929282" lon="-1.5452237986042585"><ele>26.0</ele><time>2026-04-16T17:11:09Z</time></trkpt><trkpt lat="47.305049565664774" lon="-1.5452824719264593"><ele>26.0</ele><time>2026-04-16T17:11:10Z</time></trkpt><trkpt lat="47.3049809178778" lon="-1.5453304164126005"><ele>26.0</ele><time>2026-04-16T17:11:11Z</time></trkpt><trkpt lat="47.30492454957897" lon="-1.5453806240125982"><ele>26.0</ele><time>2026-04-16T17:11:12Z</time></trkpt><trkpt lat="47.30485657234425" lon="-1.545423371718773"><ele>26.0</ele><time>2026-04-16T17:11:13Z</time></trkpt><trkpt lat="47.304790942042416" lon="-1.5454602520927279"><ele>26.0</ele><time>2026-04-16T17:11:14Z</time></trkpt><trkpt lat="47.30472749103541" lon="-1.5455071069314568"><ele>26.0</ele><time>2026-04-16T17:11:15Z</time></trkpt><trkpt lat="47.304657418324894" lon="-1.5455584041788666"><ele>26.0</ele><time>2026-04-16T17:11:16Z</time></trkpt><trkpt lat="47.30457632341171" lon="-1.5456058457508175"><ele>25.333333333333332</ele><time>2026-04-16T17:11:17Z</time></trkpt><trkpt lat="47.30450616688216" lon="-1.5456462465241045"><ele>24.666666666666664</ele><time>2026-04-16T17:11:18Z</time></trkpt><trkpt lat="47.30443672281439" lon="-1.5456941910102457"><ele>24.0</ele><time>2026-04-16T17:11:19Z</time></trkpt><trkpt lat="47.304356927096194" lon="-1.5457390341922135"><ele>23.333333333333332</ele><time>2026-04-16T17:11:20Z</time></trkpt><trkpt lat="47.304279813587016" lon="-1.5457864757641644"><ele>22.666666666666664</ele><time>2026-04-16T17:11:21Z</time></trkpt><trkpt lat="47.304196162193364" lon="-1.5458488371237606"><ele>22.0</ele><time>2026-04-16T17:11:22Z</time></trkpt><trkpt lat="47.30411259461874" lon="-1.545927710832605"><ele>22.0</ele><time>2026-04-16T17:11:23Z</time></trkpt><trkpt lat="47.30403950442309" lon="-1.5460191573962065"><ele>22.0</ele><time>2026-04-16T17:11:24Z</time></trkpt><trkpt lat="47.303975801958984" lon="-1.5461149625494575"><ele>22.0</ele><time>2026-04-16T17:11:25Z</time></trkpt><trkpt lat="47.30394005314196" lon="-1.5462180599584674"><ele>22.0</ele><time>2026-04-16T17:11:26Z</time></trkpt><trkpt lat="47.30387660213495" lon="-1.546303303913722"><ele>22.0</ele><time>2026-04-16T17:11:27Z</time></trkpt><trkpt lat="47.30381960519338" lon="-1.5463767293855049"><ele>22.0</ele><time>2026-04-16T17:11:28Z</time></trkpt><trkpt lat="47.30376650583679" lon="-1.5464667510255672"><ele>21.200000000000003</ele><time>2026-04-16T17:11:29Z</time></trkpt><trkpt lat="47.303673885806745" lon="-1.5465730335577825"><ele>20.400000000000002</ele><time>2026-04-16T17:11:31Z</time></trkpt><trkpt lat="47.30361684695566" lon="-1.5466301143183807"><ele>19.6</ele><time>2026-04-16T17:11:32Z</time></trkpt><trkpt lat="47.30349899739707" lon="-1.546647129581819"><ele>18.8</ele><time>2026-04-16T17:11:34Z</time></trkpt><trkpt lat="47.30339003265584" lon="-1.5466885361834863"><ele>18.0</ele><time>2026-04-16T17:11:36Z</time></trkpt><trkpt lat="47.303276080682224" lon="-1.5467208065106968"><ele>18.0</ele><time>2026-04-16T17:11:38Z</time></trkpt><trkpt lat="47.30318090417171" lon="-1.5467910468592743"><ele>18.0</ele><time>2026-04-16T17:11:40Z</time></trkpt><trkpt lat="47.303127637177056" lon="-1.5469227265580994"><ele>18.0</ele><time>2026-04-16T17:11:42Z</time></trkpt><trkpt lat="47.303120973564035" lon="-1.5470267459764582"><ele>18.0</ele><time>2026-04-16T17:11:43Z</time></trkpt><trkpt lat="47.30309088253165" lon="-1.5471086371704443"><ele>18.0</ele><time>2026-04-16T17:11:44Z</time></trkpt><trkpt lat="47.30301427193666" lon="-1.5472443401827916"><ele>18.8</ele><time>2026-04-16T17:11:46Z</time></trkpt><trkpt lat="47.30297118895436" lon="-1.5473150834455596"><ele>19.6</ele><time>2026-04-16T17:11:47Z</time></trkpt><trkpt lat="47.302877227819806" lon="-1.5474441647544013"><ele>20.400000000000002</ele><time>2026-04-16T17:11:49Z</time></trkpt><trkpt lat="47.30278393723751" lon="-1.5475413110121596"><ele>21.200000000000003</ele><time>2026-04-16T17:11:51Z</time></trkpt><trkpt lat="47.302691694393104" lon="-1.547650443391453"><ele>22.0</ele><time>2026-04-16T17:11:53Z</time></trkpt><trkpt lat="47.30260389395738" lon="-1.5477508585914481"><ele>22.0</ele><time>2026-04-16T17:11:55Z</time></trkpt><trkpt lat="47.30252560698176" lon="-1.5478483401253333"><ele>22.0</ele><time>2026-04-16T17:11:57Z</time></trkpt><trkpt lat="47.302458845123" lon="-1.5479301475002876"><ele>22.0</ele><time>2026-04-16T17:11:59Z</time></trkpt><trkpt lat="47.30237121232534" lon="-1.5480052493527048"><ele>22.0</ele><time>2026-04-16T17:12:01Z</time></trkpt><trkpt lat="47.302309353879934" lon="-1.5481005515917652"><ele>22.0</ele><time>2026-04-16T17:12:03Z</time></trkpt><trkpt lat="47.3022445198589" lon="-1.5482038166388385"><ele>22.6</ele><time>2026-04-16T17:12:05Z</time></trkpt><trkpt lat="47.30215944354171" lon="-1.5482621546849127"><ele>23.200000000000003</ele><time>2026-04-16T17:12:07Z</time></trkpt><trkpt lat="47.30208375495607" lon="-1.5483375918134565"><ele>23.8</ele><time>2026-04-16T17:12:09Z</time></trkpt><trkpt lat="47.302000145471936" lon="-1.5484215784832354"><ele>24.4</ele><time>2026-04-16T17:12:11Z</time></trkpt><trkpt lat="47.301905052780455" lon="-1.548483604566705"><ele>25.0</ele><time>2026-04-16T17:12:13Z</time></trkpt><trkpt lat="47.301813899583465" lon="-1.5485576167717097"><ele>25.0</ele><time>2026-04-16T17:12:15Z</time></trkpt><trkpt lat="47.301715663678294" lon="-1.5486221574261305"><ele>25.0</ele><time>2026-04-16T17:12:17Z</time></trkpt><trkpt lat="47.30162769560451" lon="-1.548682088033807"><ele>25.0</ele><time>2026-04-16T17:12:19Z</time></trkpt><trkpt lat="47.30153180663223" lon="-1.5487321279957413"><ele>25.0</ele><time>2026-04-16T17:12:21Z</time></trkpt><trkpt lat="47.3014305113324" lon="-1.548803793267858"><ele>25.0</ele><time>2026-04-16T17:12:23Z</time></trkpt><trkpt lat="47.301346776119715" lon="-1.5488503966494918"><ele>25.4</ele><time>2026-04-16T17:12:25Z</time></trkpt><trkpt lat="47.30127096180553" lon="-1.5489161945893883"><ele>25.8</ele><time>2026-04-16T17:12:27Z</time></trkpt><trkpt lat="47.30118311946029" lon="-1.5489800646915557"><ele>26.200000000000003</ele><time>2026-04-16T17:12:29Z</time></trkpt><trkpt lat="47.30114204813475" lon="-1.5491077210768582"><ele>26.6</ele><time>2026-04-16T17:12:31Z</time></trkpt><trkpt lat="47.30108920023525" lon="-1.5492167696371202"><ele>27.0</ele><time>2026-04-16T17:12:33Z</time></trkpt><trkpt lat="47.3009719793194" lon="-1.5492281690254335"><ele>27.0</ele><time>2026-04-16T17:12:36Z</time></trkpt><trkpt lat="47.30086946864361" lon="-1.549215931446803"><ele>27.000000000000004</ele><time>2026-04-16T17:12:38Z</time></trkpt><trkpt lat="47.30078875091607" lon="-1.5492419153466348"><ele>27.000000000000004</ele><time>2026-04-16T17:12:40Z</time></trkpt><trkpt lat="47.30069638234312" lon="-1.5493110660478"><ele>27.0</ele><time>2026-04-16T17:12:42Z</time></trkpt><trkpt lat="47.30061998129571" lon="-1.5493718348457937"><ele>27.0</ele><time>2026-04-16T17:12:44Z</time></trkpt><trkpt lat="47.30051621333445" lon="-1.549428664149297"><ele>27.400000000000002</ele><time>2026-04-16T17:12:46Z</time></trkpt><trkpt lat="47.300421623557156" lon="-1.5494803804918653"><ele>27.800000000000004</ele><time>2026-04-16T17:12:48Z</time></trkpt><trkpt lat="47.300322214185535" lon="-1.549539053814066"><ele>28.2</ele><time>2026-04-16T17:12:50Z</time></trkpt><trkpt lat="47.30022314009005" lon="-1.549568222837103"><ele>28.6</ele><time>2026-04-16T17:12:52Z</time></trkpt><trkpt lat="47.30012477845633" lon="-1.5496217831983692"><ele>29.0</ele><time>2026-04-16T17:12:54Z</time></trkpt><trkpt lat="47.30002402798021" lon="-1.5496591664865143"><ele>29.0</ele><time>2026-04-16T17:12:56Z</time></trkpt><trkpt lat="47.29993802965367" lon="-1.5497150737806686"><ele>29.0</ele><time>2026-04-16T17:12:58Z</time></trkpt><trkpt lat="47.299871183975874" lon="-1.5497857332244047"><ele>29.0</ele><time>2026-04-16T17:13:00Z</time></trkpt><trkpt lat="47.299796291671036" lon="-1.549844238908542"><ele>29.0</ele><time>2026-04-16T17:13:02Z</time></trkpt><trkpt lat="47.29974679653281" lon="-1.5499630942955147"><ele>29.0</ele><time>2026-04-16T17:13:04Z</time></trkpt><trkpt lat="47.29966859337622" lon="-1.550059318543924"><ele>29.2</ele><time>2026-04-16T17:13:06Z</time></trkpt><trkpt lat="47.299558958082734" lon="-1.5500980429365765"><ele>29.4</ele><time>2026-04-16T17:13:08Z</time></trkpt><trkpt lat="47.29944517374718" lon="-1.5501160640283953"><ele>29.6</ele><time>2026-04-16T17:13:10Z</time></trkpt><trkpt lat="47.29935381100261" lon="-1.5501681994661225"><ele>29.8</ele><time>2026-04-16T17:13:12Z</time></trkpt><trkpt lat="47.29925314434552" lon="-1.5502241905793084"><ele>30.0</ele><time>2026-04-16T17:13:14Z</time></trkpt><trkpt lat="47.2992015537315" lon="-1.5503593068584336"><ele>30.0</ele><time>2026-04-16T17:13:16Z</time></trkpt><trkpt lat="47.2991124960103" lon="-1.5504219196751252"><ele>30.0</ele><time>2026-04-16T17:13:18Z</time></trkpt><trkpt lat="47.29902662341231" lon="-1.550456453116192"><ele>30.0</ele><time>2026-04-16T17:13:20Z</time></trkpt><trkpt lat="47.29893412911081" lon="-1.5505134500577584"><ele>30.0</ele><time>2026-04-16T17:13:22Z</time></trkpt><trkpt lat="47.29883786295289" lon="-1.550603387878789"><ele>30.0</ele><time>2026-04-16T17:13:24Z</time></trkpt><trkpt lat="47.29871942666107" lon="-1.5506692696377176"><ele>30.0</ele><time>2026-04-16T17:13:26Z</time></trkpt><trkpt lat="47.29865744248712" lon="-1.5506995283081668"><ele>30.0</ele><time>2026-04-16T17:13:27Z</time></trkpt><trkpt lat="47.29856750466609" lon="-1.5507553517832893"><ele>30.0</ele><time>2026-04-16T17:13:29Z</time></trkpt><trkpt lat="47.2984676342898" lon="-1.550832884387626"><ele>30.0</ele><time>2026-04-16T17:13:31Z</time></trkpt><trkpt lat="47.2983804205873" lon="-1.5509260911508937"><ele>30.0</ele><time>2026-04-16T17:13:33Z</time></trkpt><trkpt lat="47.29827015665108" lon="-1.5509978402420421"><ele>30.0</ele><time>2026-04-16T17:13:35Z</time></trkpt><trkpt lat="47.29817112446511" lon="-1.5510776359602352"><ele>30.0</ele><time>2026-04-16T17:13:37Z</time></trkpt><trkpt lat="47.298091328746914" lon="-1.5511736925705812"><ele>30.0</ele><time>2026-04-16T17:13:39Z</time></trkpt><trkpt lat="47.29800042700702" lon="-1.5512486267849348"><ele>30.0</ele><time>2026-04-16T17:13:41Z</time></trkpt><trkpt lat="47.29790185582572" lon="-1.5513044502600573"><ele>30.0</ele><time>2026-04-16T17:13:43Z</time></trkpt><trkpt lat="47.297817743427395" lon="-1.5513979922994519"><ele>30.6</ele><time>2026-04-16T17:13:45Z</time></trkpt><trkpt lat="47.29772118390286" lon="-1.551423557104125"><ele>31.2</ele><time>2026-04-16T17:13:47Z</time></trkpt><trkpt lat="47.2976240376451" lon="-1.551499245689764"><ele>31.799999999999997</ele><time>2026-04-16T17:13:49Z</time></trkpt><trkpt lat="47.2975349799239" lon="-1.551604187117472"><ele>32.4</ele><time>2026-04-16T17:13:51Z</time></trkpt><trkpt lat="47.297427607744275" lon="-1.5516670513912585"><ele>33.0</ele><time>2026-04-16T17:13:53Z</time></trkpt><trkpt lat="47.29737283200705" lon="-1.551741734148517"><ele>33.0</ele><time>2026-04-16T17:13:55Z</time></trkpt><trkpt lat="47.29728783950889" lon="-1.5518232900663762"><ele>33.0</ele><time>2026-04-16T17:13:57Z</time></trkpt><trkpt lat="47.29721680287951" lon="-1.5518787782653718"><ele>33.0</ele><time>2026-04-16T17:13:59Z</time></trkpt><trkpt lat="47.29714517951691" lon="-1.5519871562733798"><ele>33.0</ele><time>2026-04-16T17:14:01Z</time></trkpt><trkpt lat="47.29711253200406" lon="-1.5521102026119382"><ele>33.0</ele><time>2026-04-16T17:14:03Z</time></trkpt><trkpt lat="47.29706576098436" lon="-1.5521772578373105"><ele>33.0</ele><time>2026-04-16T17:14:04Z</time></trkpt><trkpt lat="47.297044554769336" lon="-1.5522764995708616"><ele>33.6</ele><time>2026-04-16T17:14:05Z</time></trkpt><trkpt lat="47.29698583953762" lon="-1.5524014737471494"><ele>34.199999999999996</ele><time>2026-04-16T17:14:07Z</time></trkpt><trkpt lat="47.296926495663165" lon="-1.5525384340449726"><ele>34.8</ele><time>2026-04-16T17:14:09Z</time></trkpt><trkpt lat="47.29686664887452" lon="-1.5526583790793573"><ele>35.4</ele><time>2026-04-16T17:14:11Z</time></trkpt><trkpt lat="47.296810448213755" lon="-1.5527664218112387"><ele>36.0</ele><time>2026-04-16T17:14:13Z</time></trkpt><trkpt lat="47.29675688785249" lon="-1.5528813377037205"><ele>36.2</ele><time>2026-04-16T17:14:15Z</time></trkpt><trkpt lat="47.29668916207486" lon="-1.5529861953123965"><ele>36.400000000000006</ele><time>2026-04-16T17:14:17Z</time></trkpt><trkpt lat="47.29662558533931" lon="-1.5531096607461135"><ele>36.6</ele><time>2026-04-16T17:14:19Z</time></trkpt><trkpt lat="47.296554381071864" lon="-1.5532074775561253"><ele>36.800000000000004</ele><time>2026-04-16T17:14:21Z</time></trkpt><trkpt lat="47.29648632001811" lon="-1.5533104911461038"><ele>37.0</ele><time>2026-04-16T17:14:23Z</time></trkpt><trkpt lat="47.29642555122012" lon="-1.5534269157811564"><ele>37.2</ele><time>2026-04-16T17:14:25Z</time></trkpt><trkpt lat="47.29637329005384" lon="-1.5535409096642896"><ele>37.400000000000006</ele><time>2026-04-16T17:14:27Z</time></trkpt><trkpt lat="47.29632052597338" lon="-1.5536203701063558"><ele>37.599999999999994</ele><time>2026-04-16T17:14:29Z</time></trkpt><trkpt lat="47.29625456039542" lon="-1.5537368785604404"><ele>37.8</ele><time>2026-04-16T17:14:31Z</time></trkpt><trkpt lat="47.29619073220277" lon="-1.553854225204842"><ele>38.0</ele><time>2026-04-16T17:14:33Z</time></trkpt><trkpt lat="47.29612363506788" lon="-1.5539111383273767"><ele>38.199999999999996</ele><time>2026-04-16T17:14:34Z</time></trkpt><trkpt lat="47.29605838195169" lon="-1.5540160797550846"><ele>38.4</ele><time>2026-04-16T17:14:36Z</time></trkpt><trkpt lat="47.29600402530962" lon="-1.5541386231794525"><ele>38.599999999999994</ele><time>2026-04-16T17:14:38Z</time></trkpt><trkpt lat="47.29596056514168" lon="-1.55425429344322"><ele>38.8</ele><time>2026-04-16T17:14:40Z</time></trkpt><trkpt lat="47.29588730730796" lon="-1.5543772559627465"><ele>39.0</ele><time>2026-04-16T17:14:42Z</time></trkpt><trkpt lat="47.295834627046524" lon="-1.5544951893403702"><ele>38.8</ele><time>2026-04-16T17:14:44Z</time></trkpt><trkpt lat="47.29576757182115" lon="-1.554623935373085"><ele>38.599999999999994</ele><time>2026-04-16T17:14:46Z</time></trkpt><trkpt lat="47.295727380595444" lon="-1.5547349117710765"><ele>38.4</ele><time>2026-04-16T17:14:48Z</time></trkpt><trkpt lat="47.29569062595004" lon="-1.5548782423153098"><ele>38.199999999999996</ele><time>2026-04-16T17:14:50Z</time></trkpt><trkpt lat="47.29563626930797" lon="-1.555014029146689"><ele>38.0</ele><time>2026-04-16T17:14:52Z</time></trkpt><trkpt lat="47.29560777083719" lon="-1.5551268495633779"><ele>38.4</ele><time>2026-04-16T17:14:54Z</time></trkpt><trkpt lat="47.295533716722666" lon="-1.5552150271847427"><ele>38.8</ele><time>2026-04-16T17:14:56Z</time></trkpt><trkpt lat="47.29546565566891" lon="-1.5553141012802303"><ele>39.2</ele><time>2026-04-16T17:14:58Z</time></trkpt><trkpt lat="47.295406940437196" lon="-1.5554414223894062"><ele>39.6</ele><time>2026-04-16T17:15:00Z</time></trkpt><trkpt lat="47.29534286078745" lon="-1.555559271947998"><ele>40.0</ele><time>2026-04-16T17:15:02Z</time></trkpt><trkpt lat="47.295275218828856" lon="-1.5556790493443196"><ele>40.0</ele><time>2026-04-16T17:15:04Z</time></trkpt><trkpt lat="47.29520862460816" lon="-1.5557939652368014"><ele>40.0</ele><time>2026-04-16T17:15:06Z</time></trkpt><trkpt lat="47.29513771370733" lon="-1.555907540024776"><ele>40.0</ele><time>2026-04-16T17:15:08Z</time></trkpt><trkpt lat="47.29507321496242" lon="-1.5560286585256047"><ele>40.0</ele><time>2026-04-16T17:15:10Z</time></trkpt><trkpt lat="47.295006620741724" lon="-1.556146759541292"><ele>40.0</ele><time>2026-04-16T17:15:12Z</time></trkpt><trkpt lat="47.29494476229632" lon="-1.5562551375493"><ele>40.4</ele><time>2026-04-16T17:15:14Z</time></trkpt><trkpt lat="47.29488625661218" lon="-1.5563578996821832"><ele>40.8</ele><time>2026-04-16T17:15:16Z</time></trkpt><trkpt lat="47.29482402098113" lon="-1.5564782638117265"><ele>41.2</ele><time>2026-04-16T17:15:18Z</time></trkpt><trkpt lat="47.29476128243589" lon="-1.5565941017135574"><ele>41.6</ele><time>2026-04-16T17:15:20Z</time></trkpt><trkpt lat="47.294673146724044" lon="-1.5566898230477764"><ele>42.0</ele><time>2026-04-16T17:15:22Z</time></trkpt><trkpt lat="47.29461472485894" lon="-1.556799793617387"><ele>42.2</ele><time>2026-04-16T17:15:24Z</time></trkpt><trkpt lat="47.2945440654152" lon="-1.55692208558466"><ele>42.400000000000006</ele><time>2026-04-16T17:15:26Z</time></trkpt><trkpt lat="47.294483548074304" lon="-1.5570391807719663"><ele>42.599999999999994</ele><time>2026-04-16T17:15:28Z</time></trkpt><trkpt lat="47.29443472348833" lon="-1.557157449425717"><ele>42.8</ele><time>2026-04-16T17:15:30Z</time></trkpt><trkpt lat="47.29438262996012" lon="-1.5572800766691166"><ele>43.0</ele><time>2026-04-16T17:15:32Z</time></trkpt><trkpt lat="47.294312850616215" lon="-1.557393148542901"><ele>43.4</ele><time>2026-04-16T17:15:34Z</time></trkpt><trkpt lat="47.294249609156786" lon="-1.5575090702637633"><ele>43.8</ele><time>2026-04-16T17:15:36Z</time></trkpt><trkpt lat="47.29420283813709" lon="-1.557617280633708"><ele>44.2</ele><time>2026-04-16T17:15:38Z</time></trkpt><trkpt lat="47.29415539656514" lon="-1.557748038323184"><ele>44.6</ele><time>2026-04-16T17:15:40Z</time></trkpt><trkpt lat="47.2940908140012" lon="-1.5578648820533956"><ele>45.0</ele><time>2026-04-16T17:15:42Z</time></trkpt><trkpt lat="47.29405280207032" lon="-1.5580129064634052"><ele>45.4</ele><time>2026-04-16T17:15:44Z</time></trkpt><trkpt lat="47.29400837798351" lon="-1.5581461787238327"><ele>45.8</ele><time>2026-04-16T17:15:46Z</time></trkpt><trkpt lat="47.29397065941924" lon="-1.5582670457675665"><ele>46.2</ele><time>2026-04-16T17:15:48Z</time></trkpt><trkpt lat="47.29391274046832" lon="-1.5583918523057907"><ele>46.6</ele><time>2026-04-16T17:15:50Z</time></trkpt><trkpt lat="47.29383068163627" lon="-1.558499895037672"><ele>47.0</ele><time>2026-04-16T17:15:52Z</time></trkpt><trkpt lat="47.29377938438886" lon="-1.5586309041842432"><ele>47.0</ele><time>2026-04-16T17:15:54Z</time></trkpt><trkpt lat="47.293727668046294" lon="-1.5587567165508482"><ele>47.0</ele><time>2026-04-16T17:15:56Z</time></trkpt><trkpt lat="47.29365436830306" lon="-1.5588500909521792"><ele>47.0</ele><time>2026-04-16T17:15:58Z</time></trkpt><trkpt lat="47.29359292895281" lon="-1.5589515119805548"><ele>47.0</ele><time>2026-04-16T17:16:00Z</time></trkpt><trkpt lat="47.29353605773979" lon="-1.5590756479665255"><ele>47.0</ele><time>2026-04-16T17:16:02Z</time></trkpt><trkpt lat="47.293477049141465" lon="-1.5592040587231137"><ele>47.0</ele><time>2026-04-16T17:16:04Z</time></trkpt><trkpt lat="47.29341410104865" lon="-1.5593264345094182"><ele>47.0</ele><time>2026-04-16T17:16:06Z</time></trkpt><trkpt lat="47.29334507607603" lon="-1.5594295319184281"><ele>47.0</ele><time>2026-04-16T17:16:08Z</time></trkpt><trkpt lat="47.29326989040458" lon="-1.5595552604660015"><ele>47.0</ele><time>2026-04-16T17:16:10Z</time></trkpt><trkpt lat="47.293199021413265" lon="-1.5596722718342761"><ele>47.0</ele><time>2026-04-16T17:16:12Z</time></trkpt><trkpt lat="47.29311482519591" lon="-1.5598082263037187"><ele>46.5</ele><time>2026-04-16T17:16:14Z</time></trkpt><trkpt lat="47.2930468898707" lon="-1.5599217172726616"><ele>46.0</ele><time>2026-04-16T17:16:16Z</time></trkpt><trkpt lat="47.29296445385301" lon="-1.5600440092399344"><ele>45.5</ele><time>2026-04-16T17:16:18Z</time></trkpt><trkpt lat="47.29289521933281" lon="-1.5601754374816643"><ele>45.0</ele><time>2026-04-16T17:16:20Z</time></trkpt><trkpt lat="47.29280096483165" lon="-1.560316001997851"><ele>44.833333333333336</ele><time>2026-04-16T17:16:22Z</time></trkpt><trkpt lat="47.2927352926203" lon="-1.5604360308512677"><ele>44.666666666666664</ele><time>2026-04-16T17:16:24Z</time></trkpt><trkpt lat="47.292695394761196" lon="-1.560509875418209"><ele>44.5</ele><time>2026-04-16T17:16:25Z</time></trkpt><trkpt lat="47.29265063539826" lon="-1.5606172475978364"><ele>44.33333333333333</ele><time>2026-04-16T17:16:26Z</time></trkpt><trkpt lat="47.29260440920227" lon="-1.5606905054315559"><ele>44.166666666666664</ele><time>2026-04-16T17:16:27Z</time></trkpt><trkpt lat="47.29254954964601" lon="-1.5608408767744533"><ele>44.0</ele><time>2026-04-16T17:16:29Z</time></trkpt><trkpt lat="47.29250981942498" lon="-1.5609210077687734"><ele>44.0</ele><time>2026-04-16T17:16:30Z</time></trkpt><trkpt lat="47.292472519955865" lon="-1.5609987080111736"><ele>44.0</ele><time>2026-04-16T17:16:31Z</time></trkpt><trkpt lat="47.29242097125136" lon="-1.5610840357854598"><ele>44.0</ele><time>2026-04-16T17:16:32Z</time></trkpt><trkpt lat="47.292372356212965" lon="-1.5611613169327017"><ele>44.0</ele><time>2026-04-16T17:16:33Z</time></trkpt><trkpt lat="47.292323280169896" lon="-1.5612479019924637"><ele>44.0</ele><time>2026-04-16T17:16:34Z</time></trkpt><trkpt lat="47.29228396904402" lon="-1.5613359957947965"><ele>44.0</ele><time>2026-04-16T17:16:35Z</time></trkpt><trkpt lat="47.29223489300095" lon="-1.561446972192788"><ele>43.83333333333333</ele><time>2026-04-16T17:16:36Z</time></trkpt><trkpt lat="47.29218992409044" lon="-1.561543531717324"><ele>43.666666666666664</ele><time>2026-04-16T17:16:37Z</time></trkpt><trkpt lat="47.29214445226573" lon="-1.5616276860251666"><ele>43.5</ele><time>2026-04-16T17:16:38Z</time></trkpt><trkpt lat="47.29210451249712" lon="-1.5617168694749117"><ele>43.333333333333336</ele><time>2026-04-16T17:16:39Z</time></trkpt><trkpt lat="47.29205484972083" lon="-1.5618138480946064"><ele>43.16666666666667</ele><time>2026-04-16T17:16:40Z</time></trkpt><trkpt lat="47.29200556413018" lon="-1.5619012713446858"><ele>43.0</ele><time>2026-04-16T17:16:41Z</time></trkpt><trkpt lat="47.291970402046374" lon="-1.5619847551002743"><ele>42.333333333333336</ele><time>2026-04-16T17:16:42Z</time></trkpt><trkpt lat="47.29190636430614" lon="-1.5620840806528573"><ele>41.66666666666667</ele><time>2026-04-16T17:16:43Z</time></trkpt><trkpt lat="47.29185573761099" lon="-1.5621806401773934"><ele>41.0</ele><time>2026-04-16T17:16:44Z</time></trkpt><trkpt lat="47.29180553001099" lon="-1.5622824803009276"><ele>40.333333333333336</ele><time>2026-04-16T17:16:45Z</time></trkpt><trkpt lat="47.29177686390214" lon="-1.5623908583089359"><ele>39.666666666666664</ele><time>2026-04-16T17:16:46Z</time></trkpt><trkpt lat="47.29171697520398" lon="-1.5625141561045892"><ele>39.0</ele><time>2026-04-16T17:16:47Z</time></trkpt><trkpt lat="47.29169182949447" lon="-1.562640303747321"><ele>39.0</ele><time>2026-04-16T17:16:48Z</time></trkpt><trkpt lat="47.29167229966008" lon="-1.5627668704852113"><ele>39.0</ele><time>2026-04-16T17:16:49Z</time></trkpt><trkpt lat="47.29163001295858" lon="-1.5629177447422993"><ele>39.0</ele><time>2026-04-16T17:16:50Z</time></trkpt><trkpt lat="47.29160650172018" lon="-1.5630501788124098"><ele>39.0</ele><time>2026-04-16T17:16:51Z</time></trkpt><trkpt lat="47.2915632091903" lon="-1.5631827805205836"><ele>39.0</ele><time>2026-04-16T17:16:52Z</time></trkpt><trkpt lat="47.29152733464473" lon="-1.5633207466467873"><ele>38.2</ele><time>2026-04-16T17:16:53Z</time></trkpt><trkpt lat="47.29149359748446" lon="-1.5634598862394349"><ele>37.4</ele><time>2026-04-16T17:16:54Z</time></trkpt><trkpt lat="47.291462207257084" lon="-1.5635664202287454"><ele>36.6</ele><time>2026-04-16T17:16:55Z</time></trkpt><trkpt lat="47.29140558750116" lon="-1.5636698529138822"><ele>35.8</ele><time>2026-04-16T17:16:56Z</time></trkpt><trkpt lat="47.291344315788976" lon="-1.563777476550605"><ele>35.0</ele><time>2026-04-16T17:16:57Z</time></trkpt><trkpt lat="47.291289498142234" lon="-1.5638974215849897"><ele>34.8</ele><time>2026-04-16T17:16:58Z</time></trkpt><trkpt lat="47.29122416120701" lon="-1.56400638632622"><ele>34.6</ele><time>2026-04-16T17:16:59Z</time></trkpt><trkpt lat="47.29115945291453" lon="-1.5641248226180338"><ele>34.4</ele><time>2026-04-16T17:17:00Z</time></trkpt><trkpt lat="47.29109424170785" lon="-1.5642359666540886"><ele>34.2</ele><time>2026-04-16T17:17:01Z</time></trkpt><trkpt lat="47.29102316316896" lon="-1.5643292572363878"><ele>34.0</ele><time>2026-04-16T17:17:02Z</time></trkpt><trkpt lat="47.290960969447426" lon="-1.5644414909198547"><ele>32.5</ele><time>2026-04-16T17:17:03Z</time></trkpt><trkpt lat="47.290897937535576" lon="-1.5645983163281945"><ele>31.0</ele><time>2026-04-16T17:17:04Z</time></trkpt><trkpt lat="47.290863446004025" lon="-1.5647408086821109"><ele>29.5</ele><time>2026-04-16T17:17:05Z</time></trkpt><trkpt lat="47.29082535025411" lon="-1.5648827981218367"><ele>28.0</ele><time>2026-04-16T17:17:06Z</time></trkpt><trkpt lat="47.290916754908196" lon="-1.5650470834239991"><ele>28.0</ele><time>2026-04-16T17:17:07Z</time></trkpt><trkpt lat="47.29094542101704" lon="-1.5651914197966132"><ele>27.999999999999996</ele><time>2026-04-16T17:17:08Z</time></trkpt><trkpt lat="47.29100375052229" lon="-1.5653198084948852"><ele>27.999999999999996</ele><time>2026-04-16T17:17:09Z</time></trkpt><trkpt lat="47.291053547567955" lon="-1.5654618199929273"><ele>28.0</ele><time>2026-04-16T17:17:10Z</time></trkpt><trkpt lat="47.29111754339867" lon="-1.5655717067435062"><ele>28.0</ele><time>2026-04-16T17:17:11Z</time></trkpt><trkpt lat="47.29120245017359" lon="-1.5656752839027293"><ele>27.2</ele><time>2026-04-16T17:17:12Z</time></trkpt><trkpt lat="47.291273039500844" lon="-1.5657938463723242"><ele>26.4</ele><time>2026-04-16T17:17:13Z</time></trkpt><trkpt lat="47.29134273314238" lon="-1.5659074676455962"><ele>25.599999999999998</ele><time>2026-04-16T17:17:14Z</time></trkpt><trkpt lat="47.29140883472166" lon="-1.5660123863544673"><ele>24.799999999999997</ele><time>2026-04-16T17:17:15Z</time></trkpt><trkpt lat="47.291479223218666" lon="-1.5661111060457336"><ele>24.0</ele><time>2026-04-16T17:17:16Z</time></trkpt><trkpt lat="47.291550929702154" lon="-1.5661888662740273"><ele>24.0</ele><time>2026-04-16T17:17:17Z</time></trkpt><trkpt lat="47.29165670439042" lon="-1.5662392713428892"><ele>24.0</ele><time>2026-04-16T17:17:18Z</time></trkpt><trkpt lat="47.29174440476451" lon="-1.5662575086051143"><ele>24.0</ele><time>2026-04-16T17:17:19Z</time></trkpt><trkpt lat="47.29184921584246" lon="-1.5662336153762149"><ele>24.0</ele><time>2026-04-16T17:17:20Z</time></trkpt><trkpt lat="47.291946167913174" lon="-1.566199750737477"><ele>24.0</ele><time>2026-04-16T17:17:21Z</time></trkpt><trkpt lat="47.292068063899265" lon="-1.5661853152098308"><ele>22.0</ele><time>2026-04-16T17:17:22Z</time></trkpt><trkpt lat="47.29221217804336" lon="-1.5662294346853776"><ele>20.0</ele><time>2026-04-16T17:17:23Z</time></trkpt><trkpt lat="47.29231947926479" lon="-1.5662786023012052"><ele>18.0</ele><time>2026-04-16T17:17:24Z</time></trkpt><trkpt lat="47.292397764059196" lon="-1.5663916044561383"><ele>16.0</ele><time>2026-04-16T17:17:25Z</time></trkpt><trkpt lat="47.29245394082958" lon="-1.5665294459072165"><ele>16.0</ele><time>2026-04-16T17:17:26Z</time></trkpt><trkpt lat="47.29249868212697" lon="-1.566692241711318"><ele>16.0</ele><time>2026-04-16T17:17:27Z</time></trkpt><trkpt lat="47.292525348218085" lon="-1.566828629125136"><ele>16.0</ele><time>2026-04-16T17:17:28Z</time></trkpt><trkpt lat="47.29254941217482" lon="-1.5669812645545944"><ele>16.0</ele><time>2026-04-16T17:17:29Z</time></trkpt><trkpt lat="47.29256078139626" lon="-1.5671343449517778"><ele>16.0</ele><time>2026-04-16T17:17:30Z</time></trkpt><trkpt lat="47.29259653021329" lon="-1.5672917570933393"><ele>15.600000000000001</ele><time>2026-04-16T17:17:31Z</time></trkpt><trkpt lat="47.292613042562536" lon="-1.567423855887323"><ele>15.200000000000001</ele><time>2026-04-16T17:17:32Z</time></trkpt><trkpt lat="47.2926322371208" lon="-1.5675722155734595"><ele>14.799999999999999</ele><time>2026-04-16T17:17:33Z</time></trkpt><trkpt lat="47.292656460820965" lon="-1.5677124448135193"><ele>14.399999999999999</ele><time>2026-04-16T17:17:34Z</time></trkpt><trkpt lat="47.2926806007021" lon="-1.567852506415516"><ele>14.0</ele><time>2026-04-16T17:17:35Z</time></trkpt><trkpt lat="47.29270080108874" lon="-1.5679872874185143"><ele>15.333333333333334</ele><time>2026-04-16T17:17:36Z</time></trkpt><trkpt lat="47.29272225876086" lon="-1.5681082382812799"><ele>16.666666666666668</ele><time>2026-04-16T17:17:37Z</time></trkpt><trkpt lat="47.29274128568107" lon="-1.5682223998024762"><ele>18.0</ele><time>2026-04-16T17:17:38Z</time></trkpt><trkpt lat="47.2927593486824" lon="-1.5683440212174955"><ele>19.333333333333332</ele><time>2026-04-16T17:17:39Z</time></trkpt><trkpt lat="47.292795348956524" lon="-1.5684205479934517"><ele>20.666666666666664</ele><time>2026-04-16T17:17:40Z</time></trkpt><trkpt lat="47.29282979857856" lon="-1.568551557140023"><ele>22.0</ele><time>2026-04-16T17:17:42Z</time></trkpt><trkpt lat="47.29283629455352" lon="-1.568682901562721"><ele>22.8</ele><time>2026-04-16T17:17:44Z</time></trkpt><trkpt lat="47.29287631814116" lon="-1.5688091330244847"><ele>23.6</ele><time>2026-04-16T17:17:46Z</time></trkpt><trkpt lat="47.292891950390576" lon="-1.5689634438618727"><ele>24.400000000000002</ele><time>2026-04-16T17:17:48Z</time></trkpt><trkpt lat="47.292899955108105" lon="-1.5691335964962552"><ele>25.200000000000003</ele><time>2026-04-16T17:17:50Z</time></trkpt><trkpt lat="47.29291793429041" lon="-1.5692957863226247"><ele>26.0</ele><time>2026-04-16T17:17:52Z</time></trkpt><trkpt lat="47.29292468172246" lon="-1.5694354288294625"><ele>26.0</ele><time>2026-04-16T17:17:54Z</time></trkpt><trkpt lat="47.292936793572544" lon="-1.5695992950364663"><ele>26.0</ele><time>2026-04-16T17:17:56Z</time></trkpt><trkpt lat="47.292951461903094" lon="-1.569742877037795"><ele>26.0</ele><time>2026-04-16T17:17:58Z</time></trkpt><trkpt lat="47.292957832149504" lon="-1.569874808193715"><ele>26.0</ele><time>2026-04-16T17:18:00Z</time></trkpt><trkpt lat="47.29291680273348" lon="-1.5700093377396185"><ele>26.0</ele><time>2026-04-16T17:18:02Z</time></trkpt><trkpt lat="47.292880215726136" lon="-1.5701261814698297"><ele>25.999999999999996</ele><time>2026-04-16T17:18:04Z</time></trkpt><trkpt lat="47.29286156599158" lon="-1.5702268481269201"><ele>26.0</ele><time>2026-04-16T17:18:06Z</time></trkpt><trkpt lat="47.29279497177088" lon="-1.5703094936921915"><ele>26.0</ele><time>2026-04-16T17:18:08Z</time></trkpt><trkpt lat="47.292739190205275" lon="-1.5704120881870114"><ele>26.0</ele><time>2026-04-16T17:18:10Z</time></trkpt><trkpt lat="47.29267431427472" lon="-1.5704671572908484"><ele>25.999999999999996</ele><time>2026-04-16T17:18:12Z</time></trkpt><trkpt lat="47.29258789685302" lon="-1.570448130370649"><ele>26.0</ele><time>2026-04-16T17:18:14Z</time></trkpt><trkpt lat="47.29251841087573" lon="-1.570545025171312"><ele>26.333333333333332</ele><time>2026-04-16T17:18:16Z</time></trkpt><trkpt lat="47.29245898318224" lon="-1.57060160301772"><ele>26.666666666666664</ele><time>2026-04-16T17:18:18Z</time></trkpt><trkpt lat="47.29237239812248" lon="-1.570606883616718"><ele>27.0</ele><time>2026-04-16T17:18:20Z</time></trkpt><trkpt lat="47.2922910517522" lon="-1.5706078056260668"><ele>27.333333333333336</ele><time>2026-04-16T17:18:22Z</time></trkpt><trkpt lat="47.292217835828" lon="-1.5706099849208914"><ele>27.666666666666668</ele><time>2026-04-16T17:18:24Z</time></trkpt><trkpt lat="47.29213695046239" lon="-1.5705893654390894"><ele>28.0</ele><time>2026-04-16T17:18:26Z</time></trkpt><trkpt lat="47.29205250278794" lon="-1.570530608297857"><ele>28.000000000000004</ele><time>2026-04-16T17:18:28Z</time></trkpt><trkpt lat="47.291973377622" lon="-1.570543264971646"><ele>28.0</ele><time>2026-04-16T17:18:30Z</time></trkpt><trkpt lat="47.29190376591616" lon="-1.570538822562965"><ele>28.0</ele><time>2026-04-16T17:18:32Z</time></trkpt><trkpt lat="47.2918258980357" lon="-1.5705063845976912"><ele>28.0</ele><time>2026-04-16T17:18:34Z</time></trkpt><trkpt lat="47.29174283337527" lon="-1.5705118328347527"><ele>28.000000000000004</ele><time>2026-04-16T17:18:36Z</time></trkpt><trkpt lat="47.291657463691465" lon="-1.5705681592240655"><ele>28.0</ele><time>2026-04-16T17:18:38Z</time></trkpt><trkpt lat="47.291555078744224" lon="-1.5705642197295748"><ele>28.000000000000004</ele><time>2026-04-16T17:18:40Z</time></trkpt><trkpt lat="47.29145701047712" lon="-1.5705763734891736"><ele>28.0</ele><time>2026-04-16T17:18:42Z</time></trkpt><trkpt lat="47.29137432300233" lon="-1.5705734398230635"><ele>28.0</ele><time>2026-04-16T17:18:44Z</time></trkpt><trkpt lat="47.29129796386444" lon="-1.5705742780133807"><ele>28.0</ele><time>2026-04-16T17:18:46Z</time></trkpt><trkpt lat="47.29120928332888" lon="-1.5705864317729794"><ele>28.000000000000004</ele><time>2026-04-16T17:18:48Z</time></trkpt><trkpt lat="47.29113170881503" lon="-1.5705860964968525"><ele>28.0</ele><time>2026-04-16T17:18:50Z</time></trkpt><trkpt lat="47.291072281121544" lon="-1.570553574712547"><ele>28.833333333333336</ele><time>2026-04-16T17:18:52Z</time></trkpt><trkpt lat="47.290993239774636" lon="-1.5705492999419295"><ele>29.666666666666668</ele><time>2026-04-16T17:18:54Z</time></trkpt><trkpt lat="47.290893495126895" lon="-1.570509066806706"><ele>30.5</ele><time>2026-04-16T17:18:56Z</time></trkpt><trkpt lat="47.290815082422725" lon="-1.5705311112120472"><ele>31.333333333333336</ele><time>2026-04-16T17:18:58Z</time></trkpt><trkpt lat="47.290728665001026" lon="-1.57060160301772"><ele>32.166666666666664</ele><time>2026-04-16T17:19:00Z</time></trkpt><trkpt lat="47.290668273388675" lon="-1.5706561692073668"><ele>33.0</ele><time>2026-04-16T17:19:02Z</time></trkpt><trkpt lat="47.290595434650115" lon="-1.570698246361288"><ele>33.666666666666664</ele><time>2026-04-16T17:19:04Z</time></trkpt><trkpt lat="47.2905417485603" lon="-1.5707596018925036"><ele>34.333333333333336</ele><time>2026-04-16T17:19:05Z</time></trkpt><trkpt lat="47.29048265614294" lon="-1.5708429180100287"><ele>35.0</ele><time>2026-04-16T17:19:07Z</time></trkpt><trkpt lat="47.290416648655466" lon="-1.570887090639743"><ele>35.66666666666667</ele><time>2026-04-16T17:19:08Z</time></trkpt><trkpt lat="47.29034942579203" lon="-1.570955403150591"><ele>36.333333333333336</ele><time>2026-04-16T17:19:10Z</time></trkpt><trkpt lat="47.29028769307517" lon="-1.5710674691959945"><ele>37.0</ele><time>2026-04-16T17:19:12Z</time></trkpt><trkpt lat="47.2902267147296" lon="-1.5711473487332195"><ele>37.142857142857146</ele><time>2026-04-16T17:19:14Z</time></trkpt><trkpt lat="47.29017076552593" lon="-1.5712216123953193"><ele>37.285714285714285</ele><time>2026-04-16T17:19:16Z</time></trkpt><trkpt lat="47.290116576521925" lon="-1.5713033359512418"><ele>37.42857142857143</ele><time>2026-04-16T17:19:18Z</time></trkpt><trkpt lat="47.29006544691258" lon="-1.5713932737722727"><ele>37.57142857142857</ele><time>2026-04-16T17:19:20Z</time></trkpt><trkpt lat="47.29002357930624" lon="-1.5714675374343725"><ele>37.714285714285715</ele><time>2026-04-16T17:19:22Z</time></trkpt><trkpt lat="47.28997286879205" lon="-1.5715565532460543"><ele>37.857142857142854</ele><time>2026-04-16T17:19:24Z</time></trkpt><trkpt lat="47.28993833535098" lon="-1.5716433897629116"><ele>38.0</ele><time>2026-04-16T17:19:26Z</time></trkpt><trkpt lat="47.28989630010658" lon="-1.5717389434590672"><ele>38.0</ele><time>2026-04-16T17:19:28Z</time></trkpt><trkpt lat="47.289845924868516" lon="-1.5718245226904486"><ele>38.0</ele><time>2026-04-16T17:19:30Z</time></trkpt><trkpt lat="47.28978779637002" lon="-1.5719087608173228"><ele>38.0</ele><time>2026-04-16T17:19:32Z</time></trkpt><trkpt lat="47.289730296514264" lon="-1.5719919092967845"><ele>38.0</ele><time>2026-04-16T17:19:34Z</time></trkpt><trkpt lat="47.289673341482214" lon="-1.5720817632987836"><ele>38.0</ele><time>2026-04-16T17:19:36Z</time></trkpt><trkpt lat="47.28962087076836" lon="-1.572173796595607"><ele>38.0</ele><time>2026-04-16T17:19:38Z</time></trkpt><trkpt lat="47.28956605312162" lon="-1.572262728588257"><ele>38.666666666666664</ele><time>2026-04-16T17:19:40Z</time></trkpt><trkpt lat="47.289506583518616" lon="-1.5723506547525268"><ele>39.33333333333333</ele><time>2026-04-16T17:19:42Z</time></trkpt><trkpt lat="47.28944149804049" lon="-1.5724305342897515"><ele>40.0</ele><time>2026-04-16T17:19:44Z</time></trkpt><trkpt lat="47.28938324381345" lon="-1.5725084859892469"><ele>40.666666666666664</ele><time>2026-04-16T17:19:46Z</time></trkpt><trkpt lat="47.28932540868156" lon="-1.5725987590864046"><ele>41.333333333333336</ele><time>2026-04-16T17:19:48Z</time></trkpt><trkpt lat="47.28926598098808" lon="-1.572692552582894"><ele>42.0</ele><time>2026-04-16T17:19:50Z</time></trkpt><trkpt lat="47.28921242062681" lon="-1.572782993318115"><ele>42.0</ele><time>2026-04-16T17:19:52Z</time></trkpt><trkpt lat="47.28915944699877" lon="-1.5728694107398138"><ele>42.0</ele><time>2026-04-16T17:19:54Z</time></trkpt><trkpt lat="47.289102911061875" lon="-1.572965383531128"><ele>42.0</ele><time>2026-04-16T17:19:56Z</time></trkpt><trkpt lat="47.289046458944014" lon="-1.5730617754176008"><ele>42.0</ele><time>2026-04-16T17:19:58Z</time></trkpt><trkpt lat="47.28897839789026" lon="-1.573168309406911"><ele>42.0</ele><time>2026-04-16T17:20:00Z</time></trkpt><trkpt lat="47.28890782226556" lon="-1.573277944700395"><ele>42.0</ele><time>2026-04-16T17:20:02Z</time></trkpt><trkpt lat="47.28884726301514" lon="-1.5733682177975525"><ele>42.0</ele><time>2026-04-16T17:20:04Z</time></trkpt><trkpt lat="47.28878150698476" lon="-1.5734686329975476"><ele>42.0</ele><time>2026-04-16T17:20:06Z</time></trkpt><trkpt lat="47.28870330382817" lon="-1.5735736582442872"><ele>42.0</ele><time>2026-04-16T17:20:08Z</time></trkpt><trkpt lat="47.2886336083033" lon="-1.57367591746298"><ele>42.0</ele><time>2026-04-16T17:20:10Z</time></trkpt><trkpt lat="47.2885704506629" lon="-1.5737897437080497"><ele>42.0</ele><time>2026-04-16T17:20:12Z</time></trkpt><trkpt lat="47.28852443401449" lon="-1.5738837886616344"><ele>42.0</ele><time>2026-04-16T17:20:14Z</time></trkpt><trkpt lat="47.288440405435196" lon="-1.5739898197367546"><ele>42.0</ele><time>2026-04-16T17:20:16Z</time></trkpt><trkpt lat="47.288370919457904" lon="-1.5741132851704713"><ele>42.0</ele><time>2026-04-16T17:20:18Z</time></trkpt><trkpt lat="47.288302523128024" lon="-1.5742267761394142"><ele>42.0</ele><time>2026-04-16T17:20:20Z</time></trkpt><trkpt lat="47.288230983584455" lon="-1.5743437875076889"><ele>42.0</ele><time>2026-04-16T17:20:22Z</time></trkpt><trkpt lat="47.288191630549065" lon="-1.5744184702649473"><ele>42.0</ele><time>2026-04-16T17:20:23Z</time></trkpt><trkpt lat="47.28812440768563" lon="-1.5745323803290487"><ele>42.0</ele><time>2026-04-16T17:20:25Z</time></trkpt><trkpt lat="47.28804276794874" lon="-1.5746285207584263"><ele>42.0</ele><time>2026-04-16T17:20:27Z</time></trkpt><trkpt lat="47.287970264486304" lon="-1.574730277062929"><ele>42.0</ele><time>2026-04-16T17:20:29Z</time></trkpt><trkpt lat="47.28788631972604" lon="-1.5748101566001538"><ele>42.0</ele><time>2026-04-16T17:20:31Z</time></trkpt><trkpt lat="47.28779701054775" lon="-1.5748883597567442"><ele>42.0</ele><time>2026-04-16T17:20:33Z</time></trkpt><trkpt lat="47.28775317319416" lon="-1.5749564208104974"><ele>42.0</ele><time>2026-04-16T17:20:34Z</time></trkpt><trkpt lat="47.28765745185994" lon="-1.5750456880792743"><ele>42.0</ele><time>2026-04-16T17:20:36Z</time></trkpt><trkpt lat="47.287561311430565" lon="-1.5751321893200045"><ele>42.0</ele><time>2026-04-16T17:20:38Z</time></trkpt><trkpt lat="47.28746898476713" lon="-1.5752150863423713"><ele>42.0</ele><time>2026-04-16T17:20:40Z</time></trkpt><trkpt lat="47.28737175469034" lon="-1.5753038506969579"><ele>42.0</ele><time>2026-04-16T17:20:42Z</time></trkpt><trkpt lat="47.28727339305662" lon="-1.5753846522435315"><ele>42.0</ele><time>2026-04-16T17:20:44Z</time></trkpt><trkpt lat="47.287174109413556" lon="-1.5754714049413572"><ele>42.0</ele><time>2026-04-16T17:20:46Z</time></trkpt><trkpt lat="47.28706547994845" lon="-1.575552709402121"><ele>42.2</ele><time>2026-04-16T17:20:48Z</time></trkpt><trkpt lat="47.28698166091674" lon="-1.5756377857193122"><ele>42.400000000000006</ele><time>2026-04-16T17:20:50Z</time></trkpt><trkpt lat="47.28687592320823" lon="-1.5757283940925968"><ele>42.599999999999994</ele><time>2026-04-16T17:20:52Z</time></trkpt><trkpt lat="47.28677274198019" lon="-1.5758068487062824"><ele>42.8</ele><time>2026-04-16T17:20:54Z</time></trkpt><trkpt lat="47.28671737950974" lon="-1.5758649352952612"><ele>43.0</ele><time>2026-04-16T17:20:55Z</time></trkpt><trkpt lat="47.286611474163166" lon="-1.575947497041501"><ele>43.0</ele><time>2026-04-16T17:20:57Z</time></trkpt><trkpt lat="47.286551585465006" lon="-1.5759884007289782"><ele>43.0</ele><time>2026-04-16T17:20:58Z</time></trkpt><trkpt lat="47.286450709260336" lon="-1.576076494531311"><ele>43.0</ele><time>2026-04-16T17:21:00Z</time></trkpt><trkpt lat="47.28638792880558" lon="-1.5761054120972529"><ele>43.0</ele><time>2026-04-16T17:21:01Z</time></trkpt><trkpt lat="47.28629321329974" lon="-1.5762016363456623"><ele>43.0</ele><time>2026-04-16T17:21:03Z</time></trkpt><trkpt lat="47.28623718027704" lon="-1.5763006266221182"><ele>43.16666666666667</ele><time>2026-04-16T17:21:05Z</time></trkpt><trkpt lat="47.28614036929541" lon="-1.5763644967242854"><ele>43.333333333333336</ele><time>2026-04-16T17:21:07Z</time></trkpt><trkpt lat="47.286089533052674" lon="-1.5764276124551673"><ele>43.5</ele><time>2026-04-16T17:21:08Z</time></trkpt><trkpt lat="47.286031362644664" lon="-1.5764725394561667"><ele>43.666666666666664</ele><time>2026-04-16T17:21:09Z</time></trkpt><trkpt lat="47.2859415924617" lon="-1.5765436179950614"><ele>43.83333333333333</ele><time>2026-04-16T17:21:11Z</time></trkpt><trkpt lat="47.28584553585135" lon="-1.5766120143249414"><ele>44.0</ele><time>2026-04-16T17:21:13Z</time></trkpt><trkpt lat="47.285759495615295" lon="-1.576719302685537"><ele>44.0</ele><time>2026-04-16T17:21:15Z</time></trkpt><trkpt lat="47.28565870322966" lon="-1.576808821411409"><ele>44.0</ele><time>2026-04-16T17:21:17Z</time></trkpt><trkpt lat="47.28556801103734" lon="-1.5768894553199195"><ele>44.0</ele><time>2026-04-16T17:21:19Z</time></trkpt><trkpt lat="47.285465081266395" lon="-1.5769746154561424"><ele>44.0</ele><time>2026-04-16T17:21:21Z</time></trkpt><trkpt lat="47.285342160656384" lon="-1.5770396590247535"><ele>43.800000000000004</ele><time>2026-04-16T17:21:23Z</time></trkpt><trkpt lat="47.28529161778026" lon="-1.577096991242447"><ele>43.6</ele><time>2026-04-16T17:21:24Z</time></trkpt><trkpt lat="47.28520226669245" lon="-1.5772083867355968"><ele>43.4</ele><time>2026-04-16T17:21:26Z</time></trkpt><trkpt lat="47.28511828002267" lon="-1.5773222129806663"><ele>43.2</ele><time>2026-04-16T17:21:28Z</time></trkpt><trkpt lat="47.285054451830014" lon="-1.5774621069445995"><ele>43.0</ele><time>2026-04-16T17:21:30Z</time></trkpt><trkpt lat="47.2849896597185" lon="-1.5775764361038596"><ele>43.0</ele><time>2026-04-16T17:21:32Z</time></trkpt><trkpt lat="47.28490433194421" lon="-1.577700320632735"><ele>43.0</ele><time>2026-04-16T17:21:34Z</time></trkpt><trkpt lat="47.284834384962245" lon="-1.5778430644437464"><ele>43.0</ele><time>2026-04-16T17:21:36Z</time></trkpt><trkpt lat="47.28475572080098" lon="-1.5779608301833066"><ele>43.0</ele><time>2026-04-16T17:21:38Z</time></trkpt><trkpt lat="47.28467185985975" lon="-1.578099466861764"><ele>42.8</ele><time>2026-04-16T17:21:40Z</time></trkpt><trkpt lat="47.28457048074089" lon="-1.5782223455622588"><ele>42.599999999999994</ele><time>2026-04-16T17:21:42Z</time></trkpt><trkpt lat="47.28449114602737" lon="-1.5783553663655914"><ele>42.400000000000006</ele><time>2026-04-16T17:21:44Z</time></trkpt><trkpt lat="47.284402675039395" lon="-1.5784512553378738"><ele>42.2</ele><time>2026-04-16T17:21:46Z</time></trkpt><trkpt lat="47.284360472156926" lon="-1.5785282012089887"><ele>42.0</ele><time>2026-04-16T17:21:47Z</time></trkpt><trkpt lat="47.28426806167446" lon="-1.5786487329765955"><ele>42.400000000000006</ele><time>2026-04-16T17:21:49Z</time></trkpt><trkpt lat="47.28415880356662" lon="-1.5787621401265066"><ele>42.800000000000004</ele><time>2026-04-16T17:21:51Z</time></trkpt><trkpt lat="47.284085503823384" lon="-1.5788690093919437"><ele>43.2</ele><time>2026-04-16T17:21:53Z</time></trkpt><trkpt lat="47.284038648984655" lon="-1.5789483860149782"><ele>43.6</ele><time>2026-04-16T17:21:54Z</time></trkpt><trkpt lat="47.28395348884843" lon="-1.5790879447027846"><ele>44.0</ele><time>2026-04-16T17:21:56Z</time></trkpt><trkpt lat="47.2839031974294" lon="-1.5791489649578734"><ele>44.0</ele><time>2026-04-16T17:21:57Z</time></trkpt><trkpt lat="47.283829017586335" lon="-1.579270167277734"><ele>44.0</ele><time>2026-04-16T17:21:59Z</time></trkpt><trkpt lat="47.28373945695095" lon="-1.5794048644617007"><ele>44.0</ele><time>2026-04-16T17:22:01Z</time></trkpt><trkpt lat="47.283693649850115" lon="-1.5794795472189593"><ele>44.0</ele><time>2026-04-16T17:22:02Z</time></trkpt><trkpt lat="47.28362148166381" lon="-1.5796273201718736"><ele>44.0</ele><time>2026-04-16T17:22:04Z</time></trkpt><trkpt lat="47.283568801402375" lon="-1.579788336531799"><ele>44.0</ele><time>2026-04-16T17:22:06Z</time></trkpt><trkpt lat="47.28352613751523" lon="-1.5799471735969"><ele>44.0</ele><time>2026-04-16T17:22:08Z</time></trkpt><trkpt lat="47.283498980148956" lon="-1.5800336748376302"><ele>44.0</ele><time>2026-04-16T17:22:09Z</time></trkpt><trkpt lat="47.28347727101974" lon="-1.5801350120469742"><ele>44.0</ele><time>2026-04-16T17:22:10Z</time></trkpt><trkpt lat="47.283454765609726" lon="-1.5803104452803547"><ele>44.0</ele><time>2026-04-16T17:22:12Z</time></trkpt><trkpt lat="47.28345422078602" lon="-1.5804077591761763"><ele>44.0</ele><time>2026-04-16T17:22:13Z</time></trkpt><trkpt lat="47.28345086802475" lon="-1.5805883891895232"><ele>43.83333333333333</ele><time>2026-04-16T17:22:15Z</time></trkpt><trkpt lat="47.28344898209654" lon="-1.580763738603872"><ele>43.666666666666664</ele><time>2026-04-16T17:22:17Z</time></trkpt><trkpt lat="47.283435864418074" lon="-1.5808586217477738"><ele>43.5</ele><time>2026-04-16T17:22:18Z</time></trkpt><trkpt lat="47.28341587357901" lon="-1.5809645690038623"><ele>43.333333333333336</ele><time>2026-04-16T17:22:19Z</time></trkpt><trkpt lat="47.28340028323911" lon="-1.5810604579761447"><ele>43.16666666666667</ele><time>2026-04-16T17:22:20Z</time></trkpt><trkpt lat="47.28340841368519" lon="-1.5812372323140327"><ele>43.0</ele><time>2026-04-16T17:22:22Z</time></trkpt><trkpt lat="47.283402672081515" lon="-1.581408893690986"><ele>43.333333333333336</ele><time>2026-04-16T17:22:24Z</time></trkpt><trkpt lat="47.283395882739946" lon="-1.581591200084967"><ele>43.66666666666667</ele><time>2026-04-16T17:22:26Z</time></trkpt><trkpt lat="47.28339190133594" lon="-1.5816988237216898"><ele>44.0</ele><time>2026-04-16T17:22:27Z</time></trkpt><trkpt lat="47.28339030877434" lon="-1.5818123985096642"><ele>44.333333333333336</ele><time>2026-04-16T17:22:28Z</time></trkpt><trkpt lat="47.28338896766983" lon="-1.5819068625584076"><ele>44.666666666666664</ele><time>2026-04-16T17:22:29Z</time></trkpt><trkpt lat="47.28338134013794" lon="-1.5820555575206707"><ele>45.0</ele><time>2026-04-16T17:22:31Z</time></trkpt><trkpt lat="47.283376855819746" lon="-1.5821657795473767"><ele>45.0</ele><time>2026-04-16T17:22:32Z</time></trkpt><trkpt lat="47.28337719109587" lon="-1.5823590662345126"><ele>45.0</ele><time>2026-04-16T17:22:34Z</time></trkpt><trkpt lat="47.28338226214729" lon="-1.5825324878111318"><ele>45.0</ele><time>2026-04-16T17:22:36Z</time></trkpt><trkpt lat="47.28337115612559" lon="-1.5826321486398416"><ele>45.0</ele><time>2026-04-16T17:22:37Z</time></trkpt><trkpt lat="47.28335053664379" lon="-1.5828118566438396"><ele>45.0</ele><time>2026-04-16T17:22:39Z</time></trkpt><trkpt lat="47.283351668200716" lon="-1.5829802490785558"><ele>45.0</ele><time>2026-04-16T17:22:41Z</time></trkpt><trkpt lat="47.28332534902476" lon="-1.5831570234164438"><ele>45.0</ele><time>2026-04-16T17:22:43Z</time></trkpt><trkpt lat="47.283321116163656" lon="-1.583321392537638"><ele>45.0</ele><time>2026-04-16T17:22:45Z</time></trkpt><trkpt lat="47.28332849223845" lon="-1.5834907908007347"><ele>45.0</ele><time>2026-04-16T17:22:47Z</time></trkpt><trkpt lat="47.28331449446015" lon="-1.583610316739961"><ele>45.0</ele><time>2026-04-16T17:22:48Z</time></trkpt><trkpt lat="47.28330020331524" lon="-1.5837011765703406"><ele>44.8</ele><time>2026-04-16T17:22:49Z</time></trkpt><trkpt lat="47.283295928544625" lon="-1.5837947186097352"><ele>44.6</ele><time>2026-04-16T17:22:50Z</time></trkpt><trkpt lat="47.283268016807064" lon="-1.5839041024461238"><ele>44.400000000000006</ele><time>2026-04-16T17:22:51Z</time></trkpt><trkpt lat="47.28324630767785" lon="-1.5840925276294202"><ele>44.2</ele><time>2026-04-16T17:22:53Z</time></trkpt><trkpt lat="47.28325804234229" lon="-1.5841947030290813"><ele>44.0</ele><time>2026-04-16T17:22:54Z</time></trkpt><trkpt lat="47.28326906454496" lon="-1.5843864809736463"><ele>44.0</ele><time>2026-04-16T17:22:56Z</time></trkpt><trkpt lat="47.28326575369321" lon="-1.58448974602072"><ele>44.0</ele><time>2026-04-16T17:22:57Z</time></trkpt><trkpt lat="47.28326474786483" lon="-1.584586054088161"><ele>44.0</ele><time>2026-04-16T17:22:58Z</time></trkpt><trkpt lat="47.283249702348634" lon="-1.5846762433662867"><ele>44.0</ele><time>2026-04-16T17:22:59Z</time></trkpt><trkpt lat="47.28322694548152" lon="-1.5848354157075144"><ele>44.0</ele><time>2026-04-16T17:23:01Z</time></trkpt><trkpt lat="47.28325368375264" lon="-1.584997270257757"><ele>44.0</ele><time>2026-04-16T17:23:03Z</time></trkpt><trkpt lat="47.283245343758985" lon="-1.5851578675225237"><ele>43.800000000000004</ele><time>2026-04-16T17:23:05Z</time></trkpt><trkpt lat="47.28325523440473" lon="-1.5853061433896285"><ele>43.6</ele><time>2026-04-16T17:23:07Z</time></trkpt><trkpt lat="47.28327987720005" lon="-1.5854066424086553"><ele>43.4</ele><time>2026-04-16T17:23:09Z</time></trkpt><trkpt lat="47.28328415197067" lon="-1.5855787228807672"><ele>43.2</ele><time>2026-04-16T17:23:11Z</time></trkpt><trkpt lat="47.28328478061341" lon="-1.5857465285822616"><ele>43.0</ele><time>2026-04-16T17:23:13Z</time></trkpt><trkpt lat="47.283267849169" lon="-1.5858414117261634"><ele>43.0</ele><time>2026-04-16T17:23:14Z</time></trkpt><trkpt lat="47.28325703651391" lon="-1.585997398944186"><ele>43.0</ele><time>2026-04-16T17:23:16Z</time></trkpt><trkpt lat="47.28324400265448" lon="-1.5860944613829124"><ele>43.0</ele><time>2026-04-16T17:23:17Z</time></trkpt><trkpt lat="47.28322233543478" lon="-1.586245419459032"><ele>43.0</ele><time>2026-04-16T17:23:19Z</time></trkpt><trkpt lat="47.28321747393094" lon="-1.5863893367364876"><ele>43.0</ele><time>2026-04-16T17:23:21Z</time></trkpt><trkpt lat="47.28319756691091" lon="-1.5865178313121073"><ele>43.2</ele><time>2026-04-16T17:23:23Z</time></trkpt><trkpt lat="47.28317162492059" lon="-1.5866070147618525"><ele>43.4</ele><time>2026-04-16T17:23:24Z</time></trkpt><trkpt lat="47.28312296797268" lon="-1.586752105505752"><ele>43.6</ele><time>2026-04-16T17:23:26Z</time></trkpt><trkpt lat="47.28308964990757" lon="-1.5869105234756944"><ele>43.800000000000004</ele><time>2026-04-16T17:23:28Z</time></trkpt><trkpt lat="47.28305930741809" lon="-1.5870321448907134"><ele>44.0</ele><time>2026-04-16T17:23:30Z</time></trkpt><trkpt lat="47.28300922554664" lon="-1.5871695242836952"><ele>44.6</ele><time>2026-04-16T17:23:32Z</time></trkpt><trkpt lat="47.28296534628354" lon="-1.5872945822790145"><ele>45.2</ele><time>2026-04-16T17:23:34Z</time></trkpt><trkpt lat="47.28291446813129" lon="-1.5874390024706604"><ele>45.800000000000004</ele><time>2026-04-16T17:23:36Z</time></trkpt><trkpt lat="47.28287972514264" lon="-1.5876073110863451"><ele>46.400000000000006</ele><time>2026-04-16T17:23:38Z</time></trkpt><trkpt lat="47.28283127774231" lon="-1.5877480432405953"><ele>47.0</ele><time>2026-04-16T17:23:40Z</time></trkpt><trkpt lat="47.28277394552462" lon="-1.5878363885000235"><ele>47.166666666666664</ele><time>2026-04-16T17:23:41Z</time></trkpt><trkpt lat="47.282749596095904" lon="-1.5879487060025221"><ele>47.33333333333333</ele><time>2026-04-16T17:23:43Z</time></trkpt><trkpt lat="47.28274670433931" lon="-1.5880566649153718"><ele>47.5</ele><time>2026-04-16T17:23:45Z</time></trkpt><trkpt lat="47.28270005904816" lon="-1.5881937928512582"><ele>47.666666666666664</ele><time>2026-04-16T17:23:47Z</time></trkpt><trkpt lat="47.282649935267195" lon="-1.5883184317514192"><ele>47.833333333333336</ele><time>2026-04-16T17:23:49Z</time></trkpt><trkpt lat="47.28260412816636" lon="-1.5884207747891437"><ele>48.0</ele><time>2026-04-16T17:23:51Z</time></trkpt><trkpt lat="47.28257127110593" lon="-1.5885365288719429"><ele>48.0</ele><time>2026-04-16T17:23:53Z</time></trkpt><trkpt lat="47.282531750432476" lon="-1.588658401744057"><ele>48.0</ele><time>2026-04-16T17:23:55Z</time></trkpt><trkpt lat="47.28247299329124" lon="-1.5888024028405443"><ele>48.0</ele><time>2026-04-16T17:23:57Z</time></trkpt><trkpt lat="47.28240220811896" lon="-1.5889311488732591"><ele>48.0</ele><time>2026-04-16T17:23:59Z</time></trkpt><trkpt lat="47.28236830332063" lon="-1.5890412032619017"><ele>48.0</ele><time>2026-04-16T17:24:01Z</time></trkpt><trkpt lat="47.28231809572063" lon="-1.5891479048892754"><ele>48.599999999999994</ele><time>2026-04-16T17:24:03Z</time></trkpt><trkpt lat="47.282261517874225" lon="-1.5892644971623917"><ele>49.199999999999996</ele><time>2026-04-16T17:24:05Z</time></trkpt><trkpt lat="47.28220267691396" lon="-1.589357452468564"><ele>49.8</ele><time>2026-04-16T17:24:07Z</time></trkpt><trkpt lat="47.28214018982582" lon="-1.5894678421333333"><ele>50.4</ele><time>2026-04-16T17:24:09Z</time></trkpt><trkpt lat="47.28209404744886" lon="-1.5895780641600392"><ele>51.0</ele><time>2026-04-16T17:24:11Z</time></trkpt><trkpt lat="47.28204518095337" lon="-1.5896768029794"><ele>51.199999999999996</ele><time>2026-04-16T17:24:13Z</time></trkpt><trkpt lat="47.28198772300713" lon="-1.5897759608939195"><ele>51.4</ele><time>2026-04-16T17:24:15Z</time></trkpt><trkpt lat="47.281923810995444" lon="-1.5898852609112764"><ele>51.6</ele><time>2026-04-16T17:24:17Z</time></trkpt><trkpt lat="47.28186325174503" lon="-1.5899909567102697"><ele>51.8</ele><time>2026-04-16T17:24:19Z</time></trkpt><trkpt lat="47.28180394978009" lon="-1.590115427972367"><ele>52.0</ele><time>2026-04-16T17:24:21Z</time></trkpt><trkpt lat="47.28175177243285" lon="-1.5902286674842148"><ele>52.0</ele><time>2026-04-16T17:24:23Z</time></trkpt><trkpt lat="47.281690081625506" lon="-1.5903313457980661"><ele>52.0</ele><time>2026-04-16T17:24:25Z</time></trkpt><trkpt lat="47.28162935473703" lon="-1.590446596966675"><ele>52.0</ele><time>2026-04-16T17:24:27Z</time></trkpt><trkpt lat="47.28156883739613" lon="-1.590562015773347"><ele>52.0</ele><time>2026-04-16T17:24:29Z</time></trkpt><trkpt lat="47.2814971302145" lon="-1.5906531270608217"><ele>52.0</ele><time>2026-04-16T17:24:31Z</time></trkpt><trkpt lat="47.28143041026525" lon="-1.5907578170314345"><ele>52.2</ele><time>2026-04-16T17:24:33Z</time></trkpt><trkpt lat="47.281366623982116" lon="-1.5908641833826813"><ele>52.400000000000006</ele><time>2026-04-16T17:24:35Z</time></trkpt><trkpt lat="47.28130598091267" lon="-1.5909645985826766"><ele>52.599999999999994</ele><time>2026-04-16T17:24:37Z</time></trkpt><trkpt lat="47.28122077886693" lon="-1.5910776704564606"><ele>52.8</ele><time>2026-04-16T17:24:39Z</time></trkpt><trkpt lat="47.28115137670867" lon="-1.591187473388008"><ele>53.0</ele><time>2026-04-16T17:24:41Z</time></trkpt><trkpt lat="47.281068270138725" lon="-1.5912959352150478"><ele>53.0</ele><time>2026-04-16T17:24:43Z</time></trkpt><trkpt lat="47.28099124044858" lon="-1.5914152935162107"><ele>53.0</ele><time>2026-04-16T17:24:45Z</time></trkpt><trkpt lat="47.280919449447914" lon="-1.5915447101011793"><ele>53.0</ele><time>2026-04-16T17:24:47Z</time></trkpt><trkpt lat="47.2808779171177" lon="-1.5916149504497568"><ele>53.0</ele><time>2026-04-16T17:24:48Z</time></trkpt><trkpt lat="47.28080201898448" lon="-1.5917264297619385"><ele>53.0</ele><time>2026-04-16T17:24:50Z</time></trkpt><trkpt lat="47.280704663179144" lon="-1.5918216481819671"><ele>53.0</ele><time>2026-04-16T17:24:52Z</time></trkpt><trkpt lat="47.28061988022856" lon="-1.59195223823338"><ele>53.0</ele><time>2026-04-16T17:24:54Z</time></trkpt><trkpt lat="47.280532247430905" lon="-1.5920808166280314"><ele>53.0</ele><time>2026-04-16T17:24:56Z</time></trkpt><trkpt lat="47.28046125271104" lon="-1.5922128316029833"><ele>53.0</ele><time>2026-04-16T17:24:58Z</time></trkpt><trkpt lat="47.28037701458417" lon="-1.5923464391395379"><ele>53.2</ele><time>2026-04-16T17:25:00Z</time></trkpt><trkpt lat="47.28029231545262" lon="-1.592479208485775"><ele>53.4</ele><time>2026-04-16T17:25:02Z</time></trkpt><trkpt lat="47.28025141176514" lon="-1.592552550138526"><ele>53.60000000000001</ele><time>2026-04-16T17:25:03Z</time></trkpt><trkpt lat="47.280205353207215" lon="-1.5926171746119788"><ele>53.800000000000004</ele><time>2026-04-16T17:25:04Z</time></trkpt><trkpt lat="47.28012304291807" lon="-1.5927480161204866"><ele>54.0</ele><time>2026-04-16T17:25:06Z</time></trkpt><trkpt lat="47.28003230881624" lon="-1.5928520355388456"><ele>54.0</ele><time>2026-04-16T17:25:08Z</time></trkpt><trkpt lat="47.27993981451474" lon="-1.5929780155435138"><ele>54.00000000000001</ele><time>2026-04-16T17:25:10Z</time></trkpt><trkpt lat="47.27986731105231" lon="-1.593098798768216"><ele>54.00000000000001</ele><time>2026-04-16T17:25:12Z</time></trkpt><trkpt lat="47.27981802546166" lon="-1.5931581426426704"><ele>54.0</ele><time>2026-04-16T17:25:13Z</time></trkpt><trkpt lat="47.27972875819288" lon="-1.5932877268657024"><ele>54.0</ele><time>2026-04-16T17:25:15Z</time></trkpt><trkpt lat="47.27964175403796" lon="-1.5934202447548447"><ele>53.25</ele><time>2026-04-16T17:25:17Z</time></trkpt><trkpt lat="47.279550558931454" lon="-1.5935364179328024"><ele>52.5</ele><time>2026-04-16T17:25:19Z</time></trkpt><trkpt lat="47.27948291697286" lon="-1.5936654154226124"><ele>51.75</ele><time>2026-04-16T17:25:21Z</time></trkpt><trkpt lat="47.2794214357131" lon="-1.5938024595394673"><ele>51.0</ele><time>2026-04-16T17:25:23Z</time></trkpt><trkpt lat="47.279382501772865" lon="-1.5939640626326146"><ele>50.8</ele><time>2026-04-16T17:25:25Z</time></trkpt><trkpt lat="47.27936427113347" lon="-1.5941344667240922"><ele>50.599999999999994</ele><time>2026-04-16T17:25:27Z</time></trkpt><trkpt lat="47.27937701162629" lon="-1.5942877717330999"><ele>50.4</ele><time>2026-04-16T17:25:29Z</time></trkpt><trkpt lat="47.279341011352166" lon="-1.5944406576469488"><ele>50.2</ele><time>2026-04-16T17:25:31Z</time></trkpt><trkpt lat="47.27925555784933" lon="-1.5945206210032055"><ele>50.0</ele><time>2026-04-16T17:25:33Z</time></trkpt><trkpt lat="47.27915585511111" lon="-1.594546940179164"><ele>50.0</ele><time>2026-04-16T17:25:35Z</time></trkpt><trkpt lat="47.279042657508775" lon="-1.594613241033251"><ele>50.0</ele><time>2026-04-16T17:25:37Z</time></trkpt><trkpt lat="47.27895389315419" lon="-1.594721619041259"><ele>50.0</ele><time>2026-04-16T17:25:39Z</time></trkpt><trkpt lat="47.27886877492748" lon="-1.5948511194452595"><ele>50.0</ele><time>2026-04-16T17:25:41Z</time></trkpt><trkpt lat="47.27883692369543" lon="-1.594940219075973"><ele>50.0</ele><time>2026-04-16T17:25:42Z</time></trkpt><trkpt lat="47.27876131892882" lon="-1.5950823761537625"><ele>50.0</ele><time>2026-04-16T17:25:44Z</time></trkpt><trkpt lat="47.27869803555988" lon="-1.5952314063921527"><ele>50.0</ele><time>2026-04-16T17:25:46Z</time></trkpt><trkpt lat="47.27863475219093" lon="-1.5953889023527459"><ele>50.0</ele><time>2026-04-16T17:25:48Z</time></trkpt><trkpt lat="47.278594560965225" lon="-1.5954606514438945"><ele>50.0</ele><time>2026-04-16T17:25:49Z</time></trkpt><trkpt lat="47.27853207387708" lon="-1.5956097655013162"><ele>50.0</ele><time>2026-04-16T17:25:51Z</time></trkpt><trkpt lat="47.27847746577792" lon="-1.5957649983480533"><ele>50.0</ele><time>2026-04-16T17:25:53Z</time></trkpt><trkpt lat="47.27842612662099" lon="-1.5959145315006336"><ele>50.0</ele><time>2026-04-16T17:25:55Z</time></trkpt><trkpt lat="47.2783730272644" lon="-1.5960586164161525"><ele>50.0</ele><time>2026-04-16T17:25:57Z</time></trkpt><trkpt lat="47.2783291480013" lon="-1.596202868969735"><ele>50.0</ele><time>2026-04-16T17:25:59Z</time></trkpt><trkpt lat="47.27829939224504" lon="-1.5962892025724018"><ele>50.0</ele><time>2026-04-16T17:26:00Z</time></trkpt><trkpt lat="47.278278395577594" lon="-1.5964448545142975"><ele>50.0</ele><time>2026-04-16T17:26:02Z</time></trkpt><trkpt lat="47.27828086823903" lon="-1.5966109000161257"><ele>50.0</ele><time>2026-04-16T17:26:04Z</time></trkpt><trkpt lat="47.27830253545873" lon="-1.5967487823232978"><ele>50.0</ele><time>2026-04-16T17:26:06Z</time></trkpt><trkpt lat="47.2783127613806" lon="-1.5968437492862313"><ele>50.0</ele><time>2026-04-16T17:26:07Z</time></trkpt><trkpt lat="47.27829880551182" lon="-1.5969386324301333"><ele>50.0</ele><time>2026-04-16T17:26:08Z</time></trkpt><trkpt lat="47.278282041705474" lon="-1.59710216336101"><ele>50.25</ele><time>2026-04-16T17:26:10Z</time></trkpt><trkpt lat="47.27823258847676" lon="-1.5972304902985666"><ele>50.5</ele><time>2026-04-16T17:26:12Z</time></trkpt><trkpt lat="47.27814327929847" lon="-1.5973429754391286"><ele>50.75</ele><time>2026-04-16T17:26:14Z</time></trkpt><trkpt lat="47.278033644004985" lon="-1.5974323265269375"><ele>51.0</ele><time>2026-04-16T17:26:16Z</time></trkpt><trkpt lat="47.27792149414055" lon="-1.5975157264634943"><ele>50.599999999999994</ele><time>2026-04-16T17:26:18Z</time></trkpt><trkpt lat="47.27786173117094" lon="-1.5976555366083958"><ele>50.2</ele><time>2026-04-16T17:26:20Z</time></trkpt><trkpt lat="47.27780708116226" lon="-1.5977939218297579"><ele>49.8</ele><time>2026-04-16T17:26:22Z</time></trkpt><trkpt lat="47.27776366290383" lon="-1.5978665091112236"><ele>49.400000000000006</ele><time>2026-04-16T17:26:23Z</time></trkpt><trkpt lat="47.27770905480467" lon="-1.5979958418771605"><ele>49.0</ele><time>2026-04-16T17:26:25Z</time></trkpt><trkpt lat="47.27766852830283" lon="-1.5981590375319106"><ele>49.0</ele><time>2026-04-16T17:26:27Z</time></trkpt><trkpt lat="47.277638269632384" lon="-1.5982417669162137"><ele>49.0</ele><time>2026-04-16T17:26:28Z</time></trkpt><trkpt lat="47.27760545448147" lon="-1.5983219817295655"><ele>49.0</ele><time>2026-04-16T17:26:29Z</time></trkpt><trkpt lat="47.277565724260434" lon="-1.598484674470125"><ele>49.0</ele><time>2026-04-16T17:26:31Z</time></trkpt><trkpt lat="47.27750654802404" lon="-1.5986295137569295"><ele>49.0</ele><time>2026-04-16T17:26:33Z</time></trkpt><trkpt lat="47.277448880530216" lon="-1.5988013427719463"><ele>48.99999999999999</ele><time>2026-04-16T17:26:35Z</time></trkpt><trkpt lat="47.277399008206345" lon="-1.5989737585201849"><ele>49.0</ele><time>2026-04-16T17:26:37Z</time></trkpt><trkpt lat="47.27736740843139" lon="-1.599060092122852"><ele>49.0</ele><time>2026-04-16T17:26:38Z</time></trkpt><trkpt lat="47.277332120619036" lon="-1.599152544514834"><ele>49.0</ele><time>2026-04-16T17:26:39Z</time></trkpt><trkpt lat="47.27729599461637" lon="-1.5992331784233442"><ele>48.99999999999999</ele><time>2026-04-16T17:26:40Z</time></trkpt><trkpt lat="47.27726540066979" lon="-1.599314901979267"><ele>49.0</ele><time>2026-04-16T17:26:41Z</time></trkpt><trkpt lat="47.27724356581203" lon="-1.5994053427144879"><ele>49.2</ele><time>2026-04-16T17:26:42Z</time></trkpt><trkpt lat="47.277208194180645" lon="-1.5995641797795888"><ele>49.400000000000006</ele><time>2026-04-16T17:26:44Z</time></trkpt><trkpt lat="47.27717537902973" lon="-1.5996546205148097"><ele>49.6</ele><time>2026-04-16T17:26:45Z</time></trkpt><trkpt lat="47.277113897769965" lon="-1.5998352505281566"><ele>49.8</ele><time>2026-04-16T17:26:47Z</time></trkpt><trkpt lat="47.27708259136162" lon="-1.5999198239311574"><ele>50.0</ele><time>2026-04-16T17:26:48Z</time></trkpt><trkpt lat="47.27704910565845" lon="-1.6000194847598672"><ele>50.00000000000001</ele><time>2026-04-16T17:26:49Z</time></trkpt><trkpt lat="47.27702299603007" lon="-1.6001074109241367"><ele>50.0</ele><time>2026-04-16T17:26:50Z</time></trkpt><trkpt lat="47.27698506791822" lon="-1.600203048439324"><ele>50.0</ele><time>2026-04-16T17:26:51Z</time></trkpt><trkpt lat="47.27695690472356" lon="-1.6002965066596868"><ele>50.0</ele><time>2026-04-16T17:26:52Z</time></trkpt><trkpt lat="47.276928154795684" lon="-1.6003926470890644"><ele>50.0</ele><time>2026-04-16T17:26:53Z</time></trkpt><trkpt lat="47.27689722557298" lon="-1.6004907153561716"><ele>50.00000000000001</ele><time>2026-04-16T17:26:54Z</time></trkpt><trkpt lat="47.27686818227849" lon="-1.6005846764907246"><ele>50.0</ele><time>2026-04-16T17:26:55Z</time></trkpt><trkpt lat="47.27683327165178" lon="-1.6006836667671804"><ele>50.00000000000001</ele><time>2026-04-16T17:26:56Z</time></trkpt><trkpt lat="47.276803306347944" lon="-1.6007779631778605"><ele>50.0</ele><time>2026-04-16T17:26:57Z</time></trkpt><trkpt lat="47.276756954423405" lon="-1.6009574197247634"><ele>50.0</ele><time>2026-04-16T17:26:59Z</time></trkpt><trkpt lat="47.27673222780905" lon="-1.6010488662883648"><ele>50.0</ele><time>2026-04-16T17:27:00Z</time></trkpt><trkpt lat="47.27670670491389" lon="-1.601138971747459"><ele>50.00000000000001</ele><time>2026-04-16T17:27:01Z</time></trkpt><trkpt lat="47.27669023447416" lon="-1.6012434102609765"><ele>50.0</ele><time>2026-04-16T17:27:02Z</time></trkpt><trkpt lat="47.27666412484578" lon="-1.601345753298701"><ele>49.833333333333336</ele><time>2026-04-16T17:27:03Z</time></trkpt><trkpt lat="47.276645265563644" lon="-1.6014481801554574"><ele>49.66666666666667</ele><time>2026-04-16T17:27:04Z</time></trkpt><trkpt lat="47.27662368216298" lon="-1.601539039985837"><ele>49.5</ele><time>2026-04-16T17:27:05Z</time></trkpt><trkpt lat="47.276607002175666" lon="-1.6016401257380857"><ele>49.33333333333333</ele><time>2026-04-16T17:27:06Z</time></trkpt><trkpt lat="47.276585754051126" lon="-1.6017341706916706"><ele>49.166666666666664</ele><time>2026-04-16T17:27:07Z</time></trkpt><trkpt lat="47.27656760723076" lon="-1.6018342506155387"><ele>49.0</ele><time>2026-04-16T17:27:08Z</time></trkpt><trkpt lat="47.27655645929954" lon="-1.6020221728846449"><ele>49.0</ele><time>2026-04-16T17:27:10Z</time></trkpt><trkpt lat="47.276549334681846" lon="-1.6022132802769562"><ele>49.0</ele><time>2026-04-16T17:27:12Z</time></trkpt><trkpt lat="47.27656303909353" lon="-1.6024031303837918"><ele>49.0</ele><time>2026-04-16T17:27:14Z</time></trkpt><trkpt lat="47.27654573046348" lon="-1.6025422699764393"><ele>49.0</ele><time>2026-04-16T17:27:15Z</time></trkpt><trkpt lat="47.27656475738368" lon="-1.6026465408518935"><ele>49.0</ele><time>2026-04-16T17:27:16Z</time></trkpt><trkpt lat="47.27656232663176" lon="-1.6027592774495507"><ele>49.42857142857143</ele><time>2026-04-16T17:27:17Z</time></trkpt><trkpt lat="47.27655742321841" lon="-1.6028712596759227"><ele>49.85714285714286</ele><time>2026-04-16T17:27:18Z</time></trkpt><trkpt lat="47.276558764322914" lon="-1.6029792185887721"><ele>50.285714285714285</ele><time>2026-04-16T17:27:19Z</time></trkpt><trkpt lat="47.27656630803577" lon="-1.6030824836358457"><ele>50.714285714285715</ele><time>2026-04-16T17:27:20Z</time></trkpt><trkpt lat="47.27659505796365" lon="-1.6031929571196466"><ele>51.142857142857146</ele><time>2026-04-16T17:27:21Z</time></trkpt><trkpt lat="47.2765973210775" lon="-1.603302676232162"><ele>51.57142857142857</ele><time>2026-04-16T17:27:22Z</time></trkpt><trkpt lat="47.276608133732594" lon="-1.6034059412792356"><ele>52.0</ele><time>2026-04-16T17:27:23Z</time></trkpt><trkpt lat="47.27661991030655" lon="-1.6035079490408333"><ele>52.0</ele><time>2026-04-16T17:27:24Z</time></trkpt><trkpt lat="47.276629968590356" lon="-1.6036042571082745"><ele>52.0</ele><time>2026-04-16T17:27:25Z</time></trkpt><trkpt lat="47.276639984964646" lon="-1.6036970447763834"><ele>52.0</ele><time>2026-04-16T17:27:26Z</time></trkpt><trkpt lat="47.2766544018381" lon="-1.6037961188718712"><ele>52.0</ele><time>2026-04-16T17:27:27Z</time></trkpt><trkpt lat="47.276669531173326" lon="-1.603902233766023"><ele>52.0</ele><time>2026-04-16T17:27:28Z</time></trkpt><trkpt lat="47.27668759417466" lon="-1.604014132173363"><ele>52.0</ele><time>2026-04-16T17:27:29Z</time></trkpt><trkpt lat="47.27669819728217" lon="-1.6041287127897181"><ele>52.0</ele><time>2026-04-16T17:27:30Z</time></trkpt><trkpt lat="47.276715673550285" lon="-1.6042377613499799"><ele>51.49999999999999</ele><time>2026-04-16T17:27:31Z</time></trkpt><trkpt lat="47.27672401354394" lon="-1.6043513361379544"><ele>51.0</ele><time>2026-04-16T17:27:32Z</time></trkpt><trkpt lat="47.2767408192598" lon="-1.6044579539462964"><ele>50.5</ele><time>2026-04-16T17:27:33Z</time></trkpt><trkpt lat="47.27679840293459" lon="-1.60459005274028"><ele>50.0</ele><time>2026-04-16T17:27:35Z</time></trkpt><trkpt lat="47.27681835186414" lon="-1.6047064773753328"><ele>49.49999999999999</ele><time>2026-04-16T17:27:36Z</time></trkpt><trkpt lat="47.276835157579995" lon="-1.6048217285439417"><ele>49.0</ele><time>2026-04-16T17:27:37Z</time></trkpt><trkpt lat="47.276859548918225" lon="-1.60492767580003"><ele>49.2</ele><time>2026-04-16T17:27:38Z</time></trkpt><trkpt lat="47.27688653864644" lon="-1.6050252411529469"><ele>49.400000000000006</ele><time>2026-04-16T17:27:39Z</time></trkpt><trkpt lat="47.276905481747605" lon="-1.6051349602654623"><ele>49.6</ele><time>2026-04-16T17:27:40Z</time></trkpt><trkpt lat="47.27692471821538" lon="-1.6053113155081917"><ele>49.8</ele><time>2026-04-16T17:27:42Z</time></trkpt><trkpt lat="47.27695053447715" lon="-1.6054666321739606"><ele>50.0</ele><time>2026-04-16T17:27:44Z</time></trkpt><trkpt lat="47.277019391811706" lon="-1.6055347770467452"><ele>50.0</ele><time>2026-04-16T17:27:46Z</time></trkpt><trkpt lat="47.27711536460302" lon="-1.605529244990652"><ele>50.0</ele><time>2026-04-16T17:27:48Z</time></trkpt><trkpt lat="47.27722491607747" lon="-1.605482138694828"><ele>50.0</ele><time>2026-04-16T17:27:50Z</time></trkpt><trkpt lat="47.27732361298732" lon="-1.6054301708951642"><ele>50.0</ele><time>2026-04-16T17:27:52Z</time></trkpt><trkpt lat="47.27744439621202" lon="-1.6053607687369038"><ele>50.0</ele><time>2026-04-16T17:27:54Z</time></trkpt><trkpt lat="47.27751484610818" lon="-1.60532833077163"><ele>49.16666666666667</ele><time>2026-04-16T17:27:55Z</time></trkpt><trkpt lat="47.27757657882504" lon="-1.6052965633586098"><ele>48.333333333333336</ele><time>2026-04-16T17:27:56Z</time></trkpt><trkpt lat="47.277668193026706" lon="-1.6052498761579443"><ele>47.5</ele><time>2026-04-16T17:27:58Z</time></trkpt><trkpt lat="47.2777503775873" lon="-1.6052280832096983"><ele>46.66666666666667</ele><time>2026-04-16T17:27:59Z</time></trkpt><trkpt lat="47.277818145274445" lon="-1.605185419322555"><ele>45.833333333333336</ele><time>2026-04-16T17:28:00Z</time></trkpt><trkpt lat="47.27788934954189" lon="-1.605151221157615"><ele>45.0</ele><time>2026-04-16T17:28:01Z</time></trkpt><trkpt lat="47.277980125553235" lon="-1.6051008459195542"><ele>45.0</ele><time>2026-04-16T17:28:03Z</time></trkpt><trkpt lat="47.27804634258829" lon="-1.6050596069559502"><ele>45.0</ele><time>2026-04-16T17:28:04Z</time></trkpt><trkpt lat="47.27811901368879" lon="-1.6050173621639656"><ele>45.0</ele><time>2026-04-16T17:28:05Z</time></trkpt><trkpt lat="47.278189254037365" lon="-1.6049866843983578"><ele>45.0</ele><time>2026-04-16T17:28:06Z</time></trkpt><trkpt lat="47.2782530403205" lon="-1.604944439606373"><ele>45.0</ele><time>2026-04-16T17:28:07Z</time></trkpt><trkpt lat="47.2783307405629" lon="-1.604888197036092"><ele>45.0</ele><time>2026-04-16T17:28:09Z</time></trkpt><trkpt lat="47.278397460512146" lon="-1.6048555914327547"><ele>44.666666666666664</ele><time>2026-04-16T17:28:10Z</time></trkpt><trkpt lat="47.27846179161899" lon="-1.604827847333257"><ele>44.333333333333336</ele><time>2026-04-16T17:28:11Z</time></trkpt><trkpt lat="47.278526667549535" lon="-1.604806641118233"><ele>44.0</ele><time>2026-04-16T17:28:12Z</time></trkpt><trkpt lat="47.278589280366226" lon="-1.6048231534674808"><ele>43.66666666666667</ele><time>2026-04-16T17:28:13Z</time></trkpt><trkpt lat="47.2786502587118" lon="-1.6048535797759935"><ele>43.333333333333336</ele><time>2026-04-16T17:28:14Z</time></trkpt><trkpt lat="47.278769281736835" lon="-1.6049208026394293"><ele>43.0</ele><time>2026-04-16T17:28:16Z</time></trkpt><trkpt lat="47.27883952208541" lon="-1.6049567610040352"><ele>43.0</ele><time>2026-04-16T17:28:17Z</time></trkpt><trkpt lat="47.27893909909509" lon="-1.6050501354053663"><ele>43.0</ele><time>2026-04-16T17:28:19Z</time></trkpt><trkpt lat="47.278996221765205" lon="-1.6050916258260655"><ele>43.0</ele><time>2026-04-16T17:28:20Z</time></trkpt><trkpt lat="47.27911780127071" lon="-1.6051913704738068"><ele>43.0</ele><time>2026-04-16T17:28:22Z</time></trkpt><trkpt lat="47.27917768996887" lon="-1.6052466910347392"><ele>43.0</ele><time>2026-04-16T17:28:23Z</time></trkpt><trkpt lat="47.27925756950609" lon="-1.605262616650765"><ele>43.0</ele><time>2026-04-16T17:28:24Z</time></trkpt><trkpt lat="47.27933195889674" lon="-1.6052502114340712"><ele>43.0</ele><time>2026-04-16T17:28:25Z</time></trkpt><trkpt lat="47.27940630637787" lon="-1.6052692383542706"><ele>43.0</ele><time>2026-04-16T17:28:26Z</time></trkpt><trkpt lat="47.27947805546902" lon="-1.6053069569185425"><ele>43.0</ele><time>2026-04-16T17:28:27Z</time></trkpt><trkpt lat="47.27956979539923" lon="-1.605349788443749"><ele>43.0</ele><time>2026-04-16T17:28:28Z</time></trkpt><trkpt lat="47.27964573544197" lon="-1.6053859144464184"><ele>43.0</ele><time>2026-04-16T17:28:29Z</time></trkpt><trkpt lat="47.27969707459889" lon="-1.6054417379215409"><ele>42.75</ele><time>2026-04-16T17:28:30Z</time></trkpt><trkpt lat="47.2798191989281" lon="-1.6054772771909884"><ele>42.5</ele><time>2026-04-16T17:28:32Z</time></trkpt><trkpt lat="47.27992380507968" lon="-1.6055690590307168"><ele>42.25</ele><time>2026-04-16T17:28:34Z</time></trkpt><trkpt lat="47.280013533353134" lon="-1.6056815441712788"><ele>42.0</ele><time>2026-04-16T17:28:36Z</time></trkpt><trkpt lat="47.28010129187934" lon="-1.605802914129203"><ele>42.0</ele><time>2026-04-16T17:28:38Z</time></trkpt><trkpt lat="47.28015736681156" lon="-1.6059707198306974"><ele>42.0</ele><time>2026-04-16T17:28:40Z</time></trkpt><trkpt lat="47.28019005623393" lon="-1.6060770023629125"><ele>42.0</ele><time>2026-04-16T17:28:41Z</time></trkpt><trkpt lat="47.28026381698184" lon="-1.6061789263054786"><ele>42.0</ele><time>2026-04-16T17:28:43Z</time></trkpt><trkpt lat="47.28030002680354" lon="-1.6062582191094814"><ele>42.0</ele><time>2026-04-16T17:28:44Z</time></trkpt><trkpt lat="47.28037479337983" lon="-1.606380259619659"><ele>41.6</ele><time>2026-04-16T17:28:46Z</time></trkpt><trkpt lat="47.280434723987504" lon="-1.6065040603295029"><ele>41.2</ele><time>2026-04-16T17:28:48Z</time></trkpt><trkpt lat="47.28050207257949" lon="-1.6066541802153054"><ele>40.8</ele><time>2026-04-16T17:28:50Z</time></trkpt><trkpt lat="47.28055730932139" lon="-1.6067926492556992"><ele>40.4</ele><time>2026-04-16T17:28:52Z</time></trkpt><trkpt lat="47.28060399652205" lon="-1.6069217305645411"><ele>40.0</ele><time>2026-04-16T17:28:54Z</time></trkpt><trkpt lat="47.28067063265227" lon="-1.6070399153992598"><ele>41.2</ele><time>2026-04-16T17:28:56Z</time></trkpt><trkpt lat="47.28071727794342" lon="-1.6071726009264655"><ele>42.4</ele><time>2026-04-16T17:28:58Z</time></trkpt><trkpt lat="47.28075721771203" lon="-1.607332360000915"><ele>43.599999999999994</ele><time>2026-04-16T17:29:00Z</time></trkpt><trkpt lat="47.28076735981487" lon="-1.6074323561057517"><ele>44.8</ele><time>2026-04-16T17:29:01Z</time></trkpt><trkpt lat="47.280818070329055" lon="-1.6075510438546607"><ele>46.0</ele><time>2026-04-16T17:29:03Z</time></trkpt><trkpt lat="47.28086584717713" lon="-1.6076615173384619"><ele>46.0</ele><time>2026-04-16T17:29:05Z</time></trkpt><trkpt lat="47.28090792433105" lon="-1.6077920235708427"><ele>46.0</ele><time>2026-04-16T17:29:07Z</time></trkpt><trkpt lat="47.28096190378748" lon="-1.6079128067955448"><ele>46.0</ele><time>2026-04-16T17:29:09Z</time></trkpt><trkpt lat="47.28102786936544" lon="-1.6080088634058907"><ele>46.0</ele><time>2026-04-16T17:29:11Z</time></trkpt><trkpt lat="47.281055529645904" lon="-1.6081263776883559"><ele>46.0</ele><time>2026-04-16T17:29:13Z</time></trkpt><trkpt lat="47.28110443805091" lon="-1.6081926785424427"><ele>46.0</ele><time>2026-04-16T17:29:14Z</time></trkpt><trkpt lat="47.28112996094607" lon="-1.6082928422853426"><ele>46.4</ele><time>2026-04-16T17:29:16Z</time></trkpt><trkpt lat="47.28122421544723" lon="-1.6083524376168925"><ele>46.8</ele><time>2026-04-16T17:29:18Z</time></trkpt><trkpt lat="47.28131859567694" lon="-1.6083665192142207"><ele>47.199999999999996</ele><time>2026-04-16T17:29:20Z</time></trkpt><trkpt lat="47.28142123208128" lon="-1.6083795111641366"><ele>47.599999999999994</ele><time>2026-04-16T17:29:22Z</time></trkpt><trkpt lat="47.281513433016165" lon="-1.608377331869312"><ele>48.0</ele><time>2026-04-16T17:29:24Z</time></trkpt><trkpt lat="47.281623990319" lon="-1.6083642561003644"><ele>48.0</ele><time>2026-04-16T17:29:26Z</time></trkpt><trkpt lat="47.281724279790446" lon="-1.6083702072516162"><ele>48.0</ele><time>2026-04-16T17:29:28Z</time></trkpt><trkpt lat="47.28182549127124" lon="-1.6083947662279088"><ele>48.0</ele><time>2026-04-16T17:29:30Z</time></trkpt><trkpt lat="47.28192070969127" lon="-1.6084529366359193"><ele>48.0</ele><time>2026-04-16T17:29:32Z</time></trkpt><trkpt lat="47.28200188842349" lon="-1.6085505858078677"><ele>48.0</ele><time>2026-04-16T17:29:34Z</time></trkpt><trkpt lat="47.28205909491263" lon="-1.608651001007863"><ele>48.4</ele><time>2026-04-16T17:29:36Z</time></trkpt><trkpt lat="47.28212556340478" lon="-1.6087494883701285"><ele>48.8</ele><time>2026-04-16T17:29:38Z</time></trkpt><trkpt lat="47.28218557783149" lon="-1.6088334750399076"><ele>49.2</ele><time>2026-04-16T17:29:40Z</time></trkpt><trkpt lat="47.28224232331596" lon="-1.6089372430011712"><ele>49.6</ele><time>2026-04-16T17:29:42Z</time></trkpt><trkpt lat="47.282315539240166" lon="-1.6090560145691122"><ele>50.0</ele><time>2026-04-16T17:29:44Z</time></trkpt><trkpt lat="47.28237718813799" lon="-1.609198926018187"><ele>50.6</ele><time>2026-04-16T17:29:46Z</time></trkpt><trkpt lat="47.282462264455184" lon="-1.609290288762757"><ele>51.2</ele><time>2026-04-16T17:29:48Z</time></trkpt><trkpt lat="47.28252806239508" lon="-1.609389781953403"><ele>51.8</ele><time>2026-04-16T17:29:50Z</time></trkpt><trkpt lat="47.28258187421344" lon="-1.6095134988442152"><ele>52.4</ele><time>2026-04-16T17:29:52Z</time></trkpt><trkpt lat="47.282638410150334" lon="-1.6096303425744265"><ele>53.0</ele><time>2026-04-16T17:29:54Z</time></trkpt><trkpt lat="47.28268115785651" lon="-1.6097698174432011"><ele>53.4</ele><time>2026-04-16T17:29:56Z</time></trkpt><trkpt lat="47.28273040153764" lon="-1.6098802071079703"><ele>53.8</ele><time>2026-04-16T17:29:58Z</time></trkpt><trkpt lat="47.28276246231727" lon="-1.6100133117303346"><ele>54.2</ele><time>2026-04-16T17:30:00Z</time></trkpt><trkpt lat="47.28278492581777" lon="-1.6101450752481912"><ele>54.6</ele><time>2026-04-16T17:30:02Z</time></trkpt><trkpt lat="47.28282968518071" lon="-1.6102823708221412"><ele>55.0</ele><time>2026-04-16T17:30:04Z</time></trkpt><trkpt lat="47.28287561801009" lon="-1.6104065906271434"><ele>54.99999999999999</ele><time>2026-04-16T17:30:06Z</time></trkpt><trkpt lat="47.28290269155733" lon="-1.6105259489283064"><ele>55.0</ele><time>2026-04-16T17:30:08Z</time></trkpt><trkpt lat="47.28289778814398" lon="-1.6106434632107713"><ele>55.0</ele><time>2026-04-16T17:30:10Z</time></trkpt><trkpt lat="47.28285403460942" lon="-1.610768772663186"><ele>55.0</ele><time>2026-04-16T17:30:12Z</time></trkpt><trkpt lat="47.28284112647854" lon="-1.610907493160675"><ele>54.99999999999999</ele><time>2026-04-16T17:30:14Z</time></trkpt><trkpt lat="47.282838025174364" lon="-1.6110282763853772"><ele>55.0</ele><time>2026-04-16T17:30:16Z</time></trkpt><trkpt lat="47.282863212793394" lon="-1.6111384145930512"><ele>55.166666666666664</ele><time>2026-04-16T17:30:18Z</time></trkpt><trkpt lat="47.282878593585714" lon="-1.6112628858551488"><ele>55.33333333333333</ele><time>2026-04-16T17:30:20Z</time></trkpt><trkpt lat="47.28290646341376" lon="-1.6113762930050597"><ele>55.5</ele><time>2026-04-16T17:30:22Z</time></trkpt><trkpt lat="47.282919371544644" lon="-1.6115063801422822"><ele>55.66666666666667</ele><time>2026-04-16T17:30:24Z</time></trkpt><trkpt lat="47.28295189332895" lon="-1.6115947254017102"><ele>55.833333333333336</ele><time>2026-04-16T17:30:26Z</time></trkpt><trkpt lat="47.28296555583112" lon="-1.6117181070163955"><ele>56.0</ele><time>2026-04-16T17:30:28Z</time></trkpt><trkpt lat="47.2830003826388" lon="-1.6118491161629667"><ele>56.0</ele><time>2026-04-16T17:30:30Z</time></trkpt><trkpt lat="47.28301165629856" lon="-1.6119737550631277"><ele>55.99999999999999</ele><time>2026-04-16T17:30:32Z</time></trkpt><trkpt lat="47.283037640198394" lon="-1.6121125593796484"><ele>55.99999999999999</ele><time>2026-04-16T17:30:34Z</time></trkpt><trkpt lat="47.28304686029188" lon="-1.6122389584794754"><ele>56.0</ele><time>2026-04-16T17:30:36Z</time></trkpt><trkpt lat="47.28305750530891" lon="-1.6123865637943264"><ele>56.0</ele><time>2026-04-16T17:30:38Z</time></trkpt><trkpt lat="47.28308353111826" lon="-1.6125257872060057"><ele>56.0</ele><time>2026-04-16T17:30:40Z</time></trkpt><trkpt lat="47.283095810606405" lon="-1.6126751527205228"><ele>55.99999999999999</ele><time>2026-04-16T17:30:42Z</time></trkpt><trkpt lat="47.28312305179171" lon="-1.6128035634771107"><ele>55.99999999999999</ele><time>2026-04-16T17:30:44Z</time></trkpt><trkpt lat="47.283136169470176" lon="-1.6129398532226802"><ele>56.0</ele><time>2026-04-16T17:30:46Z</time></trkpt><trkpt lat="47.28315532211892" lon="-1.6130717005595685"><ele>56.0</ele><time>2026-04-16T17:30:48Z</time></trkpt><trkpt lat="47.28319610007785" lon="-1.6132087446764234"><ele>56.599999999999994</ele><time>2026-04-16T17:30:50Z</time></trkpt><trkpt lat="47.28317254692994" lon="-1.6133658215418583"><ele>57.199999999999996</ele><time>2026-04-16T17:30:52Z</time></trkpt><trkpt lat="47.28318633516066" lon="-1.6135067213341718"><ele>57.800000000000004</ele><time>2026-04-16T17:30:54Z</time></trkpt><trkpt lat="47.28325531822376" lon="-1.613582158462716"><ele>58.400000000000006</ele><time>2026-04-16T17:30:56Z</time></trkpt><trkpt lat="47.28335204538636" lon="-1.613624822349859"><ele>59.0</ele><time>2026-04-16T17:30:59Z</time></trkpt><trkpt lat="47.283428362614735" lon="-1.6136729344740637"><ele>59.333333333333336</ele><time>2026-04-16T17:31:01Z</time></trkpt><trkpt lat="47.283497052311226" lon="-1.613711742685748"><ele>59.66666666666667</ele><time>2026-04-16T17:31:03Z</time></trkpt><trkpt lat="47.283572028435096" lon="-1.6137637943044432"><ele>60.0</ele><time>2026-04-16T17:31:05Z</time></trkpt><trkpt lat="47.28363690436564" lon="-1.61379002966137"><ele>60.33333333333333</ele><time>2026-04-16T17:31:07Z</time></trkpt><trkpt lat="47.28370613888584" lon="-1.6138253174737225"><ele>60.666666666666664</ele><time>2026-04-16T17:31:09Z</time></trkpt><trkpt lat="47.28379276585512" lon="-1.6138616111144553"><ele>61.0</ele><time>2026-04-16T17:31:11Z</time></trkpt><trkpt lat="47.28388894819401" lon="-1.6139030177161227"><ele>61.75</ele><time>2026-04-16T17:31:13Z</time></trkpt><trkpt lat="47.28406073529951" lon="-1.613987758757187"><ele>62.5</ele><time>2026-04-16T17:31:15Z</time></trkpt><trkpt lat="47.28416312024675" lon="-1.6140436660513413"><ele>63.25</ele><time>2026-04-16T17:31:17Z</time></trkpt><trkpt lat="47.28422393095426" lon="-1.6140722483411563"><ele>64.0</ele><time>2026-04-16T17:31:18Z</time></trkpt><trkpt lat="47.28432434615426" lon="-1.614131256939484"><ele>64.0</ele><time>2026-04-16T17:31:20Z</time></trkpt><trkpt lat="47.284415918446406" lon="-1.614195713774873"><ele>64.0</ele><time>2026-04-16T17:31:22Z</time></trkpt><trkpt lat="47.28454298809849" lon="-1.6142329294249547"><ele>64.0</ele><time>2026-04-16T17:31:24Z</time></trkpt><trkpt lat="47.28465618570082" lon="-1.6142000723645222"><ele>64.0</ele><time>2026-04-16T17:31:26Z</time></trkpt><trkpt lat="47.28472244464539" lon="-1.6141766868546736"><ele>64.0</ele><time>2026-04-16T17:31:27Z</time></trkpt><trkpt lat="47.284799390516504" lon="-1.6141569893822205"><ele>64.2</ele><time>2026-04-16T17:31:28Z</time></trkpt><trkpt lat="47.28487038523637" lon="-1.6141890082523358"><ele>64.4</ele><time>2026-04-16T17:31:30Z</time></trkpt><trkpt lat="47.28492461614989" lon="-1.6142382100239527"><ele>64.6</ele><time>2026-04-16T17:31:31Z</time></trkpt><trkpt lat="47.28502289396457" lon="-1.6143064387157693"><ele>64.8</ele><time>2026-04-16T17:31:33Z</time></trkpt><trkpt lat="47.28513072714888" lon="-1.614320352675034"><ele>65.0</ele><time>2026-04-16T17:31:35Z</time></trkpt><trkpt lat="47.285228627777926" lon="-1.6144163254663482"><ele>65.0</ele><time>2026-04-16T17:31:37Z</time></trkpt><trkpt lat="47.28529291697525" lon="-1.6144692990943923"><ele>65.0</ele><time>2026-04-16T17:31:38Z</time></trkpt><trkpt lat="47.28537728083067" lon="-1.614567786456658"><ele>65.0</ele><time>2026-04-16T17:31:40Z</time></trkpt><trkpt lat="47.28546462026172" lon="-1.6146583110109107"><ele>65.0</ele><time>2026-04-16T17:31:42Z</time></trkpt><trkpt lat="47.28553821337157" lon="-1.6147553734496372"><ele>65.0</ele><time>2026-04-16T17:31:44Z</time></trkpt><trkpt lat="47.28563041430645" lon="-1.6148452274516363"><ele>64.2</ele><time>2026-04-16T17:31:46Z</time></trkpt><trkpt lat="47.28570899464869" lon="-1.6149571258589763"><ele>63.4</ele><time>2026-04-16T17:31:48Z</time></trkpt><trkpt lat="47.28576561440461" lon="-1.6150384303197405"><ele>62.599999999999994</ele><time>2026-04-16T17:31:50Z</time></trkpt><trkpt lat="47.28586074900561" lon="-1.6149436309948701"><ele>61.8</ele><time>2026-04-16T17:31:54Z</time></trkpt><trkpt lat="47.28590471208774" lon="-1.6148619074389476"><ele>61.0</ele><time>2026-04-16T17:31:56Z</time></trkpt><trkpt lat="47.28597361133181" lon="-1.6147862188533086"><ele>61.0</ele><time>2026-04-16T17:31:58Z</time></trkpt><trkpt lat="47.28607561909341" lon="-1.6147101111725108"><ele>60.99999999999999</ele><time>2026-04-16T17:32:00Z</time></trkpt><trkpt lat="47.28616777811878" lon="-1.6146350093200939"><ele>60.99999999999999</ele><time>2026-04-16T17:32:02Z</time></trkpt><trkpt lat="47.286265972114435" lon="-1.6145797725781934"><ele>61.0</ele><time>2026-04-16T17:32:04Z</time></trkpt><trkpt lat="47.286352389536134" lon="-1.6145012341454759"><ele>61.0</ele><time>2026-04-16T17:32:06Z</time></trkpt><trkpt lat="47.28644337509506" lon="-1.6144454106703534"><ele>61.0</ele><time>2026-04-16T17:32:08Z</time></trkpt><trkpt lat="47.286533899649314" lon="-1.6143738292172685"><ele>60.99999999999999</ele><time>2026-04-16T17:32:10Z</time></trkpt><trkpt lat="47.28662031707101" lon="-1.6143089532867207"><ele>60.99999999999999</ele><time>2026-04-16T17:32:12Z</time></trkpt><trkpt lat="47.28670560293578" lon="-1.6142398025855553"><ele>61.0</ele><time>2026-04-16T17:32:14Z</time></trkpt><trkpt lat="47.28680287492209" lon="-1.6141743399217856"><ele>61.0</ele><time>2026-04-16T17:32:16Z</time></trkpt><trkpt lat="47.28690090127968" lon="-1.6141107212767136"><ele>61.0</ele><time>2026-04-16T17:32:18Z</time></trkpt><trkpt lat="47.28698480413043" lon="-1.6140362899765501"><ele>60.99999999999999</ele><time>2026-04-16T17:32:20Z</time></trkpt><trkpt lat="47.28706862316214" lon="-1.6139643732473383"><ele>60.99999999999999</ele><time>2026-04-16T17:32:22Z</time></trkpt><trkpt lat="47.28713714522057" lon="-1.6138762794450054"><ele>61.0</ele><time>2026-04-16T17:32:24Z</time></trkpt><trkpt lat="47.28719309442424" lon="-1.6138274129495154"><ele>61.0</ele><time>2026-04-16T17:32:25Z</time></trkpt><trkpt lat="47.287284079983166" lon="-1.6137528978303202"><ele>60.8</ele><time>2026-04-16T17:32:27Z</time></trkpt><trkpt lat="47.28735838555478" lon="-1.6136838309481867"><ele>60.599999999999994</ele><time>2026-04-16T17:32:29Z</time></trkpt><trkpt lat="47.287441408305696" lon="-1.613635467366887"><ele>60.4</ele><time>2026-04-16T17:32:31Z</time></trkpt><trkpt lat="47.287540566220216" lon="-1.6136046219632156"><ele>60.2</ele><time>2026-04-16T17:32:33Z</time></trkpt><trkpt lat="47.28760590315544" lon="-1.613627756015969"><ele>60.0</ele><time>2026-04-16T17:32:35Z</time></trkpt><trkpt lat="47.287724087990156" lon="-1.613595988602949"><ele>60.4</ele><time>2026-04-16T17:32:37Z</time></trkpt><trkpt lat="47.28783808187329" lon="-1.6135777998730667"><ele>60.8</ele><time>2026-04-16T17:32:39Z</time></trkpt><trkpt lat="47.28793845516377" lon="-1.6135451104506975"><ele>61.2</ele><time>2026-04-16T17:32:41Z</time></trkpt><trkpt lat="47.2880558856272" lon="-1.613539662213636"><ele>61.6</ele><time>2026-04-16T17:32:43Z</time></trkpt><trkpt lat="47.288121013014845" lon="-1.6135314479485279"><ele>62.0</ele><time>2026-04-16T17:32:44Z</time></trkpt><trkpt lat="47.28821434550666" lon="-1.6135183721795803"><ele>62.2</ele><time>2026-04-16T17:32:46Z</time></trkpt><trkpt lat="47.28831149176442" lon="-1.6134824138149744"><ele>62.400000000000006</ele><time>2026-04-16T17:32:48Z</time></trkpt><trkpt lat="47.28842628192835" lon="-1.6134774684921032"><ele>62.599999999999994</ele><time>2026-04-16T17:32:50Z</time></trkpt><trkpt lat="47.288536839231185" lon="-1.61343187093885"><ele>62.8</ele><time>2026-04-16T17:32:52Z</time></trkpt><trkpt lat="47.288623633838526" lon="-1.6133958287552124"><ele>63.0</ele><time>2026-04-16T17:32:54Z</time></trkpt><trkpt lat="47.28873305958443" lon="-1.6133453696981197"><ele>63.0</ele><time>2026-04-16T17:32:56Z</time></trkpt><trkpt lat="47.288841269954375" lon="-1.6132869478330139"><ele>63.0</ele><time>2026-04-16T17:32:58Z</time></trkpt><trkpt lat="47.28890463714235" lon="-1.613259790466738"><ele>63.0</ele><time>2026-04-16T17:32:59Z</time></trkpt><trkpt lat="47.289006980180076" lon="-1.613207990305138"><ele>63.0</ele><time>2026-04-16T17:33:01Z</time></trkpt><trkpt lat="47.28911112532698" lon="-1.61314847879262"><ele>63.0</ele><time>2026-04-16T17:33:03Z</time></trkpt><trkpt lat="47.289220676801435" lon="-1.6130906436607364"><ele>62.833333333333336</ele><time>2026-04-16T17:33:05Z</time></trkpt><trkpt lat="47.289296742572716" lon="-1.6130624804660798"><ele>62.66666666666667</ele><time>2026-04-16T17:33:06Z</time></trkpt><trkpt lat="47.28937674783849" lon="-1.6130528412774325"><ele>62.5</ele><time>2026-04-16T17:33:07Z</time></trkpt><trkpt lat="47.28944736537271" lon="-1.613006154076767"><ele>62.333333333333336</ele><time>2026-04-16T17:33:08Z</time></trkpt><trkpt lat="47.289522676772705" lon="-1.6129704471692563"><ele>62.16666666666667</ele><time>2026-04-16T17:33:09Z</time></trkpt><trkpt lat="47.289593294306925" lon="-1.6129209101215125"><ele>62.0</ele><time>2026-04-16T17:33:10Z</time></trkpt><trkpt lat="47.28965192571961" lon="-1.6128696966931344"><ele>62.0</ele><time>2026-04-16T17:33:11Z</time></trkpt><trkpt lat="47.289721495515934" lon="-1.612815549598646"><ele>62.00000000000001</ele><time>2026-04-16T17:33:12Z</time></trkpt><trkpt lat="47.28976059709423" lon="-1.612741621212673"><ele>62.0</ele><time>2026-04-16T17:33:13Z</time></trkpt><trkpt lat="47.28980946358972" lon="-1.6126696206644295"><ele>62.0</ele><time>2026-04-16T17:33:14Z</time></trkpt><trkpt lat="47.28986365259372" lon="-1.6126023139819619"><ele>62.00000000000001</ele><time>2026-04-16T17:33:15Z</time></trkpt><trkpt lat="47.289929199076525" lon="-1.6125376895085093"><ele>62.0</ele><time>2026-04-16T17:33:16Z</time></trkpt><trkpt lat="47.289993655911914" lon="-1.6124631743893143"><ele>62.0</ele><time>2026-04-16T17:33:17Z</time></trkpt><trkpt lat="47.29003950492226" lon="-1.6123822052046772"><ele>61.66666666666667</ele><time>2026-04-16T17:33:18Z</time></trkpt><trkpt lat="47.29007076942109" lon="-1.6122340131566042"><ele>61.333333333333336</ele><time>2026-04-16T17:33:20Z</time></trkpt><trkpt lat="47.29012843691491" lon="-1.6121712327018494"><ele>61.0</ele><time>2026-04-16T17:33:21Z</time></trkpt><trkpt lat="47.29019465394997" lon="-1.612120019273471"><ele>60.66666666666667</ele><time>2026-04-16T17:33:22Z</time></trkpt><trkpt lat="47.29025940415197" lon="-1.6120543889716379"><ele>60.333333333333336</ele><time>2026-04-16T17:33:23Z</time></trkpt><trkpt lat="47.290289579003385" lon="-1.6119688935592882"><ele>60.0</ele><time>2026-04-16T17:33:24Z</time></trkpt><trkpt lat="47.29033689484679" lon="-1.6119004972294084"><ele>60.0</ele><time>2026-04-16T17:33:25Z</time></trkpt><trkpt lat="47.29038848546081" lon="-1.611826904119562"><ele>60.0</ele><time>2026-04-16T17:33:26Z</time></trkpt><trkpt lat="47.290458641990355" lon="-1.6116818133756627"><ele>60.0</ele><time>2026-04-16T17:33:28Z</time></trkpt><trkpt lat="47.290497408292524" lon="-1.611543260516237"><ele>60.0</ele><time>2026-04-16T17:33:30Z</time></trkpt><trkpt lat="47.2905116156184" lon="-1.611407976599048"><ele>60.0</ele><time>2026-04-16T17:33:32Z</time></trkpt><trkpt lat="47.29056534361773" lon="-1.6112693399205908"><ele>60.0</ele><time>2026-04-16T17:33:34Z</time></trkpt><trkpt lat="47.29061588649385" lon="-1.6111883707359538"><ele>60.0</ele><time>2026-04-16T17:33:36Z</time></trkpt><trkpt lat="47.290676990567974" lon="-1.6111483890578253"><ele>60.0</ele><time>2026-04-16T17:33:38Z</time></trkpt><trkpt lat="47.29077266999268" lon="-1.6111417673543198"><ele>60.0</ele><time>2026-04-16T17:33:41Z</time></trkpt><trkpt lat="47.29086793032222" lon="-1.6111785639092429"><ele>60.0</ele><time>2026-04-16T17:33:43Z</time></trkpt><trkpt lat="47.29095078543507" lon="-1.61122189834864"><ele>60.0</ele><time>2026-04-16T17:33:45Z</time></trkpt><trkpt lat="47.291035526476136" lon="-1.611309656874846"><ele>60.0</ele><time>2026-04-16T17:33:47Z</time></trkpt><trkpt lat="47.291071442931226" lon="-1.6114078927800164"><ele>60.0</ele><time>2026-04-16T17:33:48Z</time></trkpt><trkpt lat="47.29114516176962" lon="-1.6115203779205787"><ele>60.0</ele><time>2026-04-16T17:33:50Z</time></trkpt><trkpt lat="47.29120534383439" lon="-1.611683238299202"><ele>60.0</ele><time>2026-04-16T17:33:52Z</time></trkpt><trkpt lat="47.29123794943773" lon="-1.6117647103980293"><ele>60.0</ele><time>2026-04-16T17:33:53Z</time></trkpt><trkpt lat="47.29130119089716" lon="-1.6119296662524454"><ele>59.85714285714286</ele><time>2026-04-16T17:33:55Z</time></trkpt><trkpt lat="47.29133182675325" lon="-1.6120314225569479"><ele>59.71428571428571</ele><time>2026-04-16T17:33:56Z</time></trkpt><trkpt lat="47.29136397135191" lon="-1.6121133975699655"><ele>59.57142857142857</ele><time>2026-04-16T17:33:57Z</time></trkpt><trkpt lat="47.29139837906443" lon="-1.6121933609262222"><ele>59.42857142857143</ele><time>2026-04-16T17:33:58Z</time></trkpt><trkpt lat="47.29144238405608" lon="-1.6122910939172024"><ele>59.28571428571429</ele><time>2026-04-16T17:33:59Z</time></trkpt><trkpt lat="47.29146840986543" lon="-1.6123775113389012"><ele>59.14285714285714</ele><time>2026-04-16T17:34:00Z</time></trkpt><trkpt lat="47.29151153475725" lon="-1.612457055599999"><ele>59.0</ele><time>2026-04-16T17:34:01Z</time></trkpt><trkpt lat="47.291546277745894" lon="-1.61254456266911"><ele>59.0</ele><time>2026-04-16T17:34:02Z</time></trkpt><trkpt lat="47.2915867204287" lon="-1.6126245260253667"><ele>59.0</ele><time>2026-04-16T17:34:03Z</time></trkpt><trkpt lat="47.291624480902485" lon="-1.6127217561021565"><ele>59.0</ele><time>2026-04-16T17:34:04Z</time></trkpt><trkpt lat="47.29166752197527" lon="-1.6128012165442227"><ele>59.0</ele><time>2026-04-16T17:34:05Z</time></trkpt><trkpt lat="47.29170280978762" lon="-1.6128853708520652"><ele>59.0</ele><time>2026-04-16T17:34:06Z</time></trkpt><trkpt lat="47.29173600212418" lon="-1.6129771526917935"><ele>59.0</ele><time>2026-04-16T17:34:07Z</time></trkpt><trkpt lat="47.291789185299805" lon="-1.6130607202664138"><ele>59.0</ele><time>2026-04-16T17:34:08Z</time></trkpt><trkpt lat="47.291829669892124" lon="-1.6131450422123197"><ele>58.71428571428571</ele><time>2026-04-16T17:34:09Z</time></trkpt><trkpt lat="47.29186332323336" lon="-1.6132776439204934"><ele>58.42857142857143</ele><time>2026-04-16T17:34:10Z</time></trkpt><trkpt lat="47.29191072289579" lon="-1.6133636422470337"><ele>58.14285714285714</ele><time>2026-04-16T17:34:11Z</time></trkpt><trkpt lat="47.291941065385274" lon="-1.613448634745193"><ele>57.857142857142854</ele><time>2026-04-16T17:34:12Z</time></trkpt><trkpt lat="47.29198310062968" lon="-1.6135224793121343"><ele>57.57142857142857</ele><time>2026-04-16T17:34:13Z</time></trkpt><trkpt lat="47.292017550251714" lon="-1.6136026941254862"><ele>57.285714285714285</ele><time>2026-04-16T17:34:14Z</time></trkpt><trkpt lat="47.292057196653715" lon="-1.6136786341682203"><ele>57.0</ele><time>2026-04-16T17:34:15Z</time></trkpt><trkpt lat="47.29210660797291" lon="-1.6137426719084509"><ele>57.0</ele><time>2026-04-16T17:34:16Z</time></trkpt><trkpt lat="47.29217802178793" lon="-1.6138884332046042"><ele>57.0</ele><time>2026-04-16T17:34:18Z</time></trkpt><trkpt lat="47.29225396183067" lon="-1.614037211985899"><ele>57.0</ele><time>2026-04-16T17:34:20Z</time></trkpt><trkpt lat="47.29231502399527" lon="-1.6141828056439889"><ele>57.0</ele><time>2026-04-16T17:34:22Z</time></trkpt><trkpt lat="47.2923912154951" lon="-1.614281460644318"><ele>57.6</ele><time>2026-04-16T17:34:24Z</time></trkpt><trkpt lat="47.29249867149376" lon="-1.6143222805127635"><ele>58.2</ele><time>2026-04-16T17:34:26Z</time></trkpt><trkpt lat="47.29261015080594" lon="-1.6143737453982367"><ele>58.8</ele><time>2026-04-16T17:34:28Z</time></trkpt><trkpt lat="47.29270608168774" lon="-1.6143830493107572"><ele>59.4</ele><time>2026-04-16T17:34:30Z</time></trkpt><trkpt lat="47.29281672280961" lon="-1.6143877431765332"><ele>60.0</ele><time>2026-04-16T17:34:32Z</time></trkpt><trkpt lat="47.29288067673081" lon="-1.6143849771484866"><ele>60.0</ele><time>2026-04-16T17:34:33Z</time></trkpt><trkpt lat="47.29298486378723" lon="-1.6144033335164323"><ele>60.0</ele><time>2026-04-16T17:34:35Z</time></trkpt><trkpt lat="47.29312207554215" lon="-1.614406351001574"><ele>60.0</ele><time>2026-04-16T17:34:37Z</time></trkpt><trkpt lat="47.29325241413647" lon="-1.614498551936461"><ele>60.0</ele><time>2026-04-16T17:34:39Z</time></trkpt><trkpt lat="47.29334272914314" lon="-1.6146110370770232"><ele>59.57142857142857</ele><time>2026-04-16T17:34:41Z</time></trkpt><trkpt lat="47.293390966995894" lon="-1.6146910004332797"><ele>59.14285714285714</ele><time>2026-04-16T17:34:42Z</time></trkpt><trkpt lat="47.293443982533454" lon="-1.6147694550469656"><ele>58.71428571428571</ele><time>2026-04-16T17:34:43Z</time></trkpt><trkpt lat="47.29349553123796" lon="-1.6148427966997165"><ele>58.285714285714285</ele><time>2026-04-16T17:34:44Z</time></trkpt><trkpt lat="47.293545235923766" lon="-1.6149253584459562"><ele>57.85714285714285</ele><time>2026-04-16T17:34:45Z</time></trkpt><trkpt lat="47.293593599505066" lon="-1.6150081716492912"><ele>57.42857142857142</ele><time>2026-04-16T17:34:46Z</time></trkpt><trkpt lat="47.29363718540156" lon="-1.6150953434422752"><ele>57.0</ele><time>2026-04-16T17:34:47Z</time></trkpt><trkpt lat="47.293684668883024" lon="-1.615178491921737"><ele>57.0</ele><time>2026-04-16T17:34:48Z</time></trkpt><trkpt lat="47.29373051789337" lon="-1.6152428649380945"><ele>56.99999999999999</ele><time>2026-04-16T17:34:49Z</time></trkpt><trkpt lat="47.29377607353711" lon="-1.61530958488734"><ele>57.0</ele><time>2026-04-16T17:34:50Z</time></trkpt><trkpt lat="47.29382385038519" lon="-1.6153867822155499"><ele>57.0</ele><time>2026-04-16T17:34:51Z</time></trkpt><trkpt lat="47.293883068531095" lon="-1.6154577769354128"><ele>56.99999999999999</ele><time>2026-04-16T17:34:52Z</time></trkpt><trkpt lat="47.29392937854612" lon="-1.615537572653606"><ele>57.0</ele><time>2026-04-16T17:34:53Z</time></trkpt><trkpt lat="47.29397790976548" lon="-1.6156259179130341"><ele>57.0</ele><time>2026-04-16T17:34:54Z</time></trkpt><trkpt lat="47.29402145375246" lon="-1.6156968288138653"><ele>57.0</ele><time>2026-04-16T17:34:55Z</time></trkpt><trkpt lat="47.294028955555795" lon="-1.615793891252592"><ele>56.99999999999999</ele><time>2026-04-16T17:34:56Z</time></trkpt><trkpt lat="47.29407342155212" lon="-1.6158772911891488"><ele>57.0</ele><time>2026-04-16T17:34:57Z</time></trkpt><trkpt lat="47.29412664663726" lon="-1.6159498784706146"><ele>57.0</ele><time>2026-04-16T17:34:58Z</time></trkpt><trkpt lat="47.29416608349168" lon="-1.6160394810155183"><ele>56.99999999999999</ele><time>2026-04-16T17:34:59Z</time></trkpt><trkpt lat="47.29422044013375" lon="-1.6161074582502395"><ele>57.0</ele><time>2026-04-16T17:35:00Z</time></trkpt><trkpt lat="47.29426825889134" lon="-1.6161804646268636"><ele>57.0</ele><time>2026-04-16T17:35:01Z</time></trkpt><trkpt lat="47.294327518946766" lon="-1.6162385512158426"><ele>56.666666666666664</ele><time>2026-04-16T17:35:02Z</time></trkpt><trkpt lat="47.294401573061286" lon="-1.6163797024652513"><ele>56.33333333333333</ele><time>2026-04-16T17:35:04Z</time></trkpt><trkpt lat="47.29443975263023" lon="-1.6164677124485527"><ele>56.0</ele><time>2026-04-16T17:35:05Z</time></trkpt><trkpt lat="47.29448153641754" lon="-1.616576593370751"><ele>55.666666666666664</ele><time>2026-04-16T17:35:06Z</time></trkpt><trkpt lat="47.2945414251157" lon="-1.6166491806522165"><ele>55.33333333333333</ele><time>2026-04-16T17:35:07Z</time></trkpt><trkpt lat="47.294579437046586" lon="-1.616734508426503"><ele>55.0</ele><time>2026-04-16T17:35:08Z</time></trkpt><trkpt lat="47.29461983781987" lon="-1.616815226154045"><ele>55.0</ele><time>2026-04-16T17:35:09Z</time></trkpt><trkpt lat="47.29471710980618" lon="-1.6169273760184804"><ele>55.0</ele><time>2026-04-16T17:35:11Z</time></trkpt><trkpt lat="47.294783410660266" lon="-1.6170654259637156"><ele>55.0</ele><time>2026-04-16T17:35:13Z</time></trkpt><trkpt lat="47.29483068459415" lon="-1.6171372588738957"><ele>55.0</ele><time>2026-04-16T17:35:14Z</time></trkpt><trkpt lat="47.29492376562887" lon="-1.6172729618862431"><ele>55.0</ele><time>2026-04-16T17:35:16Z</time></trkpt><trkpt lat="47.29496932127261" lon="-1.6173396818354886"><ele>55.0</ele><time>2026-04-16T17:35:17Z</time></trkpt><trkpt lat="47.29505854663187" lon="-1.617432385684566"><ele>55.0</ele><time>2026-04-16T17:35:19Z</time></trkpt><trkpt lat="47.29513674978846" lon="-1.617564903573708"><ele>55.0</ele><time>2026-04-16T17:35:21Z</time></trkpt><trkpt lat="47.29517589327627" lon="-1.6176390834167764"><ele>55.0</ele><time>2026-04-16T17:35:22Z</time></trkpt><trkpt lat="47.295255102261244" lon="-1.617769673468189"><ele>55.0</ele><time>2026-04-16T17:35:24Z</time></trkpt><trkpt lat="47.295329156375765" lon="-1.6178976651296186"><ele>54.75</ele><time>2026-04-16T17:35:26Z</time></trkpt><trkpt lat="47.29542529680514" lon="-1.618004199118929"><ele>54.5</ele><time>2026-04-16T17:35:28Z</time></trkpt><trkpt lat="47.29551422879779" lon="-1.6180782951429653"><ele>54.25</ele><time>2026-04-16T17:35:30Z</time></trkpt><trkpt lat="47.295586732260226" lon="-1.6181997489199211"><ele>54.0</ele><time>2026-04-16T17:35:32Z</time></trkpt><trkpt lat="47.2956717666679" lon="-1.618319358678179"><ele>54.400000000000006</ele><time>2026-04-16T17:35:34Z</time></trkpt><trkpt lat="47.295743851035176" lon="-1.61846109666081"><ele>54.800000000000004</ele><time>2026-04-16T17:35:36Z</time></trkpt><trkpt lat="47.29582092263484" lon="-1.61857542582007"><ele>55.199999999999996</ele><time>2026-04-16T17:35:38Z</time></trkpt><trkpt lat="47.29588336781347" lon="-1.618646420539933"><ele>55.599999999999994</ele><time>2026-04-16T17:35:40Z</time></trkpt><trkpt lat="47.29592179883951" lon="-1.6187844704851682"><ele>56.0</ele><time>2026-04-16T17:35:42Z</time></trkpt><trkpt lat="47.295883786908625" lon="-1.6189658548698005"><ele>56.0</ele><time>2026-04-16T17:35:44Z</time></trkpt><trkpt lat="47.295845439701615" lon="-1.6190562956050216"><ele>55.99999999999999</ele><time>2026-04-16T17:35:45Z</time></trkpt><trkpt lat="47.29576053102249" lon="-1.6192274540677845"><ele>55.99999999999999</ele><time>2026-04-16T17:35:47Z</time></trkpt><trkpt lat="47.29571983688259" lon="-1.6193102672711195"><ele>56.0</ele><time>2026-04-16T17:35:48Z</time></trkpt><trkpt lat="47.29566866536373" lon="-1.6194833535716118"><ele>56.0</ele><time>2026-04-16T17:35:50Z</time></trkpt><trkpt lat="47.29567168284887" lon="-1.6195828467622582"><ele>56.00000000000001</ele><time>2026-04-16T17:35:51Z</time></trkpt><trkpt lat="47.29564913552934" lon="-1.619684183971602"><ele>56.0</ele><time>2026-04-16T17:35:52Z</time></trkpt><trkpt lat="47.29562273253435" lon="-1.6197814978674239"><ele>56.0</ele><time>2026-04-16T17:35:53Z</time></trkpt><trkpt lat="47.29559075557375" lon="-1.6199606191381997"><ele>56.0</ele><time>2026-04-16T17:35:55Z</time></trkpt><trkpt lat="47.295562257102965" lon="-1.6201139241472073"><ele>56.00000000000001</ele><time>2026-04-16T17:35:57Z</time></trkpt><trkpt lat="47.29553748857909" lon="-1.6202130820617267"><ele>56.0</ele><time>2026-04-16T17:35:58Z</time></trkpt><trkpt lat="47.29551577944988" lon="-1.620395053179581"><ele>56.0</ele><time>2026-04-16T17:36:00Z</time></trkpt><trkpt lat="47.295502158857225" lon="-1.620487002657373"><ele>55.99999999999999</ele><time>2026-04-16T17:36:01Z</time></trkpt><trkpt lat="47.29550991211766" lon="-1.620584484191258"><ele>55.99999999999999</ele><time>2026-04-16T17:36:02Z</time></trkpt><trkpt lat="47.29553497400814" lon="-1.6207449976369932"><ele>56.0</ele><time>2026-04-16T17:36:04Z</time></trkpt><trkpt lat="47.29559456933969" lon="-1.6208905074760511"><ele>56.0</ele><time>2026-04-16T17:36:06Z</time></trkpt><trkpt lat="47.295634592927335" lon="-1.6210350953057604"><ele>55.8</ele><time>2026-04-16T17:36:08Z</time></trkpt><trkpt lat="47.29569163177842" lon="-1.621175408364852"><ele>55.599999999999994</ele><time>2026-04-16T17:36:10Z</time></trkpt><trkpt lat="47.29574087545955" lon="-1.6212931741044123"><ele>55.4</ele><time>2026-04-16T17:36:12Z</time></trkpt><trkpt lat="47.295783413618146" lon="-1.6214225068703492"><ele>55.2</ele><time>2026-04-16T17:36:14Z</time></trkpt><trkpt lat="47.29586090431297" lon="-1.6215372551247678"><ele>55.0</ele><time>2026-04-16T17:36:16Z</time></trkpt><trkpt lat="47.29591580577874" lon="-1.621676562355479"><ele>55.0</ele><time>2026-04-16T17:36:18Z</time></trkpt><trkpt lat="47.29597347327256" lon="-1.621792316438278"><ele>55.0</ele><time>2026-04-16T17:36:20Z</time></trkpt><trkpt lat="47.296032817147015" lon="-1.6219276003554668"><ele>55.0</ele><time>2026-04-16T17:36:22Z</time></trkpt><trkpt lat="47.29606990706855" lon="-1.6220893710866775"><ele>55.0</ele><time>2026-04-16T17:36:24Z</time></trkpt><trkpt lat="47.296133274256526" lon="-1.6222219727948515"><ele>55.0</ele><time>2026-04-16T17:36:26Z</time></trkpt><trkpt lat="47.29617727924818" lon="-1.6223943885430903"><ele>55.0</ele><time>2026-04-16T17:36:28Z</time></trkpt><trkpt lat="47.29619991038674" lon="-1.622487260030231"><ele>55.0</ele><time>2026-04-16T17:36:29Z</time></trkpt><trkpt lat="47.29622124233031" lon="-1.622658083216867"><ele>55.0</ele><time>2026-04-16T17:36:31Z</time></trkpt><trkpt lat="47.29626088873231" lon="-1.6228032577797982"><ele>55.0</ele><time>2026-04-16T17:36:33Z</time></trkpt><trkpt lat="47.29627668861979" lon="-1.6229800321176862"><ele>55.0</ele><time>2026-04-16T17:36:35Z</time></trkpt><trkpt lat="47.29626880963081" lon="-1.623105006293974"><ele>54.99999999999999</ele><time>2026-04-16T17:36:36Z</time></trkpt><trkpt lat="47.29627165947789" lon="-1.6232044156655885"><ele>55.0</ele><time>2026-04-16T17:36:37Z</time></trkpt><trkpt lat="47.29626021818006" lon="-1.6233048308655835"><ele>55.0</ele><time>2026-04-16T17:36:38Z</time></trkpt><trkpt lat="47.296255314766704" lon="-1.6234598960742572"><ele>55.0</ele><time>2026-04-16T17:36:40Z</time></trkpt><trkpt lat="47.296242658092915" lon="-1.6235558688655713"><ele>54.99999999999999</ele><time>2026-04-16T17:36:41Z</time></trkpt><trkpt lat="47.29622488845819" lon="-1.6236687731012922"><ele>55.0</ele><time>2026-04-16T17:36:42Z</time></trkpt><trkpt lat="47.29620477189058" lon="-1.6237758100047928"><ele>54.83333333333333</ele><time>2026-04-16T17:36:43Z</time></trkpt><trkpt lat="47.29620506525719" lon="-1.6238863673076256"><ele>54.666666666666664</ele><time>2026-04-16T17:36:44Z</time></trkpt><trkpt lat="47.296205526261865" lon="-1.6240060608849152"><ele>54.5</ele><time>2026-04-16T17:36:45Z</time></trkpt><trkpt lat="47.296241023621796" lon="-1.6241146065309868"><ele>54.33333333333333</ele><time>2026-04-16T17:36:46Z</time></trkpt><trkpt lat="47.296255901499926" lon="-1.6242201346919165"><ele>54.166666666666664</ele><time>2026-04-16T17:36:47Z</time></trkpt><trkpt lat="47.29628863283181" lon="-1.624333458022796"><ele>54.0</ele><time>2026-04-16T17:36:48Z</time></trkpt><trkpt lat="47.29634982072496" lon="-1.6244984138772118"><ele>54.0</ele><time>2026-04-16T17:36:50Z</time></trkpt><trkpt lat="47.296397262296914" lon="-1.6245908662691941"><ele>54.0</ele><time>2026-04-16T17:36:51Z</time></trkpt><trkpt lat="47.29647102304482" lon="-1.624663621188723"><ele>54.0</ele><time>2026-04-16T17:36:52Z</time></trkpt><trkpt lat="47.29648967277938" lon="-1.624773005025112"><ele>54.0</ele><time>2026-04-16T17:36:53Z</time></trkpt><trkpt lat="47.29652273938739" lon="-1.6248562373236053"><ele>54.0</ele><time>2026-04-16T17:36:54Z</time></trkpt><trkpt lat="47.296550944491564" lon="-1.624947600068175"><ele>54.0</ele><time>2026-04-16T17:36:55Z</time></trkpt><trkpt lat="47.29655136358672" lon="-1.625061091037118"><ele>54.166666666666664</ele><time>2026-04-16T17:36:56Z</time></trkpt><trkpt lat="47.29655542880976" lon="-1.6251825448140735"><ele>54.33333333333333</ele><time>2026-04-16T17:36:57Z</time></trkpt><trkpt lat="47.29655890729958" lon="-1.625305591152632"><ele>54.5</ele><time>2026-04-16T17:36:58Z</time></trkpt><trkpt lat="47.29657722175801" lon="-1.625413047151291"><ele>54.666666666666664</ele><time>2026-04-16T17:37:00Z</time></trkpt><trkpt lat="47.29657990396702" lon="-1.625555120410049"><ele>54.83333333333333</ele><time>2026-04-16T17:37:02Z</time></trkpt><trkpt lat="47.29655907493764" lon="-1.6256792563960194"><ele>55.0</ele><time>2026-04-16T17:37:04Z</time></trkpt><trkpt lat="47.29655714709991" lon="-1.625818479807699"><ele>55.166666666666664</ele><time>2026-04-16T17:37:06Z</time></trkpt><trkpt lat="47.29656523563647" lon="-1.6259636543706302"><ele>55.33333333333333</ele><time>2026-04-16T17:37:09Z</time></trkpt><trkpt lat="47.296540215655504" lon="-1.626088544727886"><ele>55.5</ele><time>2026-04-16T17:37:11Z</time></trkpt><trkpt lat="47.29652617596769" lon="-1.6262146085515863"><ele>55.66666666666667</ele><time>2026-04-16T17:37:13Z</time></trkpt><trkpt lat="47.29650941216135" lon="-1.6263280157014972"><ele>55.833333333333336</ele><time>2026-04-16T17:37:15Z</time></trkpt><trkpt lat="47.296466748274206" lon="-1.6264532413348802"><ele>56.0</ele><time>2026-04-16T17:37:17Z</time></trkpt><trkpt lat="47.296426096043824" lon="-1.6265574283913025"><ele>56.16666666666667</ele><time>2026-04-16T17:37:19Z</time></trkpt><trkpt lat="47.296375385529636" lon="-1.6266648005709299"><ele>56.333333333333336</ele><time>2026-04-16T17:37:21Z</time></trkpt><trkpt lat="47.29632806968623" lon="-1.6267644613996397"><ele>56.5</ele><time>2026-04-16T17:37:23Z</time></trkpt><trkpt lat="47.29626989927822" lon="-1.6268516331926237"><ele>56.66666666666667</ele><time>2026-04-16T17:37:25Z</time></trkpt><trkpt lat="47.296205232895254" lon="-1.6269218735412014"><ele>56.833333333333336</ele><time>2026-04-16T17:37:27Z</time></trkpt><trkpt lat="47.296119108840166" lon="-1.6270093806103123"><ele>57.0</ele><time>2026-04-16T17:37:29Z</time></trkpt><trkpt lat="47.29603583463216" lon="-1.6270821355298413"><ele>57.6</ele><time>2026-04-16T17:37:31Z</time></trkpt><trkpt lat="47.29595515881413" lon="-1.6271551419064656"><ele>58.2</ele><time>2026-04-16T17:37:33Z</time></trkpt><trkpt lat="47.29586572390729" lon="-1.6272434871658936"><ele>58.8</ele><time>2026-04-16T17:37:35Z</time></trkpt><trkpt lat="47.29578198869461" lon="-1.627318505199279"><ele>59.4</ele><time>2026-04-16T17:37:37Z</time></trkpt><trkpt lat="47.29572063316339" lon="-1.6273505240693942"><ele>60.0</ele><time>2026-04-16T17:37:38Z</time></trkpt><trkpt lat="47.29559876029128" lon="-1.6273704729989424"><ele>59.4</ele><time>2026-04-16T17:37:40Z</time></trkpt><trkpt lat="47.29547894098544" lon="-1.627392768861379"><ele>58.8</ele><time>2026-04-16T17:37:42Z</time></trkpt><trkpt lat="47.29539893571967" lon="-1.6274496819839137"><ele>58.2</ele><time>2026-04-16T17:37:44Z</time></trkpt><trkpt lat="47.295306483327685" lon="-1.6274995543077844"><ele>57.6</ele><time>2026-04-16T17:37:46Z</time></trkpt><trkpt lat="47.29519739285791" lon="-1.6275421343758958"><ele>57.0</ele><time>2026-04-16T17:37:48Z</time></trkpt><trkpt lat="47.29508184832269" lon="-1.6275812778637069"><ele>57.0</ele><time>2026-04-16T17:37:50Z</time></trkpt><trkpt lat="47.29501940314406" lon="-1.62760684266838"><ele>57.0</ele><time>2026-04-16T17:37:51Z</time></trkpt><trkpt lat="47.29496085555041" lon="-1.6276442259565254"><ele>57.0</ele><time>2026-04-16T17:37:52Z</time></trkpt><trkpt lat="47.29485658467495" lon="-1.6277222614750524"><ele>57.0</ele><time>2026-04-16T17:37:54Z</time></trkpt><trkpt lat="47.2947885236212" lon="-1.6277552861735483"><ele>57.0</ele><time>2026-04-16T17:37:55Z</time></trkpt><trkpt lat="47.29472368960017" lon="-1.627778923140492"><ele>57.0</ele><time>2026-04-16T17:37:56Z</time></trkpt><trkpt lat="47.29462725580418" lon="-1.627826029436316"><ele>56.57142857142857</ele><time>2026-04-16T17:37:58Z</time></trkpt><trkpt lat="47.294564181982814" lon="-1.6278412845000882"><ele>56.14285714285714</ele><time>2026-04-16T17:37:59Z</time></trkpt><trkpt lat="47.29449683339083" lon="-1.6278572939351459"><ele>55.71428571428571</ele><time>2026-04-16T17:38:00Z</time></trkpt><trkpt lat="47.29442864660853" lon="-1.6278561204687019"><ele>55.285714285714285</ele><time>2026-04-16T17:38:01Z</time></trkpt><trkpt lat="47.29435664606029" lon="-1.6278592217728753"><ele>54.857142857142854</ele><time>2026-04-16T17:38:02Z</time></trkpt><trkpt lat="47.29427752089435" lon="-1.6278567910209556"><ele>54.42857142857143</ele><time>2026-04-16T17:38:03Z</time></trkpt><trkpt lat="47.294203676327406" lon="-1.6278611496106048"><ele>54.0</ele><time>2026-04-16T17:38:04Z</time></trkpt><trkpt lat="47.29412735909903" lon="-1.6278607305154462"><ele>54.0</ele><time>2026-04-16T17:38:05Z</time></trkpt><trkpt lat="47.294055358550786" lon="-1.6278614848867317"><ele>54.0</ele><time>2026-04-16T17:38:06Z</time></trkpt><trkpt lat="47.293973928361474" lon="-1.627855198459353"><ele>54.0</ele><time>2026-04-16T17:38:07Z</time></trkpt><trkpt lat="47.29388474491173" lon="-1.6278494149461646"><ele>54.0</ele><time>2026-04-16T17:38:08Z</time></trkpt><trkpt lat="47.293811738535105" lon="-1.6278497502222915"><ele>54.0</ele><time>2026-04-16T17:38:09Z</time></trkpt><trkpt lat="47.29370118123227" lon="-1.6278943419471643"><ele>54.0</ele><time>2026-04-16T17:38:11Z</time></trkpt><trkpt lat="47.293629306412576" lon="-1.6278945095852277"><ele>53.833333333333336</ele><time>2026-04-16T17:38:12Z</time></trkpt><trkpt lat="47.29356158063495" lon="-1.627887384967532"><ele>53.66666666666667</ele><time>2026-04-16T17:38:13Z</time></trkpt><trkpt lat="47.29348907717252" lon="-1.6278781648740432"><ele>53.5</ele><time>2026-04-16T17:38:14Z</time></trkpt><trkpt lat="47.2934163641625" lon="-1.6278801765308044"><ele>53.333333333333336</ele><time>2026-04-16T17:38:15Z</time></trkpt><trkpt lat="47.29334616572344" lon="-1.6278857085868976"><ele>53.16666666666667</ele><time>2026-04-16T17:38:16Z</time></trkpt><trkpt lat="47.293255180164515" lon="-1.6279031429454944"><ele>53.0</ele><time>2026-04-16T17:38:17Z</time></trkpt><trkpt lat="47.29317416907036" lon="-1.627908842639651"><ele>53.0</ele><time>2026-04-16T17:38:18Z</time></trkpt><trkpt lat="47.29309793566102" lon="-1.6279193200186155"><ele>53.0</ele><time>2026-04-16T17:38:19Z</time></trkpt><trkpt lat="47.2930281144076" lon="-1.6279176436379812"><ele>53.0</ele><time>2026-04-16T17:38:20Z</time></trkpt><trkpt lat="47.2929596761682" lon="-1.6279238462463281"><ele>53.0</ele><time>2026-04-16T17:38:21Z</time></trkpt><trkpt lat="47.29289060928607" lon="-1.6279219184085987"><ele>53.0</ele><time>2026-04-16T17:38:22Z</time></trkpt><trkpt lat="47.292820746123134" lon="-1.627931809054341"><ele>53.0</ele><time>2026-04-16T17:38:23Z</time></trkpt><trkpt lat="47.29274841029876" lon="-1.6279372572914026"><ele>53.0</ele><time>2026-04-16T17:38:24Z</time></trkpt><trkpt lat="47.29268542029642" lon="-1.6279547754690311"><ele>52.85714285714286</ele><time>2026-04-16T17:38:25Z</time></trkpt><trkpt lat="47.292624274312786" lon="-1.6279308032259605"><ele>52.71428571428571</ele><time>2026-04-16T17:38:26Z</time></trkpt><trkpt lat="47.29255839255386" lon="-1.6279100999251268"><ele>52.57142857142857</ele><time>2026-04-16T17:38:27Z</time></trkpt><trkpt lat="47.29246845473283" lon="-1.6278820205495022"><ele>52.42857142857143</ele><time>2026-04-16T17:38:28Z</time></trkpt><trkpt lat="47.29240739256822" lon="-1.6278405301288028"><ele>52.28571428571429</ele><time>2026-04-16T17:38:29Z</time></trkpt><trkpt lat="47.29234276809477" lon="-1.6278190724566837"><ele>52.14285714285714</ele><time>2026-04-16T17:38:30Z</time></trkpt><trkpt lat="47.29227801789277" lon="-1.6277528554216285"><ele>52.0</ele><time>2026-04-16T17:38:31Z</time></trkpt><trkpt lat="47.29221687190913" lon="-1.6277194954470058"><ele>52.8</ele><time>2026-04-16T17:38:32Z</time></trkpt><trkpt lat="47.2921710648083" lon="-1.627620086075391"><ele>53.6</ele><time>2026-04-16T17:38:34Z</time></trkpt><trkpt lat="47.29207991161131" lon="-1.6276113688960927"><ele>54.39999999999999</ele><time>2026-04-16T17:38:35Z</time></trkpt><trkpt lat="47.2919776104831" lon="-1.6275669448092835"><ele>55.199999999999996</ele><time>2026-04-16T17:38:37Z</time></trkpt><trkpt lat="47.29187111840331" lon="-1.6274941060707229"><ele>56.0</ele><time>2026-04-16T17:38:39Z</time></trkpt><trkpt lat="47.291738097599975" lon="-1.627424871550526"><ele>56.0</ele><time>2026-04-16T17:38:41Z</time></trkpt><trkpt lat="47.291655954948894" lon="-1.6273820400253192"><ele>55.99999999999999</ele><time>2026-04-16T17:38:42Z</time></trkpt><trkpt lat="47.29158093691551" lon="-1.6273605823532"><ele>55.99999999999999</ele><time>2026-04-16T17:38:43Z</time></trkpt><trkpt lat="47.29145558555358" lon="-1.6273137275144711"><ele>56.0</ele><time>2026-04-16T17:38:45Z</time></trkpt><trkpt lat="47.29134628553622" lon="-1.6273056808874264"><ele>56.0</ele><time>2026-04-16T17:38:46Z</time></trkpt><trkpt lat="47.29125965856694" lon="-1.6273241210744038"><ele>54.4</ele><time>2026-04-16T17:38:47Z</time></trkpt><trkpt lat="47.29116062638097" lon="-1.6272713989034548"><ele>52.8</ele><time>2026-04-16T17:38:48Z</time></trkpt><trkpt lat="47.29105249983006" lon="-1.627243403346862"><ele>51.199999999999996</ele><time>2026-04-16T17:38:49Z</time></trkpt><trkpt lat="47.29095644321971" lon="-1.6272273939118043"><ele>49.599999999999994</ele><time>2026-04-16T17:38:50Z</time></trkpt><trkpt lat="47.29084923867815" lon="-1.6272152401522055"><ele>48.0</ele><time>2026-04-16T17:38:51Z</time></trkpt><trkpt lat="47.29073507715695" lon="-1.6272093728199855"><ele>48.0</ele><time>2026-04-16T17:38:52Z</time></trkpt><trkpt lat="47.2906297585436" lon="-1.6272366978243247"><ele>48.0</ele><time>2026-04-16T17:38:53Z</time></trkpt><trkpt lat="47.29053013962441" lon="-1.6272576525822535"><ele>48.0</ele><time>2026-04-16T17:38:54Z</time></trkpt><trkpt lat="47.29042368945413" lon="-1.627296712251033"><ele>48.0</ele><time>2026-04-16T17:38:55Z</time></trkpt><trkpt lat="47.290328429124585" lon="-1.6273459978416815"><ele>48.0</ele><time>2026-04-16T17:38:56Z</time></trkpt><trkpt lat="47.2902267147296" lon="-1.6273942776039498"><ele>47.666666666666664</ele><time>2026-04-16T17:38:57Z</time></trkpt><trkpt lat="47.290134178518585" lon="-1.6274450719371694"><ele>47.333333333333336</ele><time>2026-04-16T17:38:58Z</time></trkpt><trkpt lat="47.29004864119672" lon="-1.6274980455652135"><ele>47.0</ele><time>2026-04-16T17:38:59Z</time></trkpt><trkpt lat="47.289967839650146" lon="-1.627525286750521"><ele>46.66666666666667</ele><time>2026-04-16T17:39:00Z</time></trkpt><trkpt lat="47.289890642321936" lon="-1.627548253165211"><ele>46.333333333333336</ele><time>2026-04-16T17:39:01Z</time></trkpt><trkpt lat="47.289822371720604" lon="-1.6275733988747256"><ele>46.0</ele><time>2026-04-16T17:39:02Z</time></trkpt><trkpt lat="47.289708545475534" lon="-1.6276488360032697"><ele>46.4</ele><time>2026-04-16T17:39:04Z</time></trkpt><trkpt lat="47.28961852383547" lon="-1.6277561243638654"><ele>46.8</ele><time>2026-04-16T17:39:06Z</time></trkpt><trkpt lat="47.2895324416899" lon="-1.6278547793641944"><ele>47.199999999999996</ele><time>2026-04-16T17:39:08Z</time></trkpt><trkpt lat="47.28947829459541" lon="-1.627902975307431"><ele>47.599999999999994</ele><time>2026-04-16T17:39:09Z</time></trkpt><trkpt lat="47.28939979807221" lon="-1.6280033066883943"><ele>48.0</ele><time>2026-04-16T17:39:11Z</time></trkpt><trkpt lat="47.28929913141512" lon="-1.628107074649658"><ele>48.0</ele><time>2026-04-16T17:39:13Z</time></trkpt><trkpt lat="47.28923257910394" lon="-1.6282139439150953"><ele>48.0</ele><time>2026-04-16T17:39:15Z</time></trkpt><trkpt lat="47.289154795042506" lon="-1.6282998584226036"><ele>48.0</ele><time>2026-04-16T17:39:17Z</time></trkpt><trkpt lat="47.28907483168625" lon="-1.6283804085120823"><ele>48.0</ele><time>2026-04-16T17:39:19Z</time></trkpt><trkpt lat="47.28898661215537" lon="-1.6284595336780217"><ele>48.0</ele><time>2026-04-16T17:39:21Z</time></trkpt><trkpt lat="47.28893351279878" lon="-1.6285798139885332"><ele>48.599999999999994</ele><time>2026-04-16T17:39:23Z</time></trkpt><trkpt lat="47.28885183115237" lon="-1.6286755353227524"><ele>49.199999999999996</ele><time>2026-04-16T17:39:25Z</time></trkpt><trkpt lat="47.28876696438276" lon="-1.6287820693120627"><ele>49.8</ele><time>2026-04-16T17:39:27Z</time></trkpt><trkpt lat="47.28868570183151" lon="-1.6288695763811738"><ele>50.4</ele><time>2026-04-16T17:39:29Z</time></trkpt><trkpt lat="47.28864010427826" lon="-1.6289788763985307"><ele>51.0</ele><time>2026-04-16T17:39:31Z</time></trkpt><trkpt lat="47.28855821308427" lon="-1.6290522180512816"><ele>51.0</ele><time>2026-04-16T17:39:33Z</time></trkpt><trkpt lat="47.28847196330064" lon="-1.6290847398355874"><ele>51.0</ele><time>2026-04-16T17:39:35Z</time></trkpt><trkpt lat="47.28836915925824" lon="-1.6290963906809959"><ele>51.0</ele><time>2026-04-16T17:39:37Z</time></trkpt><trkpt lat="47.288279053799144" lon="-1.6290814708933505"><ele>51.0</ele><time>2026-04-16T17:39:39Z</time></trkpt><trkpt lat="47.28818023116075" lon="-1.629064539448944"><ele>51.0</ele><time>2026-04-16T17:39:41Z</time></trkpt><trkpt lat="47.28808241435074" lon="-1.6290911100819978"><ele>51.599999999999994</ele><time>2026-04-16T17:39:43Z</time></trkpt><trkpt lat="47.28798095141285" lon="-1.6291194409147176"><ele>52.2</ele><time>2026-04-16T17:39:45Z</time></trkpt><trkpt lat="47.287895707457594" lon="-1.6291512921467695"><ele>52.800000000000004</ele><time>2026-04-16T17:39:47Z</time></trkpt><trkpt lat="47.28780602109366" lon="-1.6291496995851669"><ele>53.400000000000006</ele><time>2026-04-16T17:39:49Z</time></trkpt><trkpt lat="47.28771951985293" lon="-1.629177024589506"><ele>54.0</ele><time>2026-04-16T17:39:51Z</time></trkpt><trkpt lat="47.28762057148599" lon="-1.6291944589481029"><ele>54.0</ele><time>2026-04-16T17:39:53Z</time></trkpt><trkpt lat="47.28754718792372" lon="-1.6291883401587877"><ele>54.0</ele><time>2026-04-16T17:39:55Z</time></trkpt><trkpt lat="47.28746194396847" lon="-1.6292152460679683"><ele>54.0</ele><time>2026-04-16T17:39:57Z</time></trkpt><trkpt lat="47.28738357317381" lon="-1.6291963867858323"><ele>54.0</ele><time>2026-04-16T17:39:59Z</time></trkpt><trkpt lat="47.287296527109376" lon="-1.6291891783491048"><ele>54.0</ele><time>2026-04-16T17:40:01Z</time></trkpt><trkpt lat="47.28721128315412" lon="-1.6292068641647968"><ele>54.0</ele><time>2026-04-16T17:40:03Z</time></trkpt><trkpt lat="47.28713316381656" lon="-1.6292362846449289"><ele>54.333333333333336</ele><time>2026-04-16T17:40:05Z</time></trkpt><trkpt lat="47.2870579362356" lon="-1.629278948532072"><ele>54.66666666666667</ele><time>2026-04-16T17:40:07Z</time></trkpt><trkpt lat="47.286989078901044" lon="-1.6293206904098665"><ele>55.0</ele><time>2026-04-16T17:40:09Z</time></trkpt><trkpt lat="47.28691624016248" lon="-1.6293580736980116"><ele>55.333333333333336</ele><time>2026-04-16T17:40:11Z</time></trkpt><trkpt lat="47.286835396706394" lon="-1.6294126398876583"><ele>55.66666666666667</ele><time>2026-04-16T17:40:13Z</time></trkpt><trkpt lat="47.28677018549972" lon="-1.6294725704953348"><ele>56.0</ele><time>2026-04-16T17:40:15Z</time></trkpt><trkpt lat="47.28670258545064" lon="-1.6295427270248808"><ele>56.00000000000001</ele><time>2026-04-16T17:40:17Z</time></trkpt><trkpt lat="47.28662580721759" lon="-1.629599221052257"><ele>56.0</ele><time>2026-04-16T17:40:19Z</time></trkpt><trkpt lat="47.2865502443605" lon="-1.629659570755092"><ele>56.0</ele><time>2026-04-16T17:40:21Z</time></trkpt><trkpt lat="47.2864733403989" lon="-1.6297230217621006"><ele>56.0</ele><time>2026-04-16T17:40:23Z</time></trkpt><trkpt lat="47.28640050166034" lon="-1.629785718397824"><ele>56.00000000000001</ele><time>2026-04-16T17:40:25Z</time></trkpt><trkpt lat="47.286318778104416" lon="-1.629851935432879"><ele>56.0</ele><time>2026-04-16T17:40:27Z</time></trkpt><trkpt lat="47.286239862486056" lon="-1.629910273478953"><ele>56.599999999999994</ele><time>2026-04-16T17:40:29Z</time></trkpt><trkpt lat="47.286166311285726" lon="-1.6299760714188496"><ele>57.199999999999996</ele><time>2026-04-16T17:40:31Z</time></trkpt><trkpt lat="47.28609544229441" lon="-1.6300449706629199"><ele>57.800000000000004</ele><time>2026-04-16T17:40:33Z</time></trkpt><trkpt lat="47.2860158561238" lon="-1.630115881563751"><ele>58.400000000000006</ele><time>2026-04-16T17:40:35Z</time></trkpt><trkpt lat="47.285919925242" lon="-1.630200706423847"><ele>59.0</ele><time>2026-04-16T17:40:37Z</time></trkpt><trkpt lat="47.285833968824974" lon="-1.6302709467724248"><ele>59.0</ele><time>2026-04-16T17:40:39Z</time></trkpt><trkpt lat="47.28576825470411" lon="-1.6303322184846087"><ele>59.00000000000001</ele><time>2026-04-16T17:40:41Z</time></trkpt><trkpt lat="47.285685022405616" lon="-1.630401033909647"><ele>59.00000000000001</ele><time>2026-04-16T17:40:43Z</time></trkpt><trkpt lat="47.285612602762214" lon="-1.6304573602989598"><ele>59.0</ele><time>2026-04-16T17:40:45Z</time></trkpt><trkpt lat="47.28553129830145" lon="-1.6305103339270042"><ele>59.0</ele><time>2026-04-16T17:40:47Z</time></trkpt><trkpt lat="47.28540745568209" lon="-1.6305847652271674"><ele>59.0</ele><time>2026-04-16T17:40:49Z</time></trkpt><trkpt lat="47.2853258159452" lon="-1.6306501440719054"><ele>59.00000000000001</ele><time>2026-04-16T17:40:51Z</time></trkpt><trkpt lat="47.28527967356824" lon="-1.6307435184732366"><ele>59.00000000000001</ele><time>2026-04-16T17:40:53Z</time></trkpt><trkpt lat="47.28518965192818" lon="-1.6308198776111293"><ele>59.0</ele><time>2026-04-16T17:40:55Z</time></trkpt><trkpt lat="47.28512029167943" lon="-1.6309031937286544"><ele>59.0</ele><time>2026-04-16T17:40:57Z</time></trkpt><trkpt lat="47.28502167858861" lon="-1.6309560835376669"><ele>59.00000000000001</ele><time>2026-04-16T17:40:59Z</time></trkpt><trkpt lat="47.28494573854588" lon="-1.6310137510314873"><ele>59.0</ele><time>2026-04-16T17:41:01Z</time></trkpt><trkpt lat="47.28488111407243" lon="-1.6310925409212997"><ele>59.0</ele><time>2026-04-16T17:41:03Z</time></trkpt><trkpt lat="47.28481816597961" lon="-1.6311523038909128"><ele>59.0</ele><time>2026-04-16T17:41:05Z</time></trkpt><trkpt lat="47.28472181600265" lon="-1.631196727977722"><ele>59.00000000000001</ele><time>2026-04-16T17:41:07Z</time></trkpt><trkpt lat="47.2846339317479" lon="-1.6312379669413262"><ele>59.0</ele><time>2026-04-16T17:41:09Z</time></trkpt><trkpt lat="47.28457894646309" lon="-1.6313044354334765"><ele>59.2</ele><time>2026-04-16T17:41:11Z</time></trkpt><trkpt lat="47.284556650600656" lon="-1.6314237099156075"><ele>59.400000000000006</ele><time>2026-04-16T17:41:14Z</time></trkpt><trkpt lat="47.284575090787634" lon="-1.6315356921419795"><ele>59.6</ele><time>2026-04-16T17:41:16Z</time></trkpt><trkpt lat="47.28460212242536" lon="-1.6316817887142594"><ele>59.8</ele><time>2026-04-16T17:41:18Z</time></trkpt><trkpt lat="47.28462265808813" lon="-1.6318203415736852"><ele>60.0</ele><time>2026-04-16T17:41:20Z</time></trkpt><trkpt lat="47.28467072830282" lon="-1.6319362632945478"><ele>60.2</ele><time>2026-04-16T17:41:22Z</time></trkpt><trkpt lat="47.284701238430365" lon="-1.632052520291537"><ele>60.4</ele><time>2026-04-16T17:41:24Z</time></trkpt><trkpt lat="47.284665321975275" lon="-1.6322441305980386"><ele>60.599999999999994</ele><time>2026-04-16T17:41:26Z</time></trkpt><trkpt lat="47.28460677438162" lon="-1.6323779057726564"><ele>60.8</ele><time>2026-04-16T17:41:28Z</time></trkpt><trkpt lat="47.28452836167745" lon="-1.6324915643796627"><ele>61.0</ele><time>2026-04-16T17:41:30Z</time></trkpt><trkpt lat="47.28443532255225" lon="-1.6325803287342493"><ele>61.0</ele><time>2026-04-16T17:41:32Z</time></trkpt><trkpt lat="47.28433360815726" lon="-1.6326675005272335"><ele>60.99999999999999</ele><time>2026-04-16T17:41:34Z</time></trkpt><trkpt lat="47.28427522820167" lon="-1.6327151097372479"><ele>60.99999999999999</ele><time>2026-04-16T17:41:35Z</time></trkpt><trkpt lat="47.2841970669546" lon="-1.6328126750901646"><ele>61.0</ele><time>2026-04-16T17:41:37Z</time></trkpt><trkpt lat="47.28418256626211" lon="-1.6329726856217095"><ele>61.0</ele><time>2026-04-16T17:41:39Z</time></trkpt><trkpt lat="47.28421077136628" lon="-1.6330668143943259"><ele>60.5</ele><time>2026-04-16T17:41:41Z</time></trkpt><trkpt lat="47.28424103003673" lon="-1.6332361288383912"><ele>60.0</ele><time>2026-04-16T17:41:43Z</time></trkpt><trkpt lat="47.28424681354992" lon="-1.633405275644393"><ele>59.5</ele><time>2026-04-16T17:41:45Z</time></trkpt><trkpt lat="47.28426240388982" lon="-1.6335874144003106"><ele>59.0</ele><time>2026-04-16T17:41:47Z</time></trkpt><trkpt lat="47.28427120488815" lon="-1.6337465867415384"><ele>58.800000000000004</ele><time>2026-04-16T17:41:49Z</time></trkpt><trkpt lat="47.28426827122204" lon="-1.633843649180265"><ele>58.60000000000001</ele><time>2026-04-16T17:41:50Z</time></trkpt><trkpt lat="47.28425670419566" lon="-1.6340199206039625"><ele>58.4</ele><time>2026-04-16T17:41:52Z</time></trkpt><trkpt lat="47.28423956320368" lon="-1.6341807693258246"><ele>58.2</ele><time>2026-04-16T17:41:54Z</time></trkpt><trkpt lat="47.284212363927885" lon="-1.6343368403628789"><ele>58.0</ele><time>2026-04-16T17:41:56Z</time></trkpt><trkpt lat="47.28419136726044" lon="-1.6344826854780636"><ele>58.599999999999994</ele><time>2026-04-16T17:41:58Z</time></trkpt><trkpt lat="47.284176237925216" lon="-1.6346112638727153"><ele>59.199999999999996</ele><time>2026-04-16T17:42:00Z</time></trkpt><trkpt lat="47.284165131903514" lon="-1.6347387526199544"><ele>59.8</ele><time>2026-04-16T17:42:02Z</time></trkpt><trkpt lat="47.28415574417196" lon="-1.6348773892984119"><ele>60.4</ele><time>2026-04-16T17:42:04Z</time></trkpt><trkpt lat="47.28414472196929" lon="-1.6350213065758672"><ele>61.0</ele><time>2026-04-16T17:42:06Z</time></trkpt><trkpt lat="47.28414874528281" lon="-1.6351617872730224"><ele>61.4</ele><time>2026-04-16T17:42:08Z</time></trkpt><trkpt lat="47.284139231822714" lon="-1.6353219654426308"><ele>61.8</ele><time>2026-04-16T17:42:10Z</time></trkpt><trkpt lat="47.28414048910819" lon="-1.635447358714077"><ele>62.199999999999996</ele><time>2026-04-16T17:42:12Z</time></trkpt><trkpt lat="47.28414090820335" lon="-1.6355884261444542"><ele>62.599999999999994</ele><time>2026-04-16T17:42:14Z</time></trkpt><trkpt lat="47.2841270361536" lon="-1.635739048944447"><ele>63.0</ele><time>2026-04-16T17:42:16Z</time></trkpt><trkpt lat="47.2841259884157" lon="-1.6358969640001988"><ele>63.0</ele><time>2026-04-16T17:42:18Z</time></trkpt><trkpt lat="47.28411609776996" lon="-1.6360472515240647"><ele>63.0</ele><time>2026-04-16T17:42:20Z</time></trkpt><trkpt lat="47.28409715466879" lon="-1.6361865587547757"><ele>63.0</ele><time>2026-04-16T17:42:22Z</time></trkpt><trkpt lat="47.28406065148048" lon="-1.6363325715080241"><ele>63.0</ele><time>2026-04-16T17:42:24Z</time></trkpt><trkpt lat="47.28403563149951" lon="-1.6364726331100208"><ele>63.0</ele><time>2026-04-16T17:42:26Z</time></trkpt><trkpt lat="47.283998876854106" lon="-1.6365981940195304"><ele>62.833333333333336</ele><time>2026-04-16T17:42:28Z</time></trkpt><trkpt lat="47.283950513272806" lon="-1.636714702473615"><ele>62.66666666666667</ele><time>2026-04-16T17:42:30Z</time></trkpt><trkpt lat="47.283911872699186" lon="-1.6368326358512386"><ele>62.5</ele><time>2026-04-16T17:42:32Z</time></trkpt><trkpt lat="47.283870591826066" lon="-1.6369540896281944"><ele>62.333333333333336</ele><time>2026-04-16T17:42:34Z</time></trkpt><trkpt lat="47.28384800259702" lon="-1.6370705142632471"><ele>62.16666666666667</ele><time>2026-04-16T17:42:36Z</time></trkpt><trkpt lat="47.28386267092757" lon="-1.6371614579126583"><ele>62.0</ele><time>2026-04-16T17:42:38Z</time></trkpt><trkpt lat="47.28394351438366" lon="-1.6372173652068127"><ele>62.400000000000006</ele><time>2026-04-16T17:42:40Z</time></trkpt><trkpt lat="47.284019538245424" lon="-1.6372771281764258"><ele>62.800000000000004</ele><time>2026-04-16T17:42:42Z</time></trkpt><trkpt lat="47.28409204170786" lon="-1.63735306821916"><ele>63.2</ele><time>2026-04-16T17:42:44Z</time></trkpt><trkpt lat="47.2841772437536" lon="-1.6374157648548833"><ele>63.6</ele><time>2026-04-16T17:42:46Z</time></trkpt><trkpt lat="47.28427744940601" lon="-1.6374307684615603"><ele>64.0</ele><time>2026-04-16T17:42:48Z</time></trkpt><trkpt lat="47.284358963414356" lon="-1.6374725941583863"><ele>64.0</ele><time>2026-04-16T17:42:50Z</time></trkpt><trkpt lat="47.28443649601869" lon="-1.6375456843540421"><ele>64.0</ele><time>2026-04-16T17:42:52Z</time></trkpt><trkpt lat="47.28450300642036" lon="-1.6376409027740708"><ele>64.0</ele><time>2026-04-16T17:42:54Z</time></trkpt><trkpt lat="47.28457991038196" lon="-1.63780258968625"><ele>64.0</ele><time>2026-04-16T17:42:56Z</time></trkpt><trkpt lat="47.28463594340466" lon="-1.6379149910077806"><ele>64.0</ele><time>2026-04-16T17:42:58Z</time></trkpt><trkpt lat="47.28472625841133" lon="-1.6379791125670429"><ele>65.0</ele><time>2026-04-16T17:43:00Z</time></trkpt><trkpt lat="47.284793397455736" lon="-1.6381074395045991"><ele>66.0</ele><time>2026-04-16T17:43:02Z</time></trkpt><trkpt lat="47.284860704138204" lon="-1.638170890511608"><ele>67.0</ele><time>2026-04-16T17:43:04Z</time></trkpt><trkpt lat="47.28492784318261" lon="-1.638245657087898"><ele>68.0</ele><time>2026-04-16T17:43:06Z</time></trkpt><trkpt lat="47.28498819288544" lon="-1.6382778435960768"><ele>69.0</ele><time>2026-04-16T17:43:08Z</time></trkpt><trkpt lat="47.28506765332751" lon="-1.6383367683753727"><ele>70.0</ele><time>2026-04-16T17:43:10Z</time></trkpt><trkpt lat="47.285102354406646" lon="-1.638415642084217"><ele>70.0</ele><time>2026-04-16T17:43:11Z</time></trkpt><trkpt lat="47.285179467915825" lon="-1.638536090032792"><ele>70.0</ele><time>2026-04-16T17:43:13Z</time></trkpt><trkpt lat="47.2852438828417" lon="-1.638606246562338"><ele>70.0</ele><time>2026-04-16T17:43:14Z</time></trkpt><trkpt lat="47.28529245597058" lon="-1.6386791691199305"><ele>70.0</ele><time>2026-04-16T17:43:15Z</time></trkpt><trkpt lat="47.28533889171415" lon="-1.6387727949783566"><ele>70.0</ele><time>2026-04-16T17:43:16Z</time></trkpt><trkpt lat="47.28542220783167" lon="-1.6389076598003869"><ele>69.8</ele><time>2026-04-16T17:43:18Z</time></trkpt><trkpt lat="47.28549982425504" lon="-1.63900748826716"><ele>69.6</ele><time>2026-04-16T17:43:20Z</time></trkpt><trkpt lat="47.285553091249696" lon="-1.6391094960287578"><ele>69.4</ele><time>2026-04-16T17:43:22Z</time></trkpt><trkpt lat="47.28564579509877" lon="-1.6392332129195697"><ele>69.2</ele><time>2026-04-16T17:43:24Z</time></trkpt><trkpt lat="47.28571109012448" lon="-1.6392856836334235"><ele>69.0</ele><time>2026-04-16T17:43:25Z</time></trkpt><trkpt lat="47.28577621751212" lon="-1.639319797979332"><ele>69.0</ele><time>2026-04-16T17:43:26Z</time></trkpt><trkpt lat="47.285833968824974" lon="-1.6393638029709825"><ele>69.0</ele><time>2026-04-16T17:43:27Z</time></trkpt><trkpt lat="47.2859196737849" lon="-1.6393929719940195"><ele>69.0</ele><time>2026-04-16T17:43:28Z</time></trkpt><trkpt lat="47.28597679645502" lon="-1.6394388210043678"><ele>69.0</ele><time>2026-04-16T17:43:29Z</time></trkpt><trkpt lat="47.28604590524667" lon="-1.6394492145643005"><ele>69.0</ele><time>2026-04-16T17:43:30Z</time></trkpt><trkpt lat="47.286187559410266" lon="-1.6394835803673038"><ele>69.0</ele><time>2026-04-16T17:43:32Z</time></trkpt><trkpt lat="47.286254446997575" lon="-1.6394950635746488"><ele>68.5</ele><time>2026-04-16T17:43:33Z</time></trkpt><trkpt lat="47.28633964904331" lon="-1.6395082231626281"><ele>68.0</ele><time>2026-04-16T17:43:34Z</time></trkpt><trkpt lat="47.28641554717653" lon="-1.63951710797999"><ele>67.5</ele><time>2026-04-16T17:43:35Z</time></trkpt><trkpt lat="47.28649245113813" lon="-1.6395260766163835"><ele>67.0</ele><time>2026-04-16T17:43:36Z</time></trkpt><trkpt lat="47.28657601871275" lon="-1.6395394038424262"><ele>66.5</ele><time>2026-04-16T17:43:37Z</time></trkpt><trkpt lat="47.28664772589438" lon="-1.6395373083666334"><ele>66.0</ele><time>2026-04-16T17:43:38Z</time></trkpt><trkpt lat="47.28672903035515" lon="-1.639525657521225"><ele>65.5</ele><time>2026-04-16T17:43:39Z</time></trkpt><trkpt lat="47.286808281249634" lon="-1.6395404096708068"><ele>65.0</ele><time>2026-04-16T17:43:40Z</time></trkpt><trkpt lat="47.28688267064028" lon="-1.6395570058390867"><ele>64.5</ele><time>2026-04-16T17:43:41Z</time></trkpt><trkpt lat="47.28697893679821" lon="-1.6395405773088703"><ele>64.0</ele><time>2026-04-16T17:43:42Z</time></trkpt><trkpt lat="47.287059780254296" lon="-1.639546277003027"><ele>63.5</ele><time>2026-04-16T17:43:43Z</time></trkpt><trkpt lat="47.28712997869336" lon="-1.6395535692587864"><ele>63.0</ele><time>2026-04-16T17:43:44Z</time></trkpt><trkpt lat="47.28720742747866" lon="-1.6395620349809896"><ele>62.666666666666664</ele><time>2026-04-16T17:43:45Z</time></trkpt><trkpt lat="47.28728789374911" lon="-1.6395772900447618"><ele>62.33333333333333</ele><time>2026-04-16T17:43:46Z</time></trkpt><trkpt lat="47.287378795489005" lon="-1.6395920421943437"><ele>62.0</ele><time>2026-04-16T17:43:47Z</time></trkpt><trkpt lat="47.287463578439585" lon="-1.6396186966464292"><ele>61.666666666666664</ele><time>2026-04-16T17:43:48Z</time></trkpt><trkpt lat="47.28753532753073" lon="-1.6396204568460953"><ele>61.33333333333333</ele><time>2026-04-16T17:43:49Z</time></trkpt><trkpt lat="47.28761394978248" lon="-1.639628168197013"><ele>61.0</ele><time>2026-04-16T17:43:50Z</time></trkpt><trkpt lat="47.287707910917035" lon="-1.6396506316975128"><ele>60.99999999999999</ele><time>2026-04-16T17:43:51Z</time></trkpt><trkpt lat="47.28778548543089" lon="-1.6396410763278972"><ele>61.0</ele><time>2026-04-16T17:43:52Z</time></trkpt><trkpt lat="47.28786813099616" lon="-1.6396481171265613"><ele>61.0</ele><time>2026-04-16T17:43:53Z</time></trkpt><trkpt lat="47.287949225909344" lon="-1.6396616119906675"><ele>61.0</ele><time>2026-04-16T17:43:54Z</time></trkpt><trkpt lat="47.288035810969106" lon="-1.6396842431292307"><ele>60.99999999999999</ele><time>2026-04-16T17:43:55Z</time></trkpt><trkpt lat="47.288118372715346" lon="-1.639699749650098"><ele>61.0</ele><time>2026-04-16T17:43:56Z</time></trkpt><trkpt lat="47.288213172040216" lon="-1.6397202853128683"><ele>60.4</ele><time>2026-04-16T17:43:57Z</time></trkpt><trkpt lat="47.288297368257574" lon="-1.6397322714344036"><ele>59.8</ele><time>2026-04-16T17:43:58Z</time></trkpt><trkpt lat="47.28838525251233" lon="-1.6397516336307298"><ele>59.199999999999996</ele><time>2026-04-16T17:43:59Z</time></trkpt><trkpt lat="47.28848030329429" lon="-1.63976043462906"><ele>58.599999999999994</ele><time>2026-04-16T17:44:00Z</time></trkpt><trkpt lat="47.28857049257242" lon="-1.639793794603683"><ele>58.0</ele><time>2026-04-16T17:44:01Z</time></trkpt><trkpt lat="47.288657245270244" lon="-1.6398191917702927"><ele>58.0</ele><time>2026-04-16T17:44:02Z</time></trkpt><trkpt lat="47.28874538098209" lon="-1.6398181021228804"><ele>58.0</ele><time>2026-04-16T17:44:03Z</time></trkpt><trkpt lat="47.28883343287491" lon="-1.6398325189963354"><ele>58.0</ele><time>2026-04-16T17:44:04Z</time></trkpt><trkpt lat="47.28891838346355" lon="-1.6398538090303911"><ele>58.0</ele><time>2026-04-16T17:44:05Z</time></trkpt><trkpt lat="47.289015278264216" lon="-1.6398427449182047"><ele>58.0</ele><time>2026-04-16T17:44:06Z</time></trkpt><trkpt lat="47.289108526937" lon="-1.6398543957636131"><ele>57.49999999999999</ele><time>2026-04-16T17:44:07Z</time></trkpt><trkpt lat="47.289190124764374" lon="-1.6398620232954992"><ele>57.0</ele><time>2026-04-16T17:44:08Z</time></trkpt><trkpt lat="47.289278134747676" lon="-1.639868561179973"><ele>56.5</ele><time>2026-04-16T17:44:09Z</time></trkpt><trkpt lat="47.28937209588223" lon="-1.6398602630958332"><ele>56.0</ele><time>2026-04-16T17:44:10Z</time></trkpt><trkpt lat="47.28945989631795" lon="-1.6398556530490889"><ele>55.49999999999999</ele><time>2026-04-16T17:44:11Z</time></trkpt><trkpt lat="47.28955138479107" lon="-1.6398157551899923"><ele>55.0</ele><time>2026-04-16T17:44:12Z</time></trkpt><trkpt lat="47.289628917395405" lon="-1.6397876758143675"><ele>54.99999999999999</ele><time>2026-04-16T17:44:13Z</time></trkpt><trkpt lat="47.28970066648655" lon="-1.6397716663793098"><ele>55.0</ele><time>2026-04-16T17:44:14Z</time></trkpt><trkpt lat="47.28977367286318" lon="-1.6397422458991777"><ele>55.0</ele><time>2026-04-16T17:44:15Z</time></trkpt><trkpt lat="47.28985501923346" lon="-1.6397139988854896"><ele>55.0</ele><time>2026-04-16T17:44:16Z</time></trkpt><trkpt lat="47.289935066408745" lon="-1.6397089697435867"><ele>54.99999999999999</ele><time>2026-04-16T17:44:17Z</time></trkpt><trkpt lat="47.290019053078524" lon="-1.6396822314724695"><ele>55.0</ele><time>2026-04-16T17:44:18Z</time></trkpt><trkpt lat="47.29009499312126" lon="-1.639652056621052"><ele>54.75</ele><time>2026-04-16T17:44:19Z</time></trkpt><trkpt lat="47.29017952461474" lon="-1.6395694948748123"><ele>54.5</ele><time>2026-04-16T17:44:20Z</time></trkpt><trkpt lat="47.290324489630095" lon="-1.6395383980140457"><ele>54.25</ele><time>2026-04-16T17:44:22Z</time></trkpt><trkpt lat="47.29040923067116" lon="-1.6395065467819938"><ele>54.0</ele><time>2026-04-16T17:44:23Z</time></trkpt><trkpt lat="47.29051886596464" lon="-1.6394357197001943"><ele>53.333333333333336</ele><time>2026-04-16T17:44:24Z</time></trkpt><trkpt lat="47.290608175142935" lon="-1.639410490171648"><ele>52.66666666666667</ele><time>2026-04-16T17:44:25Z</time></trkpt><trkpt lat="47.29070020843976" lon="-1.6393844224527845"><ele>52.0</ele><time>2026-04-16T17:44:26Z</time></trkpt><trkpt lat="47.29078176435762" lon="-1.6393588576481113"><ele>51.333333333333336</ele><time>2026-04-16T17:44:27Z</time></trkpt><trkpt lat="47.29086927142673" lon="-1.6393375676140556"><ele>50.66666666666667</ele><time>2026-04-16T17:44:28Z</time></trkpt><trkpt lat="47.29094655257397" lon="-1.6393148526564607"><ele>50.0</ele><time>2026-04-16T17:44:29Z</time></trkpt><trkpt lat="47.29101352398031" lon="-1.6393037047252423"><ele>50.00000000000001</ele><time>2026-04-16T17:44:30Z</time></trkpt><trkpt lat="47.29107542433523" lon="-1.6392767988160617"><ele>50.0</ele><time>2026-04-16T17:44:31Z</time></trkpt><trkpt lat="47.29114243765109" lon="-1.639260537923909"><ele>50.0</ele><time>2026-04-16T17:44:32Z</time></trkpt><trkpt lat="47.29122977708214" lon="-1.639259029181338"><ele>50.0</ele><time>2026-04-16T17:44:34Z</time></trkpt><trkpt lat="47.2912999755212" lon="-1.6392355598524577"><ele>50.00000000000001</ele><time>2026-04-16T17:44:35Z</time></trkpt><trkpt lat="47.291407766795984" lon="-1.6392081510290868"><ele>50.0</ele><time>2026-04-16T17:44:37Z</time></trkpt><trkpt lat="47.29150072210216" lon="-1.6391717735693223"><ele>50.833333333333336</ele><time>2026-04-16T17:44:39Z</time></trkpt><trkpt lat="47.2915735189312" lon="-1.6391607094571359"><ele>51.66666666666667</ele><time>2026-04-16T17:44:40Z</time></trkpt><trkpt lat="47.29169262577527" lon="-1.63912181742642"><ele>52.5</ele><time>2026-04-16T17:44:42Z</time></trkpt><trkpt lat="47.29175632823937" lon="-1.6391348093763358"><ele>53.33333333333333</ele><time>2026-04-16T17:44:43Z</time></trkpt><trkpt lat="47.29185167238795" lon="-1.6391066461816794"><ele>54.166666666666664</ele><time>2026-04-16T17:44:45Z</time></trkpt><trkpt lat="47.291930923282436" lon="-1.6390924807653195"><ele>55.0</ele><time>2026-04-16T17:44:47Z</time></trkpt><trkpt lat="47.29201281447642" lon="-1.639077309520579"><ele>55.0</ele><time>2026-04-16T17:44:49Z</time></trkpt><trkpt lat="47.29210057300263" lon="-1.639055181296206"><ele>55.0</ele><time>2026-04-16T17:44:51Z</time></trkpt><trkpt lat="47.292201868302456" lon="-1.6390267666444545"><ele>55.0</ele><time>2026-04-16T17:44:53Z</time></trkpt><trkpt lat="47.292303247421316" lon="-1.6390273533776765"><ele>55.0</ele><time>2026-04-16T17:44:55Z</time></trkpt><trkpt lat="47.292403620711795" lon="-1.639022491873837"><ele>55.0</ele><time>2026-04-16T17:44:57Z</time></trkpt><trkpt lat="47.292502862445346" lon="-1.6390469670310979"><ele>55.8</ele><time>2026-04-16T17:44:59Z</time></trkpt><trkpt lat="47.29260885161095" lon="-1.639071358369327"><ele>56.6</ele><time>2026-04-16T17:45:02Z</time></trkpt><trkpt lat="47.29271014691078" lon="-1.6391024552300937"><ele>57.400000000000006</ele><time>2026-04-16T17:45:04Z</time></trkpt><trkpt lat="47.29279107418591" lon="-1.6390724480167393"><ele>58.2</ele><time>2026-04-16T17:45:06Z</time></trkpt><trkpt lat="47.29290062566036" lon="-1.6390777286157376"><ele>59.0</ele><time>2026-04-16T17:45:08Z</time></trkpt><trkpt lat="47.29299337141895" lon="-1.639079069720245"><ele>59.0</ele><time>2026-04-16T17:45:10Z</time></trkpt><trkpt lat="47.29308930230075" lon="-1.6390909720227487"><ele>59.00000000000001</ele><time>2026-04-16T17:45:12Z</time></trkpt><trkpt lat="47.29318083268338" lon="-1.6390991862878568"><ele>59.00000000000001</ele><time>2026-04-16T17:45:14Z</time></trkpt><trkpt lat="47.29329784405166" lon="-1.639068424703217"><ele>59.0</ele><time>2026-04-16T17:45:16Z</time></trkpt><trkpt lat="47.29339637332344" lon="-1.63905342109654"><ele>59.0</ele><time>2026-04-16T17:45:18Z</time></trkpt><trkpt lat="47.29347834833646" lon="-1.6390457935646539"><ele>59.0</ele><time>2026-04-16T17:45:20Z</time></trkpt><trkpt lat="47.29357725479388" lon="-1.6390437819078927"><ele>59.00000000000001</ele><time>2026-04-16T17:45:22Z</time></trkpt><trkpt lat="47.293676580346464" lon="-1.6390381660327678"><ele>59.00000000000001</ele><time>2026-04-16T17:45:24Z</time></trkpt><trkpt lat="47.29377133776182" lon="-1.6390519961730008"><ele>59.0</ele><time>2026-04-16T17:45:26Z</time></trkpt><trkpt lat="47.29387464471841" lon="-1.639043698088861"><ele>59.0</ele><time>2026-04-16T17:45:28Z</time></trkpt><trkpt lat="47.293989812067984" lon="-1.6390058118865256"><ele>58.800000000000004</ele><time>2026-04-16T17:45:30Z</time></trkpt><trkpt lat="47.29410330303693" lon="-1.6389819234624867"><ele>58.60000000000001</ele><time>2026-04-16T17:45:32Z</time></trkpt><trkpt lat="47.294210884764134" lon="-1.638975637035108"><ele>58.4</ele><time>2026-04-16T17:45:34Z</time></trkpt><trkpt lat="47.29427810762757" lon="-1.638981839643455"><ele>58.2</ele><time>2026-04-16T17:45:35Z</time></trkpt><trkpt lat="47.294398639395176" lon="-1.6389670036748414"><ele>58.0</ele><time>2026-04-16T17:45:37Z</time></trkpt><trkpt lat="47.2945139324733" lon="-1.6389464680120711"><ele>58.0</ele><time>2026-04-16T17:45:39Z</time></trkpt><trkpt lat="47.294623777314364" lon="-1.6389406844988827"><ele>58.0</ele><time>2026-04-16T17:45:41Z</time></trkpt><trkpt lat="47.29476153389299" lon="-1.6389276087299351"><ele>58.0</ele><time>2026-04-16T17:45:43Z</time></trkpt><trkpt lat="47.29483257052237" lon="-1.6389156226083998"><ele>58.0</ele><time>2026-04-16T17:45:44Z</time></trkpt><trkpt lat="47.29490247559482" lon="-1.6389001160875325"><ele>58.0</ele><time>2026-04-16T17:45:45Z</time></trkpt><trkpt lat="47.29502061852002" lon="-1.6388818435386185"><ele>57.99999999999999</ele><time>2026-04-16T17:45:47Z</time></trkpt><trkpt lat="47.29512040507728" lon="-1.638883771376348"><ele>58.0</ele><time>2026-04-16T17:45:49Z</time></trkpt><trkpt lat="47.295185574374436" lon="-1.6388794127866988"><ele>58.0</ele><time>2026-04-16T17:45:51Z</time></trkpt><trkpt lat="47.29526453190231" lon="-1.6389115992948775"><ele>58.0</ele><time>2026-04-16T17:45:53Z</time></trkpt><trkpt lat="47.29531117719346" lon="-1.6390520799920325"><ele>57.99999999999999</ele><time>2026-04-16T17:45:56Z</time></trkpt><trkpt lat="47.29527509310031" lon="-1.6391722764835126"><ele>58.0</ele><time>2026-04-16T17:45:58Z</time></trkpt><trkpt lat="47.29524575643921" lon="-1.639312924818731"><ele>58.0</ele><time>2026-04-16T17:46:00Z</time></trkpt><trkpt lat="47.2952269809761" lon="-1.6394639667138824"><ele>58.0</ele><time>2026-04-16T17:46:02Z</time></trkpt><trkpt lat="47.29520321828061" lon="-1.6396257374450933"><ele>58.0</ele><time>2026-04-16T17:46:04Z</time></trkpt><trkpt lat="47.295191148340045" lon="-1.6397251468167078"><ele>58.0</ele><time>2026-04-16T17:46:05Z</time></trkpt><trkpt lat="47.295174971266924" lon="-1.6398846544340624"><ele>58.0</ele><time>2026-04-16T17:46:07Z</time></trkpt><trkpt lat="47.295173043429195" lon="-1.6400343552247063"><ele>58.166666666666664</ele><time>2026-04-16T17:46:09Z</time></trkpt><trkpt lat="47.295165541625856" lon="-1.6401829663679377"><ele>58.33333333333333</ele><time>2026-04-16T17:46:11Z</time></trkpt><trkpt lat="47.29515686635607" lon="-1.640317831189968"><ele>58.5</ele><time>2026-04-16T17:46:13Z</time></trkpt><trkpt lat="47.29514697571033" lon="-1.6404381115004796"><ele>58.66666666666667</ele><time>2026-04-16T17:46:15Z</time></trkpt><trkpt lat="47.29515946474606" lon="-1.6405635885909577"><ele>58.833333333333336</ele><time>2026-04-16T17:46:17Z</time></trkpt><trkpt lat="47.29515120857143" lon="-1.6406906582430383"><ele>59.0</ele><time>2026-04-16T17:46:19Z</time></trkpt><trkpt lat="47.29515699208462" lon="-1.640830384568908"><ele>59.2</ele><time>2026-04-16T17:46:21Z</time></trkpt><trkpt lat="47.295152088671266" lon="-1.640962651000955"><ele>59.400000000000006</ele><time>2026-04-16T17:46:23Z</time></trkpt><trkpt lat="47.295132684565424" lon="-1.6411043051645542"><ele>59.6</ele><time>2026-04-16T17:46:25Z</time></trkpt><trkpt lat="47.29512430266225" lon="-1.6412559337929276"><ele>59.8</ele><time>2026-04-16T17:46:27Z</time></trkpt><trkpt lat="47.2951193992489" lon="-1.6413975041374949"><ele>60.0</ele><time>2026-04-16T17:46:29Z</time></trkpt><trkpt lat="47.29512241673404" lon="-1.6415301058456688"><ele>60.4</ele><time>2026-04-16T17:46:31Z</time></trkpt><trkpt lat="47.295124176933705" lon="-1.6416821535692006"><ele>60.8</ele><time>2026-04-16T17:46:33Z</time></trkpt><trkpt lat="47.29511286136442" lon="-1.6418383084252866"><ele>61.2</ele><time>2026-04-16T17:46:35Z</time></trkpt><trkpt lat="47.29512480557644" lon="-1.6419885959491525"><ele>61.6</ele><time>2026-04-16T17:46:37Z</time></trkpt><trkpt lat="47.29514073119247" lon="-1.6421217005715165"><ele>62.0</ele><time>2026-04-16T17:46:39Z</time></trkpt><trkpt lat="47.29513063099915" lon="-1.6422586608693397"><ele>62.0</ele><time>2026-04-16T17:46:41Z</time></trkpt><trkpt lat="47.29510426991367" lon="-1.6424009855851924"><ele>62.0</ele><time>2026-04-16T17:46:43Z</time></trkpt><trkpt lat="47.29509115223521" lon="-1.6425458248719969"><ele>62.0</ele><time>2026-04-16T17:46:45Z</time></trkpt><trkpt lat="47.29507099375808" lon="-1.6427044942990343"><ele>62.0</ele><time>2026-04-16T17:46:47Z</time></trkpt><trkpt lat="47.295037759512006" lon="-1.6428492497668068"><ele>62.0</ele><time>2026-04-16T17:46:49Z</time></trkpt><trkpt lat="47.294985665983795" lon="-1.6430030576900048"><ele>62.0</ele><time>2026-04-16T17:46:51Z</time></trkpt><trkpt lat="47.29495259937578" lon="-1.6431607212886616"><ele>62.0</ele><time>2026-04-16T17:46:53Z</time></trkpt><trkpt lat="47.29493340481752" lon="-1.6432846896365687"><ele>62.0</ele><time>2026-04-16T17:46:55Z</time></trkpt><trkpt lat="47.2948773298853" lon="-1.6434210632011699"><ele>62.0</ele><time>2026-04-16T17:46:57Z</time></trkpt><trkpt lat="47.29483164851302" lon="-1.6435504797861384"><ele>62.0</ele><time>2026-04-16T17:46:59Z</time></trkpt><trkpt lat="47.29479405567729" lon="-1.6436312813327123"><ele>63.0</ele><time>2026-04-16T17:47:00Z</time></trkpt><trkpt lat="47.29474393189633" lon="-1.6437548305854608"><ele>64.0</ele><time>2026-04-16T17:47:02Z</time></trkpt><trkpt lat="47.294698837257265" lon="-1.6438704170301965"><ele>65.0</ele><time>2026-04-16T17:47:04Z</time></trkpt><trkpt lat="47.29462381922388" lon="-1.6439799685046486"><ele>66.0</ele><time>2026-04-16T17:47:06Z</time></trkpt><trkpt lat="47.29458610065961" lon="-1.644110642375093"><ele>67.0</ele><time>2026-04-16T17:47:08Z</time></trkpt><trkpt lat="47.29454205375844" lon="-1.6442310065046364"><ele>67.0</ele><time>2026-04-16T17:47:10Z</time></trkpt><trkpt lat="47.29451971598649" lon="-1.6443478502348479"><ele>67.0</ele><time>2026-04-16T17:47:12Z</time></trkpt><trkpt lat="47.29446787391537" lon="-1.6444861516371783"><ele>67.0</ele><time>2026-04-16T17:47:14Z</time></trkpt><trkpt lat="47.29442998771304" lon="-1.644607353957039"><ele>67.0</ele><time>2026-04-16T17:47:16Z</time></trkpt><trkpt lat="47.294392897791504" lon="-1.6447391174748955"><ele>67.0</ele><time>2026-04-16T17:47:18Z</time></trkpt><trkpt lat="47.29436984755778" lon="-1.6448952723309815"><ele>66.8</ele><time>2026-04-16T17:47:20Z</time></trkpt><trkpt lat="47.29433497884059" lon="-1.6450216714308084"><ele>66.6</ele><time>2026-04-16T17:47:22Z</time></trkpt><trkpt lat="47.29431662247264" lon="-1.6451453045025888"><ele>66.39999999999999</ele><time>2026-04-16T17:47:24Z</time></trkpt><trkpt lat="47.29427617978984" lon="-1.6452764812872236"><ele>66.2</ele><time>2026-04-16T17:47:26Z</time></trkpt><trkpt lat="47.29425727859819" lon="-1.6454195603743618"><ele>66.0</ele><time>2026-04-16T17:47:28Z</time></trkpt><trkpt lat="47.29422467299485" lon="-1.6455684229746885"><ele>66.0</ele><time>2026-04-16T17:47:30Z</time></trkpt><trkpt lat="47.29420493361288" lon="-1.6456976719215937"><ele>66.0</ele><time>2026-04-16T17:47:32Z</time></trkpt><trkpt lat="47.29417903353208" lon="-1.645839577542288"><ele>66.0</ele><time>2026-04-16T17:47:34Z</time></trkpt><trkpt lat="47.294158665507375" lon="-1.6459684073940346"><ele>66.0</ele><time>2026-04-16T17:47:36Z</time></trkpt><trkpt lat="47.29411700744861" lon="-1.6461208742127251"><ele>66.0</ele><time>2026-04-16T17:47:38Z</time></trkpt><trkpt lat="47.2940630699017" lon="-1.646285327152951"><ele>66.39999999999999</ele><time>2026-04-16T17:47:40Z</time></trkpt><trkpt lat="47.29403616399252" lon="-1.6464459244177176"><ele>66.8</ele><time>2026-04-16T17:47:42Z</time></trkpt><trkpt lat="47.29402250149035" lon="-1.6466001514360742"><ele>67.19999999999999</ele><time>2026-04-16T17:47:44Z</time></trkpt><trkpt lat="47.294008713259636" lon="-1.646747840569957"><ele>67.6</ele><time>2026-04-16T17:47:46Z</time></trkpt><trkpt lat="47.293978873684345" lon="-1.646920675413354"><ele>68.0</ele><time>2026-04-16T17:47:48Z</time></trkpt><trkpt lat="47.293963283344446" lon="-1.6470142174527487"><ele>68.2</ele><time>2026-04-16T17:47:49Z</time></trkpt><trkpt lat="47.29394421451473" lon="-1.6471872199342095"><ele>68.4</ele><time>2026-04-16T17:47:51Z</time></trkpt><trkpt lat="47.29391579986298" lon="-1.6472847852871262"><ele>68.60000000000001</ele><time>2026-04-16T17:47:52Z</time></trkpt><trkpt lat="47.293869406028925" lon="-1.6474672593191708"><ele>68.8</ele><time>2026-04-16T17:47:54Z</time></trkpt><trkpt lat="47.2938481998139" lon="-1.6475604660824383"><ele>69.0</ele><time>2026-04-16T17:47:55Z</time></trkpt><trkpt lat="47.29383939881557" lon="-1.6477068979308453"><ele>68.8</ele><time>2026-04-16T17:47:57Z</time></trkpt><trkpt lat="47.293822760737775" lon="-1.6478006076083032"><ele>68.60000000000001</ele><time>2026-04-16T17:47:58Z</time></trkpt><trkpt lat="47.29380746376449" lon="-1.6478964127615539"><ele>68.4</ele><time>2026-04-16T17:47:59Z</time></trkpt><trkpt lat="47.2938265325942" lon="-1.6480376478299945"><ele>68.2</ele><time>2026-04-16T17:48:01Z</time></trkpt><trkpt lat="47.2938059131124" lon="-1.64821282960628"><ele>68.0</ele><time>2026-04-16T17:48:03Z</time></trkpt><trkpt lat="47.29378659282559" lon="-1.648389603944168"><ele>68.0</ele><time>2026-04-16T17:48:05Z</time></trkpt><trkpt lat="47.2937652189725" lon="-1.6485596727595184"><ele>68.0</ele><time>2026-04-16T17:48:07Z</time></trkpt><trkpt lat="47.293744054666995" lon="-1.6487071942553377"><ele>68.0</ele><time>2026-04-16T17:48:09Z</time></trkpt><trkpt lat="47.29372611739421" lon="-1.6488842200503209"><ele>68.0</ele><time>2026-04-16T17:48:11Z</time></trkpt><trkpt lat="47.29370051068002" lon="-1.649060323835955"><ele>68.0</ele><time>2026-04-16T17:48:13Z</time></trkpt><trkpt lat="47.29369141631508" lon="-1.6492168977871995"><ele>68.0</ele><time>2026-04-16T17:48:15Z</time></trkpt><trkpt lat="47.29367276658052" lon="-1.649359641598211"><ele>68.0</ele><time>2026-04-16T17:48:17Z</time></trkpt><trkpt lat="47.29365072217518" lon="-1.649528704585181"><ele>68.0</ele><time>2026-04-16T17:48:19Z</time></trkpt><trkpt lat="47.29363420982593" lon="-1.6496260184810028"><ele>68.0</ele><time>2026-04-16T17:48:20Z</time></trkpt><trkpt lat="47.293617571748136" lon="-1.6497844364509449"><ele>68.0</ele><time>2026-04-16T17:48:22Z</time></trkpt><trkpt lat="47.293585804335116" lon="-1.649949392305361"><ele>68.0</ele><time>2026-04-16T17:48:24Z</time></trkpt><trkpt lat="47.293554539836286" lon="-1.6501221433297266"><ele>68.0</ele><time>2026-04-16T17:48:26Z</time></trkpt><trkpt lat="47.29352872357452" lon="-1.6502855066225401"><ele>68.0</ele><time>2026-04-16T17:48:28Z</time></trkpt><trkpt lat="47.2934898315438" lon="-1.6504532285050026"><ele>67.83333333333334</ele><time>2026-04-16T17:48:30Z</time></trkpt><trkpt lat="47.29346225508237" lon="-1.650611311198818"><ele>67.66666666666667</ele><time>2026-04-16T17:48:32Z</time></trkpt><trkpt lat="47.29341514878654" lon="-1.6507600061610814"><ele>67.5</ele><time>2026-04-16T17:48:34Z</time></trkpt><trkpt lat="47.293384680568515" lon="-1.6508415620789405"><ele>67.33333333333333</ele><time>2026-04-16T17:48:35Z</time></trkpt><trkpt lat="47.293352913155495" lon="-1.6509411390886184"><ele>67.16666666666666</ele><time>2026-04-16T17:48:36Z</time></trkpt><trkpt lat="47.293333089954494" lon="-1.6510429792121528"><ele>67.0</ele><time>2026-04-16T17:48:37Z</time></trkpt><trkpt lat="47.29330928534949" lon="-1.6511312406525491"><ele>67.0</ele><time>2026-04-16T17:48:38Z</time></trkpt><trkpt lat="47.293255138255" lon="-1.6512742359206558"><ele>67.0</ele><time>2026-04-16T17:48:40Z</time></trkpt><trkpt lat="47.293204092464684" lon="-1.651430558414805"><ele>67.0</ele><time>2026-04-16T17:48:42Z</time></trkpt><trkpt lat="47.29314244356686" lon="-1.6515715420261505"><ele>67.0</ele><time>2026-04-16T17:48:44Z</time></trkpt><trkpt lat="47.29309164923364" lon="-1.651734067128647"><ele>66.8</ele><time>2026-04-16T17:48:46Z</time></trkpt><trkpt lat="47.29308381215417" lon="-1.6518941614792233"><ele>66.6</ele><time>2026-04-16T17:48:48Z</time></trkpt><trkpt lat="47.29304152545267" lon="-1.652055680753339"><ele>66.39999999999999</ele><time>2026-04-16T17:48:50Z</time></trkpt><trkpt lat="47.29302300144666" lon="-1.6521444451079257"><ele>66.2</ele><time>2026-04-16T17:48:51Z</time></trkpt><trkpt lat="47.292973296760856" lon="-1.6523123346284518"><ele>66.0</ele><time>2026-04-16T17:48:53Z</time></trkpt><trkpt lat="47.292945594570874" lon="-1.6524078883246074"><ele>66.0</ele><time>2026-04-16T17:48:54Z</time></trkpt><trkpt lat="47.29291793429041" lon="-1.652495814488877"><ele>66.0</ele><time>2026-04-16T17:48:55Z</time></trkpt><trkpt lat="47.29289190848106" lon="-1.6525875125095737"><ele>66.0</ele><time>2026-04-16T17:48:56Z</time></trkpt><trkpt lat="47.292856662578224" lon="-1.6526803001776829"><ele>66.0</ele><time>2026-04-16T17:48:57Z</time></trkpt><trkpt lat="47.292834785810946" lon="-1.6527710761890306"><ele>66.0</ele><time>2026-04-16T17:48:58Z</time></trkpt><trkpt lat="47.292801300107776" lon="-1.6528698150083914"><ele>66.0</ele><time>2026-04-16T17:48:59Z</time></trkpt><trkpt lat="47.29274979331279" lon="-1.6530411411092178"><ele>66.14285714285714</ele><time>2026-04-16T17:49:01Z</time></trkpt><trkpt lat="47.292711404196254" lon="-1.6531566437349219"><ele>66.28571428571429</ele><time>2026-04-16T17:49:02Z</time></trkpt><trkpt lat="47.29268068452113" lon="-1.6532569751158852"><ele>66.42857142857143</ele><time>2026-04-16T17:49:03Z</time></trkpt><trkpt lat="47.29265499398791" lon="-1.653353367002358"><ele>66.57142857142857</ele><time>2026-04-16T17:49:04Z</time></trkpt><trkpt lat="47.2926227236607" lon="-1.653455039487829"><ele>66.71428571428571</ele><time>2026-04-16T17:49:05Z</time></trkpt><trkpt lat="47.2925854661011" lon="-1.653544809670796"><ele>66.85714285714286</ele><time>2026-04-16T17:49:06Z</time></trkpt><trkpt lat="47.29255101647907" lon="-1.6536336578444146"><ele>67.0</ele><time>2026-04-16T17:49:07Z</time></trkpt><trkpt lat="47.29250411973082" lon="-1.653718063609352"><ele>67.0</ele><time>2026-04-16T17:49:08Z</time></trkpt><trkpt lat="47.29246510197156" lon="-1.6537980269656085"><ele>67.0</ele><time>2026-04-16T17:49:09Z</time></trkpt><trkpt lat="47.292392891875735" lon="-1.6539336461589242"><ele>67.0</ele><time>2026-04-16T17:49:11Z</time></trkpt><trkpt lat="47.29232311253183" lon="-1.653991146014681"><ele>67.0</ele><time>2026-04-16T17:49:12Z</time></trkpt><trkpt lat="47.29227143809878" lon="-1.6540690977141763"><ele>67.0</ele><time>2026-04-16T17:49:13Z</time></trkpt><trkpt lat="47.292224834717146" lon="-1.654141433538547"><ele>67.0</ele><time>2026-04-16T17:49:14Z</time></trkpt><trkpt lat="47.292119935198954" lon="-1.6542690899238495"><ele>67.0</ele><time>2026-04-16T17:49:16Z</time></trkpt><trkpt lat="47.29206645865672" lon="-1.6543309483692554"><ele>67.0</ele><time>2026-04-16T17:49:17Z</time></trkpt><trkpt lat="47.29196541481399" lon="-1.6544672381148249"><ele>67.0</ele><time>2026-04-16T17:49:19Z</time></trkpt><trkpt lat="47.29190535847776" lon="-1.6545342933401972"><ele>67.0</ele><time>2026-04-16T17:49:20Z</time></trkpt><trkpt lat="47.291851001835695" lon="-1.6545990016326817"><ele>67.0</ele><time>2026-04-16T17:49:21Z</time></trkpt><trkpt lat="47.29174400684171" lon="-1.6547026857749136"><ele>67.0</ele><time>2026-04-16T17:49:23Z</time></trkpt><trkpt lat="47.2916435497322" lon="-1.6548184398577128"><ele>67.0</ele><time>2026-04-16T17:49:25Z</time></trkpt><trkpt lat="47.29159405459397" lon="-1.654889937491766"><ele>67.0</ele><time>2026-04-16T17:49:26Z</time></trkpt><trkpt lat="47.291539991318515" lon="-1.6549616865829144"><ele>67.0</ele><time>2026-04-16T17:49:27Z</time></trkpt><trkpt lat="47.29148638904773" lon="-1.6550191026196395"><ele>67.0</ele><time>2026-04-16T17:49:28Z</time></trkpt><trkpt lat="47.29143479843371" lon="-1.6550760995612062"><ele>67.0</ele><time>2026-04-16T17:49:29Z</time></trkpt><trkpt lat="47.29133823890918" lon="-1.6551714018002666"><ele>67.0</ele><time>2026-04-16T17:49:31Z</time></trkpt><trkpt lat="47.2912360216" lon="-1.6552735771999276"><ele>67.0</ele><time>2026-04-16T17:49:33Z</time></trkpt><trkpt lat="47.291182964152924" lon="-1.65533476509308"><ele>67.0</ele><time>2026-04-16T17:49:34Z</time></trkpt><trkpt lat="47.29108808100902" lon="-1.6554548777655282"><ele>67.0</ele><time>2026-04-16T17:49:36Z</time></trkpt><trkpt lat="47.29098875545644" lon="-1.6555605735645216"><ele>67.0</ele><time>2026-04-16T17:49:38Z</time></trkpt><trkpt lat="47.2909339378097" lon="-1.655665850268356"><ele>67.2</ele><time>2026-04-16T17:49:40Z</time></trkpt><trkpt lat="47.290823087140254" lon="-1.655761571602575"><ele>67.4</ele><time>2026-04-16T17:49:42Z</time></trkpt><trkpt lat="47.29072656952523" lon="-1.655873302371852"><ele>67.6</ele><time>2026-04-16T17:49:44Z</time></trkpt><trkpt lat="47.290674559816054" lon="-1.6559328977034016"><ele>67.8</ele><time>2026-04-16T17:49:45Z</time></trkpt><trkpt lat="47.29062879462474" lon="-1.6560059878990576"><ele>68.0</ele><time>2026-04-16T17:49:46Z</time></trkpt><trkpt lat="47.29053416293793" lon="-1.656106319280021"><ele>68.2</ele><time>2026-04-16T17:49:48Z</time></trkpt><trkpt lat="47.290440537079505" lon="-1.6561962571010516"><ele>68.4</ele><time>2026-04-16T17:49:50Z</time></trkpt><trkpt lat="47.29034632448786" lon="-1.6563071496800112"><ele>68.60000000000001</ele><time>2026-04-16T17:49:52Z</time></trkpt><trkpt lat="47.29029104583644" lon="-1.6563659906402755"><ele>68.8</ele><time>2026-04-16T17:49:53Z</time></trkpt><trkpt lat="47.29018270973795" lon="-1.6564660705641436"><ele>69.0</ele><time>2026-04-16T17:49:55Z</time></trkpt><trkpt lat="47.2901291912862" lon="-1.6565194632873466"><ele>69.0</ele><time>2026-04-16T17:49:56Z</time></trkpt><trkpt lat="47.29006905113094" lon="-1.6565713472679784"><ele>69.0</ele><time>2026-04-16T17:49:57Z</time></trkpt><trkpt lat="47.29000727650457" lon="-1.6566197946683099"><ele>69.0</ele><time>2026-04-16T17:49:58Z</time></trkpt><trkpt lat="47.289909962608746" lon="-1.6566976625487735"><ele>69.0</ele><time>2026-04-16T17:50:00Z</time></trkpt><trkpt lat="47.289814367003075" lon="-1.6567890252933435"><ele>69.0</ele><time>2026-04-16T17:50:02Z</time></trkpt><trkpt lat="47.289743749468855" lon="-1.6568352933988504"><ele>69.0</ele><time>2026-04-16T17:50:04Z</time></trkpt><trkpt lat="47.28970100176268" lon="-1.656913161279314"><ele>68.8</ele><time>2026-04-16T17:50:07Z</time></trkpt><trkpt lat="47.289620409763685" lon="-1.6569439228639535"><ele>68.60000000000001</ele><time>2026-04-16T17:50:10Z</time></trkpt><trkpt lat="47.289551929614774" lon="-1.6568721737728052"><ele>68.4</ele><time>2026-04-16T17:50:12Z</time></trkpt><trkpt lat="47.289465009278885" lon="-1.6567979101107053"><ele>68.2</ele><time>2026-04-16T17:50:14Z</time></trkpt><trkpt lat="47.2893759934672" lon="-1.6567292623237304"><ele>68.0</ele><time>2026-04-16T17:50:16Z</time></trkpt><trkpt lat="47.28927256078207" lon="-1.6566580999658038"><ele>68.0</ele><time>2026-04-16T17:50:18Z</time></trkpt><trkpt lat="47.289159866093925" lon="-1.6565990913674762"><ele>68.0</ele><time>2026-04-16T17:50:20Z</time></trkpt><trkpt lat="47.289052535823814" lon="-1.656512841583841"><ele>68.0</ele><time>2026-04-16T17:50:22Z</time></trkpt><trkpt lat="47.288945289372734" lon="-1.6564177069828439"><ele>68.0</ele><time>2026-04-16T17:50:24Z</time></trkpt><trkpt lat="47.28883079257541" lon="-1.6563322953895259"><ele>68.0</ele><time>2026-04-16T17:50:26Z</time></trkpt><trkpt lat="47.288709632165066" lon="-1.6562913917020488"><ele>68.0</ele><time>2026-04-16T17:50:28Z</time></trkpt><trkpt lat="47.28860833686524" lon="-1.656244201587193"><ele>68.0</ele><time>2026-04-16T17:50:30Z</time></trkpt><trkpt lat="47.28850896940314" lon="-1.6561626456693337"><ele>68.0</ele><time>2026-04-16T17:50:32Z</time></trkpt><trkpt lat="47.28845431939446" lon="-1.6561132762596533"><ele>68.0</ele><time>2026-04-16T17:50:33Z</time></trkpt><trkpt lat="47.288363124287955" lon="-1.656020572410576"><ele>68.0</ele><time>2026-04-16T17:50:35Z</time></trkpt><trkpt lat="47.288268911696306" lon="-1.6559360828266068"><ele>68.0</ele><time>2026-04-16T17:50:37Z</time></trkpt><trkpt lat="47.28814951148563" lon="-1.655839104206912"><ele>68.0</ele><time>2026-04-16T17:50:39Z</time></trkpt><trkpt lat="47.28809456811034" lon="-1.655789315702073"><ele>68.0</ele><time>2026-04-16T17:50:40Z</time></trkpt><trkpt lat="47.287999307780794" lon="-1.655736006797902"><ele>68.0</ele><time>2026-04-16T17:50:42Z</time></trkpt><trkpt lat="47.28790346071803" lon="-1.6556448116913955"><ele>68.0</ele><time>2026-04-16T17:50:44Z</time></trkpt><trkpt lat="47.28780820038848" lon="-1.6555380262449901"><ele>68.0</ele><time>2026-04-16T17:50:46Z</time></trkpt><trkpt lat="47.28769994810902" lon="-1.6554573923364797"><ele>68.0</ele><time>2026-04-16T17:50:48Z</time></trkpt><trkpt lat="47.28759404276245" lon="-1.6554077714697042"><ele>68.0</ele><time>2026-04-16T17:50:50Z</time></trkpt><trkpt lat="47.28749123872005" lon="-1.6552848927692092"><ele>68.0</ele><time>2026-04-16T17:50:52Z</time></trkpt><trkpt lat="47.287390739701024" lon="-1.6551930271104491"><ele>68.0</ele><time>2026-04-16T17:50:54Z</time></trkpt><trkpt lat="47.287339442453614" lon="-1.6550709866002715"><ele>68.0</ele><time>2026-04-16T17:50:55Z</time></trkpt><trkpt lat="47.28723890152507" lon="-1.6550241317615424"><ele>68.0</ele><time>2026-04-16T17:50:57Z</time></trkpt><trkpt lat="47.28718123403125" lon="-1.654967973010293"><ele>68.0</ele><time>2026-04-16T17:50:58Z</time></trkpt><trkpt lat="47.2871261230179" lon="-1.6549183521435176"><ele>68.0</ele><time>2026-04-16T17:50:59Z</time></trkpt><trkpt lat="47.287070425271324" lon="-1.6548713296667252"><ele>68.0</ele><time>2026-04-16T17:51:00Z</time></trkpt><trkpt lat="47.28696636394345" lon="-1.6547885164633902"><ele>68.0</ele><time>2026-04-16T17:51:02Z</time></trkpt><trkpt lat="47.28686364372008" lon="-1.6547068767264994"><ele>68.0</ele><time>2026-04-16T17:51:04Z</time></trkpt><trkpt lat="47.28675907947802" lon="-1.6546088084593924"><ele>68.0</ele><time>2026-04-16T17:51:06Z</time></trkpt><trkpt lat="47.286644163585535" lon="-1.6544859297588974"><ele>68.0</ele><time>2026-04-16T17:51:08Z</time></trkpt><trkpt lat="47.28658934593879" lon="-1.6544249933228403"><ele>68.0</ele><time>2026-04-16T17:51:09Z</time></trkpt><trkpt lat="47.28653289382093" lon="-1.6543736960754305"><ele>68.0</ele><time>2026-04-16T17:51:10Z</time></trkpt><trkpt lat="47.286486541896394" lon="-1.6543007735178379"><ele>68.0</ele><time>2026-04-16T17:51:11Z</time></trkpt><trkpt lat="47.28643013168805" lon="-1.6542498953655866"><ele>68.0</ele><time>2026-04-16T17:51:12Z</time></trkpt><trkpt lat="47.28632472925567" lon="-1.6541462112233547"><ele>68.0</ele><time>2026-04-16T17:51:14Z</time></trkpt><trkpt lat="47.28622930128806" lon="-1.6540245898083354"><ele>68.0</ele><time>2026-04-16T17:51:16Z</time></trkpt><trkpt lat="47.28612356357955" lon="-1.653941357509842"><ele>68.0</ele><time>2026-04-16T17:51:18Z</time></trkpt><trkpt lat="47.28607570291244" lon="-1.6538685187712814"><ele>68.0</ele><time>2026-04-16T17:51:19Z</time></trkpt><trkpt lat="47.286022058732144" lon="-1.653806995602002"><ele>68.0</ele><time>2026-04-16T17:51:20Z</time></trkpt><trkpt lat="47.28596946228974" lon="-1.6537459753469133"><ele>68.0</ele><time>2026-04-16T17:51:21Z</time></trkpt><trkpt lat="47.28589008566671" lon="-1.6536260303125285"><ele>68.0</ele><time>2026-04-16T17:51:23Z</time></trkpt><trkpt lat="47.28578841318124" lon="-1.6535129584387442"><ele>68.0</ele><time>2026-04-16T17:51:25Z</time></trkpt><trkpt lat="47.28568213064902" lon="-1.6534410417095324"><ele>68.0</ele><time>2026-04-16T17:51:27Z</time></trkpt><trkpt lat="47.28562152948909" lon="-1.6533915884808204"><ele>68.0</ele><time>2026-04-16T17:51:28Z</time></trkpt><trkpt lat="47.28557035797023" lon="-1.6533361841008563"><ele>68.0</ele><time>2026-04-16T17:51:29Z</time></trkpt><trkpt lat="47.28550036907875" lon="-1.653238451109876"><ele>68.0</ele><time>2026-04-16T17:51:30Z</time></trkpt><trkpt lat="47.2854431625896" lon="-1.6531561408207316"><ele>68.0</ele><time>2026-04-16T17:51:31Z</time></trkpt><trkpt lat="47.28538847067141" lon="-1.653084978462805"><ele>68.0</ele><time>2026-04-16T17:51:32Z</time></trkpt><trkpt lat="47.285268483727506" lon="-1.6530033387259142"><ele>68.0</ele><time>2026-04-16T17:51:34Z</time></trkpt><trkpt lat="47.285212744071416" lon="-1.6529164183900253"><ele>68.0</ele><time>2026-04-16T17:51:35Z</time></trkpt><trkpt lat="47.285161363004974" lon="-1.6528568230584755"><ele>68.0</ele><time>2026-04-16T17:51:36Z</time></trkpt><trkpt lat="47.285118154294125" lon="-1.6527273226544752"><ele>68.0</ele><time>2026-04-16T17:51:37Z</time></trkpt><trkpt lat="47.28503647264771" lon="-1.6525728441790235"><ele>67.99999999999999</ele><time>2026-04-16T17:51:39Z</time></trkpt><trkpt lat="47.284988360523506" lon="-1.652492294089545"><ele>68.0</ele><time>2026-04-16T17:51:40Z</time></trkpt><trkpt lat="47.28494045794688" lon="-1.6524318605676782"><ele>68.0</ele><time>2026-04-16T17:51:41Z</time></trkpt><trkpt lat="47.284883754371926" lon="-1.6523677390084157"><ele>68.0</ele><time>2026-04-16T17:51:42Z</time></trkpt><trkpt lat="47.284829230091795" lon="-1.6523140948281179"><ele>68.0</ele><time>2026-04-16T17:51:43Z</time></trkpt><trkpt lat="47.28477302943103" lon="-1.6522487159833799"><ele>67.99999999999999</ele><time>2026-04-16T17:51:44Z</time></trkpt><trkpt lat="47.2847243305736" lon="-1.6521807387486585"><ele>68.0</ele><time>2026-04-16T17:51:45Z</time></trkpt><trkpt lat="47.2846759669923" lon="-1.6521091572955735"><ele>67.83333333333334</ele><time>2026-04-16T17:51:46Z</time></trkpt><trkpt lat="47.28462663949214" lon="-1.6520434431747086"><ele>67.66666666666667</ele><time>2026-04-16T17:51:47Z</time></trkpt><trkpt lat="47.28456670888446" lon="-1.6519760526732095"><ele>67.5</ele><time>2026-04-16T17:51:48Z</time></trkpt><trkpt lat="47.2844748432257" lon="-1.6519524995252974"><ele>67.33333333333333</ele><time>2026-04-16T17:51:50Z</time></trkpt><trkpt lat="47.28442601863973" lon="-1.6518737934545165"><ele>67.16666666666666</ele><time>2026-04-16T17:51:51Z</time></trkpt><trkpt lat="47.28437094953589" lon="-1.6517927404508477"><ele>67.0</ele><time>2026-04-16T17:51:52Z</time></trkpt><trkpt lat="47.28432442997329" lon="-1.6517245117590313"><ele>66.75</ele><time>2026-04-16T17:51:53Z</time></trkpt><trkpt lat="47.284244550436064" lon="-1.651587886737335"><ele>66.5</ele><time>2026-04-16T17:51:55Z</time></trkpt><trkpt lat="47.284171292602345" lon="-1.6514905728415135"><ele>66.25</ele><time>2026-04-16T17:51:57Z</time></trkpt><trkpt lat="47.28408504281871" lon="-1.6513396985844255"><ele>66.0</ele><time>2026-04-16T17:51:59Z</time></trkpt><trkpt lat="47.28399598509751" lon="-1.6511812806144832"><ele>66.0</ele><time>2026-04-16T17:52:01Z</time></trkpt><trkpt lat="47.28395353075795" lon="-1.651105089114654"><ele>66.0</ele><time>2026-04-16T17:52:02Z</time></trkpt><trkpt lat="47.283915728374645" lon="-1.6510091163233398"><ele>66.0</ele><time>2026-04-16T17:52:03Z</time></trkpt><trkpt lat="47.28387557905845" lon="-1.65093242190932"><ele>66.0</ele><time>2026-04-16T17:52:04Z</time></trkpt><trkpt lat="47.283825371458455" lon="-1.6508504468963023"><ele>66.0</ele><time>2026-04-16T17:52:05Z</time></trkpt><trkpt lat="47.283783587671145" lon="-1.6507755126819488"><ele>66.0</ele><time>2026-04-16T17:52:06Z</time></trkpt><trkpt lat="47.28374456991188" lon="-1.650694124402153"><ele>66.0</ele><time>2026-04-16T17:52:07Z</time></trkpt><trkpt lat="47.28371058129452" lon="-1.6506102215514058"><ele>66.0</ele><time>2026-04-16T17:52:08Z</time></trkpt><trkpt lat="47.28364541199736" lon="-1.6504495404676072"><ele>66.0</ele><time>2026-04-16T17:52:10Z</time></trkpt><trkpt lat="47.283605220771655" lon="-1.650370080025541"><ele>66.0</ele><time>2026-04-16T17:52:11Z</time></trkpt><trkpt lat="47.28356632874094" lon="-1.6502927150592677"><ele>66.0</ele><time>2026-04-16T17:52:12Z</time></trkpt><trkpt lat="47.28353527378969" lon="-1.6502068843707909"><ele>66.0</ele><time>2026-04-16T17:52:13Z</time></trkpt><trkpt lat="47.2835035901957" lon="-1.650115270169126"><ele>66.0</ele><time>2026-04-16T17:52:14Z</time></trkpt><trkpt lat="47.28346901484512" lon="-1.6500064730659592"><ele>66.16666666666667</ele><time>2026-04-16T17:52:15Z</time></trkpt><trkpt lat="47.283431505828425" lon="-1.649904632942425"><ele>66.33333333333333</ele><time>2026-04-16T17:52:16Z</time></trkpt><trkpt lat="47.28334810589187" lon="-1.6497970931247339"><ele>66.5</ele><time>2026-04-16T17:52:18Z</time></trkpt><trkpt lat="47.28331135124646" lon="-1.649713441731082"><ele>66.66666666666666</ele><time>2026-04-16T17:52:19Z</time></trkpt><trkpt lat="47.28327547670089" lon="-1.6496170498446092"><ele>66.83333333333333</ele><time>2026-04-16T17:52:20Z</time></trkpt><trkpt lat="47.28324186526917" lon="-1.649525435642944"><ele>67.0</ele><time>2026-04-16T17:52:21Z</time></trkpt><trkpt lat="47.283176947429105" lon="-1.6493606474265916"><ele>67.0</ele><time>2026-04-16T17:52:23Z</time></trkpt><trkpt lat="47.28314559911124" lon="-1.649274732919083"><ele>67.0</ele><time>2026-04-16T17:52:24Z</time></trkpt><trkpt lat="47.28311182004146" lon="-1.6491888184115748"><ele>67.0</ele><time>2026-04-16T17:52:25Z</time></trkpt><trkpt lat="47.28308910508387" lon="-1.6490630898640015"><ele>67.0</ele><time>2026-04-16T17:52:26Z</time></trkpt><trkpt lat="47.2830529790812" lon="-1.648958986626611"><ele>67.0</ele><time>2026-04-16T17:52:27Z</time></trkpt><trkpt lat="47.28301723026417" lon="-1.6488630976543286"><ele>67.0</ele><time>2026-04-16T17:52:28Z</time></trkpt><trkpt lat="47.28299309038304" lon="-1.6487603355214453"><ele>67.0</ele><time>2026-04-16T17:52:29Z</time></trkpt><trkpt lat="47.2829139652171" lon="-1.648617591710434"><ele>67.0</ele><time>2026-04-16T17:52:31Z</time></trkpt><trkpt lat="47.28288387418471" lon="-1.648503514008269"><ele>67.0</ele><time>2026-04-16T17:52:32Z</time></trkpt><trkpt lat="47.28282654196702" lon="-1.6483324393645378"><ele>67.0</ele><time>2026-04-16T17:52:34Z</time></trkpt><trkpt lat="47.28278857194565" lon="-1.6482362989351602"><ele>67.0</ele><time>2026-04-16T17:52:35Z</time></trkpt><trkpt lat="47.282753116495236" lon="-1.6481431759909244"><ele>67.0</ele><time>2026-04-16T17:52:36Z</time></trkpt><trkpt lat="47.2827152302929" lon="-1.648047538475737"><ele>67.0</ele><time>2026-04-16T17:52:37Z</time></trkpt><trkpt lat="47.282677763185724" lon="-1.6479446925238221"><ele>67.0</ele><time>2026-04-16T17:52:38Z</time></trkpt><trkpt lat="47.28265626360409" lon="-1.6478494741037932"><ele>67.0</ele><time>2026-04-16T17:52:39Z</time></trkpt><trkpt lat="47.28262135297738" lon="-1.6477478016183225"><ele>67.0</ele><time>2026-04-16T17:52:40Z</time></trkpt><trkpt lat="47.28258317340843" lon="-1.6476387530580605"><ele>67.0</ele><time>2026-04-16T17:52:41Z</time></trkpt><trkpt lat="47.28251846511595" lon="-1.6474588774159993"><ele>67.0</ele><time>2026-04-16T17:52:43Z</time></trkpt><trkpt lat="47.282483386851176" lon="-1.6473635751769387"><ele>67.0</ele><time>2026-04-16T17:52:44Z</time></trkpt><trkpt lat="47.28244411763482" lon="-1.6472578793779455"><ele>67.0</ele><time>2026-04-16T17:52:45Z</time></trkpt><trkpt lat="47.28241109293632" lon="-1.6471559554353794"><ele>67.0</ele><time>2026-04-16T17:52:46Z</time></trkpt><trkpt lat="47.28238112763248" lon="-1.647046487779959"><ele>67.0</ele><time>2026-04-16T17:52:47Z</time></trkpt><trkpt lat="47.28234864775769" lon="-1.6469467431322178"><ele>67.0</ele><time>2026-04-16T17:52:48Z</time></trkpt><trkpt lat="47.28232878264718" lon="-1.6467974614367324"><ele>67.0</ele><time>2026-04-16T17:52:49Z</time></trkpt><trkpt lat="47.28229873352431" lon="-1.6466730739936666"><ele>67.0</ele><time>2026-04-16T17:52:50Z</time></trkpt><trkpt lat="47.282286705493256" lon="-1.646559247748597"><ele>67.0</ele><time>2026-04-16T17:52:51Z</time></trkpt><trkpt lat="47.28228209544651" lon="-1.646438464523895"><ele>67.0</ele><time>2026-04-16T17:52:52Z</time></trkpt><trkpt lat="47.28225925476037" lon="-1.6463331040010287"><ele>67.0</ele><time>2026-04-16T17:52:53Z</time></trkpt><trkpt lat="47.2822204884582" lon="-1.646140906961305"><ele>67.0</ele><time>2026-04-16T17:52:55Z</time></trkpt><trkpt lat="47.28220058143817" lon="-1.6460370551810097"><ele>67.0</ele><time>2026-04-16T17:52:56Z</time></trkpt><trkpt lat="47.282183105170056" lon="-1.645931778477175"><ele>67.0</ele><time>2026-04-16T17:52:57Z</time></trkpt><trkpt lat="47.282159132926985" lon="-1.6458345484003851"><ele>67.16666666666666</ele><time>2026-04-16T17:52:58.001Z</time></trkpt><trkpt lat="47.28214257866822" lon="-1.6457375697806902"><ele>67.33333333333333</ele><time>2026-04-16T17:52:59.001Z</time></trkpt><trkpt lat="47.28211286482148" lon="-1.6456383280471392"><ele>67.5</ele><time>2026-04-16T17:53:00.001Z</time></trkpt><trkpt lat="47.28209501136772" lon="-1.645515868441803"><ele>67.66666666666667</ele><time>2026-04-16T17:53:01.001Z</time></trkpt><trkpt lat="47.2820753977143" lon="-1.6454193089172666"><ele>67.83333333333334</ele><time>2026-04-16T17:53:02.001Z</time></trkpt><trkpt lat="47.282055532603785" lon="-1.6453242581353014"><ele>68.0</ele><time>2026-04-16T17:53:03.001Z</time></trkpt><trkpt lat="47.28197213266723" lon="-1.6452809236959045"><ele>68.0</ele><time>2026-04-16T17:53:05.001Z</time></trkpt><trkpt lat="47.28196785789661" lon="-1.645165253432137"><ele>68.0</ele><time>2026-04-16T17:53:06.001Z</time></trkpt><trkpt lat="47.28192121260546" lon="-1.6450060810909093"><ele>68.0</ele><time>2026-04-16T17:53:08.001Z</time></trkpt><trkpt lat="47.281854283108636" lon="-1.6448635887369931"><ele>68.0</ele><time>2026-04-16T17:53:10.001Z</time></trkpt><trkpt lat="47.281809565655216" lon="-1.6447300650194703"><ele>68.0</ele><time>2026-04-16T17:53:12.001Z</time></trkpt><trkpt lat="47.281758477955385" lon="-1.6445928532645522"><ele>67.8</ele><time>2026-04-16T17:53:14.001Z</time></trkpt><trkpt lat="47.28169611659579" lon="-1.644461508841854"><ele>67.6</ele><time>2026-04-16T17:53:16.001Z</time></trkpt><trkpt lat="47.28162839081816" lon="-1.6443299129620608"><ele>67.4</ele><time>2026-04-16T17:53:18.001Z</time></trkpt><trkpt lat="47.2815711424195" lon="-1.6441779490575605"><ele>67.2</ele><time>2026-04-16T17:53:20.001Z</time></trkpt><trkpt lat="47.28151477412067" lon="-1.6440421622261814"><ele>67.0</ele><time>2026-04-16T17:53:22.001Z</time></trkpt><trkpt lat="47.28143912744455" lon="-1.6439557448044828"><ele>67.4</ele><time>2026-04-16T17:53:24.001Z</time></trkpt><trkpt lat="47.28136448659681" lon="-1.6438369732365419"><ele>67.80000000000001</ele><time>2026-04-16T17:53:26.001Z</time></trkpt><trkpt lat="47.2813018318706" lon="-1.6437059640899707"><ele>68.2</ele><time>2026-04-16T17:53:28.001Z</time></trkpt><trkpt lat="47.28126851380549" lon="-1.6436203848585893"><ele>68.60000000000001</ele><time>2026-04-16T17:53:29.001Z</time></trkpt><trkpt lat="47.28118892763488" lon="-1.6434776410475778"><ele>69.0</ele><time>2026-04-16T17:53:31.001Z</time></trkpt><trkpt lat="47.28114923932336" lon="-1.643391307444911"><ele>69.2</ele><time>2026-04-16T17:53:32.001Z</time></trkpt><trkpt lat="47.281075646213516" lon="-1.6432842705414101"><ele>69.4</ele><time>2026-04-16T17:53:34.001Z</time></trkpt><trkpt lat="47.2810063697838" lon="-1.6431421972826525"><ele>69.6</ele><time>2026-04-16T17:53:36.001Z</time></trkpt><trkpt lat="47.28094216440551" lon="-1.643048906700353"><ele>69.8</ele><time>2026-04-16T17:53:38.001Z</time></trkpt><trkpt lat="47.280869660943075" lon="-1.6429142095163864"><ele>70.0</ele><time>2026-04-16T17:53:40.001Z</time></trkpt><trkpt lat="47.28077917829834" lon="-1.6428220085814993"><ele>70.0</ele><time>2026-04-16T17:53:42.001Z</time></trkpt><trkpt lat="47.28070340589367" lon="-1.642730478198866"><ele>70.0</ele><time>2026-04-16T17:53:44.001Z</time></trkpt><trkpt lat="47.28060877420686" lon="-1.6426174063250818"><ele>70.0</ele><time>2026-04-16T17:53:46.001Z</time></trkpt><trkpt lat="47.2805195488476" lon="-1.6425052564606466"><ele>70.0</ele><time>2026-04-16T17:53:48.001Z</time></trkpt><trkpt lat="47.280424288518056" lon="-1.64237106219087"><ele>69.75</ele><time>2026-04-16T17:53:50.001Z</time></trkpt><trkpt lat="47.28033330295913" lon="-1.6422581579551494"><ele>69.5</ele><time>2026-04-16T17:53:52.001Z</time></trkpt><trkpt lat="47.28025116030805" lon="-1.6421302501127515"><ele>69.25</ele><time>2026-04-16T17:53:54.001Z</time></trkpt><trkpt lat="47.2801543074169" lon="-1.6420336067691836"><ele>69.0</ele><time>2026-04-16T17:53:56.001Z</time></trkpt><trkpt lat="47.280061980753466" lon="-1.641923300923446"><ele>69.0</ele><time>2026-04-16T17:53:58.001Z</time></trkpt><trkpt lat="47.2799574165114" lon="-1.6418331116453202"><ele>69.0</ele><time>2026-04-16T17:54:00.001Z</time></trkpt><trkpt lat="47.279866305223926" lon="-1.6417535673842223"><ele>69.0</ele><time>2026-04-16T17:54:02.001Z</time></trkpt><trkpt lat="47.27982062385164" lon="-1.6416627075538426"><ele>69.0</ele><time>2026-04-16T17:54:03.001Z</time></trkpt><trkpt lat="47.27972859055482" lon="-1.6415558382884055"><ele>69.0</ele><time>2026-04-16T17:54:05.001Z</time></trkpt><trkpt lat="47.27967000105165" lon="-1.641497667880395"><ele>69.16666666666667</ele><time>2026-04-16T17:54:06.001Z</time></trkpt><trkpt lat="47.27961292029105" lon="-1.6414423473194626"><ele>69.33333333333333</ele><time>2026-04-16T17:54:07.001Z</time></trkpt><trkpt lat="47.2795604495772" lon="-1.6413894575104502"><ele>69.5</ele><time>2026-04-16T17:54:08.001Z</time></trkpt><trkpt lat="47.279502907811924" lon="-1.641324413941839"><ele>69.66666666666666</ele><time>2026-04-16T17:54:09.001Z</time></trkpt><trkpt lat="47.27944871880792" lon="-1.6412741225228098"><ele>69.83333333333333</ele><time>2026-04-16T17:54:10.001Z</time></trkpt><trkpt lat="47.279345160394236" lon="-1.6411931533381725"><ele>70.0</ele><time>2026-04-16T17:54:12.001Z</time></trkpt><trkpt lat="47.27925115735017" lon="-1.6410789918169761"><ele>70.2</ele><time>2026-04-16T17:54:14.001Z</time></trkpt><trkpt lat="47.27915551983498" lon="-1.640989808367231"><ele>70.4</ele><time>2026-04-16T17:54:16.001Z</time></trkpt><trkpt lat="47.2790741734647" lon="-1.640904899688103"><ele>70.6</ele><time>2026-04-16T17:54:18.001Z</time></trkpt><trkpt lat="47.278974764093086" lon="-1.640740530566909"><ele>70.8</ele><time>2026-04-16T17:54:20.001Z</time></trkpt><trkpt lat="47.27891252846204" lon="-1.640693088994958"><ele>71.0</ele><time>2026-04-16T17:54:21.001Z</time></trkpt><trkpt lat="47.27885511242531" lon="-1.6406534425929566"><ele>71.2</ele><time>2026-04-16T17:54:22.001Z</time></trkpt><trkpt lat="47.27874401029877" lon="-1.6405824478730937"><ele>71.39999999999999</ele><time>2026-04-16T17:54:24.001Z</time></trkpt><trkpt lat="47.278679637282416" lon="-1.6405377723291894"><ele>71.6</ele><time>2026-04-16T17:54:25.001Z</time></trkpt><trkpt lat="47.27857306138359" lon="-1.6404602397248524"><ele>71.8</ele><time>2026-04-16T17:54:27.001Z</time></trkpt><trkpt lat="47.27851086766206" lon="-1.640382036568262"><ele>72.0</ele><time>2026-04-16T17:54:28.001Z</time></trkpt><trkpt lat="47.2784034116634" lon="-1.6402788553402203"><ele>72.16666666666667</ele><time>2026-04-16T17:54:30.001Z</time></trkpt><trkpt lat="47.2783566406437" lon="-1.6401957068607584"><ele>72.33333333333333</ele><time>2026-04-16T17:54:31.001Z</time></trkpt><trkpt lat="47.27830090098761" lon="-1.640108954162933"><ele>72.5</ele><time>2026-04-16T17:54:32.001Z</time></trkpt><trkpt lat="47.278244909874424" lon="-1.6400610934958235"><ele>72.66666666666666</ele><time>2026-04-16T17:54:33.001Z</time></trkpt><trkpt lat="47.27818376389079" lon="-1.6399706527606024"><ele>72.83333333333333</ele><time>2026-04-16T17:54:34.001Z</time></trkpt><trkpt lat="47.278078361458405" lon="-1.6398778650924934"><ele>73.0</ele><time>2026-04-16T17:54:37.001Z</time></trkpt><trkpt lat="47.2780223284357" lon="-1.6398254781976713"><ele>72.5</ele><time>2026-04-16T17:54:38.001Z</time></trkpt><trkpt lat="47.277957452505156" lon="-1.6397829819485914"><ele>72.0</ele><time>2026-04-16T17:54:39.001Z</time></trkpt><trkpt lat="47.277901922396644" lon="-1.639728331939913"><ele>71.5</ele><time>2026-04-16T17:54:40.001Z</time></trkpt><trkpt lat="47.27784224324606" lon="-1.6396736819312345"><ele>71.0</ele><time>2026-04-16T17:54:41.001Z</time></trkpt><trkpt lat="47.27772401650183" lon="-1.6396014299258959"><ele>70.5</ele><time>2026-04-16T17:54:43.001Z</time></trkpt><trkpt lat="47.27766148750417" lon="-1.6395583469435941"><ele>70.0</ele><time>2026-04-16T17:54:44.001Z</time></trkpt><trkpt lat="47.27755767763339" lon="-1.6395449358985195"><ele>70.0</ele><time>2026-04-16T17:54:46.001Z</time></trkpt><trkpt lat="47.27749393325977" lon="-1.6395042836681375"><ele>70.0</ele><time>2026-04-16T17:54:47.001Z</time></trkpt><trkpt lat="47.277432200542904" lon="-1.6394712589696416"><ele>70.0</ele><time>2026-04-16T17:54:48.001Z</time></trkpt><trkpt lat="47.27736711506478" lon="-1.63941107690487"><ele>70.0</ele><time>2026-04-16T17:54:49.001Z</time></trkpt><trkpt lat="47.277299766472794" lon="-1.6393726039693126"><ele>70.0</ele><time>2026-04-16T17:54:50.001Z</time></trkpt><trkpt lat="47.27722717919133" lon="-1.6393263358638057"><ele>70.0</ele><time>2026-04-16T17:54:51.001Z</time></trkpt><trkpt lat="47.27716092024676" lon="-1.6392871085569627"><ele>70.0</ele><time>2026-04-16T17:54:52.001Z</time></trkpt><trkpt lat="47.277091727636076" lon="-1.6392423491940267"><ele>69.5</ele><time>2026-04-16T17:54:53.001Z</time></trkpt><trkpt lat="47.27702580396763" lon="-1.6392016969636447"><ele>69.0</ele><time>2026-04-16T17:54:54.001Z</time></trkpt><trkpt lat="47.27695472542874" lon="-1.639131205157972"><ele>68.5</ele><time>2026-04-16T17:54:55.001Z</time></trkpt><trkpt lat="47.27683767215095" lon="-1.6390456259265904"><ele>68.0</ele><time>2026-04-16T17:54:57.001Z</time></trkpt><trkpt lat="47.27678641681305" lon="-1.6389684285983805"><ele>67.5</ele><time>2026-04-16T17:54:58.001Z</time></trkpt><trkpt lat="47.27672480982474" lon="-1.6389124374851947"><ele>67.0</ele><time>2026-04-16T17:54:59.001Z</time></trkpt><trkpt lat="47.276661945550956" lon="-1.6388597991332774"><ele>67.0</ele><time>2026-04-16T17:55:00.001Z</time></trkpt><trkpt lat="47.27660302077166" lon="-1.6388032212868693"><ele>67.0</ele><time>2026-04-16T17:55:01.001Z</time></trkpt><trkpt lat="47.276541749059476" lon="-1.6387349087760212"><ele>67.0</ele><time>2026-04-16T17:55:02.001Z</time></trkpt><trkpt lat="47.27648374628953" lon="-1.6386142931893828"><ele>67.0</ele><time>2026-04-16T17:55:03.001Z</time></trkpt><trkpt lat="47.27641966663978" lon="-1.6385328210905552"><ele>67.0</ele><time>2026-04-16T17:55:04.001Z</time></trkpt><trkpt lat="47.27635554508052" lon="-1.6384509298965693"><ele>67.0</ele><time>2026-04-16T17:55:05.001Z</time></trkpt><trkpt lat="47.276288825131275" lon="-1.6383744869396448"><ele>66.6</ele><time>2026-04-16T17:55:06.001Z</time></trkpt><trkpt lat="47.27622248236767" lon="-1.638282788918948"><ele>66.2</ele><time>2026-04-16T17:55:07.001Z</time></trkpt><trkpt lat="47.2761509428241" lon="-1.6381777636722086"><ele>65.8</ele><time>2026-04-16T17:55:08.001Z</time></trkpt><trkpt lat="47.27609423924915" lon="-1.638075085358357"><ele>65.4</ele><time>2026-04-16T17:55:09.001Z</time></trkpt><trkpt lat="47.27602391508154" lon="-1.6379792802051063"><ele>65.0</ele><time>2026-04-16T17:55:10.001Z</time></trkpt><trkpt lat="47.275943323082544" lon="-1.6379056870952602"><ele>65.0</ele><time>2026-04-16T17:55:11.001Z</time></trkpt><trkpt lat="47.27587605830959" lon="-1.6378228738919252"><ele>65.0</ele><time>2026-04-16T17:55:12.001Z</time></trkpt><trkpt lat="47.27580963172696" lon="-1.6377328522518628"><ele>65.0</ele><time>2026-04-16T17:55:13.001Z</time></trkpt><trkpt lat="47.275731847665526" lon="-1.6376790404335015"><ele>65.0</ele><time>2026-04-16T17:55:14.001Z</time></trkpt><trkpt lat="47.275662655054845" lon="-1.6375848278418532"><ele>65.0</ele><time>2026-04-16T17:55:15.001Z</time></trkpt><trkpt lat="47.27559237279675" lon="-1.6374940518305054"><ele>64.4</ele><time>2026-04-16T17:55:16.001Z</time></trkpt><trkpt lat="47.2755026445233" lon="-1.6374115739032975"><ele>63.8</ele><time>2026-04-16T17:55:17.001Z</time></trkpt><trkpt lat="47.27542846468023" lon="-1.6373316943660725"><ele>63.2</ele><time>2026-04-16T17:55:18.001Z</time></trkpt><trkpt lat="47.27536886934868" lon="-1.6372586879894484"><ele>62.6</ele><time>2026-04-16T17:55:19.001Z</time></trkpt><trkpt lat="47.27529380940578" lon="-1.637199344114994"><ele>62.0</ele><time>2026-04-16T17:55:20.001Z</time></trkpt><trkpt lat="47.275224155790426" lon="-1.637107981370424"><ele>62.0</ele><time>2026-04-16T17:55:21.001Z</time></trkpt><trkpt lat="47.27514582690529" lon="-1.6370369028315293"><ele>62.0</ele><time>2026-04-16T17:55:22.001Z</time></trkpt><trkpt lat="47.27507323962382" lon="-1.636969847606157"><ele>62.0</ele><time>2026-04-16T17:55:23.001Z</time></trkpt><trkpt lat="47.275000568523325" lon="-1.636897008867596"><ele>62.0</ele><time>2026-04-16T17:55:24.001Z</time></trkpt><trkpt lat="47.2749352315881" lon="-1.636790977792476"><ele>62.0</ele><time>2026-04-16T17:55:25.001Z</time></trkpt><trkpt lat="47.274877647913314" lon="-1.636689640583132"><ele>62.00000000000001</ele><time>2026-04-16T17:55:26.001Z</time></trkpt><trkpt lat="47.27484135427258" lon="-1.6365844476983291"><ele>62.0</ele><time>2026-04-16T17:55:27.001Z</time></trkpt><trkpt lat="47.27479491852901" lon="-1.6364615689978343"><ele>62.0</ele><time>2026-04-16T17:55:28.001Z</time></trkpt><trkpt lat="47.27473716721616" lon="-1.636359142141078"><ele>62.0</ele><time>2026-04-16T17:55:29.001Z</time></trkpt><trkpt lat="47.27467170455239" lon="-1.636297535152767"><ele>62.00000000000001</ele><time>2026-04-16T17:55:30.001Z</time></trkpt><trkpt lat="47.27461466570131" lon="-1.636191755534742"><ele>62.0</ele><time>2026-04-16T17:55:31.001Z</time></trkpt><trkpt lat="47.27456236262552" lon="-1.6360735707000233"><ele>62.00000000000001</ele><time>2026-04-16T17:55:32.001Z</time></trkpt><trkpt lat="47.274518064267255" lon="-1.6359843034312465"><ele>62.0</ele><time>2026-04-16T17:55:33.001Z</time></trkpt><trkpt lat="47.27447066460482" lon="-1.6358837205931878"><ele>62.0</ele><time>2026-04-16T17:55:34.001Z</time></trkpt><trkpt lat="47.27440469902686" lon="-1.6357811260983681"><ele>62.0</ele><time>2026-04-16T17:55:35.001Z</time></trkpt><trkpt lat="47.274344139776446" lon="-1.6356749273851845"><ele>62.00000000000001</ele><time>2026-04-16T17:55:36.001Z</time></trkpt><trkpt lat="47.27430323608897" lon="-1.6355730034426186"><ele>62.0</ele><time>2026-04-16T17:55:37.001Z</time></trkpt><trkpt lat="47.27426069793037" lon="-1.6354477778092356"><ele>62.0</ele><time>2026-04-16T17:55:38.001Z</time></trkpt><trkpt lat="47.27422670931301" lon="-1.635308638216588"><ele>62.0</ele><time>2026-04-16T17:55:39.001Z</time></trkpt><trkpt lat="47.274198043204166" lon="-1.6351888608202665"><ele>62.0</ele><time>2026-04-16T17:55:40.001Z</time></trkpt><trkpt lat="47.274167994081296" lon="-1.6350632160917251"><ele>62.0</ele><time>2026-04-16T17:55:41.001Z</time></trkpt><trkpt lat="47.274129772602834" lon="-1.6349376551822152"><ele>62.0</ele><time>2026-04-16T17:55:42.001Z</time></trkpt><trkpt lat="47.27409402378581" lon="-1.634826427327129"><ele>61.2</ele><time>2026-04-16T17:55:43.001Z</time></trkpt><trkpt lat="47.27406435184858" lon="-1.6347100865111077"><ele>60.400000000000006</ele><time>2026-04-16T17:55:44.001Z</time></trkpt><trkpt lat="47.274037697396494" lon="-1.6345820948496783"><ele>59.599999999999994</ele><time>2026-04-16T17:55:45.001Z</time></trkpt><trkpt lat="47.274018167562105" lon="-1.6344475653037749"><ele>58.8</ele><time>2026-04-16T17:55:46.001Z</time></trkpt><trkpt lat="47.27398170628331" lon="-1.6343059949592074"><ele>58.0</ele><time>2026-04-16T17:55:47.001Z</time></trkpt><trkpt lat="47.273942898071624" lon="-1.6341722197845896"><ele>57.8</ele><time>2026-04-16T17:55:48.001Z</time></trkpt><trkpt lat="47.27391523779116" lon="-1.6340365167722422"><ele>57.599999999999994</ele><time>2026-04-16T17:55:49.001Z</time></trkpt><trkpt lat="47.27388904434375" lon="-1.6339034959689098"><ele>57.400000000000006</ele><time>2026-04-16T17:55:50.001Z</time></trkpt><trkpt lat="47.27385974959216" lon="-1.6337700560704187"><ele>57.2</ele><time>2026-04-16T17:55:51.001Z</time></trkpt><trkpt lat="47.27383087393574" lon="-1.6336282342687563"><ele>57.0</ele><time>2026-04-16T17:55:52.001Z</time></trkpt><trkpt lat="47.27381117646328" lon="-1.6334822215155078"><ele>56.6</ele><time>2026-04-16T17:55:53.001Z</time></trkpt><trkpt lat="47.27378238462589" lon="-1.6333423275515746"><ele>56.2</ele><time>2026-04-16T17:55:54.001Z</time></trkpt><trkpt lat="47.27376721338115" lon="-1.6332513000831317"><ele>55.8</ele><time>2026-04-16T17:55:55.001Z</time></trkpt><trkpt lat="47.27373657752506" lon="-1.6331158485278796"><ele>55.4</ele><time>2026-04-16T17:55:56.001Z</time></trkpt><trkpt lat="47.273703301369466" lon="-1.6329727694407412"><ele>55.0</ele><time>2026-04-16T17:55:57.001Z</time></trkpt><trkpt lat="47.2736817179688" lon="-1.6328323725626177"><ele>55.0</ele><time>2026-04-16T17:55:58.001Z</time></trkpt><trkpt lat="47.273647561713375" lon="-1.6326927300557799"><ele>55.0</ele><time>2026-04-16T17:55:59.001Z</time></trkpt><trkpt lat="47.27361914706162" lon="-1.6325556021198933"><ele>55.0</ele><time>2026-04-16T17:56:00.001Z</time></trkpt><trkpt lat="47.27358323060653" lon="-1.6324162948891823"><ele>55.0</ele><time>2026-04-16T17:56:01.001Z</time></trkpt><trkpt lat="47.27353834551505" lon="-1.6322948411122264"><ele>55.0</ele><time>2026-04-16T17:56:02.001Z</time></trkpt><trkpt lat="47.273506620011545" lon="-1.632171291859478"><ele>55.0</ele><time>2026-04-16T17:56:03.001Z</time></trkpt><trkpt lat="47.273469991094686" lon="-1.6320573817953765"><ele>55.0</ele><time>2026-04-16T17:56:04.001Z</time></trkpt><trkpt lat="47.27344006770036" lon="-1.6319300606862008"><ele>55.0</ele><time>2026-04-16T17:56:05.001Z</time></trkpt><trkpt lat="47.27339912210337" lon="-1.6317870654180942"><ele>55.0</ele><time>2026-04-16T17:56:06.001Z</time></trkpt><trkpt lat="47.2733640438386" lon="-1.631654212252825"><ele>55.0</ele><time>2026-04-16T17:56:07.001Z</time></trkpt><trkpt lat="47.27334623229436" lon="-1.6315153241172726"><ele>54.8</ele><time>2026-04-16T17:56:08.001Z</time></trkpt><trkpt lat="47.27330796890638" lon="-1.6313876677319699"><ele>54.6</ele><time>2026-04-16T17:56:09.001Z</time></trkpt><trkpt lat="47.27327712350271" lon="-1.631255401299923"><ele>54.400000000000006</ele><time>2026-04-16T17:56:10.001Z</time></trkpt><trkpt lat="47.273237393281676" lon="-1.6311162617072752"><ele>54.2</ele><time>2026-04-16T17:56:11.001Z</time></trkpt><trkpt lat="47.27320445240221" lon="-1.6309775412097862"><ele>54.0</ele><time>2026-04-16T17:56:12.001Z</time></trkpt><trkpt lat="47.273183581463314" lon="-1.6308181174114633"><ele>53.666666666666664</ele><time>2026-04-16T17:56:13.001Z</time></trkpt><trkpt lat="47.27315583736382" lon="-1.6306868568077968"><ele>53.33333333333333</ele><time>2026-04-16T17:56:14.001Z</time></trkpt><trkpt lat="47.27314540189437" lon="-1.6305469628438638"><ele>53.0</ele><time>2026-04-16T17:56:15.001Z</time></trkpt><trkpt lat="47.27311803498051" lon="-1.6304294485613986"><ele>52.666666666666664</ele><time>2026-04-16T17:56:16.001Z</time></trkpt><trkpt lat="47.273076125464655" lon="-1.6303176339730903"><ele>52.33333333333333</ele><time>2026-04-16T17:56:17.001Z</time></trkpt><trkpt lat="47.27304138247601" lon="-1.630215458573429"><ele>52.0</ele><time>2026-04-16T17:56:18.001Z</time></trkpt><trkpt lat="47.27301053707234" lon="-1.6301064100131673"><ele>51.83333333333333</ele><time>2026-04-16T17:56:19.001Z</time></trkpt><trkpt lat="47.27297835056416" lon="-1.6299994569286982"><ele>51.666666666666664</ele><time>2026-04-16T17:56:20.001Z</time></trkpt><trkpt lat="47.27299415045164" lon="-1.6298543661847988"><ele>51.5</ele><time>2026-04-16T17:56:21.001Z</time></trkpt><trkpt lat="47.2729848046296" lon="-1.6297222673908152"><ele>51.33333333333333</ele><time>2026-04-16T17:56:22.001Z</time></trkpt><trkpt lat="47.27295961701057" lon="-1.62959301844391"><ele>51.166666666666664</ele><time>2026-04-16T17:56:23.001Z</time></trkpt><trkpt lat="47.27293526758186" lon="-1.6294865682736313"><ele>51.0</ele><time>2026-04-16T17:56:24.001Z</time></trkpt><trkpt lat="47.272902829616584" lon="-1.6293612588212167"><ele>50.599999999999994</ele><time>2026-04-16T17:56:25.001Z</time></trkpt><trkpt lat="47.272866996980525" lon="-1.6292305011317405"><ele>50.2</ele><time>2026-04-16T17:56:26.001Z</time></trkpt><trkpt lat="47.272836864038624" lon="-1.629089601339427"><ele>49.8</ele><time>2026-04-16T17:56:27.001Z</time></trkpt><trkpt lat="47.27281414908103" lon="-1.6289582569167287"><ele>49.400000000000006</ele><time>2026-04-16T17:56:28.001Z</time></trkpt><trkpt lat="47.272781501568176" lon="-1.628825319932428"><ele>49.0</ele><time>2026-04-16T17:56:29.001Z</time></trkpt><trkpt lat="47.272756020582534" lon="-1.6287008486703305"><ele>48.6</ele><time>2026-04-16T17:56:30.001Z</time></trkpt><trkpt lat="47.27274361536584" lon="-1.6285618767157461"><ele>48.2</ele><time>2026-04-16T17:56:31.001Z</time></trkpt><trkpt lat="47.27272073277018" lon="-1.6284680832192566"><ele>47.800000000000004</ele><time>2026-04-16T17:56:32.001Z</time></trkpt><trkpt lat="47.272694287865676" lon="-1.6283284407124186"><ele>47.400000000000006</ele><time>2026-04-16T17:56:33.001Z</time></trkpt><trkpt lat="47.272673752202905" lon="-1.6281959228232765"><ele>47.0</ele><time>2026-04-16T17:56:34.001Z</time></trkpt><trkpt lat="47.27263205223463" lon="-1.628065835686054"><ele>47.0</ele><time>2026-04-16T17:56:35.001Z</time></trkpt><trkpt lat="47.27260443386368" lon="-1.6279457230136058"><ele>47.0</ele><time>2026-04-16T17:56:36.001Z</time></trkpt><trkpt lat="47.27257191207937" lon="-1.6278230119511743"><ele>47.0</ele><time>2026-04-16T17:56:37.001Z</time></trkpt><trkpt lat="47.27253691763363" lon="-1.627700887621965"><ele>47.0</ele><time>2026-04-16T17:56:38.001Z</time></trkpt><trkpt lat="47.27250678469173" lon="-1.6275904979571956"><ele>47.0</ele><time>2026-04-16T17:56:39.001Z</time></trkpt><trkpt lat="47.272480507425286" lon="-1.6274832095965999"><ele>47.0</ele><time>2026-04-16T17:56:40.001Z</time></trkpt><trkpt lat="47.27243122183464" lon="-1.6273360233769074"><ele>47.0</ele><time>2026-04-16T17:56:42.001Z</time></trkpt><trkpt lat="47.27239823904566" lon="-1.6272423975184813"><ele>47.0</ele><time>2026-04-16T17:56:43.001Z</time></trkpt><trkpt lat="47.272375901273705" lon="-1.6271512862310065"><ele>47.0</ele><time>2026-04-16T17:56:44.001Z</time></trkpt><trkpt lat="47.27235398259691" lon="-1.6270455904320134"><ele>47.0</ele><time>2026-04-16T17:56:45.001Z</time></trkpt><trkpt lat="47.27229145359925" lon="-1.626949701459731"><ele>47.0</ele><time>2026-04-16T17:56:47.001Z</time></trkpt><trkpt lat="47.2722810181298" lon="-1.6268264036640774"><ele>47.0</ele><time>2026-04-16T17:56:48.001Z</time></trkpt><trkpt lat="47.27228194013915" lon="-1.626716349275435"><ele>46.714285714285715</ele><time>2026-04-16T17:56:49.001Z</time></trkpt><trkpt lat="47.27227577944032" lon="-1.6266145929709324"><ele>46.42857142857143</ele><time>2026-04-16T17:56:50.001Z</time></trkpt><trkpt lat="47.27224723906002" lon="-1.6265016887352117"><ele>46.14285714285714</ele><time>2026-04-16T17:56:51.001Z</time></trkpt><trkpt lat="47.272224230735816" lon="-1.6263955738410598"><ele>45.85714285714286</ele><time>2026-04-16T17:56:52.001Z</time></trkpt><trkpt lat="47.27219866593114" lon="-1.6262941528126842"><ele>45.57142857142858</ele><time>2026-04-16T17:56:53.001Z</time></trkpt><trkpt lat="47.27218395569108" lon="-1.6261977609262113"><ele>45.285714285714285</ele><time>2026-04-16T17:56:54.001Z</time></trkpt><trkpt lat="47.27216295902363" lon="-1.6260943282410745"><ele>45.0</ele><time>2026-04-16T17:56:55.001Z</time></trkpt><trkpt lat="47.27213232316754" lon="-1.6259974334404115"><ele>45.5</ele><time>2026-04-16T17:56:56.001Z</time></trkpt><trkpt lat="47.27210671645335" lon="-1.6259036399439217"><ele>46.0</ele><time>2026-04-16T17:56:57.001Z</time></trkpt><trkpt lat="47.27207696069709" lon="-1.6258047334864976"><ele>46.5</ele><time>2026-04-16T17:56:58.001Z</time></trkpt><trkpt lat="47.27205495820127" lon="-1.6257004626110434"><ele>47.0</ele><time>2026-04-16T17:56:59.001Z</time></trkpt><trkpt lat="47.27202486716888" lon="-1.6256018076107144"><ele>47.5</ele><time>2026-04-16T17:57:00.001Z</time></trkpt><trkpt lat="47.27197235454551" lon="-1.6254008933916924"><ele>48.0</ele><time>2026-04-16T17:57:02.001Z</time></trkpt><trkpt lat="47.271926798901774" lon="-1.62524540908786"><ele>48.0</ele><time>2026-04-16T17:57:04.001Z</time></trkpt><trkpt lat="47.27191267539493" lon="-1.625129403547966"><ele>48.0</ele><time>2026-04-16T17:57:05.001Z</time></trkpt><trkpt lat="47.271890672899104" lon="-1.6250223666444654"><ele>48.0</ele><time>2026-04-16T17:57:06.001Z</time></trkpt><trkpt lat="47.27182596460662" lon="-1.62485841661843"><ele>48.0</ele><time>2026-04-16T17:57:08.001Z</time></trkpt><trkpt lat="47.27177822966806" lon="-1.6247545648381343"><ele>48.0</ele><time>2026-04-16T17:57:09.001Z</time></trkpt><trkpt lat="47.271740217737175" lon="-1.6246532276287904"><ele>48.0</ele><time>2026-04-16T17:57:10.001Z</time></trkpt><trkpt lat="47.271692859984256" lon="-1.6245318576708665"><ele>47.833333333333336</ele><time>2026-04-16T17:57:11.001Z</time></trkpt><trkpt lat="47.271643909669734" lon="-1.6244254075005877"><ele>47.666666666666664</ele><time>2026-04-16T17:57:12.001Z</time></trkpt><trkpt lat="47.27159101986072" lon="-1.6243285126999247"><ele>47.5</ele><time>2026-04-16T17:57:13.001Z</time></trkpt><trkpt lat="47.27154001597992" lon="-1.6242309473470078"><ele>47.33333333333333</ele><time>2026-04-16T17:57:14.001Z</time></trkpt><trkpt lat="47.271481929390944" lon="-1.6241732798531876"><ele>47.166666666666664</ele><time>2026-04-16T17:57:15.001Z</time></trkpt><trkpt lat="47.27142421998761" lon="-1.6240902151927576"><ele>47.0</ele><time>2026-04-16T17:57:16.001Z</time></trkpt><trkpt lat="47.271393500312485" lon="-1.6240008641049488"><ele>47.0</ele><time>2026-04-16T17:57:17.001Z</time></trkpt><trkpt lat="47.27135217752985" lon="-1.6239027958378418"><ele>47.0</ele><time>2026-04-16T17:57:18.001Z</time></trkpt><trkpt lat="47.27129614450715" lon="-1.6238438710585459"><ele>47.0</ele><time>2026-04-16T17:57:19.001Z</time></trkpt><trkpt lat="47.27123361550949" lon="-1.6237884666785818"><ele>47.0</ele><time>2026-04-16T17:57:20.001Z</time></trkpt><trkpt lat="47.27116077677093" lon="-1.6236684378251653"><ele>47.0</ele><time>2026-04-16T17:57:22.001Z</time></trkpt><trkpt lat="47.27114057638428" lon="-1.6235794220134836"><ele>47.0</ele><time>2026-04-16T17:57:23.001Z</time></trkpt><trkpt lat="47.271124776496805" lon="-1.6234883107260087"><ele>46.5</ele><time>2026-04-16T17:57:24.001Z</time></trkpt><trkpt lat="47.27110813841901" lon="-1.623337939383111"><ele>46.0</ele><time>2026-04-16T17:57:26.001Z</time></trkpt><trkpt lat="47.27107628718696" lon="-1.6232393682018138"><ele>45.5</ele><time>2026-04-16T17:57:28.001Z</time></trkpt><trkpt lat="47.271111030175604" lon="-1.623121518643222"><ele>45.0</ele><time>2026-04-16T17:57:30.001Z</time></trkpt><trkpt lat="47.27119422056458" lon="-1.6230423934772824"><ele>44.5</ele><time>2026-04-16T17:57:32.001Z</time></trkpt><trkpt lat="47.27126261689446" lon="-1.6230250429377173"><ele>44.0</ele><time>2026-04-16T17:57:33.001Z</time></trkpt><trkpt lat="47.271350584968246" lon="-1.6228983923807954"><ele>44.0</ele><time>2026-04-16T17:57:35.001Z</time></trkpt><trkpt lat="47.27139534433118" lon="-1.6228254698232027"><ele>44.0</ele><time>2026-04-16T17:57:36.001Z</time></trkpt><trkpt lat="47.27146918889812" lon="-1.6227375436589333"><ele>44.0</ele><time>2026-04-16T17:57:37.001Z</time></trkpt><trkpt lat="47.271489012099124" lon="-1.6226472705617758"><ele>44.0</ele><time>2026-04-16T17:57:38.001Z</time></trkpt><trkpt lat="47.27153305900029" lon="-1.6225507948562712"><ele>44.0</ele><time>2026-04-16T17:57:39.001Z</time></trkpt><trkpt lat="47.27156658661298" lon="-1.6224400699153751"><ele>44.0</ele><time>2026-04-16T17:57:40.001Z</time></trkpt><trkpt lat="47.27159273815087" lon="-1.622335799039921"><ele>42.83333333333333</ele><time>2026-04-16T17:57:41.001Z</time></trkpt><trkpt lat="47.271628612696446" lon="-1.6222094837591259"><ele>41.666666666666664</ele><time>2026-04-16T17:57:42.001Z</time></trkpt><trkpt lat="47.27169021968476" lon="-1.6221090685591306"><ele>40.5</ele><time>2026-04-16T17:57:43.001Z</time></trkpt><trkpt lat="47.271708450324155" lon="-1.6220019478365983"><ele>39.333333333333336</ele><time>2026-04-16T17:57:44.001Z</time></trkpt><trkpt lat="47.27174369622699" lon="-1.6218758840128982"><ele>38.16666666666667</ele><time>2026-04-16T17:57:45.001Z</time></trkpt><trkpt lat="47.27178162433884" lon="-1.6217556037023866"><ele>37.0</ele><time>2026-04-16T17:57:46.001Z</time></trkpt><trkpt lat="47.271831370934166" lon="-1.6216700244710052"><ele>36.833333333333336</ele><time>2026-04-16T17:57:47.001Z</time></trkpt><trkpt lat="47.27186439563266" lon="-1.6215544380262694"><ele>36.66666666666667</ele><time>2026-04-16T17:57:48.001Z</time></trkpt><trkpt lat="47.27196590048007" lon="-1.6214521788075766"><ele>36.5</ele><time>2026-04-16T17:57:49.001Z</time></trkpt><trkpt lat="47.27200420577756" lon="-1.621348913760503"><ele>36.333333333333336</ele><time>2026-04-16T17:57:50.001Z</time></trkpt><trkpt lat="47.27199502759359" lon="-1.621242631228288"><ele>36.166666666666664</ele><time>2026-04-16T17:57:51.001Z</time></trkpt><trkpt lat="47.272014599337496" lon="-1.6211465746179419"><ele>36.0</ele><time>2026-04-16T17:57:52.001Z</time></trkpt><trkpt lat="47.272012587680734" lon="-1.6210469137892323"><ele>35.8</ele><time>2026-04-16T17:57:53.001Z</time></trkpt><trkpt lat="47.27199896708808" lon="-1.62095152773114"><ele>35.6</ele><time>2026-04-16T17:57:54.001Z</time></trkpt><trkpt lat="47.27197729986838" lon="-1.6208627633765533"><ele>35.4</ele><time>2026-04-16T17:57:55.001Z</time></trkpt><trkpt lat="47.27195676420561" lon="-1.6206874139622045"><ele>35.2</ele><time>2026-04-16T17:57:57.001Z</time></trkpt><trkpt lat="47.27194373034618" lon="-1.6205148305759025"><ele>35.0</ele><time>2026-04-16T17:57:59.001Z</time></trkpt><trkpt lat="47.271836735352196" lon="-1.6204388905331681"><ele>35.5</ele><time>2026-04-16T17:58:01.001Z</time></trkpt><trkpt lat="47.271762974604286" lon="-1.6203112341478656"><ele>36.0</ele><time>2026-04-16T17:58:03.001Z</time></trkpt><trkpt lat="47.27166415196589" lon="-1.6202143393472024"><ele>36.5</ele><time>2026-04-16T17:58:05.001Z</time></trkpt><trkpt lat="47.27156495214186" lon="-1.6200954001411982"><ele>37.0</ele><time>2026-04-16T17:58:07.001Z</time></trkpt><trkpt lat="47.27147874426774" lon="-1.6199625469759291"><ele>36.6</ele><time>2026-04-16T17:58:09.001Z</time></trkpt><trkpt lat="47.2713824362003" lon="-1.6198326274767703"><ele>36.2</ele><time>2026-04-16T17:58:11.001Z</time></trkpt><trkpt lat="47.27134882476858" lon="-1.6197503171876255"><ele>35.8</ele><time>2026-04-16T17:58:12.001Z</time></trkpt><trkpt lat="47.27126806513152" lon="-1.6196222417071644"><ele>35.4</ele><time>2026-04-16T17:58:14.001Z</time></trkpt><trkpt lat="47.27124145258895" lon="-1.6195355728283707"><ele>35.0</ele><time>2026-04-16T17:58:15.001Z</time></trkpt><trkpt lat="47.27116337516091" lon="-1.619393751026708"><ele>36.33333333333333</ele><time>2026-04-16T17:58:17.001Z</time></trkpt><trkpt lat="47.271104953295804" lon="-1.6192745603636085"><ele>37.666666666666664</ele><time>2026-04-16T17:58:19.001Z</time></trkpt><trkpt lat="47.271074904172934" lon="-1.6191519331202089"><ele>39.0</ele><time>2026-04-16T17:58:21.001Z</time></trkpt><trkpt lat="47.27103814952753" lon="-1.6190198343262252"><ele>40.333333333333336</ele><time>2026-04-16T17:58:23.001Z</time></trkpt><trkpt lat="47.2710198350691" lon="-1.6189298126861629"><ele>41.66666666666667</ele><time>2026-04-16T17:58:25.001Z</time></trkpt><trkpt lat="47.27105063856325" lon="-1.618825793267804"><ele>43.0</ele><time>2026-04-16T17:58:27.001Z</time></trkpt><trkpt lat="47.271034419580616" lon="-1.6186760086581284"><ele>43.0</ele><time>2026-04-16T17:58:29.001Z</time></trkpt><trkpt lat="47.270982409871436" lon="-1.6185952909305865"><ele>43.0</ele><time>2026-04-16T17:58:31.001Z</time></trkpt><trkpt lat="47.270887820094146" lon="-1.618633428590017"><ele>43.0</ele><time>2026-04-16T17:58:33.001Z</time></trkpt><trkpt lat="47.27079754699699" lon="-1.6186542995289142"><ele>43.0</ele><time>2026-04-16T17:58:35.001Z</time></trkpt><trkpt lat="47.27071184203706" lon="-1.6186471749112183"><ele>43.0</ele><time>2026-04-16T17:58:37.001Z</time></trkpt><trkpt lat="47.270631459585644" lon="-1.6185837239042098"><ele>43.0</ele><time>2026-04-16T17:58:39.001Z</time></trkpt><trkpt lat="47.270572870082475" lon="-1.618476687000709"><ele>43.16666666666667</ele><time>2026-04-16T17:58:41.001Z</time></trkpt><trkpt lat="47.27051679515026" lon="-1.6183751821533017"><ele>43.333333333333336</ele><time>2026-04-16T17:58:43.001Z</time></trkpt><trkpt lat="47.27045644544742" lon="-1.618284573780017"><ele>43.5</ele><time>2026-04-16T17:58:45.001Z</time></trkpt><trkpt lat="47.27039890368215" lon="-1.6181958094254305"><ele>43.666666666666664</ele><time>2026-04-16T17:58:47.001Z</time></trkpt><trkpt lat="47.270346349149264" lon="-1.6181156784311106"><ele>43.83333333333333</ele><time>2026-04-16T17:58:49.001Z</time></trkpt><trkpt lat="47.270297985567964" lon="-1.6180407442167568"><ele>44.0</ele><time>2026-04-16T17:58:51.001Z</time></trkpt><trkpt lat="47.2702452214875" lon="-1.6179733537152576"><ele>44.0</ele><time>2026-04-16T17:58:53.001Z</time></trkpt><trkpt lat="47.27019664835862" lon="-1.6178973298534918"><ele>44.0</ele><time>2026-04-16T17:58:55.001Z</time></trkpt><trkpt lat="47.27014547683976" lon="-1.617816193030791"><ele>44.0</ele><time>2026-04-16T17:58:57.001Z</time></trkpt><trkpt lat="47.27009413768283" lon="-1.6177392471596763"><ele>44.0</ele><time>2026-04-16T17:58:59.001Z</time></trkpt><trkpt lat="47.270046654201366" lon="-1.617660121993737"><ele>44.0</ele><time>2026-04-16T17:59:01.001Z</time></trkpt><trkpt lat="47.27000118237666" lon="-1.6175721958294673"><ele>44.0</ele><time>2026-04-16T17:59:03.001Z</time></trkpt><trkpt lat="47.269959943413056" lon="-1.6174857784077687"><ele>44.0</ele><time>2026-04-16T17:59:05.001Z</time></trkpt><trkpt lat="47.26992105138234" lon="-1.617392906920628"><ele>44.57142857142857</ele><time>2026-04-16T17:59:07.001Z</time></trkpt><trkpt lat="47.26989200808785" lon="-1.6173029690995973"><ele>45.14285714285714</ele><time>2026-04-16T17:59:09.001Z</time></trkpt><trkpt lat="47.26987281352959" lon="-1.617204649375395"><ele>45.71428571428571</ele><time>2026-04-16T17:59:11.001Z</time></trkpt><trkpt lat="47.26986153986982" lon="-1.6171073354795733"><ele>46.285714285714285</ele><time>2026-04-16T17:59:13.001Z</time></trkpt><trkpt lat="47.2698498471149" lon="-1.6170094348505297"><ele>46.857142857142854</ele><time>2026-04-16T17:59:15.001Z</time></trkpt><trkpt lat="47.26983337667516" lon="-1.616908349098281"><ele>47.42857142857142</ele><time>2026-04-16T17:59:17.001Z</time></trkpt><trkpt lat="47.26982155819169" lon="-1.616793433205799"><ele>48.0</ele><time>2026-04-16T17:59:19.001Z</time></trkpt><trkpt lat="47.26980885960838" lon="-1.6166781820371903"><ele>47.99999999999999</ele><time>2026-04-16T17:59:21.001Z</time></trkpt><trkpt lat="47.269783546260804" lon="-1.6165752522662435"><ele>48.0</ele><time>2026-04-16T17:59:23.001Z</time></trkpt><trkpt lat="47.26976275914094" lon="-1.616482045502976"><ele>48.0</ele><time>2026-04-16T17:59:25.001Z</time></trkpt><trkpt lat="47.26974666588685" lon="-1.616374170409158"><ele>48.0</ele><time>2026-04-16T17:59:27.001Z</time></trkpt><trkpt lat="47.269738116345614" lon="-1.6162706539049896"><ele>48.0</ele><time>2026-04-16T17:59:29.001Z</time></trkpt><trkpt lat="47.269729608713895" lon="-1.6161574143931419"><ele>47.99999999999999</ele><time>2026-04-16T17:59:31.001Z</time></trkpt><trkpt lat="47.26971632339737" lon="-1.6160471923664361"><ele>48.0</ele><time>2026-04-16T17:59:33.001Z</time></trkpt><trkpt lat="47.26970303808084" lon="-1.6159356292352227"><ele>48.333333333333336</ele><time>2026-04-16T17:59:35.001Z</time></trkpt><trkpt lat="47.26969180633059" lon="-1.6158288437888173"><ele>48.66666666666667</ele><time>2026-04-16T17:59:37.001Z</time></trkpt><trkpt lat="47.269678814380676" lon="-1.615715269000843"><ele>49.0</ele><time>2026-04-16T17:59:39.001Z</time></trkpt><trkpt lat="47.2696630144932" lon="-1.615600604565456"><ele>49.333333333333336</ele><time>2026-04-16T17:59:41.001Z</time></trkpt><trkpt lat="47.26964729842475" lon="-1.6154856048539425"><ele>49.66666666666667</ele><time>2026-04-16T17:59:43.001Z</time></trkpt><trkpt lat="47.26963371974161" lon="-1.6153721138849997"><ele>50.0</ele><time>2026-04-16T17:59:45.001Z</time></trkpt><trkpt lat="47.26962269753894" lon="-1.6152504924699806"><ele>50.6</ele><time>2026-04-16T17:59:47.001Z</time></trkpt><trkpt lat="47.26960727483711" lon="-1.6151181422189018"><ele>51.2</ele><time>2026-04-16T17:59:49.001Z</time></trkpt><trkpt lat="47.26959277414462" lon="-1.6149500850603122"><ele>51.8</ele><time>2026-04-16T17:59:51.001Z</time></trkpt><trkpt lat="47.26957169365814" lon="-1.614817902447297"><ele>52.4</ele><time>2026-04-16T17:59:53.001Z</time></trkpt><trkpt lat="47.26958313495597" lon="-1.6146482527271049"><ele>53.0</ele><time>2026-04-16T17:59:55.001Z</time></trkpt><trkpt lat="47.26960928649387" lon="-1.6145045030877128"><ele>53.16666666666667</ele><time>2026-04-16T17:59:57.001Z</time></trkpt><trkpt lat="47.269666576802045" lon="-1.6144264675691857"><ele>53.333333333333336</ele><time>2026-04-16T18:00:00.001Z</time></trkpt><trkpt lat="47.269732332832426" lon="-1.6143618430957332"><ele>53.5</ele><time>2026-04-16T18:00:02.001Z</time></trkpt><trkpt lat="47.269795071377665" lon="-1.6142927762135997"><ele>53.66666666666667</ele><time>2026-04-16T18:00:04.001Z</time></trkpt><trkpt lat="47.26981799588284" lon="-1.614189846442653"><ele>53.833333333333336</ele><time>2026-04-16T18:00:06.001Z</time></trkpt><trkpt lat="47.2698337538608" lon="-1.614077948035313"><ele>54.0</ele><time>2026-04-16T18:00:08.001Z</time></trkpt><trkpt lat="47.26981958844444" lon="-1.6139672230944166"><ele>54.0</ele><time>2026-04-16T18:00:10.001Z</time></trkpt><trkpt lat="47.26978023540905" lon="-1.6138600185528527"><ele>54.00000000000001</ele><time>2026-04-16T18:00:12.001Z</time></trkpt><trkpt lat="47.26968199950388" lon="-1.6138243954643736"><ele>54.00000000000001</ele><time>2026-04-16T18:00:14.001Z</time></trkpt><trkpt lat="47.26959361233494" lon="-1.6138311848059426"><ele>54.0</ele><time>2026-04-16T18:00:16.001Z</time></trkpt><trkpt lat="47.269516037821084" lon="-1.6137298475965984"><ele>54.0</ele><time>2026-04-16T18:00:18.001Z</time></trkpt><trkpt lat="47.26945769977501" lon="-1.6136262472733982"><ele>54.166666666666664</ele><time>2026-04-16T18:00:20.001Z</time></trkpt><trkpt lat="47.269404642327935" lon="-1.613479312510801"><ele>54.33333333333333</ele><time>2026-04-16T18:00:22.001Z</time></trkpt><trkpt lat="47.26936642084947" lon="-1.6133463755265003"><ele>54.5</ele><time>2026-04-16T18:00:24.001Z</time></trkpt><trkpt lat="47.269346471919924" lon="-1.613255096600962"><ele>54.666666666666664</ele><time>2026-04-16T18:00:25.001Z</time></trkpt><trkpt lat="47.26933218077502" lon="-1.6131522506490472"><ele>54.83333333333333</ele><time>2026-04-16T18:00:26.001Z</time></trkpt><trkpt lat="47.26932266731492" lon="-1.6130375023946286"><ele>55.0</ele><time>2026-04-16T18:00:27.001Z</time></trkpt><trkpt lat="47.269308920993716" lon="-1.6128538548961402"><ele>54.71428571428571</ele><time>2026-04-16T18:00:29.001Z</time></trkpt><trkpt lat="47.26928440392694" lon="-1.6126849595472335"><ele>54.42857142857143</ele><time>2026-04-16T18:00:31.001Z</time></trkpt><trkpt lat="47.26927061569622" lon="-1.6125929262504097"><ele>54.14285714285714</ele><time>2026-04-16T18:00:32.001Z</time></trkpt><trkpt lat="47.26926135369322" lon="-1.612500976772618"><ele>53.857142857142854</ele><time>2026-04-16T18:00:33.001Z</time></trkpt><trkpt lat="47.26924291350624" lon="-1.6124094463899847"><ele>53.57142857142857</ele><time>2026-04-16T18:00:34.001Z</time></trkpt><trkpt lat="47.269224557138294" lon="-1.6123205982163662"><ele>53.285714285714285</ele><time>2026-04-16T18:00:35.001Z</time></trkpt><trkpt lat="47.269211397550315" lon="-1.6122266370818132"><ele>53.0</ele><time>2026-04-16T18:00:36.001Z</time></trkpt><trkpt lat="47.269203392832786" lon="-1.612055227161955"><ele>52.85714285714286</ele><time>2026-04-16T18:00:38.001Z</time></trkpt><trkpt lat="47.26918918550691" lon="-1.611956572161626"><ele>52.71428571428571</ele><time>2026-04-16T18:00:39.001Z</time></trkpt><trkpt lat="47.26918210279873" lon="-1.6118626948461046"><ele>52.57142857142857</ele><time>2026-04-16T18:00:40.001Z</time></trkpt><trkpt lat="47.26916098040274" lon="-1.611717101188015"><ele>52.42857142857143</ele><time>2026-04-16T18:00:42.001Z</time></trkpt><trkpt lat="47.269146437800735" lon="-1.6116208769396054"><ele>52.28571428571429</ele><time>2026-04-16T18:00:43.001Z</time></trkpt><trkpt lat="47.269157376184374" lon="-1.6115121636554706"><ele>52.14285714285714</ele><time>2026-04-16T18:00:44.001Z</time></trkpt><trkpt lat="47.26915942975065" lon="-1.6114137601122365"><ele>52.0</ele><time>2026-04-16T18:00:45.001Z</time></trkpt><trkpt lat="47.26914136674932" lon="-1.6113224811866984"><ele>51.99999999999999</ele><time>2026-04-16T18:00:46.001Z</time></trkpt><trkpt lat="47.26912011862478" lon="-1.6112348902985558"><ele>52.0</ele><time>2026-04-16T18:00:47.001Z</time></trkpt><trkpt lat="47.26910402537069" lon="-1.6111171245589955"><ele>52.0</ele><time>2026-04-16T18:00:48.001Z</time></trkpt><trkpt lat="47.26909711030057" lon="-1.6110102552935583"><ele>52.0</ele><time>2026-04-16T18:00:49.001Z</time></trkpt><trkpt lat="47.269094931005746" lon="-1.6108572855606775"><ele>51.99999999999999</ele><time>2026-04-16T18:00:51.001Z</time></trkpt><trkpt lat="47.26903307256034" lon="-1.6107628215119343"><ele>52.0</ele><time>2026-04-16T18:00:54.001Z</time></trkpt><trkpt lat="47.26898198486051" lon="-1.6106848698124387"><ele>52.0</ele><time>2026-04-16T18:00:56.001Z</time></trkpt><trkpt lat="47.26892025214365" lon="-1.6105715464815595"><ele>52.0</ele><time>2026-04-16T18:00:58.001Z</time></trkpt><trkpt lat="47.26888010282746" lon="-1.610442381353686"><ele>52.0</ele><time>2026-04-16T18:01:00.001Z</time></trkpt><trkpt lat="47.26886535067788" lon="-1.610285053031156"><ele>52.0</ele><time>2026-04-16T18:01:02.001Z</time></trkpt><trkpt lat="47.26884925742379" lon="-1.6101305745557044"><ele>52.0</ele><time>2026-04-16T18:01:04.001Z</time></trkpt><trkpt lat="47.26884054024449" lon="-1.6099449154004546"><ele>51.75</ele><time>2026-04-16T18:01:06.001Z</time></trkpt><trkpt lat="47.26881816056302" lon="-1.609762189911315"><ele>51.5</ele><time>2026-04-16T18:01:08.001Z</time></trkpt><trkpt lat="47.26880089384249" lon="-1.6095903608962983"><ele>51.25</ele><time>2026-04-16T18:01:10.001Z</time></trkpt><trkpt lat="47.268798588819116" lon="-1.609353907407829"><ele>51.0</ele><time>2026-04-16T18:01:12.001Z</time></trkpt><trkpt lat="47.26878128018907" lon="-1.609190041200825"><ele>51.5</ele><time>2026-04-16T18:01:14.001Z</time></trkpt><trkpt lat="47.26874733348122" lon="-1.60902122967095"><ele>52.0</ele><time>2026-04-16T18:01:16.001Z</time></trkpt><trkpt lat="47.268737400925964" lon="-1.6089135222151958"><ele>52.5</ele><time>2026-04-16T18:01:17.001Z</time></trkpt><trkpt lat="47.26870701652697" lon="-1.6088282782599412"><ele>53.0</ele><time>2026-04-16T18:01:18.001Z</time></trkpt><trkpt lat="47.268690462268204" lon="-1.6087282821551045"><ele>53.5</ele><time>2026-04-16T18:01:19.001Z</time></trkpt><trkpt lat="47.26868329574099" lon="-1.6086328960970124"><ele>54.0</ele><time>2026-04-16T18:01:20.001Z</time></trkpt><trkpt lat="47.268661712340325" lon="-1.6084426268950183"><ele>54.0</ele><time>2026-04-16T18:01:22.001Z</time></trkpt><trkpt lat="47.26864352361044" lon="-1.6083394456669766"><ele>54.0</ele><time>2026-04-16T18:01:23.001Z</time></trkpt><trkpt lat="47.26862747226587" lon="-1.6081791836783366"><ele>54.0</ele><time>2026-04-16T18:01:25.001Z</time></trkpt><trkpt lat="47.268614564134985" lon="-1.608087150381513"><ele>54.0</ele><time>2026-04-16T18:01:26.001Z</time></trkpt><trkpt lat="47.268584221645504" lon="-1.6079864837244227"><ele>54.0</ele><time>2026-04-16T18:01:27.001Z</time></trkpt><trkpt lat="47.26856330879709" lon="-1.6078677959755137"><ele>54.0</ele><time>2026-04-16T18:01:28.001Z</time></trkpt><trkpt lat="47.26854277313432" lon="-1.6077279858306122"><ele>53.800000000000004</ele><time>2026-04-16T18:01:29.001Z</time></trkpt><trkpt lat="47.26847194605252" lon="-1.6075107269004056"><ele>53.60000000000001</ele><time>2026-04-16T18:01:30Z</time></trkpt><trkpt lat="47.26845782254568" lon="-1.6073908656850526"><ele>53.4</ele><time>2026-04-16T18:01:31Z</time></trkpt><trkpt lat="47.26844336376271" lon="-1.6072780452683635"><ele>53.2</ele><time>2026-04-16T18:01:32Z</time></trkpt><trkpt lat="47.26843079090795" lon="-1.6071757860496707"><ele>53.0</ele><time>2026-04-16T18:01:33Z</time></trkpt><trkpt lat="47.26842278619042" lon="-1.6070702578887408"><ele>53.333333333333336</ele><time>2026-04-16T18:01:34Z</time></trkpt><trkpt lat="47.268411512530655" lon="-1.6069564316436713"><ele>53.66666666666667</ele><time>2026-04-16T18:01:35Z</time></trkpt><trkpt lat="47.26841436237773" lon="-1.6068591177478495"><ele>54.0</ele><time>2026-04-16T18:01:36Z</time></trkpt><trkpt lat="47.26841633212498" lon="-1.606756187976903"><ele>54.33333333333333</ele><time>2026-04-16T18:01:37Z</time></trkpt><trkpt lat="47.26840141233733" lon="-1.6066318843528689"><ele>54.666666666666664</ele><time>2026-04-16T18:01:38Z</time></trkpt><trkpt lat="47.2683830978789" lon="-1.6065153758987845"><ele>55.0</ele><time>2026-04-16T18:01:39Z</time></trkpt><trkpt lat="47.26837086030027" lon="-1.6063722129926143"><ele>54.99999999999999</ele><time>2026-04-16T18:01:40Z</time></trkpt><trkpt lat="47.26833779369226" lon="-1.606223601849383"><ele>55.0</ele><time>2026-04-16T18:01:41Z</time></trkpt><trkpt lat="47.26834320001981" lon="-1.6060712188497241"><ele>55.0</ele><time>2026-04-16T18:01:43Z</time></trkpt><trkpt lat="47.26831885059109" lon="-1.605967869983619"><ele>55.0</ele><time>2026-04-16T18:01:44Z</time></trkpt><trkpt lat="47.26830296688458" lon="-1.6058496851489001"><ele>54.99999999999999</ele><time>2026-04-16T18:01:45Z</time></trkpt><trkpt lat="47.26828326941213" lon="-1.605760501699155"><ele>55.0</ele><time>2026-04-16T18:01:46Z</time></trkpt><trkpt lat="47.26826549977741" lon="-1.6056543029859713"><ele>54.8</ele><time>2026-04-16T18:01:47Z</time></trkpt><trkpt lat="47.268253890841514" lon="-1.6055431589499167"><ele>54.6</ele><time>2026-04-16T18:01:48Z</time></trkpt><trkpt lat="47.26822497327557" lon="-1.6053647920504261"><ele>54.400000000000006</ele><time>2026-04-16T18:01:50Z</time></trkpt><trkpt lat="47.268177196427494" lon="-1.6051878500744747"><ele>54.2</ele><time>2026-04-16T18:01:52Z</time></trkpt><trkpt lat="47.26815284699878" lon="-1.6050975769773173"><ele>54.0</ele><time>2026-04-16T18:01:53Z</time></trkpt><trkpt lat="47.26812765937975" lon="-1.6049785539522812"><ele>53.400000000000006</ele><time>2026-04-16T18:01:54Z</time></trkpt><trkpt lat="47.26812388752332" lon="-1.6048540826901838"><ele>52.800000000000004</ele><time>2026-04-16T18:01:55Z</time></trkpt><trkpt lat="47.268103645227164" lon="-1.604658113794033"><ele>52.2</ele><time>2026-04-16T18:01:57Z</time></trkpt><trkpt lat="47.26807766132733" lon="-1.6045421920731706"><ele>51.599999999999994</ele><time>2026-04-16T18:01:58Z</time></trkpt><trkpt lat="47.26804463662884" lon="-1.604382097722594"><ele>51.0</ele><time>2026-04-16T18:02:00Z</time></trkpt><trkpt lat="47.26802942347458" lon="-1.6042702831342857"><ele>51.0</ele><time>2026-04-16T18:02:01Z</time></trkpt><trkpt lat="47.267979383512646" lon="-1.604064255954329"><ele>51.0</ele><time>2026-04-16T18:02:03Z</time></trkpt><trkpt lat="47.26796111096373" lon="-1.603954620660845"><ele>51.0</ele><time>2026-04-16T18:02:04Z</time></trkpt><trkpt lat="47.26795017258009" lon="-1.6038528643563426"><ele>51.0</ele><time>2026-04-16T18:02:05Z</time></trkpt><trkpt lat="47.26793403741649" lon="-1.6037561371937428"><ele>51.0</ele><time>2026-04-16T18:02:06Z</time></trkpt><trkpt lat="47.26790771824053" lon="-1.6036553867176209"><ele>51.0</ele><time>2026-04-16T18:02:07Z</time></trkpt><trkpt lat="47.267897953323335" lon="-1.603540135549012"><ele>51.0</ele><time>2026-04-16T18:02:08Z</time></trkpt><trkpt lat="47.267881063788444" lon="-1.603428823874894"><ele>51.0</ele><time>2026-04-16T18:02:09Z</time></trkpt><trkpt lat="47.26785549898377" lon="-1.6033397242441805"><ele>51.0</ele><time>2026-04-16T18:02:10Z</time></trkpt><trkpt lat="47.26784661416641" lon="-1.603243499995771"><ele>51.0</ele><time>2026-04-16T18:02:11Z</time></trkpt><trkpt lat="47.26782553367993" lon="-1.6031488683089643"><ele>51.0</ele><time>2026-04-16T18:02:12Z</time></trkpt><trkpt lat="47.26778370798311" lon="-1.6030181944385198"><ele>51.0</ele><time>2026-04-16T18:02:13Z</time></trkpt><trkpt lat="47.26776250176808" lon="-1.6029144264772561"><ele>51.0</ele><time>2026-04-16T18:02:14Z</time></trkpt><trkpt lat="47.267745486504644" lon="-1.6028070542976285"><ele>50.5</ele><time>2026-04-16T18:02:15Z</time></trkpt><trkpt lat="47.267729686617166" lon="-1.6026995982989694"><ele>50.0</ele><time>2026-04-16T18:02:16Z</time></trkpt><trkpt lat="47.26771455728194" lon="-1.6025914717480563"><ele>49.5</ele><time>2026-04-16T18:02:17Z</time></trkpt><trkpt lat="47.26764528085223" lon="-1.6025127656772755"><ele>49.0</ele><time>2026-04-16T18:02:18Z</time></trkpt><trkpt lat="47.267600186213166" lon="-1.6024149488672637"><ele>48.5</ele><time>2026-04-16T18:02:19Z</time></trkpt><trkpt lat="47.26757881236008" lon="-1.6023175511524101"><ele>48.0</ele><time>2026-04-16T18:02:20Z</time></trkpt><trkpt lat="47.26756121036342" lon="-1.60221688449532"><ele>48.0</ele><time>2026-04-16T18:02:21Z</time></trkpt><trkpt lat="47.26753313098779" lon="-1.6021197382375618"><ele>48.0</ele><time>2026-04-16T18:02:22Z</time></trkpt><trkpt lat="47.267512469596475" lon="-1.6020049061641115"><ele>48.0</ele><time>2026-04-16T18:02:23Z</time></trkpt><trkpt lat="47.26744151678613" lon="-1.6018541157260553"><ele>48.0</ele><time>2026-04-16T18:02:25Z</time></trkpt><trkpt lat="47.267408156811506" lon="-1.6017706319704668"><ele>48.0</ele><time>2026-04-16T18:02:26Z</time></trkpt><trkpt lat="47.26736670830032" lon="-1.6016888245955125"><ele>48.0</ele><time>2026-04-16T18:02:27Z</time></trkpt><trkpt lat="47.26727727339348" lon="-1.6016027424499406"><ele>47.333333333333336</ele><time>2026-04-16T18:02:29Z</time></trkpt><trkpt lat="47.26721985735676" lon="-1.6014746669694795"><ele>46.666666666666664</ele><time>2026-04-16T18:02:31Z</time></trkpt><trkpt lat="47.26726289842954" lon="-1.601388165728749"><ele>46.0</ele><time>2026-04-16T18:02:34Z</time></trkpt><trkpt lat="47.267317925623864" lon="-1.6012866608813416"><ele>45.33333333333333</ele><time>2026-04-16T18:02:36Z</time></trkpt><trkpt lat="47.267325595065266" lon="-1.6011653747424495"><ele>44.666666666666664</ele><time>2026-04-16T18:02:38Z</time></trkpt><trkpt lat="47.267308202616185" lon="-1.6010258160546431"><ele>44.0</ele><time>2026-04-16T18:02:40Z</time></trkpt><trkpt lat="47.267306065230876" lon="-1.6008768696352846"><ele>43.166666666666664</ele><time>2026-04-16T18:02:42Z</time></trkpt><trkpt lat="47.26722333584657" lon="-1.600733036176861"><ele>42.33333333333333</ele><time>2026-04-16T18:02:45Z</time></trkpt><trkpt lat="47.26713553541085" lon="-1.6006396617755299"><ele>41.5</ele><time>2026-04-16T18:02:47Z</time></trkpt><trkpt lat="47.26706965365192" lon="-1.600617533551157"><ele>40.666666666666664</ele><time>2026-04-16T18:02:49Z</time></trkpt><trkpt lat="47.2670035204359" lon="-1.6005752049401407"><ele>39.833333333333336</ele><time>2026-04-16T18:02:50Z</time></trkpt><trkpt lat="47.26696014408699" lon="-1.6004937328413134"><ele>39.0</ele><time>2026-04-16T18:02:52Z</time></trkpt><trkpt lat="47.26688298866829" lon="-1.6004388313755396"><ele>39.0</ele><time>2026-04-16T18:02:54Z</time></trkpt><trkpt lat="47.26679782853207" lon="-1.6003499832019212"><ele>39.0</ele><time>2026-04-16T18:02:56Z</time></trkpt><trkpt lat="47.266742633699685" lon="-1.6002639848753812"><ele>39.0</ele><time>2026-04-16T18:02:57Z</time></trkpt><trkpt lat="47.26668236781588" lon="-1.6002130229040983"><ele>39.0</ele><time>2026-04-16T18:02:58Z</time></trkpt><trkpt lat="47.26663312413475" lon="-1.6001493204399944"><ele>39.0</ele><time>2026-04-16T18:02:59Z</time></trkpt><trkpt lat="47.266550394750446" lon="-1.6000675968840719"><ele>39.0</ele><time>2026-04-16T18:03:00Z</time></trkpt><trkpt lat="47.266504168554455" lon="-1.5999907348319888"><ele>39.0</ele><time>2026-04-16T18:03:01Z</time></trkpt><trkpt lat="47.26644369312307" lon="-1.599936168642342"><ele>39.0</ele><time>2026-04-16T18:03:02Z</time></trkpt><trkpt lat="47.26638573226264" lon="-1.5998524334296582"><ele>39.0</ele><time>2026-04-16T18:03:03Z</time></trkpt><trkpt lat="47.26633133371106" lon="-1.5997563768193124"><ele>39.0</ele><time>2026-04-16T18:03:04Z</time></trkpt><trkpt lat="47.266263691752464" lon="-1.5996649302557107"><ele>39.0</ele><time>2026-04-16T18:03:05Z</time></trkpt><trkpt lat="47.26618884135714" lon="-1.5995759982630606"><ele>39.0</ele><time>2026-04-16T18:03:06Z</time></trkpt><trkpt lat="47.266113446138114" lon="-1.5994786843672388"><ele>39.0</ele><time>2026-04-16T18:03:07Z</time></trkpt><trkpt lat="47.26605502427301" lon="-1.5993925184026354"><ele>39.0</ele><time>2026-04-16T18:03:08Z</time></trkpt><trkpt lat="47.265991531356484" lon="-1.5993124712273472"><ele>39.0</ele><time>2026-04-16T18:03:09Z</time></trkpt><trkpt lat="47.26592795462093" lon="-1.5992405544981352"><ele>39.0</ele><time>2026-04-16T18:03:10Z</time></trkpt><trkpt lat="47.265861192762166" lon="-1.5991707332447163"><ele>39.0</ele><time>2026-04-16T18:03:11Z</time></trkpt><trkpt lat="47.26578064267269" lon="-1.5990905184313646"><ele>39.0</ele><time>2026-04-16T18:03:12Z</time></trkpt><trkpt lat="47.26569095630875" lon="-1.5989841520801176"><ele>39.0</ele><time>2026-04-16T18:03:13Z</time></trkpt><trkpt lat="47.265626876659006" lon="-1.598855322228371"><ele>39.0</ele><time>2026-04-16T18:03:14Z</time></trkpt><trkpt lat="47.26553605873814" lon="-1.5987302642330514"><ele>39.0</ele><time>2026-04-16T18:03:15Z</time></trkpt><trkpt lat="47.26543518253347" lon="-1.5986418351545917"><ele>39.0</ele><time>2026-04-16T18:03:16Z</time></trkpt><trkpt lat="47.26536460690877" lon="-1.5985317807659492"><ele>37.6</ele><time>2026-04-16T18:03:17Z</time></trkpt><trkpt lat="47.26530446675351" lon="-1.5984238218530997"><ele>36.2</ele><time>2026-04-16T18:03:18Z</time></trkpt><trkpt lat="47.26522852671078" lon="-1.598343020306526"><ele>34.800000000000004</ele><time>2026-04-16T18:03:19Z</time></trkpt><trkpt lat="47.2651677998223" lon="-1.5982239134624583"><ele>33.4</ele><time>2026-04-16T18:03:20Z</time></trkpt><trkpt lat="47.26511189252815" lon="-1.5981048066183907"><ele>32.0</ele><time>2026-04-16T18:03:21Z</time></trkpt><trkpt lat="47.26504538212648" lon="-1.5979988593623022"><ele>32.0</ele><time>2026-04-16T18:03:22Z</time></trkpt><trkpt lat="47.26497375876388" lon="-1.5978907328113894"><ele>32.0</ele><time>2026-04-16T18:03:23Z</time></trkpt><trkpt lat="47.26490335077724" lon="-1.5977910719826796"><ele>32.0</ele><time>2026-04-16T18:03:24Z</time></trkpt><trkpt lat="47.264833361885756" lon="-1.5976923331633188"><ele>32.0</ele><time>2026-04-16T18:03:25Z</time></trkpt><trkpt lat="47.26478344765237" lon="-1.5976196620628216"><ele>32.0</ele><time>2026-04-16T18:03:26Z</time></trkpt><trkpt lat="47.26473852065137" lon="-1.5975088533028936"><ele>31.166666666666664</ele><time>2026-04-16T18:03:27Z</time></trkpt><trkpt lat="47.26469795224002" lon="-1.5974127966925478"><ele>30.333333333333332</ele><time>2026-04-16T18:03:28Z</time></trkpt><trkpt lat="47.264631944752544" lon="-1.597373234109578"><ele>29.5</ele><time>2026-04-16T18:03:29Z</time></trkpt><trkpt lat="47.264600177339524" lon="-1.5972917620107505"><ele>28.666666666666664</ele><time>2026-04-16T18:03:30Z</time></trkpt><trkpt lat="47.26456245877525" lon="-1.5972117148354623"><ele>27.833333333333332</ele><time>2026-04-16T18:03:31Z</time></trkpt><trkpt lat="47.26448262114754" lon="-1.597159998492894"><ele>27.0</ele><time>2026-04-16T18:03:32Z</time></trkpt><trkpt lat="47.26434616376391" lon="-1.5970791131272883"><ele>27.0</ele><time>2026-04-16T18:03:34Z</time></trkpt><trkpt lat="47.264273869849056" lon="-1.597034437583384"><ele>27.0</ele><time>2026-04-16T18:03:35Z</time></trkpt><trkpt lat="47.26419770349768" lon="-1.597012215840787"><ele>27.0</ele><time>2026-04-16T18:03:36Z</time></trkpt><trkpt lat="47.264153323413026" lon="-1.5969327743233157"><ele>27.0</ele><time>2026-04-16T18:03:37Z</time></trkpt><trkpt lat="47.26411002233608" lon="-1.59685535805904"><ele>27.0</ele><time>2026-04-16T18:03:38Z</time></trkpt><trkpt lat="47.26406290616449" lon="-1.5967832546355203"><ele>27.0</ele><time>2026-04-16T18:03:39Z</time></trkpt><trkpt lat="47.26400322280815" lon="-1.5967114676954086"><ele>27.0</ele><time>2026-04-16T18:03:40Z</time></trkpt><trkpt lat="47.26394011816508" lon="-1.5966614234036545"><ele>26.333333333333336</ele><time>2026-04-16T18:03:41Z</time></trkpt><trkpt lat="47.263810584054035" lon="-1.5965582249037966"><ele>25.666666666666668</ele><time>2026-04-16T18:03:42Z</time></trkpt><trkpt lat="47.26399508774957" lon="-1.5962952375426853"><ele>25.0</ele><time>2026-04-16T18:03:43Z</time></trkpt><trkpt lat="47.26394006055525" lon="-1.5962079819306696"><ele>25.28571428571429</ele><time>2026-04-16T18:03:44Z</time></trkpt><trkpt lat="47.263897103301495" lon="-1.5961184632047973"><ele>25.571428571428573</ele><time>2026-04-16T18:03:45Z</time></trkpt><trkpt lat="47.26383260455659" lon="-1.5960589516922794"><ele>25.857142857142858</ele><time>2026-04-16T18:03:46Z</time></trkpt><trkpt lat="47.26378193595192" lon="-1.595989884810146"><ele>26.142857142857146</ele><time>2026-04-16T18:03:47Z</time></trkpt><trkpt lat="47.26373646412721" lon="-1.595921823756393"><ele>26.428571428571427</ele><time>2026-04-16T18:03:48Z</time></trkpt><trkpt lat="47.263691830492824" lon="-1.5958478953704198"><ele>26.714285714285715</ele><time>2026-04-16T18:03:49Z</time></trkpt><trkpt lat="47.263663206293494" lon="-1.5957539342358669"><ele>27.0</ele><time>2026-04-16T18:03:50Z</time></trkpt><trkpt lat="47.263627667024046" lon="-1.5956670138999778"><ele>27.0</ele><time>2026-04-16T18:03:51Z</time></trkpt><trkpt lat="47.2635583067753" lon="-1.5955416206285316"><ele>27.000000000000004</ele><time>2026-04-16T18:03:53Z</time></trkpt><trkpt lat="47.26347130262038" lon="-1.5954005531981543"><ele>27.000000000000004</ele><time>2026-04-16T18:03:55Z</time></trkpt><trkpt lat="47.263376754752606" lon="-1.5953103639200286"><ele>27.0</ele><time>2026-04-16T18:03:57Z</time></trkpt><trkpt lat="47.26333593488416" lon="-1.5952047519400672"><ele>27.0</ele><time>2026-04-16T18:03:59Z</time></trkpt><trkpt lat="47.26329205562106" lon="-1.5951324999347283"><ele>27.0</ele><time>2026-04-16T18:04:00Z</time></trkpt><trkpt lat="47.26322998762807" lon="-1.594995036722715"><ele>27.000000000000004</ele><time>2026-04-16T18:04:02Z</time></trkpt><trkpt lat="47.2631645249643" lon="-1.5948527958258938"><ele>27.000000000000004</ele><time>2026-04-16T18:04:04Z</time></trkpt><trkpt lat="47.26310819857499" lon="-1.5947421547040295"><ele>27.0</ele><time>2026-04-16T18:04:06Z</time></trkpt><trkpt lat="47.26304680113426" lon="-1.5946265682592937"><ele>27.0</ele><time>2026-04-16T18:04:08Z</time></trkpt><trkpt lat="47.263002125590354" lon="-1.5944831538960285"><ele>27.400000000000002</ele><time>2026-04-16T18:04:10Z</time></trkpt><trkpt lat="47.262943033172995" lon="-1.5943650528803415"><ele>27.800000000000004</ele><time>2026-04-16T18:04:12Z</time></trkpt><trkpt lat="47.26287710950455" lon="-1.594256255777175"><ele>28.2</ele><time>2026-04-16T18:04:14Z</time></trkpt><trkpt lat="47.26281822663477" lon="-1.5941405855134074"><ele>28.6</ele><time>2026-04-16T18:04:16Z</time></trkpt><trkpt lat="47.2627881775119" lon="-1.5940022841110768"><ele>29.0</ele><time>2026-04-16T18:04:18Z</time></trkpt><trkpt lat="47.262782268270165" lon="-1.5938896313324513"><ele>28.999999999999996</ele><time>2026-04-16T18:04:20Z</time></trkpt><trkpt lat="47.262738053730935" lon="-1.5937970113024058"><ele>29.0</ele><time>2026-04-16T18:04:22Z</time></trkpt><trkpt lat="47.262662909969" lon="-1.593726184220606"><ele>29.0</ele><time>2026-04-16T18:04:24Z</time></trkpt><trkpt lat="47.26257498380473" lon="-1.5936896391227782"><ele>29.0</ele><time>2026-04-16T18:04:26Z</time></trkpt><trkpt lat="47.26249363743445" lon="-1.593629289419943"><ele>28.999999999999996</ele><time>2026-04-16T18:04:28Z</time></trkpt><trkpt lat="47.262450219176024" lon="-1.5935544390246212"><ele>29.0</ele><time>2026-04-16T18:04:30Z</time></trkpt><trkpt lat="47.26240147840908" lon="-1.5934326499715386"><ele>29.0</ele><time>2026-04-16T18:04:32Z</time></trkpt><trkpt lat="47.26235219281843" lon="-1.5932861343040998"><ele>29.0</ele><time>2026-04-16T18:04:34Z</time></trkpt><trkpt lat="47.2622907953777" lon="-1.5931745711728866"><ele>29.0</ele><time>2026-04-16T18:04:36Z</time></trkpt><trkpt lat="47.262250897518605" lon="-1.5930705517545278"><ele>29.0</ele><time>2026-04-16T18:04:38Z</time></trkpt><trkpt lat="47.262194780676865" lon="-1.5929484274253183"><ele>29.0</ele><time>2026-04-16T18:04:41Z</time></trkpt><trkpt lat="47.26214302242478" lon="-1.592823620887094"><ele>29.0</ele><time>2026-04-16T18:04:43Z</time></trkpt><trkpt lat="47.262094197838806" lon="-1.592640392483764"><ele>29.0</ele><time>2026-04-16T18:04:46Z</time></trkpt><trkpt lat="47.26207412318071" lon="-1.5925218723729182"><ele>29.0</ele><time>2026-04-16T18:04:48Z</time></trkpt><trkpt lat="47.262052916965686" lon="-1.592411482708149"><ele>29.0</ele><time>2026-04-16T18:04:50Z</time></trkpt><trkpt lat="47.262025801508926" lon="-1.5922627877458857"><ele>29.0</ele><time>2026-04-16T18:04:52Z</time></trkpt><trkpt lat="47.261990304148995" lon="-1.5921720955535696"><ele>29.0</ele><time>2026-04-16T18:04:54Z</time></trkpt><trkpt lat="47.26196499080142" lon="-1.5920347999796196"><ele>29.0</ele><time>2026-04-16T18:04:56Z</time></trkpt><trkpt lat="47.26193096027454" lon="-1.5919478796437307"><ele>29.0</ele><time>2026-04-16T18:04:58Z</time></trkpt><trkpt lat="47.26188926030626" lon="-1.5918561816230339"><ele>29.0</ele><time>2026-04-16T18:05:00Z</time></trkpt><trkpt lat="47.26181474518707" lon="-1.5917254239335579"><ele>29.0</ele><time>2026-04-16T18:05:02Z</time></trkpt><trkpt lat="47.2617413616248" lon="-1.5916038863375703"><ele>29.4</ele><time>2026-04-16T18:05:04Z</time></trkpt><trkpt lat="47.26168633443048" lon="-1.591480588541917"><ele>29.799999999999997</ele><time>2026-04-16T18:05:06Z</time></trkpt><trkpt lat="47.2616290441223" lon="-1.5913290437325753"><ele>30.200000000000003</ele><time>2026-04-16T18:05:08Z</time></trkpt><trkpt lat="47.26159668997606" lon="-1.5912312269225635"><ele>30.6</ele><time>2026-04-16T18:05:09Z</time></trkpt><trkpt lat="47.26153051485052" lon="-1.5910744853332555"><ele>31.0</ele><time>2026-04-16T18:05:11Z</time></trkpt><trkpt lat="47.261557169302606" lon="-1.5909407939776694"><ele>31.0</ele><time>2026-04-16T18:05:12Z</time></trkpt><trkpt lat="47.26148386955937" lon="-1.590829230846456"><ele>31.0</ele><time>2026-04-16T18:05:14Z</time></trkpt><trkpt lat="47.261431608393096" lon="-1.5906615089639933"><ele>31.0</ele><time>2026-04-16T18:05:16Z</time></trkpt><trkpt lat="47.2614123300158" lon="-1.5905444975957186"><ele>31.0</ele><time>2026-04-16T18:05:17Z</time></trkpt><trkpt lat="47.26138835777273" lon="-1.5904556494221003"><ele>31.0</ele><time>2026-04-16T18:05:18Z</time></trkpt><trkpt lat="47.26132570304652" lon="-1.5902941301479845"><ele>31.166666666666668</ele><time>2026-04-16T18:05:20Z</time></trkpt><trkpt lat="47.26131086707791" lon="-1.5901485364898946"><ele>31.333333333333336</ele><time>2026-04-16T18:05:21Z</time></trkpt><trkpt lat="47.26130458065053" lon="-1.5900496300324705"><ele>31.5</ele><time>2026-04-16T18:05:22Z</time></trkpt><trkpt lat="47.26128777493467" lon="-1.5898855123683715"><ele>31.666666666666664</ele><time>2026-04-16T18:05:24Z</time></trkpt><trkpt lat="47.26128731393" lon="-1.5897498093560243"><ele>31.833333333333332</ele><time>2026-04-16T18:05:26Z</time></trkpt><trkpt lat="47.26126158148726" lon="-1.5896454546615384"><ele>32.0</ele><time>2026-04-16T18:05:28Z</time></trkpt><trkpt lat="47.261224114380084" lon="-1.589478487150361"><ele>32.5</ele><time>2026-04-16T18:05:30Z</time></trkpt><trkpt lat="47.26120814685454" lon="-1.5893289539977808"><ele>33.0</ele><time>2026-04-16T18:05:32Z</time></trkpt><trkpt lat="47.261173529594444" lon="-1.5892168879523771"><ele>33.5</ele><time>2026-04-16T18:05:34Z</time></trkpt><trkpt lat="47.26115563423117" lon="-1.5890890639290112"><ele>34.0</ele><time>2026-04-16T18:05:36Z</time></trkpt><trkpt lat="47.26113530811598" lon="-1.5889732260271803"><ele>34.5</ele><time>2026-04-16T18:05:38Z</time></trkpt><trkpt lat="47.2611144790866" lon="-1.5888538677260176"><ele>35.0</ele><time>2026-04-16T18:05:40Z</time></trkpt><trkpt lat="47.26110194814136" lon="-1.5887304022923006"><ele>35.666666666666664</ele><time>2026-04-16T18:05:42Z</time></trkpt><trkpt lat="47.261088034182094" lon="-1.5886001475170148"><ele>36.33333333333333</ele><time>2026-04-16T18:05:44Z</time></trkpt><trkpt lat="47.26106984545221" lon="-1.5884799510255347"><ele>37.0</ele><time>2026-04-16T18:05:46Z</time></trkpt><trkpt lat="47.26105861370196" lon="-1.5883689746275436"><ele>37.666666666666664</ele><time>2026-04-16T18:05:48Z</time></trkpt><trkpt lat="47.26104884878477" lon="-1.5882548969253787"><ele>38.333333333333336</ele><time>2026-04-16T18:05:50Z</time></trkpt><trkpt lat="47.26103849713435" lon="-1.5881409868612775"><ele>39.0</ele><time>2026-04-16T18:05:52Z</time></trkpt><trkpt lat="47.26102470890363" lon="-1.5880304295584446"><ele>39.0</ele><time>2026-04-16T18:05:54Z</time></trkpt><trkpt lat="47.261007987006806" lon="-1.5879200398936755"><ele>39.0</ele><time>2026-04-16T18:05:56Z</time></trkpt><trkpt lat="47.2609955398806" lon="-1.587797328831244"><ele>39.0</ele><time>2026-04-16T18:05:58Z</time></trkpt><trkpt lat="47.260986948429846" lon="-1.5876747015878443"><ele>39.0</ele><time>2026-04-16T18:06:00Z</time></trkpt><trkpt lat="47.2609693883427" lon="-1.5875490568593027"><ele>39.0</ele><time>2026-04-16T18:06:02Z</time></trkpt><trkpt lat="47.26095086433669" lon="-1.587418802084017"><ele>39.0</ele><time>2026-04-16T18:06:04Z</time></trkpt><trkpt lat="47.26093204696407" lon="-1.5872913971558094"><ele>39.0</ele><time>2026-04-16T18:06:06Z</time></trkpt><trkpt lat="47.260920479937695" lon="-1.5871742181494712"><ele>39.0</ele><time>2026-04-16T18:06:08Z</time></trkpt><trkpt lat="47.26090882909229" lon="-1.5870577096953866"><ele>39.0</ele><time>2026-04-16T18:06:10Z</time></trkpt><trkpt lat="47.26088829342952" lon="-1.5869432128980634"><ele>39.0</ele><time>2026-04-16T18:06:12Z</time></trkpt><trkpt lat="47.260881420268916" lon="-1.5868504252299542"><ele>39.0</ele><time>2026-04-16T18:06:14Z</time></trkpt><trkpt lat="47.26087567866524" lon="-1.5867339167758698"><ele>39.0</ele><time>2026-04-16T18:06:16Z</time></trkpt><trkpt lat="47.260876768312656" lon="-1.586614809931802"><ele>39.0</ele><time>2026-04-16T18:06:18Z</time></trkpt><trkpt lat="47.260897220156394" lon="-1.5864885784700387"><ele>39.0</ele><time>2026-04-16T18:06:20Z</time></trkpt><trkpt lat="47.26093539972534" lon="-1.586385983975219"><ele>39.0</ele><time>2026-04-16T18:06:22Z</time></trkpt><trkpt lat="47.2609566897594" lon="-1.5862392168506851"><ele>39.0</ele><time>2026-04-16T18:06:24Z</time></trkpt><trkpt lat="47.260997174351715" lon="-1.586134945975231"><ele>39.0</ele><time>2026-04-16T18:06:26Z</time></trkpt><trkpt lat="47.26106230173936" lon="-1.5860076248660553"><ele>39.0</ele><time>2026-04-16T18:06:28Z</time></trkpt><trkpt lat="47.261111796877586" lon="-1.58587837591915"><ele>39.0</ele><time>2026-04-16T18:06:30Z</time></trkpt><trkpt lat="47.26117667280813" lon="-1.5857515577241645"><ele>39.0</ele><time>2026-04-16T18:06:32Z</time></trkpt><trkpt lat="47.261234717487596" lon="-1.5856305230423673"><ele>39.0</ele><time>2026-04-16T18:06:34Z</time></trkpt><trkpt lat="47.261324864856206" lon="-1.5856044553235038"><ele>39.0</ele><time>2026-04-16T18:06:36Z</time></trkpt><trkpt lat="47.261414509310626" lon="-1.5856224764153226"><ele>39.0</ele><time>2026-04-16T18:06:39Z</time></trkpt><trkpt lat="47.261405708312296" lon="-1.585516026245044"><ele>39.0</ele><time>2026-04-16T18:06:41Z</time></trkpt><trkpt lat="47.26137582682749" lon="-1.585405804218338"><ele>39.0</ele><time>2026-04-16T18:06:43Z</time></trkpt><trkpt lat="47.26132423621347" lon="-1.5853158663973075"><ele>39.0</ele><time>2026-04-16T18:06:45Z</time></trkpt><trkpt lat="47.261225916489266" lon="-1.5852225758150083"><ele>39.0</ele><time>2026-04-16T18:06:47Z</time></trkpt><trkpt lat="47.261199220127665" lon="-1.585125094281123"><ele>39.0</ele><time>2026-04-16T18:06:48Z</time></trkpt><trkpt lat="47.26112784822216" lon="-1.5850458014771203"><ele>39.4</ele><time>2026-04-16T18:06:50Z</time></trkpt><trkpt lat="47.26106381048193" lon="-1.5850462205722788"><ele>39.8</ele><time>2026-04-16T18:06:51Z</time></trkpt><trkpt lat="47.260977141603135" lon="-1.5849484875812985"><ele>40.199999999999996</ele><time>2026-04-16T18:06:53Z</time></trkpt><trkpt lat="47.260888922072255" lon="-1.584888221697495"><ele>40.599999999999994</ele><time>2026-04-16T18:06:55.001Z</time></trkpt><trkpt lat="47.260795421942376" lon="-1.5848474018290497"><ele>41.0</ele><time>2026-04-16T18:06:57.001Z</time></trkpt><trkpt lat="47.26069915578445" lon="-1.584875565023706"><ele>41.199999999999996</ele><time>2026-04-16T18:06:59.001Z</time></trkpt><trkpt lat="47.260595513551735" lon="-1.584842624144242"><ele>41.4</ele><time>2026-04-16T18:07:01.001Z</time></trkpt><trkpt lat="47.26052284245124" lon="-1.584755703808353"><ele>41.6</ele><time>2026-04-16T18:07:03.001Z</time></trkpt><trkpt lat="47.260499792217516" lon="-1.5845858864500975"><ele>41.8</ele><time>2026-04-16T18:07:05.001Z</time></trkpt><trkpt lat="47.26045834370633" lon="-1.5844361018404218"><ele>42.0</ele><time>2026-04-16T18:07:07.001Z</time></trkpt><trkpt lat="47.2604342038252" lon="-1.5843295678511116"><ele>42.0</ele><time>2026-04-16T18:07:08.001Z</time></trkpt><trkpt lat="47.260411991781794" lon="-1.5842023305609674"><ele>42.0</ele><time>2026-04-16T18:07:09.001Z</time></trkpt><trkpt lat="47.26039459933271" lon="-1.5840869117542953"><ele>42.0</ele><time>2026-04-16T18:07:10.001Z</time></trkpt><trkpt lat="47.26039049220016" lon="-1.5839932020768372"><ele>42.0</ele><time>2026-04-16T18:07:11.001Z</time></trkpt><trkpt lat="47.260382026477956" lon="-1.583816008643791"><ele>42.0</ele><time>2026-04-16T18:07:13.001Z</time></trkpt><trkpt lat="47.260360484986805" lon="-1.5836378932013955"><ele>41.8</ele><time>2026-04-16T18:07:15.001Z</time></trkpt><trkpt lat="47.26035457574507" lon="-1.5834672376528227"><ele>41.6</ele><time>2026-04-16T18:07:17.001Z</time></trkpt><trkpt lat="47.26033718329599" lon="-1.5833141841009104"><ele>41.4</ele><time>2026-04-16T18:07:19.001Z</time></trkpt><trkpt lat="47.260291795290314" lon="-1.5831886231914005"><ele>41.199999999999996</ele><time>2026-04-16T18:07:21.001Z</time></trkpt><trkpt lat="47.26028580222955" lon="-1.583003466950341"><ele>41.0</ele><time>2026-04-16T18:07:23.001Z</time></trkpt><trkpt lat="47.26027888715943" lon="-1.5828737150892456"><ele>40.83333333333333</ele><time>2026-04-16T18:07:24.001Z</time></trkpt><trkpt lat="47.260229978754424" lon="-1.5827408619239764"><ele>40.666666666666664</ele><time>2026-04-16T18:07:25.001Z</time></trkpt><trkpt lat="47.26021308921953" lon="-1.5825619921102956"><ele>40.5</ele><time>2026-04-16T18:07:27.001Z</time></trkpt><trkpt lat="47.26021572951903" lon="-1.5824551228448585"><ele>40.333333333333336</ele><time>2026-04-16T18:07:28.001Z</time></trkpt><trkpt lat="47.260212460576795" lon="-1.5823309030398562"><ele>40.16666666666667</ele><time>2026-04-16T18:07:29.001Z</time></trkpt><trkpt lat="47.26020671897312" lon="-1.5822319965824319"><ele>40.0</ele><time>2026-04-16T18:07:30.001Z</time></trkpt><trkpt lat="47.26016292352905" lon="-1.5820609219387005"><ele>39.833333333333336</ele><time>2026-04-16T18:07:32.001Z</time></trkpt><trkpt lat="47.26013656244358" lon="-1.581963859499974"><ele>39.66666666666667</ele><time>2026-04-16T18:07:33.001Z</time></trkpt><trkpt lat="47.26011531431904" lon="-1.581833353267593"><ele>39.5</ele><time>2026-04-16T18:07:34.001Z</time></trkpt><trkpt lat="47.26008769594809" lon="-1.58174232579915"><ele>39.333333333333336</ele><time>2026-04-16T18:07:35.001Z</time></trkpt><trkpt lat="47.25999704566529" lon="-1.5816301759347149"><ele>39.166666666666664</ele><time>2026-04-16T18:07:37.001Z</time></trkpt><trkpt lat="47.25994813726028" lon="-1.5815530624255365"><ele>39.0</ele><time>2026-04-16T18:07:38.001Z</time></trkpt><trkpt lat="47.259890427856945" lon="-1.581509644167108"><ele>39.0</ele><time>2026-04-16T18:07:39.001Z</time></trkpt><trkpt lat="47.259785402610206" lon="-1.5814208798125213"><ele>39.0</ele><time>2026-04-16T18:07:41.001Z</time></trkpt><trkpt lat="47.259679078168475" lon="-1.5813423413798038"><ele>39.0</ele><time>2026-04-16T18:07:43.001Z</time></trkpt><trkpt lat="47.2596154595234" lon="-1.581304874272627"><ele>39.0</ele><time>2026-04-16T18:07:44.001Z</time></trkpt><trkpt lat="47.25955456499686" lon="-1.5812420099988405"><ele>39.0</ele><time>2026-04-16T18:07:45.001Z</time></trkpt><trkpt lat="47.25949559830805" lon="-1.581199765206856"><ele>39.0</ele><time>2026-04-16T18:07:46.001Z</time></trkpt><trkpt lat="47.2594325663962" lon="-1.5811469592168752"><ele>39.0</ele><time>2026-04-16T18:07:47.001Z</time></trkpt><trkpt lat="47.25937519226899" lon="-1.581107815729064"><ele>39.0</ele><time>2026-04-16T18:07:48.001Z</time></trkpt><trkpt lat="47.25931148980489" lon="-1.5810713544502677"><ele>39.0</ele><time>2026-04-16T18:07:49.001Z</time></trkpt><trkpt lat="47.259252523116075" lon="-1.5810352284475984"><ele>39.0</ele><time>2026-04-16T18:07:50.001Z</time></trkpt><trkpt lat="47.259194436527096" lon="-1.5809528343394221"><ele>39.0</ele><time>2026-04-16T18:07:51.001Z</time></trkpt><trkpt lat="47.25913291335782" lon="-1.580978482963127"><ele>39.0</ele><time>2026-04-16T18:07:52.001Z</time></trkpt><trkpt lat="47.25907176737418" lon="-1.5809390880182208"><ele>39.0</ele><time>2026-04-16T18:07:53.001Z</time></trkpt><trkpt lat="47.259013638875686" lon="-1.5808712784215628"><ele>39.0</ele><time>2026-04-16T18:07:54.001Z</time></trkpt><trkpt lat="47.25889641795983" lon="-1.5808033011868416"><ele>39.0</ele><time>2026-04-16T18:07:56.001Z</time></trkpt><trkpt lat="47.258836403533124" lon="-1.5807542670532881"><ele>39.0</ele><time>2026-04-16T18:07:57.001Z</time></trkpt><trkpt lat="47.25876905494114" lon="-1.5806289576008734"><ele>39.0</ele><time>2026-04-16T18:07:58.001Z</time></trkpt><trkpt lat="47.25870338272979" lon="-1.580565171317738"><ele>39.0</ele><time>2026-04-16T18:07:59.001Z</time></trkpt><trkpt lat="47.25864433222195" lon="-1.5804940089598116"><ele>39.0</ele><time>2026-04-16T18:08:00.001Z</time></trkpt><trkpt lat="47.25858389870008" lon="-1.5804365929230866"><ele>39.0</ele><time>2026-04-16T18:08:01.001Z</time></trkpt><trkpt lat="47.25851114378055" lon="-1.5803590603187496"><ele>39.0</ele><time>2026-04-16T18:08:02.001Z</time></trkpt><trkpt lat="47.25845288955351" lon="-1.5803029015675003"><ele>39.0</ele><time>2026-04-16T18:08:03.001Z</time></trkpt><trkpt lat="47.258388390808605" lon="-1.5802490059301073"><ele>39.0</ele><time>2026-04-16T18:08:04.001Z</time></trkpt><trkpt lat="47.25831739608874" lon="-1.5801861416563208"><ele>39.0</ele><time>2026-04-16T18:08:05.001Z</time></trkpt><trkpt lat="47.2582557052814" lon="-1.58012797124831"><ele>38.833333333333336</ele><time>2026-04-16T18:08:06.001Z</time></trkpt><trkpt lat="47.258169539316796" lon="-1.5800753328963928"><ele>38.666666666666664</ele><time>2026-04-16T18:08:07.001Z</time></trkpt><trkpt lat="47.25810508248141" lon="-1.5800087805852108"><ele>38.5</ele><time>2026-04-16T18:08:08.001Z</time></trkpt><trkpt lat="47.25804544524034" lon="-1.579951280729454"><ele>38.33333333333333</ele><time>2026-04-16T18:08:09.001Z</time></trkpt><trkpt lat="47.257987735837006" lon="-1.579884057866018"><ele>38.166666666666664</ele><time>2026-04-16T18:08:10.001Z</time></trkpt><trkpt lat="47.257927344224655" lon="-1.5798249654486587"><ele>38.0</ele><time>2026-04-16T18:08:11.001Z</time></trkpt><trkpt lat="47.25785697814753" lon="-1.5797420684262922"><ele>38.0</ele><time>2026-04-16T18:08:12.001Z</time></trkpt><trkpt lat="47.25774692375889" lon="-1.579652214424293"><ele>38.0</ele><time>2026-04-16T18:08:14.001Z</time></trkpt><trkpt lat="47.25768368229946" lon="-1.5795766934767175"><ele>38.0</ele><time>2026-04-16T18:08:15.001Z</time></trkpt><trkpt lat="47.25762278777292" lon="-1.57951525412647"><ele>38.0</ele><time>2026-04-16T18:08:16.001Z</time></trkpt><trkpt lat="47.257566754750215" lon="-1.5794683992877412"><ele>38.0</ele><time>2026-04-16T18:08:17.001Z</time></trkpt><trkpt lat="47.257506446956896" lon="-1.5794170182212994"><ele>38.0</ele><time>2026-04-16T18:08:18.001Z</time></trkpt><trkpt lat="47.25745058157226" lon="-1.5793593507274792"><ele>38.0</ele><time>2026-04-16T18:08:19.001Z</time></trkpt><trkpt lat="47.25739660211583" lon="-1.5793109033271477"><ele>38.0</ele><time>2026-04-16T18:08:20.001Z</time></trkpt><trkpt lat="47.25734035954555" lon="-1.5792651381358311"><ele>38.0</ele><time>2026-04-16T18:08:21.001Z</time></trkpt><trkpt lat="47.257279926023685" lon="-1.5792234800770684"><ele>38.0</ele><time>2026-04-16T18:08:22.001Z</time></trkpt><trkpt lat="47.257168530530535" lon="-1.5791830793037815"><ele>38.0</ele><time>2026-04-16T18:08:24.001Z</time></trkpt><trkpt lat="47.25710859992286" lon="-1.5791410021498604"><ele>38.0</ele><time>2026-04-16T18:08:25.001Z</time></trkpt><trkpt lat="47.257050345695816" lon="-1.5790900401785775"><ele>38.0</ele><time>2026-04-16T18:08:26.001Z</time></trkpt><trkpt lat="47.25694578145375" lon="-1.5790105797365113"><ele>38.166666666666664</ele><time>2026-04-16T18:08:28.001Z</time></trkpt><trkpt lat="47.256851149766945" lon="-1.5789079852416914"><ele>38.33333333333333</ele><time>2026-04-16T18:08:30.001Z</time></trkpt><trkpt lat="47.25679775704374" lon="-1.5788257587715786"><ele>38.5</ele><time>2026-04-16T18:08:31.001Z</time></trkpt><trkpt lat="47.256728019609355" lon="-1.5787603799268406"><ele>38.666666666666664</ele><time>2026-04-16T18:08:32.001Z</time></trkpt><trkpt lat="47.2566721123152" lon="-1.578714530916492"><ele>38.833333333333336</ele><time>2026-04-16T18:08:33.001Z</time></trkpt><trkpt lat="47.25662010260602" lon="-1.5786517504617372"><ele>39.0</ele><time>2026-04-16T18:08:34.001Z</time></trkpt><trkpt lat="47.25656658415427" lon="-1.578600872309486"><ele>39.0</ele><time>2026-04-16T18:08:35.001Z</time></trkpt><trkpt lat="47.256513023793005" lon="-1.5785364992931286"><ele>39.0</ele><time>2026-04-16T18:08:36.001Z</time></trkpt><trkpt lat="47.25640774708917" lon="-1.5784396044924653"><ele>39.0</ele><time>2026-04-16T18:08:38.001Z</time></trkpt><trkpt lat="47.25635389336129" lon="-1.5783866308644212"><ele>39.0</ele><time>2026-04-16T18:08:39.001Z</time></trkpt><trkpt lat="47.25624790419569" lon="-1.5782696194961463"><ele>39.0</ele><time>2026-04-16T18:08:41.001Z</time></trkpt><trkpt lat="47.25611626640638" lon="-1.578168701381961"><ele>39.2</ele><time>2026-04-16T18:08:43.001Z</time></trkpt><trkpt lat="47.256011702164315" lon="-1.57807532698063"><ele>39.4</ele><time>2026-04-16T18:08:45.001Z</time></trkpt><trkpt lat="47.255955962508224" lon="-1.5780288912370595"><ele>39.6</ele><time>2026-04-16T18:08:46.001Z</time></trkpt><trkpt lat="47.255837568125926" lon="-1.5779226087048444"><ele>39.8</ele><time>2026-04-16T18:08:48.001Z</time></trkpt><trkpt lat="47.2557431459867" lon="-1.5778363589212092"><ele>40.0</ele><time>2026-04-16T18:08:50.001Z</time></trkpt><trkpt lat="47.25563879129221" lon="-1.5777698904290587"><ele>39.75</ele><time>2026-04-16T18:08:52.001Z</time></trkpt><trkpt lat="47.255530832379364" lon="-1.5776960458621174"><ele>39.5</ele><time>2026-04-16T18:08:54.001Z</time></trkpt><trkpt lat="47.255433183207415" lon="-1.5776301641031891"><ele>39.25</ele><time>2026-04-16T18:08:56.001Z</time></trkpt><trkpt lat="47.25532132670959" lon="-1.5775669645532757"><ele>39.0</ele><time>2026-04-16T18:08:58.001Z</time></trkpt><trkpt lat="47.25523197562178" lon="-1.5774658788010267"><ele>39.0</ele><time>2026-04-16T18:09:00.001Z</time></trkpt><trkpt lat="47.2551905271106" lon="-1.5773870889112143"><ele>39.0</ele><time>2026-04-16T18:09:01.001Z</time></trkpt><trkpt lat="47.255107713907265" lon="-1.5773296728744892"><ele>39.0</ele><time>2026-04-16T18:09:03.001Z</time></trkpt><trkpt lat="47.25504405335268" lon="-1.5772793814554598"><ele>39.0</ele><time>2026-04-16T18:09:04.001Z</time></trkpt><trkpt lat="47.254976788579725" lon="-1.5772126615062143"><ele>39.0</ele><time>2026-04-16T18:09:05.001Z</time></trkpt><trkpt lat="47.25487675056537" lon="-1.577100846917906"><ele>39.0</ele><time>2026-04-16T18:09:07.001Z</time></trkpt><trkpt lat="47.25482050799509" lon="-1.5770549140885257"><ele>38.833333333333336</ele><time>2026-04-16T18:09:08.001Z</time></trkpt><trkpt lat="47.25477134813299" lon="-1.576985009016075"><ele>38.666666666666664</ele><time>2026-04-16T18:09:09.001Z</time></trkpt><trkpt lat="47.25467101675203" lon="-1.5768773853793525"><ele>38.5</ele><time>2026-04-16T18:09:11.001Z</time></trkpt><trkpt lat="47.254596082537674" lon="-1.5768577717259311"><ele>38.33333333333333</ele><time>2026-04-16T18:09:13.001Z</time></trkpt><trkpt lat="47.254526889926986" lon="-1.576805636288204"><ele>38.166666666666664</ele><time>2026-04-16T18:09:14.001Z</time></trkpt><trkpt lat="47.25445908033033" lon="-1.5767619665726802"><ele>38.0</ele><time>2026-04-16T18:09:15.001Z</time></trkpt><trkpt lat="47.2543897619911" lon="-1.5767221525326154"><ele>38.0</ele><time>2026-04-16T18:09:16.001Z</time></trkpt><trkpt lat="47.25428335373034" lon="-1.5766408480718515"><ele>38.0</ele><time>2026-04-16T18:09:18.001Z</time></trkpt><trkpt lat="47.254151338755385" lon="-1.5765900537386317"><ele>38.0</ele><time>2026-04-16T18:09:20.001Z</time></trkpt><trkpt lat="47.254081433682934" lon="-1.576578486712255"><ele>38.0</ele><time>2026-04-16T18:09:21.001Z</time></trkpt><trkpt lat="47.25400913976808" lon="-1.57653280533997"><ele>38.0</ele><time>2026-04-16T18:09:23.001Z</time></trkpt><trkpt lat="47.253946149765746" lon="-1.5765170473620076"><ele>37.83333333333333</ele><time>2026-04-16T18:09:24.001Z</time></trkpt><trkpt lat="47.253864719576434" lon="-1.5764422807857175"><ele>37.666666666666664</ele><time>2026-04-16T18:09:25.001Z</time></trkpt><trkpt lat="47.253800975202815" lon="-1.576420320199408"><ele>37.5</ele><time>2026-04-16T18:09:26.001Z</time></trkpt><trkpt lat="47.25373417143454" lon="-1.57640087418405"><ele>37.333333333333336</ele><time>2026-04-16T18:09:27.001Z</time></trkpt><trkpt lat="47.25361099936743" lon="-1.57638084143547"><ele>37.16666666666667</ele><time>2026-04-16T18:09:29.001Z</time></trkpt><trkpt lat="47.253543692684964" lon="-1.5763609763249533"><ele>37.0</ele><time>2026-04-16T18:09:30.001Z</time></trkpt><trkpt lat="47.25346381314774" lon="-1.5763545222595112"><ele>37.0</ele><time>2026-04-16T18:09:31.001Z</time></trkpt><trkpt lat="47.25337974265893" lon="-1.5763358306154387"><ele>37.0</ele><time>2026-04-16T18:09:32.001Z</time></trkpt><trkpt lat="47.25331427999516" lon="-1.576313953848161"><ele>37.0</ele><time>2026-04-16T18:09:33.001Z</time></trkpt><trkpt lat="47.25320623726328" lon="-1.5763579588398116"><ele>37.0</ele><time>2026-04-16T18:09:35.001Z</time></trkpt><trkpt lat="47.25311466497113" lon="-1.5763297956451552"><ele>37.0</ele><time>2026-04-16T18:09:37.001Z</time></trkpt><trkpt lat="47.25309333302756" lon="-1.5762133710101025"><ele>37.0</ele><time>2026-04-16T18:09:39.001Z</time></trkpt><trkpt lat="47.25308084399183" lon="-1.5761168953045979"><ele>37.0</ele><time>2026-04-16T18:09:40.001Z</time></trkpt><trkpt lat="47.2530651698329" lon="-1.5760256163790598"><ele>37.0</ele><time>2026-04-16T18:09:41.001Z</time></trkpt><trkpt lat="47.25300863389601" lon="-1.575863510371722"><ele>37.0</ele><time>2026-04-16T18:09:43.001Z</time></trkpt><trkpt lat="47.252975483468965" lon="-1.5757817029967678"><ele>37.0</ele><time>2026-04-16T18:09:44.001Z</time></trkpt><trkpt lat="47.25291471467097" lon="-1.5756251290455232"><ele>37.0</ele><time>2026-04-16T18:09:46.001Z</time></trkpt><trkpt lat="47.25288780876179" lon="-1.5755330957486997"><ele>37.0</ele><time>2026-04-16T18:09:47.001Z</time></trkpt><trkpt lat="47.2528510960259" lon="-1.5754204429700742"><ele>37.16666666666667</ele><time>2026-04-16T18:09:48.001Z</time></trkpt><trkpt lat="47.25281476047565" lon="-1.575318854303635"><ele>37.333333333333336</ele><time>2026-04-16T18:09:49.001Z</time></trkpt><trkpt lat="47.2527725995027" lon="-1.5752242226168283"><ele>37.5</ele><time>2026-04-16T18:09:50.001Z</time></trkpt><trkpt lat="47.25273777269502" lon="-1.5751360449954634"><ele>37.666666666666664</ele><time>2026-04-16T18:09:51.001Z</time></trkpt><trkpt lat="47.25269104358484" lon="-1.575037222357071"><ele>37.83333333333333</ele><time>2026-04-16T18:09:52.001Z</time></trkpt><trkpt lat="47.25266522732307" lon="-1.5749477874502307"><ele>38.0</ele><time>2026-04-16T18:09:53.001Z</time></trkpt><trkpt lat="47.25259616044094" lon="-1.5747872740044955"><ele>38.0</ele><time>2026-04-16T18:09:55.001Z</time></trkpt><trkpt lat="47.252559573433594" lon="-1.5746909659370543"><ele>38.0</ele><time>2026-04-16T18:09:56.001Z</time></trkpt><trkpt lat="47.252527680292026" lon="-1.57460035756377"><ele>38.0</ele><time>2026-04-16T18:09:57.001Z</time></trkpt><trkpt lat="47.25246401973744" lon="-1.574491979555762"><ele>38.0</ele><time>2026-04-16T18:09:59.001Z</time></trkpt><trkpt lat="47.252429947301046" lon="-1.5743787400439142"><ele>38.0</ele><time>2026-04-16T18:10:00.001Z</time></trkpt><trkpt lat="47.252399311444954" lon="-1.5742900595083593"><ele>38.0</ele><time>2026-04-16T18:10:01.001Z</time></trkpt><trkpt lat="47.252364610365824" lon="-1.5741715393975135"><ele>38.0</ele><time>2026-04-16T18:10:02.001Z</time></trkpt><trkpt lat="47.252330998934106" lon="-1.5740690287217256"><ele>38.0</ele><time>2026-04-16T18:10:03.001Z</time></trkpt><trkpt lat="47.25229709413578" lon="-1.573960734532749"><ele>38.0</ele><time>2026-04-16T18:10:04.001Z</time></trkpt><trkpt lat="47.25225510080089" lon="-1.573872976006543"><ele>38.0</ele><time>2026-04-16T18:10:05.001Z</time></trkpt><trkpt lat="47.252211514904396" lon="-1.5737676154836768"><ele>38.0</ele><time>2026-04-16T18:10:06.001Z</time></trkpt><trkpt lat="47.2521742573448" lon="-1.5736538730576388"><ele>38.0</ele><time>2026-04-16T18:10:07.001Z</time></trkpt><trkpt lat="47.25214177747001" lon="-1.5735593251898639"><ele>38.0</ele><time>2026-04-16T18:10:08.001Z</time></trkpt><trkpt lat="47.2521023825251" lon="-1.5734700579210867"><ele>38.0</ele><time>2026-04-16T18:10:09.001Z</time></trkpt><trkpt lat="47.252038093327776" lon="-1.5733177587404599"><ele>38.0</ele><time>2026-04-16T18:10:11.001Z</time></trkpt><trkpt lat="47.25200226069172" lon="-1.5732268150910484"><ele>38.0</ele><time>2026-04-16T18:10:12.001Z</time></trkpt><trkpt lat="47.25196973890741" lon="-1.5731294173761952"><ele>38.0</ele><time>2026-04-16T18:10:13.001Z</time></trkpt><trkpt lat="47.25193281662394" lon="-1.5730383899077522"><ele>38.0</ele><time>2026-04-16T18:10:14.001Z</time></trkpt><trkpt lat="47.251898283182875" lon="-1.5729540679618463"><ele>38.0</ele><time>2026-04-16T18:10:15.001Z</time></trkpt><trkpt lat="47.251860438890056" lon="-1.5728697460159407"><ele>38.0</ele><time>2026-04-16T18:10:16.001Z</time></trkpt><trkpt lat="47.25181676917453" lon="-1.572790620850001"><ele>38.0</ele><time>2026-04-16T18:10:17.001Z</time></trkpt><trkpt lat="47.25177645222028" lon="-1.5727166086449964"><ele>38.0</ele><time>2026-04-16T18:10:18.001Z</time></trkpt><trkpt lat="47.251734081699745" lon="-1.5726034529521806"><ele>38.0</ele><time>2026-04-16T18:10:19.001Z</time></trkpt><trkpt lat="47.251689364246324" lon="-1.5725213103010993"><ele>38.0</ele><time>2026-04-16T18:10:20.001Z</time></trkpt><trkpt lat="47.25164489825" lon="-1.572426008062039"><ele>38.0</ele><time>2026-04-16T18:10:21.001Z</time></trkpt><trkpt lat="47.251613591841654" lon="-1.5723344776794057"><ele>37.857142857142854</ele><time>2026-04-16T18:10:22.001Z</time></trkpt><trkpt lat="47.251573316796915" lon="-1.572216795758877"><ele>37.714285714285715</ele><time>2026-04-16T18:10:23.001Z</time></trkpt><trkpt lat="47.251535891599254" lon="-1.5721288695946076"><ele>37.57142857142857</ele><time>2026-04-16T18:10:24.001Z</time></trkpt><trkpt lat="47.251493898264364" lon="-1.572042703630004"><ele>37.42857142857143</ele><time>2026-04-16T18:10:25.001Z</time></trkpt><trkpt lat="47.251456975980894" lon="-1.5719518437996245"><ele>37.285714285714285</ele><time>2026-04-16T18:10:26.001Z</time></trkpt><trkpt lat="47.25141833540727" lon="-1.5718673542156554"><ele>37.142857142857146</ele><time>2026-04-16T18:10:27.001Z</time></trkpt><trkpt lat="47.251381790309445" lon="-1.5717871394023035"><ele>37.0</ele><time>2026-04-16T18:10:28.001Z</time></trkpt><trkpt lat="47.25130505398591" lon="-1.57164330594388"><ele>37.0</ele><time>2026-04-16T18:10:30.001Z</time></trkpt><trkpt lat="47.251230119771556" lon="-1.5714600775405498"><ele>37.0</ele><time>2026-04-16T18:10:32.001Z</time></trkpt><trkpt lat="47.25118879698892" lon="-1.5713625960066648"><ele>37.0</ele><time>2026-04-16T18:10:33.001Z</time></trkpt><trkpt lat="47.251150617419974" lon="-1.571229659022364"><ele>37.0</ele><time>2026-04-16T18:10:34.001Z</time></trkpt><trkpt lat="47.25111147393216" lon="-1.571152796970281"><ele>37.0</ele><time>2026-04-16T18:10:35.001Z</time></trkpt><trkpt lat="47.251075934662715" lon="-1.571069983766946"><ele>37.0</ele><time>2026-04-16T18:10:36.001Z</time></trkpt><trkpt lat="47.251030295199946" lon="-1.5709921158864824"><ele>37.0</ele><time>2026-04-16T18:10:37.001Z</time></trkpt><trkpt lat="47.25098939151247" lon="-1.5708989929422466"><ele>37.0</ele><time>2026-04-16T18:10:38.001Z</time></trkpt><trkpt lat="47.250946853353874" lon="-1.5708088874831523"><ele>37.0</ele><time>2026-04-16T18:10:39.001Z</time></trkpt><trkpt lat="47.2509064944901" lon="-1.5707209613188828"><ele>37.0</ele><time>2026-04-16T18:10:40.001Z</time></trkpt><trkpt lat="47.25086756054987" lon="-1.5706340409829938"><ele>37.0</ele><time>2026-04-16T18:10:41.001Z</time></trkpt><trkpt lat="47.2508340748467" lon="-1.5705160237863385"><ele>37.0</ele><time>2026-04-16T18:10:42.001Z</time></trkpt><trkpt lat="47.25080100823869" lon="-1.5704338811352574"><ele>36.800000000000004</ele><time>2026-04-16T18:10:43.001Z</time></trkpt><trkpt lat="47.25074430466373" lon="-1.5703575219973644"><ele>36.6</ele><time>2026-04-16T18:10:45.001Z</time></trkpt><trkpt lat="47.250664969950215" lon="-1.570263393224748"><ele>36.400000000000006</ele><time>2026-04-16T18:10:47.001Z</time></trkpt><trkpt lat="47.25060927220364" lon="-1.5701280254885275"><ele>36.2</ele><time>2026-04-16T18:10:49.001Z</time></trkpt><trkpt lat="47.25056048952718" lon="-1.5699995309129078"><ele>36.0</ele><time>2026-04-16T18:10:51.001Z</time></trkpt><trkpt lat="47.25052784201433" lon="-1.5699192322805242"><ele>35.833333333333336</ele><time>2026-04-16T18:10:52.001Z</time></trkpt><trkpt lat="47.2505016066574" lon="-1.5698275342598276"><ele>35.666666666666664</ele><time>2026-04-16T18:10:53.001Z</time></trkpt><trkpt lat="47.250455129004315" lon="-1.5697322320207672"><ele>35.5</ele><time>2026-04-16T18:10:54.001Z</time></trkpt><trkpt lat="47.250416069335536" lon="-1.56964003108588"><ele>35.33333333333333</ele><time>2026-04-16T18:10:55.001Z</time></trkpt><trkpt lat="47.250347882553235" lon="-1.5694854687913968"><ele>35.166666666666664</ele><time>2026-04-16T18:10:57.001Z</time></trkpt><trkpt lat="47.250299016057745" lon="-1.5693643502905679"><ele>35.0</ele><time>2026-04-16T18:10:58.001Z</time></trkpt><trkpt lat="47.25025597498496" lon="-1.5692693833276343"><ele>35.0</ele><time>2026-04-16T18:10:59.001Z</time></trkpt><trkpt lat="47.25021733441134" lon="-1.5691734943553517"><ele>35.0</ele><time>2026-04-16T18:11:00.001Z</time></trkpt><trkpt lat="47.25016842600633" lon="-1.5690888371333191"><ele>35.0</ele><time>2026-04-16T18:11:01.001Z</time></trkpt><trkpt lat="47.250112560621695" lon="-1.5690159145757268"><ele>35.0</ele><time>2026-04-16T18:11:02.001Z</time></trkpt><trkpt lat="47.25004014097829" lon="-1.5689435787513561"><ele>35.0</ele><time>2026-04-16T18:11:03.001Z</time></trkpt><trkpt lat="47.249970193996326" lon="-1.5688579995199747"><ele>35.0</ele><time>2026-04-16T18:11:04.001Z</time></trkpt><trkpt lat="47.249901713847414" lon="-1.5688012540355034"><ele>35.0</ele><time>2026-04-16T18:11:05.001Z</time></trkpt><trkpt lat="47.249827743551926" lon="-1.5687600988909312"><ele>35.0</ele><time>2026-04-16T18:11:06.001Z</time></trkpt><trkpt lat="47.24974082321604" lon="-1.5687192790224855"><ele>35.0</ele><time>2026-04-16T18:11:07.001Z</time></trkpt><trkpt lat="47.24966794256796" lon="-1.5686994977310007"><ele>35.0</ele><time>2026-04-16T18:11:08.001Z</time></trkpt><trkpt lat="47.24958496172656" lon="-1.5686680655941074"><ele>35.0</ele><time>2026-04-16T18:11:09.001Z</time></trkpt><trkpt lat="47.24950818349351" lon="-1.5686657186612194"><ele>35.0</ele><time>2026-04-16T18:11:10.001Z</time></trkpt><trkpt lat="47.24941330034961" lon="-1.5686406567707365"><ele>35.166666666666664</ele><time>2026-04-16T18:11:11.001Z</time></trkpt><trkpt lat="47.2493221052431" lon="-1.5686086379006212"><ele>35.33333333333333</ele><time>2026-04-16T18:11:12.001Z</time></trkpt><trkpt lat="47.2492472967573" lon="-1.5685861744001215"><ele>35.5</ele><time>2026-04-16T18:11:13.001Z</time></trkpt><trkpt lat="47.2491563950174" lon="-1.568563962356717"><ele>35.666666666666664</ele><time>2026-04-16T18:11:14.001Z</time></trkpt><trkpt lat="47.24906872031023" lon="-1.5685183648034637"><ele>35.833333333333336</ele><time>2026-04-16T18:11:15.001Z</time></trkpt><trkpt lat="47.24899718076666" lon="-1.568490536884934"><ele>36.0</ele><time>2026-04-16T18:11:16.001Z</time></trkpt><trkpt lat="47.248899363956646" lon="-1.5684347134098116"><ele>35.333333333333336</ele><time>2026-04-16T18:11:17.001Z</time></trkpt><trkpt lat="47.2488344880261" lon="-1.5684467833503786"><ele>34.666666666666664</ele><time>2026-04-16T18:11:18.001Z</time></trkpt><trkpt lat="47.24874999844213" lon="-1.5684180334225002"><ele>34.0</ele><time>2026-04-16T18:11:19.001Z</time></trkpt><trkpt lat="47.24865113389422" lon="-1.5684258285924497"><ele>33.33333333333333</ele><time>2026-04-16T18:11:20.001Z</time></trkpt><trkpt lat="47.248563668734626" lon="-1.5683982521310154"><ele>32.666666666666664</ele><time>2026-04-16T18:11:21.001Z</time></trkpt><trkpt lat="47.24848039452662" lon="-1.5683709271266761"><ele>32.0</ele><time>2026-04-16T18:11:22.001Z</time></trkpt><trkpt lat="47.24840114363213" lon="-1.56833153218177"><ele>32.0</ele><time>2026-04-16T18:11:23.001Z</time></trkpt><trkpt lat="47.24831606731494" lon="-1.5682916343226734"><ele>32.0</ele><time>2026-04-16T18:11:24.001Z</time></trkpt><trkpt lat="47.24822591994633" lon="-1.5682453662171663"><ele>32.0</ele><time>2026-04-16T18:11:25.001Z</time></trkpt><trkpt lat="47.24814407066186" lon="-1.5682143531754316"><ele>32.0</ele><time>2026-04-16T18:11:26.001Z</time></trkpt><trkpt lat="47.24803745285352" lon="-1.5681562665864528"><ele>32.0</ele><time>2026-04-16T18:11:27.001Z</time></trkpt><trkpt lat="47.24795849532564" lon="-1.5680937375887931"><ele>31.666666666666664</ele><time>2026-04-16T18:11:28.001Z</time></trkpt><trkpt lat="47.24788557276805" lon="-1.5680559352054895"><ele>31.333333333333332</ele><time>2026-04-16T18:11:29.001Z</time></trkpt><trkpt lat="47.24780724388291" lon="-1.5680041350438891"><ele>31.0</ele><time>2026-04-16T18:11:30.001Z</time></trkpt><trkpt lat="47.247734153687254" lon="-1.567945880816847"><ele>30.666666666666664</ele><time>2026-04-16T18:11:31.001Z</time></trkpt><trkpt lat="47.24766621836205" lon="-1.5678877104088365"><ele>30.333333333333332</ele><time>2026-04-16T18:11:32.001Z</time></trkpt><trkpt lat="47.247599288865224" lon="-1.5678577031954823"><ele>30.0</ele><time>2026-04-16T18:11:33.001Z</time></trkpt><trkpt lat="47.24753185645421" lon="-1.5678007900729476"><ele>29.666666666666668</ele><time>2026-04-16T18:11:34.001Z</time></trkpt><trkpt lat="47.24747192584653" lon="-1.5677380096181925"><ele>29.333333333333336</ele><time>2026-04-16T18:11:35.001Z</time></trkpt><trkpt lat="47.24741622809996" lon="-1.5676841977998313"><ele>29.0</ele><time>2026-04-16T18:11:36.001Z</time></trkpt><trkpt lat="47.24734288644721" lon="-1.5676776599153575"><ele>28.666666666666668</ele><time>2026-04-16T18:11:37.001Z</time></trkpt><trkpt lat="47.24723421507259" lon="-1.5677507501110133"><ele>28.333333333333336</ele><time>2026-04-16T18:11:39.001Z</time></trkpt><trkpt lat="47.24713794891466" lon="-1.5678452141597568"><ele>28.0</ele><time>2026-04-16T18:11:41.001Z</time></trkpt><trkpt lat="47.24714381624688" lon="-1.5679684281363784"><ele>28.000000000000004</ele><time>2026-04-16T18:11:43.001Z</time></trkpt><trkpt lat="47.24712374158879" lon="-1.5680762194111646"><ele>28.0</ele><time>2026-04-16T18:11:45.001Z</time></trkpt><trkpt lat="47.24711976018478" lon="-1.5681970026358665"><ele>28.0</ele><time>2026-04-16T18:11:47.001Z</time></trkpt><trkpt lat="47.24709176462819" lon="-1.5682831686004701"><ele>28.0</ele><time>2026-04-16T18:11:48.001Z</time></trkpt><trkpt lat="47.24707018122752" lon="-1.5684271696969572"><ele>28.000000000000004</ele><time>2026-04-16T18:11:50.001Z</time></trkpt><trkpt lat="47.24704641853203" lon="-1.5685953944936102"><ele>28.0</ele><time>2026-04-16T18:11:52.001Z</time></trkpt><trkpt lat="47.24702843934973" lon="-1.5687136631473606"><ele>28.142857142857142</ele><time>2026-04-16T18:11:54.001Z</time></trkpt><trkpt lat="47.24700605966826" lon="-1.5688321832582064"><ele>28.285714285714285</ele><time>2026-04-16T18:11:56.001Z</time></trkpt><trkpt lat="47.24694478795607" lon="-1.5688953828081198"><ele>28.42857142857143</ele><time>2026-04-16T18:11:59.001Z</time></trkpt><trkpt lat="47.24687241022218" lon="-1.5688881743713923"><ele>28.571428571428573</ele><time>2026-04-16T18:12:02.001Z</time></trkpt><trkpt lat="47.246796889274606" lon="-1.5688878390952654"><ele>28.714285714285715</ele><time>2026-04-16T18:12:05.001Z</time></trkpt><trkpt lat="47.24673389927227" lon="-1.5688787866398402"><ele>28.85714285714286</ele><time>2026-04-16T18:12:07.001Z</time></trkpt><trkpt lat="47.24665816877712" lon="-1.5688545629396744"><ele>29.000000000000004</ele><time>2026-04-16T18:12:10.001Z</time></trkpt><trkpt lat="47.246608212634214" lon="-1.5689163375660486"><ele>29.0</ele><time>2026-04-16T18:12:22.061Z</time></trkpt><trkpt lat="47.246564710556754" lon="-1.5689845662578652"><ele>29.0</ele><time>2026-04-16T18:12:26.053Z</time></trkpt></trkseg></trk></gpx>